<?xml version="1.0" encoding="UTF-8" standalone="no" ?>
<gpx xmlns="http://www.topografix.com/GPX/1/1" xmlns:xsi="http://www.w3.org/2001/XMLSchema-instance" xsi:schemaLocation="http://www.topografix.com/GPX/1/1 http://www.topografix.com/GPX/1/1/gpx.xsd" version="1.1" creator="VisuGPX - https://www.visugpx.com">
  <metadata>
    <name>randosport vtt belbeuf  01.05.2011</name>
    <desc><![CDATA[parcours ronde des roches avec erreur de parcours]]></desc>
  </metadata>
  <trk>
    <name><![CDATA[1304256648-32476]]></name>
    <desc><![CDATA[325:06 - 69.6km]]></desc>
    <trkseg>
      <trkpt lat="49.38886" lon="1.14052">
        <ele>143</ele>
        <time>2011-05-01T06:38:57Z</time>
      </trkpt>
      <trkpt lat="49.38888" lon="1.1405">
        <ele>143.1</ele>
        <time>2011-05-01T06:39:00Z</time>
      </trkpt>
      <trkpt lat="49.38899" lon="1.14044">
        <ele>143.7</ele>
        <time>2011-05-01T06:39:07Z</time>
      </trkpt>
      <trkpt lat="49.38901" lon="1.14041">
        <ele>143.8</ele>
        <time>2011-05-01T06:39:08Z</time>
      </trkpt>
      <trkpt lat="49.38902" lon="1.14022">
        <ele>144</ele>
        <time>2011-05-01T06:39:12Z</time>
      </trkpt>
      <trkpt lat="49.38901" lon="1.14017">
        <ele>143.9</ele>
        <time>2011-05-01T06:39:13Z</time>
      </trkpt>
      <trkpt lat="49.38887" lon="1.13968">
        <ele>144.4</ele>
        <time>2011-05-01T06:39:21Z</time>
      </trkpt>
      <trkpt lat="49.38882" lon="1.13949">
        <ele>144.9</ele>
        <time>2011-05-01T06:39:24Z</time>
      </trkpt>
      <trkpt lat="49.38869" lon="1.13904">
        <ele>145.7</ele>
        <time>2011-05-01T06:39:31Z</time>
      </trkpt>
      <trkpt lat="49.38861" lon="1.13876">
        <ele>145.2</ele>
        <time>2011-05-01T06:39:35Z</time>
      </trkpt>
      <trkpt lat="49.38846" lon="1.13862">
        <ele>144.6</ele>
        <time>2011-05-01T06:39:39Z</time>
      </trkpt>
      <trkpt lat="49.38838" lon="1.13867">
        <ele>144.5</ele>
        <time>2011-05-01T06:39:41Z</time>
      </trkpt>
      <trkpt lat="49.38813" lon="1.1389">
        <ele>143.9</ele>
        <time>2011-05-01T06:39:49Z</time>
      </trkpt>
      <trkpt lat="49.38783" lon="1.13918">
        <ele>143.2</ele>
        <time>2011-05-01T06:39:57Z</time>
      </trkpt>
      <trkpt lat="49.38755" lon="1.13951">
        <ele>142.1</ele>
        <time>2011-05-01T06:40:05Z</time>
      </trkpt>
      <trkpt lat="49.38734" lon="1.1398">
        <ele>142.1</ele>
        <time>2011-05-01T06:40:12Z</time>
      </trkpt>
      <trkpt lat="49.38712" lon="1.14001">
        <ele>142.4</ele>
        <time>2011-05-01T06:40:19Z</time>
      </trkpt>
      <trkpt lat="49.38684" lon="1.14013">
        <ele>142.7</ele>
        <time>2011-05-01T06:40:27Z</time>
      </trkpt>
      <trkpt lat="49.38655" lon="1.14022">
        <ele>142.8</ele>
        <time>2011-05-01T06:40:34Z</time>
      </trkpt>
      <trkpt lat="49.38629" lon="1.14034">
        <ele>142.8</ele>
        <time>2011-05-01T06:40:40Z</time>
      </trkpt>
      <trkpt lat="49.38605" lon="1.14048">
        <ele>142.8</ele>
        <time>2011-05-01T06:40:46Z</time>
      </trkpt>
      <trkpt lat="49.38574" lon="1.14071">
        <ele>143</ele>
        <time>2011-05-01T06:40:54Z</time>
      </trkpt>
      <trkpt lat="49.38541" lon="1.14101">
        <ele>143.2</ele>
        <time>2011-05-01T06:41:02Z</time>
      </trkpt>
      <trkpt lat="49.38519" lon="1.14135">
        <ele>143.6</ele>
        <time>2011-05-01T06:41:08Z</time>
      </trkpt>
      <trkpt lat="49.38492" lon="1.1418">
        <ele>143.9</ele>
        <time>2011-05-01T06:41:15Z</time>
      </trkpt>
      <trkpt lat="49.38452" lon="1.14238">
        <ele>143.2</ele>
        <time>2011-05-01T06:41:24Z</time>
      </trkpt>
      <trkpt lat="49.3844" lon="1.14256">
        <ele>142.7</ele>
        <time>2011-05-01T06:41:27Z</time>
      </trkpt>
      <trkpt lat="49.3844" lon="1.14279">
        <ele>142.3</ele>
        <time>2011-05-01T06:41:31Z</time>
      </trkpt>
      <trkpt lat="49.38451" lon="1.14281">
        <ele>142.6</ele>
        <time>2011-05-01T06:41:34Z</time>
      </trkpt>
      <trkpt lat="49.38477" lon="1.14279">
        <ele>143.3</ele>
        <time>2011-05-01T06:41:41Z</time>
      </trkpt>
      <trkpt lat="49.3849" lon="1.14294">
        <ele>143.2</ele>
        <time>2011-05-01T06:41:45Z</time>
      </trkpt>
      <trkpt lat="49.38503" lon="1.14312">
        <ele>142.8</ele>
        <time>2011-05-01T06:41:49Z</time>
      </trkpt>
      <trkpt lat="49.38519" lon="1.14322">
        <ele>142.8</ele>
        <time>2011-05-01T06:41:53Z</time>
      </trkpt>
      <trkpt lat="49.38538" lon="1.14324">
        <ele>143.1</ele>
        <time>2011-05-01T06:41:57Z</time>
      </trkpt>
      <trkpt lat="49.38544" lon="1.14326">
        <ele>143.2</ele>
        <time>2011-05-01T06:41:59Z</time>
      </trkpt>
      <trkpt lat="49.38552" lon="1.14328">
        <ele>143.3</ele>
        <time>2011-05-01T06:42:03Z</time>
      </trkpt>
      <trkpt lat="49.38573" lon="1.14326">
        <ele>143.8</ele>
        <time>2011-05-01T06:42:10Z</time>
      </trkpt>
      <trkpt lat="49.38589" lon="1.14324">
        <ele>144</ele>
        <time>2011-05-01T06:42:15Z</time>
      </trkpt>
      <trkpt lat="49.38609" lon="1.14322">
        <ele>144</ele>
        <time>2011-05-01T06:42:20Z</time>
      </trkpt>
      <trkpt lat="49.38634" lon="1.1432">
        <ele>144</ele>
        <time>2011-05-01T06:42:26Z</time>
      </trkpt>
      <trkpt lat="49.38646" lon="1.14321">
        <ele>144</ele>
        <time>2011-05-01T06:42:29Z</time>
      </trkpt>
      <trkpt lat="49.38662" lon="1.14326">
        <ele>144</ele>
        <time>2011-05-01T06:42:33Z</time>
      </trkpt>
      <trkpt lat="49.38669" lon="1.14328">
        <ele>144.1</ele>
        <time>2011-05-01T06:42:35Z</time>
      </trkpt>
      <trkpt lat="49.3867" lon="1.14342">
        <ele>144.1</ele>
        <time>2011-05-01T06:42:39Z</time>
      </trkpt>
      <trkpt lat="49.38667" lon="1.14347">
        <ele>144</ele>
        <time>2011-05-01T06:42:40Z</time>
      </trkpt>
      <trkpt lat="49.38641" lon="1.14386">
        <ele>144</ele>
        <time>2011-05-01T06:42:47Z</time>
      </trkpt>
      <trkpt lat="49.38634" lon="1.14397">
        <ele>144</ele>
        <time>2011-05-01T06:42:49Z</time>
      </trkpt>
      <trkpt lat="49.3862" lon="1.14437">
        <ele>144</ele>
        <time>2011-05-01T06:42:55Z</time>
      </trkpt>
      <trkpt lat="49.38605" lon="1.14511">
        <ele>143.4</ele>
        <time>2011-05-01T06:43:05Z</time>
      </trkpt>
      <trkpt lat="49.38591" lon="1.14569">
        <ele>142.3</ele>
        <time>2011-05-01T06:43:13Z</time>
      </trkpt>
      <trkpt lat="49.38584" lon="1.14592">
        <ele>141.5</ele>
        <time>2011-05-01T06:43:16Z</time>
      </trkpt>
      <trkpt lat="49.38587" lon="1.1461">
        <ele>140.5</ele>
        <time>2011-05-01T06:43:20Z</time>
      </trkpt>
      <trkpt lat="49.38594" lon="1.14613">
        <ele>140.6</ele>
        <time>2011-05-01T06:43:23Z</time>
      </trkpt>
      <trkpt lat="49.38604" lon="1.14617">
        <ele>140.6</ele>
        <time>2011-05-01T06:43:26Z</time>
      </trkpt>
      <trkpt lat="49.38631" lon="1.14634">
        <ele>140.9</ele>
        <time>2011-05-01T06:43:32Z</time>
      </trkpt>
      <trkpt lat="49.38634" lon="1.14637">
        <ele>141</ele>
        <time>2011-05-01T06:43:33Z</time>
      </trkpt>
      <trkpt lat="49.38649" lon="1.14654">
        <ele>141.2</ele>
        <time>2011-05-01T06:43:37Z</time>
      </trkpt>
      <trkpt lat="49.38657" lon="1.14662">
        <ele>141.5</ele>
        <time>2011-05-01T06:43:40Z</time>
      </trkpt>
      <trkpt lat="49.38665" lon="1.14673">
        <ele>141.3</ele>
        <time>2011-05-01T06:43:44Z</time>
      </trkpt>
      <trkpt lat="49.38662" lon="1.14686">
        <ele>139.6</ele>
        <time>2011-05-01T06:43:50Z</time>
      </trkpt>
      <trkpt lat="49.38644" lon="1.1469">
        <ele>137.6</ele>
        <time>2011-05-01T06:43:54Z</time>
      </trkpt>
      <trkpt lat="49.38631" lon="1.14694">
        <ele>135.8</ele>
        <time>2011-05-01T06:43:58Z</time>
      </trkpt>
      <trkpt lat="49.38633" lon="1.14711">
        <ele>133.6</ele>
        <time>2011-05-01T06:44:04Z</time>
      </trkpt>
      <trkpt lat="49.38636" lon="1.14718">
        <ele>132.9</ele>
        <time>2011-05-01T06:44:06Z</time>
      </trkpt>
      <trkpt lat="49.38645" lon="1.14745">
        <ele>130.3</ele>
        <time>2011-05-01T06:44:13Z</time>
      </trkpt>
      <trkpt lat="49.38649" lon="1.14768">
        <ele>126.7</ele>
        <time>2011-05-01T06:44:17Z</time>
      </trkpt>
      <trkpt lat="49.38654" lon="1.14797">
        <ele>121.8</ele>
        <time>2011-05-01T06:44:24Z</time>
      </trkpt>
      <trkpt lat="49.38659" lon="1.14812">
        <ele>119.8</ele>
        <time>2011-05-01T06:44:30Z</time>
      </trkpt>
      <trkpt lat="49.38661" lon="1.14821">
        <ele>118.3</ele>
        <time>2011-05-01T06:44:35Z</time>
      </trkpt>
      <trkpt lat="49.38662" lon="1.14826">
        <ele>117.5</ele>
        <time>2011-05-01T06:44:37Z</time>
      </trkpt>
      <trkpt lat="49.38665" lon="1.14835">
        <ele>116.4</ele>
        <time>2011-05-01T06:44:41Z</time>
      </trkpt>
      <trkpt lat="49.38668" lon="1.14837">
        <ele>116.8</ele>
        <time>2011-05-01T06:44:46Z</time>
      </trkpt>
      <trkpt lat="49.38674" lon="1.14848">
        <ele>115.7</ele>
        <time>2011-05-01T06:44:51Z</time>
      </trkpt>
      <trkpt lat="49.38679" lon="1.14853">
        <ele>115.8</ele>
        <time>2011-05-01T06:44:55Z</time>
      </trkpt>
      <trkpt lat="49.38684" lon="1.14858">
        <ele>116.1</ele>
        <time>2011-05-01T06:45:09Z</time>
      </trkpt>
      <trkpt lat="49.38687" lon="1.14856">
        <ele>117.1</ele>
        <time>2011-05-01T06:45:23Z</time>
      </trkpt>
      <trkpt lat="49.38692" lon="1.14862">
        <ele>117.3</ele>
        <time>2011-05-01T06:45:30Z</time>
      </trkpt>
      <trkpt lat="49.38701" lon="1.14876">
        <ele>117.2</ele>
        <time>2011-05-01T06:45:37Z</time>
      </trkpt>
      <trkpt lat="49.38709" lon="1.14885">
        <ele>117.8</ele>
        <time>2011-05-01T06:45:43Z</time>
      </trkpt>
      <trkpt lat="49.3871" lon="1.1489">
        <ele>117.4</ele>
        <time>2011-05-01T06:45:49Z</time>
      </trkpt>
      <trkpt lat="49.38711" lon="1.14893">
        <ele>117.1</ele>
        <time>2011-05-01T06:45:55Z</time>
      </trkpt>
      <trkpt lat="49.38709" lon="1.149">
        <ele>115.5</ele>
        <time>2011-05-01T06:46:02Z</time>
      </trkpt>
      <trkpt lat="49.38707" lon="1.14907">
        <ele>113.7</ele>
        <time>2011-05-01T06:46:05Z</time>
      </trkpt>
      <trkpt lat="49.38698" lon="1.14924">
        <ele>108</ele>
        <time>2011-05-01T06:46:12Z</time>
      </trkpt>
      <trkpt lat="49.38693" lon="1.14944">
        <ele>103.2</ele>
        <time>2011-05-01T06:46:17Z</time>
      </trkpt>
      <trkpt lat="49.38692" lon="1.14945">
        <ele>102.8</ele>
        <time>2011-05-01T06:46:18Z</time>
      </trkpt>
      <trkpt lat="49.38692" lon="1.14943">
        <ele>103</ele>
        <time>2011-05-01T06:46:20Z</time>
      </trkpt>
      <trkpt lat="49.38695" lon="1.14941">
        <ele>104.3</ele>
        <time>2011-05-01T06:46:27Z</time>
      </trkpt>
      <trkpt lat="49.38702" lon="1.14941">
        <ele>106.4</ele>
        <time>2011-05-01T06:46:41Z</time>
      </trkpt>
      <trkpt lat="49.38702" lon="1.14946">
        <ele>105.7</ele>
        <time>2011-05-01T06:46:51Z</time>
      </trkpt>
      <trkpt lat="49.38697" lon="1.14943">
        <ele>104.7</ele>
        <time>2011-05-01T06:47:09Z</time>
      </trkpt>
      <trkpt lat="49.38698" lon="1.14944">
        <ele>104.8</ele>
        <time>2011-05-01T06:47:15Z</time>
      </trkpt>
      <trkpt lat="49.38704" lon="1.14952">
        <ele>105.4</ele>
        <time>2011-05-01T06:47:20Z</time>
      </trkpt>
      <trkpt lat="49.38717" lon="1.14974">
        <ele>105.7</ele>
        <time>2011-05-01T06:47:25Z</time>
      </trkpt>
      <trkpt lat="49.38725" lon="1.14995">
        <ele>104.3</ele>
        <time>2011-05-01T06:47:29Z</time>
      </trkpt>
      <trkpt lat="49.38734" lon="1.15018">
        <ele>103.7</ele>
        <time>2011-05-01T06:47:34Z</time>
      </trkpt>
      <trkpt lat="49.38744" lon="1.15048">
        <ele>101.8</ele>
        <time>2011-05-01T06:47:39Z</time>
      </trkpt>
      <trkpt lat="49.38753" lon="1.15072">
        <ele>100.3</ele>
        <time>2011-05-01T06:47:44Z</time>
      </trkpt>
      <trkpt lat="49.38755" lon="1.15077">
        <ele>100.3</ele>
        <time>2011-05-01T06:47:45Z</time>
      </trkpt>
      <trkpt lat="49.38769" lon="1.15109">
        <ele>103</ele>
        <time>2011-05-01T06:47:51Z</time>
      </trkpt>
      <trkpt lat="49.38774" lon="1.15119">
        <ele>104.2</ele>
        <time>2011-05-01T06:47:53Z</time>
      </trkpt>
      <trkpt lat="49.38787" lon="1.15137">
        <ele>107.1</ele>
        <time>2011-05-01T06:47:57Z</time>
      </trkpt>
      <trkpt lat="49.38793" lon="1.15162">
        <ele>106.6</ele>
        <time>2011-05-01T06:48:02Z</time>
      </trkpt>
      <trkpt lat="49.38801" lon="1.15184">
        <ele>107.7</ele>
        <time>2011-05-01T06:48:06Z</time>
      </trkpt>
      <trkpt lat="49.38808" lon="1.15196">
        <ele>109.3</ele>
        <time>2011-05-01T06:48:08Z</time>
      </trkpt>
      <trkpt lat="49.38813" lon="1.15205">
        <ele>110.3</ele>
        <time>2011-05-01T06:48:10Z</time>
      </trkpt>
      <trkpt lat="49.38816" lon="1.15215">
        <ele>110.6</ele>
        <time>2011-05-01T06:48:12Z</time>
      </trkpt>
      <trkpt lat="49.38819" lon="1.15241">
        <ele>110.1</ele>
        <time>2011-05-01T06:48:17Z</time>
      </trkpt>
      <trkpt lat="49.38818" lon="1.15273">
        <ele>111.7</ele>
        <time>2011-05-01T06:48:22Z</time>
      </trkpt>
      <trkpt lat="49.38812" lon="1.15294">
        <ele>112.5</ele>
        <time>2011-05-01T06:48:26Z</time>
      </trkpt>
      <trkpt lat="49.38808" lon="1.15303">
        <ele>112.2</ele>
        <time>2011-05-01T06:48:28Z</time>
      </trkpt>
      <trkpt lat="49.388" lon="1.15327">
        <ele>112.2</ele>
        <time>2011-05-01T06:48:32Z</time>
      </trkpt>
      <trkpt lat="49.38793" lon="1.15364">
        <ele>111.9</ele>
        <time>2011-05-01T06:48:39Z</time>
      </trkpt>
      <trkpt lat="49.38792" lon="1.15391">
        <ele>113</ele>
        <time>2011-05-01T06:48:44Z</time>
      </trkpt>
      <trkpt lat="49.38797" lon="1.15422">
        <ele>116.1</ele>
        <time>2011-05-01T06:48:50Z</time>
      </trkpt>
      <trkpt lat="49.388" lon="1.15447">
        <ele>117.7</ele>
        <time>2011-05-01T06:48:55Z</time>
      </trkpt>
      <trkpt lat="49.38803" lon="1.15476">
        <ele>119.2</ele>
        <time>2011-05-01T06:49:00Z</time>
      </trkpt>
      <trkpt lat="49.38807" lon="1.15508">
        <ele>120.7</ele>
        <time>2011-05-01T06:49:06Z</time>
      </trkpt>
      <trkpt lat="49.38809" lon="1.15548">
        <ele>119.3</ele>
        <time>2011-05-01T06:49:12Z</time>
      </trkpt>
      <trkpt lat="49.38809" lon="1.15576">
        <ele>118.1</ele>
        <time>2011-05-01T06:49:16Z</time>
      </trkpt>
      <trkpt lat="49.38808" lon="1.15593">
        <ele>117.4</ele>
        <time>2011-05-01T06:49:19Z</time>
      </trkpt>
      <trkpt lat="49.38808" lon="1.15603">
        <ele>117.3</ele>
        <time>2011-05-01T06:49:21Z</time>
      </trkpt>
      <trkpt lat="49.38817" lon="1.15625">
        <ele>119.7</ele>
        <time>2011-05-01T06:49:27Z</time>
      </trkpt>
      <trkpt lat="49.38823" lon="1.15645">
        <ele>121.3</ele>
        <time>2011-05-01T06:49:31Z</time>
      </trkpt>
      <trkpt lat="49.38827" lon="1.15664">
        <ele>122</ele>
        <time>2011-05-01T06:49:34Z</time>
      </trkpt>
      <trkpt lat="49.38831" lon="1.15684">
        <ele>123.2</ele>
        <time>2011-05-01T06:49:37Z</time>
      </trkpt>
      <trkpt lat="49.38834" lon="1.15715">
        <ele>123.6</ele>
        <time>2011-05-01T06:49:41Z</time>
      </trkpt>
      <trkpt lat="49.38836" lon="1.15728">
        <ele>124</ele>
        <time>2011-05-01T06:49:43Z</time>
      </trkpt>
      <trkpt lat="49.3884" lon="1.15746">
        <ele>124.5</ele>
        <time>2011-05-01T06:49:46Z</time>
      </trkpt>
      <trkpt lat="49.38848" lon="1.15774">
        <ele>125.3</ele>
        <time>2011-05-01T06:49:51Z</time>
      </trkpt>
      <trkpt lat="49.38854" lon="1.15805">
        <ele>125.4</ele>
        <time>2011-05-01T06:49:56Z</time>
      </trkpt>
      <trkpt lat="49.38854" lon="1.15818">
        <ele>124.8</ele>
        <time>2011-05-01T06:49:58Z</time>
      </trkpt>
      <trkpt lat="49.38853" lon="1.15844">
        <ele>124.3</ele>
        <time>2011-05-01T06:50:02Z</time>
      </trkpt>
      <trkpt lat="49.38849" lon="1.15878">
        <ele>124.7</ele>
        <time>2011-05-01T06:50:07Z</time>
      </trkpt>
      <trkpt lat="49.38839" lon="1.15903">
        <ele>123.6</ele>
        <time>2011-05-01T06:50:11Z</time>
      </trkpt>
      <trkpt lat="49.38834" lon="1.15934">
        <ele>123.5</ele>
        <time>2011-05-01T06:50:17Z</time>
      </trkpt>
      <trkpt lat="49.38839" lon="1.15975">
        <ele>125.4</ele>
        <time>2011-05-01T06:50:24Z</time>
      </trkpt>
      <trkpt lat="49.38842" lon="1.16005">
        <ele>126.1</ele>
        <time>2011-05-01T06:50:30Z</time>
      </trkpt>
      <trkpt lat="49.38839" lon="1.16035">
        <ele>122.8</ele>
        <time>2011-05-01T06:50:35Z</time>
      </trkpt>
      <trkpt lat="49.38833" lon="1.16036">
        <ele>121.6</ele>
        <time>2011-05-01T06:50:39Z</time>
      </trkpt>
      <trkpt lat="49.38832" lon="1.16034">
        <ele>121.5</ele>
        <time>2011-05-01T06:50:43Z</time>
      </trkpt>
      <trkpt lat="49.38826" lon="1.16026">
        <ele>120.9</ele>
        <time>2011-05-01T06:50:50Z</time>
      </trkpt>
      <trkpt lat="49.38814" lon="1.16016">
        <ele>118.7</ele>
        <time>2011-05-01T06:50:57Z</time>
      </trkpt>
      <trkpt lat="49.38806" lon="1.16011">
        <ele>116.7</ele>
        <time>2011-05-01T06:51:02Z</time>
      </trkpt>
      <trkpt lat="49.388" lon="1.16004">
        <ele>115.4</ele>
        <time>2011-05-01T06:51:09Z</time>
      </trkpt>
      <trkpt lat="49.38797" lon="1.15998">
        <ele>114.4</ele>
        <time>2011-05-01T06:51:16Z</time>
      </trkpt>
      <trkpt lat="49.38792" lon="1.15996">
        <ele>112.9</ele>
        <time>2011-05-01T06:51:21Z</time>
      </trkpt>
      <trkpt lat="49.38785" lon="1.15991">
        <ele>110.8</ele>
        <time>2011-05-01T06:51:29Z</time>
      </trkpt>
      <trkpt lat="49.38782" lon="1.15988">
        <ele>109.6</ele>
        <time>2011-05-01T06:51:36Z</time>
      </trkpt>
      <trkpt lat="49.38774" lon="1.15983">
        <ele>107.3</ele>
        <time>2011-05-01T06:51:44Z</time>
      </trkpt>
      <trkpt lat="49.38771" lon="1.15981">
        <ele>106.3</ele>
        <time>2011-05-01T06:51:51Z</time>
      </trkpt>
      <trkpt lat="49.38768" lon="1.15975">
        <ele>105.1</ele>
        <time>2011-05-01T06:51:59Z</time>
      </trkpt>
      <trkpt lat="49.38765" lon="1.1597">
        <ele>103.9</ele>
        <time>2011-05-01T06:52:07Z</time>
      </trkpt>
      <trkpt lat="49.38762" lon="1.15967">
        <ele>102.8</ele>
        <time>2011-05-01T06:52:12Z</time>
      </trkpt>
      <trkpt lat="49.38753" lon="1.1596">
        <ele>100</ele>
        <time>2011-05-01T06:52:20Z</time>
      </trkpt>
      <trkpt lat="49.38745" lon="1.15952">
        <ele>99.9</ele>
        <time>2011-05-01T06:52:28Z</time>
      </trkpt>
      <trkpt lat="49.38744" lon="1.15951">
        <ele>100.1</ele>
        <time>2011-05-01T06:52:29Z</time>
      </trkpt>
      <trkpt lat="49.38737" lon="1.15942">
        <ele>101.3</ele>
        <time>2011-05-01T06:52:37Z</time>
      </trkpt>
      <trkpt lat="49.38737" lon="1.15941">
        <ele>101.4</ele>
        <time>2011-05-01T06:52:38Z</time>
      </trkpt>
      <trkpt lat="49.38731" lon="1.15933">
        <ele>102.3</ele>
        <time>2011-05-01T06:52:45Z</time>
      </trkpt>
      <trkpt lat="49.38726" lon="1.1593">
        <ele>103.5</ele>
        <time>2011-05-01T06:52:51Z</time>
      </trkpt>
      <trkpt lat="49.38722" lon="1.15926">
        <ele>104.3</ele>
        <time>2011-05-01T06:52:57Z</time>
      </trkpt>
      <trkpt lat="49.38717" lon="1.15918">
        <ele>105</ele>
        <time>2011-05-01T06:53:04Z</time>
      </trkpt>
      <trkpt lat="49.38713" lon="1.15912">
        <ele>105.7</ele>
        <time>2011-05-01T06:53:12Z</time>
      </trkpt>
      <trkpt lat="49.3871" lon="1.15907">
        <ele>106.6</ele>
        <time>2011-05-01T06:53:18Z</time>
      </trkpt>
      <trkpt lat="49.38704" lon="1.15898">
        <ele>107.9</ele>
        <time>2011-05-01T06:53:26Z</time>
      </trkpt>
      <trkpt lat="49.38698" lon="1.15889">
        <ele>109.4</ele>
        <time>2011-05-01T06:53:34Z</time>
      </trkpt>
      <trkpt lat="49.3869" lon="1.15874">
        <ele>111.4</ele>
        <time>2011-05-01T06:53:44Z</time>
      </trkpt>
      <trkpt lat="49.38686" lon="1.1587">
        <ele>112.5</ele>
        <time>2011-05-01T06:53:51Z</time>
      </trkpt>
      <trkpt lat="49.38681" lon="1.1586">
        <ele>113.9</ele>
        <time>2011-05-01T06:54:00Z</time>
      </trkpt>
      <trkpt lat="49.38676" lon="1.1585">
        <ele>115.3</ele>
        <time>2011-05-01T06:54:09Z</time>
      </trkpt>
      <trkpt lat="49.3867" lon="1.15847">
        <ele>116.8</ele>
        <time>2011-05-01T06:54:16Z</time>
      </trkpt>
      <trkpt lat="49.38666" lon="1.1585">
        <ele>118.1</ele>
        <time>2011-05-01T06:54:24Z</time>
      </trkpt>
      <trkpt lat="49.38661" lon="1.15855">
        <ele>119.5</ele>
        <time>2011-05-01T06:54:32Z</time>
      </trkpt>
      <trkpt lat="49.38655" lon="1.15857">
        <ele>121.1</ele>
        <time>2011-05-01T06:54:40Z</time>
      </trkpt>
      <trkpt lat="49.3865" lon="1.15856">
        <ele>122.5</ele>
        <time>2011-05-01T06:54:47Z</time>
      </trkpt>
      <trkpt lat="49.38641" lon="1.15855">
        <ele>124.9</ele>
        <time>2011-05-01T06:54:55Z</time>
      </trkpt>
      <trkpt lat="49.38629" lon="1.15851">
        <ele>128.2</ele>
        <time>2011-05-01T06:55:04Z</time>
      </trkpt>
      <trkpt lat="49.38628" lon="1.1585">
        <ele>128.7</ele>
        <time>2011-05-01T06:55:09Z</time>
      </trkpt>
      <trkpt lat="49.38623" lon="1.15849">
        <ele>130.1</ele>
        <time>2011-05-01T06:55:14Z</time>
      </trkpt>
      <trkpt lat="49.38608" lon="1.15848">
        <ele>134.4</ele>
        <time>2011-05-01T06:55:21Z</time>
      </trkpt>
      <trkpt lat="49.38599" lon="1.15845">
        <ele>136.8</ele>
        <time>2011-05-01T06:55:24Z</time>
      </trkpt>
      <trkpt lat="49.3857" lon="1.15832">
        <ele>141.3</ele>
        <time>2011-05-01T06:55:34Z</time>
      </trkpt>
      <trkpt lat="49.38543" lon="1.15821">
        <ele>141.6</ele>
        <time>2011-05-01T06:55:42Z</time>
      </trkpt>
      <trkpt lat="49.38511" lon="1.15807">
        <ele>142.5</ele>
        <time>2011-05-01T06:55:51Z</time>
      </trkpt>
      <trkpt lat="49.38476" lon="1.15794">
        <ele>143.6</ele>
        <time>2011-05-01T06:56:01Z</time>
      </trkpt>
      <trkpt lat="49.38432" lon="1.15782">
        <ele>145.1</ele>
        <time>2011-05-01T06:56:13Z</time>
      </trkpt>
      <trkpt lat="49.38393" lon="1.15772">
        <ele>146.3</ele>
        <time>2011-05-01T06:56:23Z</time>
      </trkpt>
      <trkpt lat="49.3836" lon="1.15764">
        <ele>147.3</ele>
        <time>2011-05-01T06:56:31Z</time>
      </trkpt>
      <trkpt lat="49.38351" lon="1.15761">
        <ele>147.5</ele>
        <time>2011-05-01T06:56:33Z</time>
      </trkpt>
      <trkpt lat="49.38338" lon="1.15757">
        <ele>147.9</ele>
        <time>2011-05-01T06:56:36Z</time>
      </trkpt>
      <trkpt lat="49.38308" lon="1.1576">
        <ele>149</ele>
        <time>2011-05-01T06:56:42Z</time>
      </trkpt>
      <trkpt lat="49.38273" lon="1.1577">
        <ele>150.1</ele>
        <time>2011-05-01T06:56:49Z</time>
      </trkpt>
      <trkpt lat="49.38239" lon="1.15773">
        <ele>150.7</ele>
        <time>2011-05-01T06:56:56Z</time>
      </trkpt>
      <trkpt lat="49.3821" lon="1.15773">
        <ele>150.7</ele>
        <time>2011-05-01T06:57:02Z</time>
      </trkpt>
      <trkpt lat="49.38165" lon="1.15765">
        <ele>150.8</ele>
        <time>2011-05-01T06:57:10Z</time>
      </trkpt>
      <trkpt lat="49.38132" lon="1.15764">
        <ele>149.7</ele>
        <time>2011-05-01T06:57:16Z</time>
      </trkpt>
      <trkpt lat="49.38104" lon="1.15767">
        <ele>148.8</ele>
        <time>2011-05-01T06:57:22Z</time>
      </trkpt>
      <trkpt lat="49.38066" lon="1.15771">
        <ele>148.2</ele>
        <time>2011-05-01T06:57:30Z</time>
      </trkpt>
      <trkpt lat="49.38042" lon="1.15773">
        <ele>148.1</ele>
        <time>2011-05-01T06:57:35Z</time>
      </trkpt>
      <trkpt lat="49.38024" lon="1.15776">
        <ele>148.1</ele>
        <time>2011-05-01T06:57:39Z</time>
      </trkpt>
      <trkpt lat="49.38005" lon="1.15793">
        <ele>148</ele>
        <time>2011-05-01T06:57:43Z</time>
      </trkpt>
      <trkpt lat="49.37964" lon="1.15847">
        <ele>148.2</ele>
        <time>2011-05-01T06:57:52Z</time>
      </trkpt>
      <trkpt lat="49.37942" lon="1.15877">
        <ele>148.3</ele>
        <time>2011-05-01T06:57:57Z</time>
      </trkpt>
      <trkpt lat="49.37931" lon="1.15896">
        <ele>148.3</ele>
        <time>2011-05-01T06:58:00Z</time>
      </trkpt>
      <trkpt lat="49.37905" lon="1.15929">
        <ele>148</ele>
        <time>2011-05-01T06:58:06Z</time>
      </trkpt>
      <trkpt lat="49.3788" lon="1.15961">
        <ele>147.7</ele>
        <time>2011-05-01T06:58:12Z</time>
      </trkpt>
      <trkpt lat="49.37852" lon="1.15993">
        <ele>146.9</ele>
        <time>2011-05-01T06:58:19Z</time>
      </trkpt>
      <trkpt lat="49.37832" lon="1.16019">
        <ele>146.3</ele>
        <time>2011-05-01T06:58:25Z</time>
      </trkpt>
      <trkpt lat="49.37816" lon="1.16039">
        <ele>146.8</ele>
        <time>2011-05-01T06:58:29Z</time>
      </trkpt>
      <trkpt lat="49.37807" lon="1.16052">
        <ele>147.1</ele>
        <time>2011-05-01T06:58:32Z</time>
      </trkpt>
      <trkpt lat="49.37798" lon="1.16064">
        <ele>147.3</ele>
        <time>2011-05-01T06:58:35Z</time>
      </trkpt>
      <trkpt lat="49.37782" lon="1.16098">
        <ele>147.6</ele>
        <time>2011-05-01T06:58:41Z</time>
      </trkpt>
      <trkpt lat="49.37776" lon="1.16116">
        <ele>147.7</ele>
        <time>2011-05-01T06:58:44Z</time>
      </trkpt>
      <trkpt lat="49.37762" lon="1.16125">
        <ele>147.9</ele>
        <time>2011-05-01T06:58:49Z</time>
      </trkpt>
      <trkpt lat="49.37756" lon="1.16106">
        <ele>147.9</ele>
        <time>2011-05-01T06:58:52Z</time>
      </trkpt>
      <trkpt lat="49.37742" lon="1.16038">
        <ele>148</ele>
        <time>2011-05-01T06:59:01Z</time>
      </trkpt>
      <trkpt lat="49.37722" lon="1.1595">
        <ele>146</ele>
        <time>2011-05-01T06:59:11Z</time>
      </trkpt>
      <trkpt lat="49.37702" lon="1.15861">
        <ele>144.3</ele>
        <time>2011-05-01T06:59:20Z</time>
      </trkpt>
      <trkpt lat="49.37682" lon="1.15777">
        <ele>143.2</ele>
        <time>2011-05-01T06:59:28Z</time>
      </trkpt>
      <trkpt lat="49.37664" lon="1.15701">
        <ele>141.9</ele>
        <time>2011-05-01T06:59:35Z</time>
      </trkpt>
      <trkpt lat="49.37649" lon="1.1568">
        <ele>142.1</ele>
        <time>2011-05-01T06:59:39Z</time>
      </trkpt>
      <trkpt lat="49.3764" lon="1.15679">
        <ele>142.5</ele>
        <time>2011-05-01T06:59:41Z</time>
      </trkpt>
      <trkpt lat="49.37597" lon="1.15663">
        <ele>144.3</ele>
        <time>2011-05-01T06:59:50Z</time>
      </trkpt>
      <trkpt lat="49.37562" lon="1.1565">
        <ele>145.6</ele>
        <time>2011-05-01T06:59:57Z</time>
      </trkpt>
      <trkpt lat="49.37553" lon="1.15647">
        <ele>145.8</ele>
        <time>2011-05-01T06:59:59Z</time>
      </trkpt>
      <trkpt lat="49.37527" lon="1.15639">
        <ele>146.4</ele>
        <time>2011-05-01T07:00:06Z</time>
      </trkpt>
      <trkpt lat="49.37504" lon="1.15637">
        <ele>146.8</ele>
        <time>2011-05-01T07:00:12Z</time>
      </trkpt>
      <trkpt lat="49.3748" lon="1.15641">
        <ele>147.4</ele>
        <time>2011-05-01T07:00:18Z</time>
      </trkpt>
      <trkpt lat="49.37459" lon="1.15649">
        <ele>147.9</ele>
        <time>2011-05-01T07:00:23Z</time>
      </trkpt>
      <trkpt lat="49.37427" lon="1.1567">
        <ele>148.9</ele>
        <time>2011-05-01T07:00:30Z</time>
      </trkpt>
      <trkpt lat="49.37395" lon="1.15689">
        <ele>149.3</ele>
        <time>2011-05-01T07:00:37Z</time>
      </trkpt>
      <trkpt lat="49.37368" lon="1.15709">
        <ele>149.5</ele>
        <time>2011-05-01T07:00:43Z</time>
      </trkpt>
      <trkpt lat="49.37364" lon="1.15712">
        <ele>149.5</ele>
        <time>2011-05-01T07:00:44Z</time>
      </trkpt>
      <trkpt lat="49.37336" lon="1.15736">
        <ele>149.8</ele>
        <time>2011-05-01T07:00:50Z</time>
      </trkpt>
      <trkpt lat="49.37332" lon="1.1574">
        <ele>149.9</ele>
        <time>2011-05-01T07:00:51Z</time>
      </trkpt>
      <trkpt lat="49.37315" lon="1.15737">
        <ele>150.2</ele>
        <time>2011-05-01T07:00:55Z</time>
      </trkpt>
      <trkpt lat="49.37311" lon="1.15724">
        <ele>150.1</ele>
        <time>2011-05-01T07:00:57Z</time>
      </trkpt>
      <trkpt lat="49.37294" lon="1.1568">
        <ele>149.7</ele>
        <time>2011-05-01T07:01:03Z</time>
      </trkpt>
      <trkpt lat="49.37266" lon="1.15642">
        <ele>149.3</ele>
        <time>2011-05-01T07:01:09Z</time>
      </trkpt>
      <trkpt lat="49.37229" lon="1.15611">
        <ele>148.5</ele>
        <time>2011-05-01T07:01:16Z</time>
      </trkpt>
      <trkpt lat="49.37181" lon="1.15589">
        <ele>148</ele>
        <time>2011-05-01T07:01:23Z</time>
      </trkpt>
      <trkpt lat="49.37131" lon="1.15572">
        <ele>146.2</ele>
        <time>2011-05-01T07:01:30Z</time>
      </trkpt>
      <trkpt lat="49.37087" lon="1.15567">
        <ele>144.2</ele>
        <time>2011-05-01T07:01:36Z</time>
      </trkpt>
      <trkpt lat="49.37067" lon="1.15566">
        <ele>143.8</ele>
        <time>2011-05-01T07:01:39Z</time>
      </trkpt>
      <trkpt lat="49.37048" lon="1.15564">
        <ele>143.5</ele>
        <time>2011-05-01T07:01:43Z</time>
      </trkpt>
      <trkpt lat="49.37045" lon="1.15555">
        <ele>143.4</ele>
        <time>2011-05-01T07:01:46Z</time>
      </trkpt>
      <trkpt lat="49.37066" lon="1.15531">
        <ele>143.7</ele>
        <time>2011-05-01T07:01:53Z</time>
      </trkpt>
      <trkpt lat="49.37094" lon="1.155">
        <ele>144.4</ele>
        <time>2011-05-01T07:02:00Z</time>
      </trkpt>
      <trkpt lat="49.37127" lon="1.15461">
        <ele>145.3</ele>
        <time>2011-05-01T07:02:08Z</time>
      </trkpt>
      <trkpt lat="49.37157" lon="1.15425">
        <ele>145.2</ele>
        <time>2011-05-01T07:02:15Z</time>
      </trkpt>
      <trkpt lat="49.37196" lon="1.15376">
        <ele>145.5</ele>
        <time>2011-05-01T07:02:24Z</time>
      </trkpt>
      <trkpt lat="49.37234" lon="1.15331">
        <ele>145.8</ele>
        <time>2011-05-01T07:02:32Z</time>
      </trkpt>
      <trkpt lat="49.37248" lon="1.15311">
        <ele>145.7</ele>
        <time>2011-05-01T07:02:35Z</time>
      </trkpt>
      <trkpt lat="49.37251" lon="1.15287">
        <ele>145.4</ele>
        <time>2011-05-01T07:02:38Z</time>
      </trkpt>
      <trkpt lat="49.3724" lon="1.15263">
        <ele>144.9</ele>
        <time>2011-05-01T07:02:41Z</time>
      </trkpt>
      <trkpt lat="49.37235" lon="1.15255">
        <ele>144.7</ele>
        <time>2011-05-01T07:02:42Z</time>
      </trkpt>
      <trkpt lat="49.37197" lon="1.15205">
        <ele>143.5</ele>
        <time>2011-05-01T07:02:49Z</time>
      </trkpt>
      <trkpt lat="49.37163" lon="1.15165">
        <ele>143</ele>
        <time>2011-05-01T07:02:55Z</time>
      </trkpt>
      <trkpt lat="49.37122" lon="1.15117">
        <ele>142.7</ele>
        <time>2011-05-01T07:03:02Z</time>
      </trkpt>
      <trkpt lat="49.3709" lon="1.15074">
        <ele>142</ele>
        <time>2011-05-01T07:03:08Z</time>
      </trkpt>
      <trkpt lat="49.37062" lon="1.15037">
        <ele>141.2</ele>
        <time>2011-05-01T07:03:13Z</time>
      </trkpt>
      <trkpt lat="49.37041" lon="1.1499">
        <ele>140.5</ele>
        <time>2011-05-01T07:03:18Z</time>
      </trkpt>
      <trkpt lat="49.37029" lon="1.14948">
        <ele>140.2</ele>
        <time>2011-05-01T07:03:22Z</time>
      </trkpt>
      <trkpt lat="49.37031" lon="1.14904">
        <ele>140.3</ele>
        <time>2011-05-01T07:03:26Z</time>
      </trkpt>
      <trkpt lat="49.37037" lon="1.14872">
        <ele>141.1</ele>
        <time>2011-05-01T07:03:29Z</time>
      </trkpt>
      <trkpt lat="49.37039" lon="1.1484">
        <ele>141.8</ele>
        <time>2011-05-01T07:03:32Z</time>
      </trkpt>
      <trkpt lat="49.37028" lon="1.14813">
        <ele>140.5</ele>
        <time>2011-05-01T07:03:36Z</time>
      </trkpt>
      <trkpt lat="49.36994" lon="1.14796">
        <ele>138.3</ele>
        <time>2011-05-01T07:03:41Z</time>
      </trkpt>
      <trkpt lat="49.36985" lon="1.14793">
        <ele>137.7</ele>
        <time>2011-05-01T07:03:42Z</time>
      </trkpt>
      <trkpt lat="49.36941" lon="1.1479">
        <ele>134.9</ele>
        <time>2011-05-01T07:03:47Z</time>
      </trkpt>
      <trkpt lat="49.36906" lon="1.14773">
        <ele>132.4</ele>
        <time>2011-05-01T07:03:51Z</time>
      </trkpt>
      <trkpt lat="49.36875" lon="1.14763">
        <ele>130.9</ele>
        <time>2011-05-01T07:03:55Z</time>
      </trkpt>
      <trkpt lat="49.36864" lon="1.14775">
        <ele>131</ele>
        <time>2011-05-01T07:03:57Z</time>
      </trkpt>
      <trkpt lat="49.36824" lon="1.14827">
        <ele>131.7</ele>
        <time>2011-05-01T07:04:05Z</time>
      </trkpt>
      <trkpt lat="49.36787" lon="1.14869">
        <ele>134.3</ele>
        <time>2011-05-01T07:04:12Z</time>
      </trkpt>
      <trkpt lat="49.36775" lon="1.14882">
        <ele>135.1</ele>
        <time>2011-05-01T07:04:14Z</time>
      </trkpt>
      <trkpt lat="49.36759" lon="1.14909">
        <ele>136.6</ele>
        <time>2011-05-01T07:04:18Z</time>
      </trkpt>
      <trkpt lat="49.3674" lon="1.14953">
        <ele>138.5</ele>
        <time>2011-05-01T07:04:24Z</time>
      </trkpt>
      <trkpt lat="49.36726" lon="1.14985">
        <ele>139</ele>
        <time>2011-05-01T07:04:28Z</time>
      </trkpt>
      <trkpt lat="49.36709" lon="1.15014">
        <ele>138</ele>
        <time>2011-05-01T07:04:32Z</time>
      </trkpt>
      <trkpt lat="49.36683" lon="1.15056">
        <ele>135.1</ele>
        <time>2011-05-01T07:04:38Z</time>
      </trkpt>
      <trkpt lat="49.36676" lon="1.15072">
        <ele>134.2</ele>
        <time>2011-05-01T07:04:40Z</time>
      </trkpt>
      <trkpt lat="49.36669" lon="1.1509">
        <ele>133.2</ele>
        <time>2011-05-01T07:04:42Z</time>
      </trkpt>
      <trkpt lat="49.36659" lon="1.1512">
        <ele>132.1</ele>
        <time>2011-05-01T07:04:46Z</time>
      </trkpt>
      <trkpt lat="49.36659" lon="1.15143">
        <ele>131.8</ele>
        <time>2011-05-01T07:04:50Z</time>
      </trkpt>
      <trkpt lat="49.3666" lon="1.15152">
        <ele>131.8</ele>
        <time>2011-05-01T07:04:54Z</time>
      </trkpt>
      <trkpt lat="49.36664" lon="1.1516">
        <ele>131.9</ele>
        <time>2011-05-01T07:05:01Z</time>
      </trkpt>
      <trkpt lat="49.36662" lon="1.15162">
        <ele>131.8</ele>
        <time>2011-05-01T07:05:11Z</time>
      </trkpt>
      <trkpt lat="49.36659" lon="1.15163">
        <ele>131.6</ele>
        <time>2011-05-01T07:05:13Z</time>
      </trkpt>
      <trkpt lat="49.36656" lon="1.15163">
        <ele>131.4</ele>
        <time>2011-05-01T07:05:15Z</time>
      </trkpt>
      <trkpt lat="49.36648" lon="1.15172">
        <ele>131</ele>
        <time>2011-05-01T07:05:20Z</time>
      </trkpt>
      <trkpt lat="49.36645" lon="1.15169">
        <ele>130.8</ele>
        <time>2011-05-01T07:05:23Z</time>
      </trkpt>
      <trkpt lat="49.36631" lon="1.15163">
        <ele>129.9</ele>
        <time>2011-05-01T07:05:28Z</time>
      </trkpt>
      <trkpt lat="49.36624" lon="1.15162">
        <ele>129.5</ele>
        <time>2011-05-01T07:05:31Z</time>
      </trkpt>
      <trkpt lat="49.36619" lon="1.15173">
        <ele>129.5</ele>
        <time>2011-05-01T07:05:36Z</time>
      </trkpt>
      <trkpt lat="49.36613" lon="1.15189">
        <ele>130.1</ele>
        <time>2011-05-01T07:05:42Z</time>
      </trkpt>
      <trkpt lat="49.36611" lon="1.15193">
        <ele>130.3</ele>
        <time>2011-05-01T07:05:44Z</time>
      </trkpt>
      <trkpt lat="49.36603" lon="1.15207">
        <ele>131.1</ele>
        <time>2011-05-01T07:05:52Z</time>
      </trkpt>
      <trkpt lat="49.36597" lon="1.15226">
        <ele>132.5</ele>
        <time>2011-05-01T07:05:59Z</time>
      </trkpt>
      <trkpt lat="49.3659" lon="1.15242">
        <ele>134</ele>
        <time>2011-05-01T07:06:04Z</time>
      </trkpt>
      <trkpt lat="49.36583" lon="1.15251">
        <ele>135</ele>
        <time>2011-05-01T07:06:09Z</time>
      </trkpt>
      <trkpt lat="49.36574" lon="1.1526">
        <ele>136.3</ele>
        <time>2011-05-01T07:06:15Z</time>
      </trkpt>
      <trkpt lat="49.36569" lon="1.15264">
        <ele>136.8</ele>
        <time>2011-05-01T07:06:19Z</time>
      </trkpt>
      <trkpt lat="49.36561" lon="1.15276">
        <ele>137.9</ele>
        <time>2011-05-01T07:06:26Z</time>
      </trkpt>
      <trkpt lat="49.36557" lon="1.15287">
        <ele>138.7</ele>
        <time>2011-05-01T07:06:31Z</time>
      </trkpt>
      <trkpt lat="49.3655" lon="1.15304">
        <ele>139.7</ele>
        <time>2011-05-01T07:06:36Z</time>
      </trkpt>
      <trkpt lat="49.36544" lon="1.15324">
        <ele>140.6</ele>
        <time>2011-05-01T07:06:42Z</time>
      </trkpt>
      <trkpt lat="49.36539" lon="1.15349">
        <ele>141.3</ele>
        <time>2011-05-01T07:06:49Z</time>
      </trkpt>
      <trkpt lat="49.36536" lon="1.15371">
        <ele>141.6</ele>
        <time>2011-05-01T07:06:56Z</time>
      </trkpt>
      <trkpt lat="49.36524" lon="1.1539">
        <ele>141.9</ele>
        <time>2011-05-01T07:07:02Z</time>
      </trkpt>
      <trkpt lat="49.36509" lon="1.15394">
        <ele>141.8</ele>
        <time>2011-05-01T07:07:08Z</time>
      </trkpt>
      <trkpt lat="49.36506" lon="1.15393">
        <ele>141.8</ele>
        <time>2011-05-01T07:07:09Z</time>
      </trkpt>
      <trkpt lat="49.36485" lon="1.15383">
        <ele>140.8</ele>
        <time>2011-05-01T07:07:16Z</time>
      </trkpt>
      <trkpt lat="49.36476" lon="1.15376">
        <ele>140.3</ele>
        <time>2011-05-01T07:07:20Z</time>
      </trkpt>
      <trkpt lat="49.36466" lon="1.15368">
        <ele>139.9</ele>
        <time>2011-05-01T07:07:25Z</time>
      </trkpt>
      <trkpt lat="49.3645" lon="1.15374">
        <ele>139.1</ele>
        <time>2011-05-01T07:07:31Z</time>
      </trkpt>
      <trkpt lat="49.36435" lon="1.15387">
        <ele>138.3</ele>
        <time>2011-05-01T07:07:36Z</time>
      </trkpt>
      <trkpt lat="49.36426" lon="1.15394">
        <ele>137.8</ele>
        <time>2011-05-01T07:07:41Z</time>
      </trkpt>
      <trkpt lat="49.36422" lon="1.15409">
        <ele>137.4</ele>
        <time>2011-05-01T07:07:44Z</time>
      </trkpt>
      <trkpt lat="49.36415" lon="1.15438">
        <ele>136.5</ele>
        <time>2011-05-01T07:07:50Z</time>
      </trkpt>
      <trkpt lat="49.36413" lon="1.15462">
        <ele>135.9</ele>
        <time>2011-05-01T07:07:54Z</time>
      </trkpt>
      <trkpt lat="49.36403" lon="1.15487">
        <ele>134.9</ele>
        <time>2011-05-01T07:07:59Z</time>
      </trkpt>
      <trkpt lat="49.36398" lon="1.15492">
        <ele>134.6</ele>
        <time>2011-05-01T07:08:00Z</time>
      </trkpt>
      <trkpt lat="49.36364" lon="1.15518">
        <ele>133.5</ele>
        <time>2011-05-01T07:08:06Z</time>
      </trkpt>
      <trkpt lat="49.36332" lon="1.15545">
        <ele>132.9</ele>
        <time>2011-05-01T07:08:11Z</time>
      </trkpt>
      <trkpt lat="49.36324" lon="1.15576">
        <ele>133</ele>
        <time>2011-05-01T07:08:15Z</time>
      </trkpt>
      <trkpt lat="49.36326" lon="1.15584">
        <ele>133.4</ele>
        <time>2011-05-01T07:08:16Z</time>
      </trkpt>
      <trkpt lat="49.36326" lon="1.15613">
        <ele>133.8</ele>
        <time>2011-05-01T07:08:20Z</time>
      </trkpt>
      <trkpt lat="49.36316" lon="1.15619">
        <ele>133.1</ele>
        <time>2011-05-01T07:08:22Z</time>
      </trkpt>
      <trkpt lat="49.3628" lon="1.15635">
        <ele>130.5</ele>
        <time>2011-05-01T07:08:28Z</time>
      </trkpt>
      <trkpt lat="49.36274" lon="1.15648">
        <ele>130.4</ele>
        <time>2011-05-01T07:08:32Z</time>
      </trkpt>
      <trkpt lat="49.36275" lon="1.15652">
        <ele>130.5</ele>
        <time>2011-05-01T07:08:33Z</time>
      </trkpt>
      <trkpt lat="49.36286" lon="1.15682">
        <ele>131.6</ele>
        <time>2011-05-01T07:08:39Z</time>
      </trkpt>
      <trkpt lat="49.36301" lon="1.15722">
        <ele>132.5</ele>
        <time>2011-05-01T07:08:46Z</time>
      </trkpt>
      <trkpt lat="49.3632" lon="1.1578">
        <ele>134</ele>
        <time>2011-05-01T07:08:56Z</time>
      </trkpt>
      <trkpt lat="49.36328" lon="1.15819">
        <ele>135.3</ele>
        <time>2011-05-01T07:09:03Z</time>
      </trkpt>
      <trkpt lat="49.36333" lon="1.15842">
        <ele>136.1</ele>
        <time>2011-05-01T07:09:08Z</time>
      </trkpt>
      <trkpt lat="49.36326" lon="1.15868">
        <ele>135.9</ele>
        <time>2011-05-01T07:09:13Z</time>
      </trkpt>
      <trkpt lat="49.36315" lon="1.15879">
        <ele>135.5</ele>
        <time>2011-05-01T07:09:16Z</time>
      </trkpt>
      <trkpt lat="49.36287" lon="1.15902">
        <ele>134.4</ele>
        <time>2011-05-01T07:09:25Z</time>
      </trkpt>
      <trkpt lat="49.36271" lon="1.15925">
        <ele>134.2</ele>
        <time>2011-05-01T07:09:32Z</time>
      </trkpt>
      <trkpt lat="49.36255" lon="1.15952">
        <ele>134.4</ele>
        <time>2011-05-01T07:09:39Z</time>
      </trkpt>
      <trkpt lat="49.36239" lon="1.15976">
        <ele>135.4</ele>
        <time>2011-05-01T07:09:45Z</time>
      </trkpt>
      <trkpt lat="49.36224" lon="1.15974">
        <ele>135.7</ele>
        <time>2011-05-01T07:09:48Z</time>
      </trkpt>
      <trkpt lat="49.36184" lon="1.15966">
        <ele>136.3</ele>
        <time>2011-05-01T07:09:54Z</time>
      </trkpt>
      <trkpt lat="49.36156" lon="1.15962">
        <ele>136.4</ele>
        <time>2011-05-01T07:09:59Z</time>
      </trkpt>
      <trkpt lat="49.36146" lon="1.15963">
        <ele>136.2</ele>
        <time>2011-05-01T07:10:01Z</time>
      </trkpt>
      <trkpt lat="49.36131" lon="1.15952">
        <ele>135.7</ele>
        <time>2011-05-01T07:10:05Z</time>
      </trkpt>
      <trkpt lat="49.36114" lon="1.15934">
        <ele>135.2</ele>
        <time>2011-05-01T07:10:09Z</time>
      </trkpt>
      <trkpt lat="49.36109" lon="1.15932">
        <ele>135.2</ele>
        <time>2011-05-01T07:10:10Z</time>
      </trkpt>
      <trkpt lat="49.36091" lon="1.15924">
        <ele>135</ele>
        <time>2011-05-01T07:10:13Z</time>
      </trkpt>
      <trkpt lat="49.3606" lon="1.15898">
        <ele>134.4</ele>
        <time>2011-05-01T07:10:18Z</time>
      </trkpt>
      <trkpt lat="49.36041" lon="1.15878">
        <ele>134</ele>
        <time>2011-05-01T07:10:21Z</time>
      </trkpt>
      <trkpt lat="49.36011" lon="1.15849">
        <ele>133.3</ele>
        <time>2011-05-01T07:10:27Z</time>
      </trkpt>
      <trkpt lat="49.35997" lon="1.15836">
        <ele>132.7</ele>
        <time>2011-05-01T07:10:30Z</time>
      </trkpt>
      <trkpt lat="49.35989" lon="1.15827">
        <ele>132.1</ele>
        <time>2011-05-01T07:10:32Z</time>
      </trkpt>
      <trkpt lat="49.35976" lon="1.15809">
        <ele>131.1</ele>
        <time>2011-05-01T07:10:35Z</time>
      </trkpt>
      <trkpt lat="49.35962" lon="1.15778">
        <ele>129.9</ele>
        <time>2011-05-01T07:10:39Z</time>
      </trkpt>
      <trkpt lat="49.35953" lon="1.15766">
        <ele>129</ele>
        <time>2011-05-01T07:10:41Z</time>
      </trkpt>
      <trkpt lat="49.35944" lon="1.15765">
        <ele>128.1</ele>
        <time>2011-05-01T07:10:45Z</time>
      </trkpt>
      <trkpt lat="49.35941" lon="1.15767">
        <ele>127.8</ele>
        <time>2011-05-01T07:10:52Z</time>
      </trkpt>
      <trkpt lat="49.3594" lon="1.15771">
        <ele>127.6</ele>
        <time>2011-05-01T07:10:58Z</time>
      </trkpt>
      <trkpt lat="49.35937" lon="1.15775">
        <ele>127.4</ele>
        <time>2011-05-01T07:11:05Z</time>
      </trkpt>
      <trkpt lat="49.35936" lon="1.15781">
        <ele>127.3</ele>
        <time>2011-05-01T07:11:11Z</time>
      </trkpt>
      <trkpt lat="49.35938" lon="1.15789">
        <ele>127.5</ele>
        <time>2011-05-01T07:11:16Z</time>
      </trkpt>
      <trkpt lat="49.35938" lon="1.15798">
        <ele>127.6</ele>
        <time>2011-05-01T07:11:20Z</time>
      </trkpt>
      <trkpt lat="49.3594" lon="1.15819">
        <ele>127.9</ele>
        <time>2011-05-01T07:11:26Z</time>
      </trkpt>
      <trkpt lat="49.35943" lon="1.15843">
        <ele>128.3</ele>
        <time>2011-05-01T07:11:32Z</time>
      </trkpt>
      <trkpt lat="49.35939" lon="1.15862">
        <ele>128.1</ele>
        <time>2011-05-01T07:11:38Z</time>
      </trkpt>
      <trkpt lat="49.35939" lon="1.15878">
        <ele>128.3</ele>
        <time>2011-05-01T07:11:44Z</time>
      </trkpt>
      <trkpt lat="49.35937" lon="1.15886">
        <ele>128.2</ele>
        <time>2011-05-01T07:11:48Z</time>
      </trkpt>
      <trkpt lat="49.35925" lon="1.159">
        <ele>127.4</ele>
        <time>2011-05-01T07:11:56Z</time>
      </trkpt>
      <trkpt lat="49.35916" lon="1.15912">
        <ele>126.9</ele>
        <time>2011-05-01T07:12:02Z</time>
      </trkpt>
      <trkpt lat="49.35918" lon="1.15924">
        <ele>127.1</ele>
        <time>2011-05-01T07:12:06Z</time>
      </trkpt>
      <trkpt lat="49.35914" lon="1.15938">
        <ele>127.1</ele>
        <time>2011-05-01T07:12:12Z</time>
      </trkpt>
      <trkpt lat="49.35903" lon="1.15951">
        <ele>127.5</ele>
        <time>2011-05-01T07:12:18Z</time>
      </trkpt>
      <trkpt lat="49.359" lon="1.15955">
        <ele>127.7</ele>
        <time>2011-05-01T07:12:20Z</time>
      </trkpt>
      <trkpt lat="49.35891" lon="1.15962">
        <ele>128.1</ele>
        <time>2011-05-01T07:12:25Z</time>
      </trkpt>
      <trkpt lat="49.35881" lon="1.1598">
        <ele>128.8</ele>
        <time>2011-05-01T07:12:31Z</time>
      </trkpt>
      <trkpt lat="49.35876" lon="1.15985">
        <ele>129.2</ele>
        <time>2011-05-01T07:12:33Z</time>
      </trkpt>
      <trkpt lat="49.35861" lon="1.16001">
        <ele>130.4</ele>
        <time>2011-05-01T07:12:39Z</time>
      </trkpt>
      <trkpt lat="49.35848" lon="1.16018">
        <ele>131.8</ele>
        <time>2011-05-01T07:12:45Z</time>
      </trkpt>
      <trkpt lat="49.35845" lon="1.16026">
        <ele>132.3</ele>
        <time>2011-05-01T07:12:47Z</time>
      </trkpt>
      <trkpt lat="49.35837" lon="1.16039">
        <ele>133.2</ele>
        <time>2011-05-01T07:12:53Z</time>
      </trkpt>
      <trkpt lat="49.35843" lon="1.16052">
        <ele>133.4</ele>
        <time>2011-05-01T07:12:58Z</time>
      </trkpt>
      <trkpt lat="49.35846" lon="1.16057">
        <ele>133.5</ele>
        <time>2011-05-01T07:13:00Z</time>
      </trkpt>
      <trkpt lat="49.35841" lon="1.16072">
        <ele>134.3</ele>
        <time>2011-05-01T07:13:05Z</time>
      </trkpt>
      <trkpt lat="49.35826" lon="1.16103">
        <ele>136.1</ele>
        <time>2011-05-01T07:13:14Z</time>
      </trkpt>
      <trkpt lat="49.35813" lon="1.16131">
        <ele>137.6</ele>
        <time>2011-05-01T07:13:21Z</time>
      </trkpt>
      <trkpt lat="49.358" lon="1.16158">
        <ele>138.7</ele>
        <time>2011-05-01T07:13:28Z</time>
      </trkpt>
      <trkpt lat="49.35789" lon="1.16187">
        <ele>139.6</ele>
        <time>2011-05-01T07:13:35Z</time>
      </trkpt>
      <trkpt lat="49.35785" lon="1.1621">
        <ele>140.2</ele>
        <time>2011-05-01T07:13:41Z</time>
      </trkpt>
      <trkpt lat="49.35792" lon="1.16225">
        <ele>140.7</ele>
        <time>2011-05-01T07:13:45Z</time>
      </trkpt>
      <trkpt lat="49.35804" lon="1.16244">
        <ele>141.4</ele>
        <time>2011-05-01T07:13:51Z</time>
      </trkpt>
      <trkpt lat="49.35817" lon="1.16264">
        <ele>142</ele>
        <time>2011-05-01T07:13:58Z</time>
      </trkpt>
      <trkpt lat="49.35818" lon="1.16267">
        <ele>142</ele>
        <time>2011-05-01T07:13:59Z</time>
      </trkpt>
      <trkpt lat="49.35812" lon="1.16276">
        <ele>142</ele>
        <time>2011-05-01T07:14:03Z</time>
      </trkpt>
      <trkpt lat="49.35809" lon="1.16278">
        <ele>142</ele>
        <time>2011-05-01T07:14:04Z</time>
      </trkpt>
      <trkpt lat="49.35785" lon="1.16291">
        <ele>141.9</ele>
        <time>2011-05-01T07:14:11Z</time>
      </trkpt>
      <trkpt lat="49.35762" lon="1.16307">
        <ele>141.8</ele>
        <time>2011-05-01T07:14:17Z</time>
      </trkpt>
      <trkpt lat="49.3573" lon="1.16328">
        <ele>142.6</ele>
        <time>2011-05-01T07:14:24Z</time>
      </trkpt>
      <trkpt lat="49.35705" lon="1.16353">
        <ele>143.7</ele>
        <time>2011-05-01T07:14:29Z</time>
      </trkpt>
      <trkpt lat="49.35691" lon="1.16367">
        <ele>144.2</ele>
        <time>2011-05-01T07:14:32Z</time>
      </trkpt>
      <trkpt lat="49.35657" lon="1.16392">
        <ele>144.6</ele>
        <time>2011-05-01T07:14:39Z</time>
      </trkpt>
      <trkpt lat="49.35634" lon="1.16421">
        <ele>143.7</ele>
        <time>2011-05-01T07:14:44Z</time>
      </trkpt>
      <trkpt lat="49.35613" lon="1.16462">
        <ele>141.6</ele>
        <time>2011-05-01T07:14:50Z</time>
      </trkpt>
      <trkpt lat="49.35584" lon="1.16499">
        <ele>139.1</ele>
        <time>2011-05-01T07:14:56Z</time>
      </trkpt>
      <trkpt lat="49.35575" lon="1.16512">
        <ele>138.7</ele>
        <time>2011-05-01T07:14:58Z</time>
      </trkpt>
      <trkpt lat="49.3555" lon="1.16523">
        <ele>138</ele>
        <time>2011-05-01T07:15:03Z</time>
      </trkpt>
      <trkpt lat="49.35532" lon="1.16511">
        <ele>137.7</ele>
        <time>2011-05-01T07:15:07Z</time>
      </trkpt>
      <trkpt lat="49.35511" lon="1.16469">
        <ele>137.4</ele>
        <time>2011-05-01T07:15:13Z</time>
      </trkpt>
      <trkpt lat="49.3549" lon="1.16434">
        <ele>136</ele>
        <time>2011-05-01T07:15:18Z</time>
      </trkpt>
      <trkpt lat="49.35478" lon="1.16432">
        <ele>134.6</ele>
        <time>2011-05-01T07:15:21Z</time>
      </trkpt>
      <trkpt lat="49.35475" lon="1.16435">
        <ele>134.3</ele>
        <time>2011-05-01T07:15:22Z</time>
      </trkpt>
      <trkpt lat="49.35457" lon="1.16451">
        <ele>132.8</ele>
        <time>2011-05-01T07:15:27Z</time>
      </trkpt>
      <trkpt lat="49.35447" lon="1.16465">
        <ele>132.5</ele>
        <time>2011-05-01T07:15:30Z</time>
      </trkpt>
      <trkpt lat="49.35433" lon="1.1648">
        <ele>132</ele>
        <time>2011-05-01T07:15:34Z</time>
      </trkpt>
      <trkpt lat="49.35413" lon="1.16498">
        <ele>131.7</ele>
        <time>2011-05-01T07:15:40Z</time>
      </trkpt>
      <trkpt lat="49.35404" lon="1.1649">
        <ele>130.8</ele>
        <time>2011-05-01T07:15:44Z</time>
      </trkpt>
      <trkpt lat="49.354" lon="1.16481">
        <ele>130</ele>
        <time>2011-05-01T07:15:46Z</time>
      </trkpt>
      <trkpt lat="49.35394" lon="1.16466">
        <ele>128.8</ele>
        <time>2011-05-01T07:15:48Z</time>
      </trkpt>
      <trkpt lat="49.35369" lon="1.16425">
        <ele>124.6</ele>
        <time>2011-05-01T07:15:53Z</time>
      </trkpt>
      <trkpt lat="49.35363" lon="1.16418">
        <ele>123.9</ele>
        <time>2011-05-01T07:15:54Z</time>
      </trkpt>
      <trkpt lat="49.35348" lon="1.16397">
        <ele>121.2</ele>
        <time>2011-05-01T07:16:00Z</time>
      </trkpt>
      <trkpt lat="49.35355" lon="1.16375">
        <ele>119.9</ele>
        <time>2011-05-01T07:16:04Z</time>
      </trkpt>
      <trkpt lat="49.35364" lon="1.16363">
        <ele>119.5</ele>
        <time>2011-05-01T07:16:06Z</time>
      </trkpt>
      <trkpt lat="49.35386" lon="1.16345">
        <ele>119.6</ele>
        <time>2011-05-01T07:16:10Z</time>
      </trkpt>
      <trkpt lat="49.35401" lon="1.16337">
        <ele>120.1</ele>
        <time>2011-05-01T07:16:13Z</time>
      </trkpt>
      <trkpt lat="49.35424" lon="1.16331">
        <ele>122</ele>
        <time>2011-05-01T07:16:18Z</time>
      </trkpt>
      <trkpt lat="49.35446" lon="1.16334">
        <ele>125.3</ele>
        <time>2011-05-01T07:16:22Z</time>
      </trkpt>
      <trkpt lat="49.35459" lon="1.16327">
        <ele>126.7</ele>
        <time>2011-05-01T07:16:24Z</time>
      </trkpt>
      <trkpt lat="49.3549" lon="1.16302">
        <ele>129.3</ele>
        <time>2011-05-01T07:16:31Z</time>
      </trkpt>
      <trkpt lat="49.35518" lon="1.16277">
        <ele>130.9</ele>
        <time>2011-05-01T07:16:38Z</time>
      </trkpt>
      <trkpt lat="49.35521" lon="1.16275">
        <ele>131.2</ele>
        <time>2011-05-01T07:16:39Z</time>
      </trkpt>
      <trkpt lat="49.35532" lon="1.16264">
        <ele>131.7</ele>
        <time>2011-05-01T07:16:43Z</time>
      </trkpt>
      <trkpt lat="49.35543" lon="1.16256">
        <ele>132.5</ele>
        <time>2011-05-01T07:16:47Z</time>
      </trkpt>
      <trkpt lat="49.35559" lon="1.16245">
        <ele>133.7</ele>
        <time>2011-05-01T07:16:52Z</time>
      </trkpt>
      <trkpt lat="49.35577" lon="1.16234">
        <ele>135.1</ele>
        <time>2011-05-01T07:16:58Z</time>
      </trkpt>
      <trkpt lat="49.3559" lon="1.16229">
        <ele>135.9</ele>
        <time>2011-05-01T07:17:02Z</time>
      </trkpt>
      <trkpt lat="49.35603" lon="1.16226">
        <ele>136.6</ele>
        <time>2011-05-01T07:17:07Z</time>
      </trkpt>
      <trkpt lat="49.35617" lon="1.16217">
        <ele>137.1</ele>
        <time>2011-05-01T07:17:12Z</time>
      </trkpt>
      <trkpt lat="49.35626" lon="1.16199">
        <ele>136.9</ele>
        <time>2011-05-01T07:17:17Z</time>
      </trkpt>
      <trkpt lat="49.35638" lon="1.16187">
        <ele>137.2</ele>
        <time>2011-05-01T07:17:22Z</time>
      </trkpt>
      <trkpt lat="49.35656" lon="1.16174">
        <ele>138.2</ele>
        <time>2011-05-01T07:17:28Z</time>
      </trkpt>
      <trkpt lat="49.35677" lon="1.16159">
        <ele>138.5</ele>
        <time>2011-05-01T07:17:35Z</time>
      </trkpt>
      <trkpt lat="49.35689" lon="1.16149">
        <ele>138</ele>
        <time>2011-05-01T07:17:40Z</time>
      </trkpt>
      <trkpt lat="49.35703" lon="1.16139">
        <ele>137.7</ele>
        <time>2011-05-01T07:17:45Z</time>
      </trkpt>
      <trkpt lat="49.35717" lon="1.1613">
        <ele>137.7</ele>
        <time>2011-05-01T07:17:50Z</time>
      </trkpt>
      <trkpt lat="49.35731" lon="1.1612">
        <ele>137.8</ele>
        <time>2011-05-01T07:17:55Z</time>
      </trkpt>
      <trkpt lat="49.35751" lon="1.16104">
        <ele>138.2</ele>
        <time>2011-05-01T07:18:02Z</time>
      </trkpt>
      <trkpt lat="49.35767" lon="1.16091">
        <ele>137.5</ele>
        <time>2011-05-01T07:18:08Z</time>
      </trkpt>
      <trkpt lat="49.3578" lon="1.16081">
        <ele>136.8</ele>
        <time>2011-05-01T07:18:12Z</time>
      </trkpt>
      <trkpt lat="49.35785" lon="1.1608">
        <ele>136.6</ele>
        <time>2011-05-01T07:18:14Z</time>
      </trkpt>
      <trkpt lat="49.358" lon="1.16069">
        <ele>135.6</ele>
        <time>2011-05-01T07:18:20Z</time>
      </trkpt>
      <trkpt lat="49.3581" lon="1.16049">
        <ele>134.5</ele>
        <time>2011-05-01T07:18:24Z</time>
      </trkpt>
      <trkpt lat="49.35813" lon="1.1604">
        <ele>134</ele>
        <time>2011-05-01T07:18:26Z</time>
      </trkpt>
      <trkpt lat="49.35824" lon="1.16003">
        <ele>132.3</ele>
        <time>2011-05-01T07:18:33Z</time>
      </trkpt>
      <trkpt lat="49.35838" lon="1.15989">
        <ele>131.3</ele>
        <time>2011-05-01T07:18:38Z</time>
      </trkpt>
      <trkpt lat="49.3584" lon="1.15975">
        <ele>130.8</ele>
        <time>2011-05-01T07:18:41Z</time>
      </trkpt>
      <trkpt lat="49.3584" lon="1.1597">
        <ele>130.6</ele>
        <time>2011-05-01T07:18:42Z</time>
      </trkpt>
      <trkpt lat="49.3585" lon="1.15932">
        <ele>129</ele>
        <time>2011-05-01T07:18:48Z</time>
      </trkpt>
      <trkpt lat="49.35858" lon="1.15921">
        <ele>128.5</ele>
        <time>2011-05-01T07:18:50Z</time>
      </trkpt>
      <trkpt lat="49.35864" lon="1.15894">
        <ele>127.1</ele>
        <time>2011-05-01T07:18:54Z</time>
      </trkpt>
      <trkpt lat="49.35867" lon="1.15871">
        <ele>126</ele>
        <time>2011-05-01T07:18:57Z</time>
      </trkpt>
      <trkpt lat="49.35878" lon="1.15836">
        <ele>124.7</ele>
        <time>2011-05-01T07:19:02Z</time>
      </trkpt>
      <trkpt lat="49.35895" lon="1.15817">
        <ele>124.7</ele>
        <time>2011-05-01T07:19:07Z</time>
      </trkpt>
      <trkpt lat="49.35905" lon="1.15801">
        <ele>124.9</ele>
        <time>2011-05-01T07:19:11Z</time>
      </trkpt>
      <trkpt lat="49.35907" lon="1.15784">
        <ele>124.7</ele>
        <time>2011-05-01T07:19:15Z</time>
      </trkpt>
      <trkpt lat="49.35903" lon="1.1577">
        <ele>124.1</ele>
        <time>2011-05-01T07:19:19Z</time>
      </trkpt>
      <trkpt lat="49.35894" lon="1.15753">
        <ele>122.8</ele>
        <time>2011-05-01T07:19:23Z</time>
      </trkpt>
      <trkpt lat="49.35885" lon="1.15732">
        <ele>121.9</ele>
        <time>2011-05-01T07:19:27Z</time>
      </trkpt>
      <trkpt lat="49.35881" lon="1.15722">
        <ele>121.4</ele>
        <time>2011-05-01T07:19:29Z</time>
      </trkpt>
      <trkpt lat="49.3587" lon="1.15701">
        <ele>119.8</ele>
        <time>2011-05-01T07:19:34Z</time>
      </trkpt>
      <trkpt lat="49.35866" lon="1.15693">
        <ele>119.1</ele>
        <time>2011-05-01T07:19:36Z</time>
      </trkpt>
      <trkpt lat="49.35864" lon="1.15676">
        <ele>118.5</ele>
        <time>2011-05-01T07:19:39Z</time>
      </trkpt>
      <trkpt lat="49.35871" lon="1.15657">
        <ele>119.1</ele>
        <time>2011-05-01T07:19:44Z</time>
      </trkpt>
      <trkpt lat="49.35871" lon="1.15641">
        <ele>118.6</ele>
        <time>2011-05-01T07:19:47Z</time>
      </trkpt>
      <trkpt lat="49.3586" lon="1.15611">
        <ele>116.1</ele>
        <time>2011-05-01T07:19:51Z</time>
      </trkpt>
      <trkpt lat="49.35837" lon="1.15562">
        <ele>110.8</ele>
        <time>2011-05-01T07:19:57Z</time>
      </trkpt>
      <trkpt lat="49.35814" lon="1.15521">
        <ele>106.4</ele>
        <time>2011-05-01T07:20:01Z</time>
      </trkpt>
      <trkpt lat="49.35781" lon="1.15467">
        <ele>99.9</ele>
        <time>2011-05-01T07:20:07Z</time>
      </trkpt>
      <trkpt lat="49.35768" lon="1.15427">
        <ele>96.5</ele>
        <time>2011-05-01T07:20:11Z</time>
      </trkpt>
      <trkpt lat="49.35764" lon="1.15409">
        <ele>94.9</ele>
        <time>2011-05-01T07:20:13Z</time>
      </trkpt>
      <trkpt lat="49.35754" lon="1.15343">
        <ele>88.3</ele>
        <time>2011-05-01T07:20:20Z</time>
      </trkpt>
      <trkpt lat="49.35754" lon="1.15336">
        <ele>87.7</ele>
        <time>2011-05-01T07:20:21Z</time>
      </trkpt>
      <trkpt lat="49.3576" lon="1.15306">
        <ele>87.3</ele>
        <time>2011-05-01T07:20:26Z</time>
      </trkpt>
      <trkpt lat="49.35761" lon="1.153">
        <ele>87.2</ele>
        <time>2011-05-01T07:20:27Z</time>
      </trkpt>
      <trkpt lat="49.35755" lon="1.15268">
        <ele>85.7</ele>
        <time>2011-05-01T07:20:32Z</time>
      </trkpt>
      <trkpt lat="49.35753" lon="1.15261">
        <ele>85.4</ele>
        <time>2011-05-01T07:20:33Z</time>
      </trkpt>
      <trkpt lat="49.35757" lon="1.15239">
        <ele>85.2</ele>
        <time>2011-05-01T07:20:37Z</time>
      </trkpt>
      <trkpt lat="49.35765" lon="1.15237">
        <ele>85.5</ele>
        <time>2011-05-01T07:20:39Z</time>
      </trkpt>
      <trkpt lat="49.35799" lon="1.15222">
        <ele>86.6</ele>
        <time>2011-05-01T07:20:46Z</time>
      </trkpt>
      <trkpt lat="49.35841" lon="1.15191">
        <ele>87.4</ele>
        <time>2011-05-01T07:20:55Z</time>
      </trkpt>
      <trkpt lat="49.35865" lon="1.15169">
        <ele>88</ele>
        <time>2011-05-01T07:21:01Z</time>
      </trkpt>
      <trkpt lat="49.35891" lon="1.15156">
        <ele>89.2</ele>
        <time>2011-05-01T07:21:07Z</time>
      </trkpt>
      <trkpt lat="49.35923" lon="1.1516">
        <ele>91.6</ele>
        <time>2011-05-01T07:21:14Z</time>
      </trkpt>
      <trkpt lat="49.35946" lon="1.15163">
        <ele>94.4</ele>
        <time>2011-05-01T07:21:19Z</time>
      </trkpt>
      <trkpt lat="49.35968" lon="1.15154">
        <ele>96.6</ele>
        <time>2011-05-01T07:21:24Z</time>
      </trkpt>
      <trkpt lat="49.35991" lon="1.15135">
        <ele>98.5</ele>
        <time>2011-05-01T07:21:30Z</time>
      </trkpt>
      <trkpt lat="49.36015" lon="1.15132">
        <ele>101.1</ele>
        <time>2011-05-01T07:21:36Z</time>
      </trkpt>
      <trkpt lat="49.36045" lon="1.15149">
        <ele>105.4</ele>
        <time>2011-05-01T07:21:45Z</time>
      </trkpt>
      <trkpt lat="49.36066" lon="1.1515">
        <ele>107.8</ele>
        <time>2011-05-01T07:21:51Z</time>
      </trkpt>
      <trkpt lat="49.36084" lon="1.1514">
        <ele>109.8</ele>
        <time>2011-05-01T07:21:57Z</time>
      </trkpt>
      <trkpt lat="49.36106" lon="1.15125">
        <ele>111.8</ele>
        <time>2011-05-01T07:22:05Z</time>
      </trkpt>
      <trkpt lat="49.36125" lon="1.15112">
        <ele>113.7</ele>
        <time>2011-05-01T07:22:12Z</time>
      </trkpt>
      <trkpt lat="49.36128" lon="1.15106">
        <ele>114</ele>
        <time>2011-05-01T07:22:14Z</time>
      </trkpt>
      <trkpt lat="49.36124" lon="1.15085">
        <ele>113.4</ele>
        <time>2011-05-01T07:22:18Z</time>
      </trkpt>
      <trkpt lat="49.36115" lon="1.15073">
        <ele>112.5</ele>
        <time>2011-05-01T07:22:20Z</time>
      </trkpt>
      <trkpt lat="49.36075" lon="1.15034">
        <ele>108</ele>
        <time>2011-05-01T07:22:27Z</time>
      </trkpt>
      <trkpt lat="49.36028" lon="1.14991">
        <ele>98.1</ele>
        <time>2011-05-01T07:22:34Z</time>
      </trkpt>
      <trkpt lat="49.35982" lon="1.14953">
        <ele>89.7</ele>
        <time>2011-05-01T07:22:40Z</time>
      </trkpt>
      <trkpt lat="49.35938" lon="1.14904">
        <ele>85.6</ele>
        <time>2011-05-01T07:22:46Z</time>
      </trkpt>
      <trkpt lat="49.35886" lon="1.14847">
        <ele>81.3</ele>
        <time>2011-05-01T07:22:53Z</time>
      </trkpt>
      <trkpt lat="49.35864" lon="1.14807">
        <ele>79.8</ele>
        <time>2011-05-01T07:22:57Z</time>
      </trkpt>
      <trkpt lat="49.35858" lon="1.14796">
        <ele>79.4</ele>
        <time>2011-05-01T07:22:59Z</time>
      </trkpt>
      <trkpt lat="49.3585" lon="1.148">
        <ele>79.2</ele>
        <time>2011-05-01T07:23:03Z</time>
      </trkpt>
      <trkpt lat="49.35848" lon="1.14805">
        <ele>79.2</ele>
        <time>2011-05-01T07:23:04Z</time>
      </trkpt>
      <trkpt lat="49.35824" lon="1.14854">
        <ele>79.1</ele>
        <time>2011-05-01T07:23:11Z</time>
      </trkpt>
      <trkpt lat="49.35794" lon="1.14881">
        <ele>78.4</ele>
        <time>2011-05-01T07:23:16Z</time>
      </trkpt>
      <trkpt lat="49.35787" lon="1.14882">
        <ele>78.2</ele>
        <time>2011-05-01T07:23:17Z</time>
      </trkpt>
      <trkpt lat="49.35732" lon="1.14897">
        <ele>76.2</ele>
        <time>2011-05-01T07:23:25Z</time>
      </trkpt>
      <trkpt lat="49.35684" lon="1.14919">
        <ele>75.4</ele>
        <time>2011-05-01T07:23:32Z</time>
      </trkpt>
      <trkpt lat="49.35669" lon="1.14924">
        <ele>75.2</ele>
        <time>2011-05-01T07:23:34Z</time>
      </trkpt>
      <trkpt lat="49.35639" lon="1.14922">
        <ele>74.5</ele>
        <time>2011-05-01T07:23:38Z</time>
      </trkpt>
      <trkpt lat="49.3562" lon="1.14902">
        <ele>73.4</ele>
        <time>2011-05-01T07:23:41Z</time>
      </trkpt>
      <trkpt lat="49.35582" lon="1.14836">
        <ele>71.1</ele>
        <time>2011-05-01T07:23:49Z</time>
      </trkpt>
      <trkpt lat="49.35555" lon="1.14789">
        <ele>71.9</ele>
        <time>2011-05-01T07:23:56Z</time>
      </trkpt>
      <trkpt lat="49.35547" lon="1.1478">
        <ele>72.3</ele>
        <time>2011-05-01T07:23:58Z</time>
      </trkpt>
      <trkpt lat="49.35537" lon="1.14768">
        <ele>72.9</ele>
        <time>2011-05-01T07:24:02Z</time>
      </trkpt>
      <trkpt lat="49.35534" lon="1.14723">
        <ele>72.1</ele>
        <time>2011-05-01T07:24:11Z</time>
      </trkpt>
      <trkpt lat="49.35535" lon="1.14687">
        <ele>70.8</ele>
        <time>2011-05-01T07:24:17Z</time>
      </trkpt>
      <trkpt lat="49.35536" lon="1.14656">
        <ele>70</ele>
        <time>2011-05-01T07:24:22Z</time>
      </trkpt>
      <trkpt lat="49.35542" lon="1.14594">
        <ele>69.5</ele>
        <time>2011-05-01T07:24:31Z</time>
      </trkpt>
      <trkpt lat="49.35547" lon="1.14542">
        <ele>68</ele>
        <time>2011-05-01T07:24:39Z</time>
      </trkpt>
      <trkpt lat="49.35555" lon="1.14493">
        <ele>66.3</ele>
        <time>2011-05-01T07:24:46Z</time>
      </trkpt>
      <trkpt lat="49.35558" lon="1.1447">
        <ele>66</ele>
        <time>2011-05-01T07:24:49Z</time>
      </trkpt>
      <trkpt lat="49.35555" lon="1.14407">
        <ele>65.9</ele>
        <time>2011-05-01T07:24:57Z</time>
      </trkpt>
      <trkpt lat="49.35554" lon="1.1436">
        <ele>65.4</ele>
        <time>2011-05-01T07:25:03Z</time>
      </trkpt>
      <trkpt lat="49.35551" lon="1.14318">
        <ele>65.4</ele>
        <time>2011-05-01T07:25:08Z</time>
      </trkpt>
      <trkpt lat="49.35542" lon="1.14286">
        <ele>66</ele>
        <time>2011-05-01T07:25:13Z</time>
      </trkpt>
      <trkpt lat="49.35549" lon="1.14285">
        <ele>65.5</ele>
        <time>2011-05-01T07:25:15Z</time>
      </trkpt>
      <trkpt lat="49.35558" lon="1.14284">
        <ele>64.8</ele>
        <time>2011-05-01T07:25:17Z</time>
      </trkpt>
      <trkpt lat="49.35593" lon="1.14275">
        <ele>63.7</ele>
        <time>2011-05-01T07:25:24Z</time>
      </trkpt>
      <trkpt lat="49.35599" lon="1.14273">
        <ele>64.1</ele>
        <time>2011-05-01T07:25:26Z</time>
      </trkpt>
      <trkpt lat="49.35603" lon="1.14269">
        <ele>64.4</ele>
        <time>2011-05-01T07:25:30Z</time>
      </trkpt>
      <trkpt lat="49.35605" lon="1.14268">
        <ele>64.5</ele>
        <time>2011-05-01T07:25:41Z</time>
      </trkpt>
      <trkpt lat="49.35611" lon="1.14267">
        <ele>64.9</ele>
        <time>2011-05-01T07:25:48Z</time>
      </trkpt>
      <trkpt lat="49.35611" lon="1.14268">
        <ele>64.9</ele>
        <time>2011-05-01T07:25:55Z</time>
      </trkpt>
      <trkpt lat="49.35612" lon="1.14264">
        <ele>65</ele>
        <time>2011-05-01T07:26:03Z</time>
      </trkpt>
      <trkpt lat="49.35612" lon="1.14264">
        <ele>65</ele>
        <time>2011-05-01T07:26:10Z</time>
      </trkpt>
      <trkpt lat="49.35614" lon="1.14261">
        <ele>65.1</ele>
        <time>2011-05-01T07:26:15Z</time>
      </trkpt>
      <trkpt lat="49.35617" lon="1.14258">
        <ele>65.4</ele>
        <time>2011-05-01T07:26:20Z</time>
      </trkpt>
      <trkpt lat="49.35619" lon="1.14257">
        <ele>65.5</ele>
        <time>2011-05-01T07:26:21Z</time>
      </trkpt>
      <trkpt lat="49.35621" lon="1.14254">
        <ele>65.7</ele>
        <time>2011-05-01T07:26:24Z</time>
      </trkpt>
      <trkpt lat="49.35625" lon="1.1425">
        <ele>65.9</ele>
        <time>2011-05-01T07:26:30Z</time>
      </trkpt>
      <trkpt lat="49.3563" lon="1.14243">
        <ele>66</ele>
        <time>2011-05-01T07:26:35Z</time>
      </trkpt>
      <trkpt lat="49.35633" lon="1.14238">
        <ele>66.1</ele>
        <time>2011-05-01T07:26:38Z</time>
      </trkpt>
      <trkpt lat="49.35644" lon="1.1423">
        <ele>66.5</ele>
        <time>2011-05-01T07:26:44Z</time>
      </trkpt>
      <trkpt lat="49.35647" lon="1.14226">
        <ele>66.7</ele>
        <time>2011-05-01T07:26:46Z</time>
      </trkpt>
      <trkpt lat="49.35651" lon="1.14221">
        <ele>66.7</ele>
        <time>2011-05-01T07:26:50Z</time>
      </trkpt>
      <trkpt lat="49.35655" lon="1.14218">
        <ele>66.9</ele>
        <time>2011-05-01T07:26:53Z</time>
      </trkpt>
      <trkpt lat="49.35661" lon="1.14217">
        <ele>67.4</ele>
        <time>2011-05-01T07:26:56Z</time>
      </trkpt>
      <trkpt lat="49.35673" lon="1.14206">
        <ele>67.7</ele>
        <time>2011-05-01T07:27:01Z</time>
      </trkpt>
      <trkpt lat="49.35687" lon="1.14179">
        <ele>67.3</ele>
        <time>2011-05-01T07:27:06Z</time>
      </trkpt>
      <trkpt lat="49.35698" lon="1.14149">
        <ele>66.2</ele>
        <time>2011-05-01T07:27:09Z</time>
      </trkpt>
      <trkpt lat="49.35707" lon="1.14117">
        <ele>64.6</ele>
        <time>2011-05-01T07:27:12Z</time>
      </trkpt>
      <trkpt lat="49.3572" lon="1.1408">
        <ele>63.4</ele>
        <time>2011-05-01T07:27:17Z</time>
      </trkpt>
      <trkpt lat="49.35725" lon="1.1407">
        <ele>63</ele>
        <time>2011-05-01T07:27:19Z</time>
      </trkpt>
      <trkpt lat="49.35735" lon="1.14059">
        <ele>62.9</ele>
        <time>2011-05-01T07:27:22Z</time>
      </trkpt>
      <trkpt lat="49.35752" lon="1.14052">
        <ele>63.6</ele>
        <time>2011-05-01T07:27:26Z</time>
      </trkpt>
      <trkpt lat="49.35776" lon="1.14039">
        <ele>62.3</ele>
        <time>2011-05-01T07:27:31Z</time>
      </trkpt>
      <trkpt lat="49.35791" lon="1.1403">
        <ele>61.8</ele>
        <time>2011-05-01T07:27:34Z</time>
      </trkpt>
      <trkpt lat="49.35817" lon="1.14021">
        <ele>61.6</ele>
        <time>2011-05-01T07:27:39Z</time>
      </trkpt>
      <trkpt lat="49.35821" lon="1.14018">
        <ele>61.6</ele>
        <time>2011-05-01T07:27:40Z</time>
      </trkpt>
      <trkpt lat="49.35844" lon="1.14006">
        <ele>62</ele>
        <time>2011-05-01T07:27:46Z</time>
      </trkpt>
      <trkpt lat="49.35862" lon="1.14006">
        <ele>63.2</ele>
        <time>2011-05-01T07:27:52Z</time>
      </trkpt>
      <trkpt lat="49.35874" lon="1.14019">
        <ele>64.1</ele>
        <time>2011-05-01T07:27:56Z</time>
      </trkpt>
      <trkpt lat="49.35876" lon="1.14023">
        <ele>64.2</ele>
        <time>2011-05-01T07:27:57Z</time>
      </trkpt>
      <trkpt lat="49.35891" lon="1.14042">
        <ele>64.7</ele>
        <time>2011-05-01T07:28:03Z</time>
      </trkpt>
      <trkpt lat="49.35905" lon="1.14053">
        <ele>64.9</ele>
        <time>2011-05-01T07:28:07Z</time>
      </trkpt>
      <trkpt lat="49.35918" lon="1.14064">
        <ele>64.8</ele>
        <time>2011-05-01T07:28:11Z</time>
      </trkpt>
      <trkpt lat="49.35934" lon="1.14061">
        <ele>66.1</ele>
        <time>2011-05-01T07:28:16Z</time>
      </trkpt>
      <trkpt lat="49.35935" lon="1.14061">
        <ele>66.1</ele>
        <time>2011-05-01T07:28:17Z</time>
      </trkpt>
      <trkpt lat="49.35942" lon="1.14057">
        <ele>66.8</ele>
        <time>2011-05-01T07:28:21Z</time>
      </trkpt>
      <trkpt lat="49.35942" lon="1.14042">
        <ele>67.3</ele>
        <time>2011-05-01T07:28:25Z</time>
      </trkpt>
      <trkpt lat="49.3593" lon="1.14001">
        <ele>67.9</ele>
        <time>2011-05-01T07:28:33Z</time>
      </trkpt>
      <trkpt lat="49.35922" lon="1.13968">
        <ele>68.5</ele>
        <time>2011-05-01T07:28:40Z</time>
      </trkpt>
      <trkpt lat="49.3591" lon="1.13949">
        <ele>68.5</ele>
        <time>2011-05-01T07:28:46Z</time>
      </trkpt>
      <trkpt lat="49.35894" lon="1.13932">
        <ele>68.3</ele>
        <time>2011-05-01T07:28:54Z</time>
      </trkpt>
      <trkpt lat="49.35881" lon="1.13915">
        <ele>68.3</ele>
        <time>2011-05-01T07:29:01Z</time>
      </trkpt>
      <trkpt lat="49.35869" lon="1.13901">
        <ele>68.1</ele>
        <time>2011-05-01T07:29:07Z</time>
      </trkpt>
      <trkpt lat="49.35862" lon="1.1388">
        <ele>68.4</ele>
        <time>2011-05-01T07:29:13Z</time>
      </trkpt>
      <trkpt lat="49.35862" lon="1.13857">
        <ele>69.1</ele>
        <time>2011-05-01T07:29:20Z</time>
      </trkpt>
      <trkpt lat="49.35868" lon="1.13831">
        <ele>69.9</ele>
        <time>2011-05-01T07:29:27Z</time>
      </trkpt>
      <trkpt lat="49.35878" lon="1.13831">
        <ele>70.1</ele>
        <time>2011-05-01T07:29:31Z</time>
      </trkpt>
      <trkpt lat="49.35884" lon="1.13836">
        <ele>70.2</ele>
        <time>2011-05-01T07:29:33Z</time>
      </trkpt>
      <trkpt lat="49.35904" lon="1.13853">
        <ele>70.4</ele>
        <time>2011-05-01T07:29:39Z</time>
      </trkpt>
      <trkpt lat="49.35927" lon="1.13875">
        <ele>71.2</ele>
        <time>2011-05-01T07:29:45Z</time>
      </trkpt>
      <trkpt lat="49.35938" lon="1.1389">
        <ele>71.7</ele>
        <time>2011-05-01T07:29:48Z</time>
      </trkpt>
      <trkpt lat="49.35948" lon="1.13913">
        <ele>71.9</ele>
        <time>2011-05-01T07:29:52Z</time>
      </trkpt>
      <trkpt lat="49.35963" lon="1.13955">
        <ele>71.7</ele>
        <time>2011-05-01T07:29:59Z</time>
      </trkpt>
      <trkpt lat="49.35985" lon="1.13994">
        <ele>72.1</ele>
        <time>2011-05-01T07:30:06Z</time>
      </trkpt>
      <trkpt lat="49.35989" lon="1.13999">
        <ele>72.2</ele>
        <time>2011-05-01T07:30:07Z</time>
      </trkpt>
      <trkpt lat="49.3601" lon="1.1402">
        <ele>73.3</ele>
        <time>2011-05-01T07:30:12Z</time>
      </trkpt>
      <trkpt lat="49.36041" lon="1.1404">
        <ele>76.2</ele>
        <time>2011-05-01T07:30:19Z</time>
      </trkpt>
      <trkpt lat="49.3607" lon="1.14047">
        <ele>79.6</ele>
        <time>2011-05-01T07:30:26Z</time>
      </trkpt>
      <trkpt lat="49.36104" lon="1.14064">
        <ele>84.5</ele>
        <time>2011-05-01T07:30:35Z</time>
      </trkpt>
      <trkpt lat="49.36125" lon="1.14094">
        <ele>87.6</ele>
        <time>2011-05-01T07:30:43Z</time>
      </trkpt>
      <trkpt lat="49.36135" lon="1.141">
        <ele>88.9</ele>
        <time>2011-05-01T07:30:47Z</time>
      </trkpt>
      <trkpt lat="49.36154" lon="1.14111">
        <ele>91.2</ele>
        <time>2011-05-01T07:30:54Z</time>
      </trkpt>
      <trkpt lat="49.36176" lon="1.14121">
        <ele>93.9</ele>
        <time>2011-05-01T07:31:02Z</time>
      </trkpt>
      <trkpt lat="49.36203" lon="1.14132">
        <ele>96.8</ele>
        <time>2011-05-01T07:31:12Z</time>
      </trkpt>
      <trkpt lat="49.36224" lon="1.14137">
        <ele>99.3</ele>
        <time>2011-05-01T07:31:20Z</time>
      </trkpt>
      <trkpt lat="49.36242" lon="1.14143">
        <ele>101.2</ele>
        <time>2011-05-01T07:31:27Z</time>
      </trkpt>
      <trkpt lat="49.36267" lon="1.1415">
        <ele>103.5</ele>
        <time>2011-05-01T07:31:37Z</time>
      </trkpt>
      <trkpt lat="49.36287" lon="1.14159">
        <ele>105.3</ele>
        <time>2011-05-01T07:31:46Z</time>
      </trkpt>
      <trkpt lat="49.36306" lon="1.14172">
        <ele>107</ele>
        <time>2011-05-01T07:31:55Z</time>
      </trkpt>
      <trkpt lat="49.36326" lon="1.14182">
        <ele>109</ele>
        <time>2011-05-01T07:32:04Z</time>
      </trkpt>
      <trkpt lat="49.36341" lon="1.14186">
        <ele>110.5</ele>
        <time>2011-05-01T07:32:11Z</time>
      </trkpt>
      <trkpt lat="49.3636" lon="1.14191">
        <ele>112.1</ele>
        <time>2011-05-01T07:32:19Z</time>
      </trkpt>
      <trkpt lat="49.3638" lon="1.1419">
        <ele>114.1</ele>
        <time>2011-05-01T07:32:28Z</time>
      </trkpt>
      <trkpt lat="49.36398" lon="1.1418">
        <ele>116</ele>
        <time>2011-05-01T07:32:37Z</time>
      </trkpt>
      <trkpt lat="49.36412" lon="1.14172">
        <ele>117.5</ele>
        <time>2011-05-01T07:32:44Z</time>
      </trkpt>
      <trkpt lat="49.3642" lon="1.14177">
        <ele>118</ele>
        <time>2011-05-01T07:32:48Z</time>
      </trkpt>
      <trkpt lat="49.36423" lon="1.1418">
        <ele>118.1</ele>
        <time>2011-05-01T07:32:53Z</time>
      </trkpt>
      <trkpt lat="49.36423" lon="1.1418">
        <ele>118.1</ele>
        <time>2011-05-01T07:33:01Z</time>
      </trkpt>
      <trkpt lat="49.36423" lon="1.14179">
        <ele>118.1</ele>
        <time>2011-05-01T07:33:18Z</time>
      </trkpt>
      <trkpt lat="49.36423" lon="1.1418">
        <ele>118.1</ele>
        <time>2011-05-01T07:33:22Z</time>
      </trkpt>
      <trkpt lat="49.36434" lon="1.14195">
        <ele>118.6</ele>
        <time>2011-05-01T07:33:29Z</time>
      </trkpt>
      <trkpt lat="49.36448" lon="1.14217">
        <ele>119.4</ele>
        <time>2011-05-01T07:33:36Z</time>
      </trkpt>
      <trkpt lat="49.36463" lon="1.14242">
        <ele>120.5</ele>
        <time>2011-05-01T07:33:43Z</time>
      </trkpt>
      <trkpt lat="49.36479" lon="1.14269">
        <ele>121.4</ele>
        <time>2011-05-01T07:33:50Z</time>
      </trkpt>
      <trkpt lat="49.36492" lon="1.14294">
        <ele>121.4</ele>
        <time>2011-05-01T07:33:56Z</time>
      </trkpt>
      <trkpt lat="49.36504" lon="1.14324">
        <ele>120.7</ele>
        <time>2011-05-01T07:34:02Z</time>
      </trkpt>
      <trkpt lat="49.36521" lon="1.14355">
        <ele>120.4</ele>
        <time>2011-05-01T07:34:09Z</time>
      </trkpt>
      <trkpt lat="49.36536" lon="1.14381">
        <ele>120.3</ele>
        <time>2011-05-01T07:34:15Z</time>
      </trkpt>
      <trkpt lat="49.36551" lon="1.14405">
        <ele>120.2</ele>
        <time>2011-05-01T07:34:21Z</time>
      </trkpt>
      <trkpt lat="49.36565" lon="1.14412">
        <ele>120.5</ele>
        <time>2011-05-01T07:34:25Z</time>
      </trkpt>
      <trkpt lat="49.36592" lon="1.14405">
        <ele>121.7</ele>
        <time>2011-05-01T07:34:32Z</time>
      </trkpt>
      <trkpt lat="49.36617" lon="1.14395">
        <ele>122.8</ele>
        <time>2011-05-01T07:34:39Z</time>
      </trkpt>
      <trkpt lat="49.3664" lon="1.14387">
        <ele>123.6</ele>
        <time>2011-05-01T07:34:45Z</time>
      </trkpt>
      <trkpt lat="49.36664" lon="1.14377">
        <ele>124.4</ele>
        <time>2011-05-01T07:34:52Z</time>
      </trkpt>
      <trkpt lat="49.367" lon="1.14365">
        <ele>125.3</ele>
        <time>2011-05-01T07:35:01Z</time>
      </trkpt>
      <trkpt lat="49.3672" lon="1.14358">
        <ele>125.7</ele>
        <time>2011-05-01T07:35:07Z</time>
      </trkpt>
      <trkpt lat="49.36739" lon="1.14353">
        <ele>126</ele>
        <time>2011-05-01T07:35:12Z</time>
      </trkpt>
      <trkpt lat="49.36776" lon="1.14348">
        <ele>127.2</ele>
        <time>2011-05-01T07:35:21Z</time>
      </trkpt>
      <trkpt lat="49.36784" lon="1.14347">
        <ele>127.6</ele>
        <time>2011-05-01T07:35:23Z</time>
      </trkpt>
      <trkpt lat="49.36834" lon="1.1435">
        <ele>129.6</ele>
        <time>2011-05-01T07:35:35Z</time>
      </trkpt>
      <trkpt lat="49.36865" lon="1.14349">
        <ele>128.9</ele>
        <time>2011-05-01T07:35:43Z</time>
      </trkpt>
      <trkpt lat="49.36897" lon="1.14353">
        <ele>128.2</ele>
        <time>2011-05-01T07:35:51Z</time>
      </trkpt>
      <trkpt lat="49.36921" lon="1.14353">
        <ele>127.7</ele>
        <time>2011-05-01T07:35:57Z</time>
      </trkpt>
      <trkpt lat="49.36949" lon="1.1435">
        <ele>127</ele>
        <time>2011-05-01T07:36:04Z</time>
      </trkpt>
      <trkpt lat="49.36969" lon="1.14348">
        <ele>126.6</ele>
        <time>2011-05-01T07:36:10Z</time>
      </trkpt>
      <trkpt lat="49.36982" lon="1.14346">
        <ele>126.3</ele>
        <time>2011-05-01T07:36:15Z</time>
      </trkpt>
      <trkpt lat="49.36979" lon="1.14337">
        <ele>126.5</ele>
        <time>2011-05-01T07:36:19Z</time>
      </trkpt>
      <trkpt lat="49.36966" lon="1.14309">
        <ele>127.2</ele>
        <time>2011-05-01T07:36:25Z</time>
      </trkpt>
      <trkpt lat="49.36957" lon="1.14283">
        <ele>127.6</ele>
        <time>2011-05-01T07:36:30Z</time>
      </trkpt>
      <trkpt lat="49.36952" lon="1.14265">
        <ele>127.8</ele>
        <time>2011-05-01T07:36:33Z</time>
      </trkpt>
      <trkpt lat="49.36943" lon="1.14237">
        <ele>128</ele>
        <time>2011-05-01T07:36:37Z</time>
      </trkpt>
      <trkpt lat="49.36936" lon="1.14214">
        <ele>127.9</ele>
        <time>2011-05-01T07:36:40Z</time>
      </trkpt>
      <trkpt lat="49.36919" lon="1.14158">
        <ele>127.3</ele>
        <time>2011-05-01T07:36:47Z</time>
      </trkpt>
      <trkpt lat="49.36902" lon="1.14101">
        <ele>128.2</ele>
        <time>2011-05-01T07:36:54Z</time>
      </trkpt>
      <trkpt lat="49.36885" lon="1.14045">
        <ele>127.5</ele>
        <time>2011-05-01T07:37:01Z</time>
      </trkpt>
      <trkpt lat="49.36871" lon="1.14001">
        <ele>127</ele>
        <time>2011-05-01T07:37:06Z</time>
      </trkpt>
      <trkpt lat="49.36857" lon="1.13957">
        <ele>126.1</ele>
        <time>2011-05-01T07:37:11Z</time>
      </trkpt>
      <trkpt lat="49.36852" lon="1.13932">
        <ele>125.5</ele>
        <time>2011-05-01T07:37:14Z</time>
      </trkpt>
      <trkpt lat="49.36846" lon="1.13915">
        <ele>125.1</ele>
        <time>2011-05-01T07:37:16Z</time>
      </trkpt>
      <trkpt lat="49.3683" lon="1.13867">
        <ele>124.4</ele>
        <time>2011-05-01T07:37:22Z</time>
      </trkpt>
      <trkpt lat="49.3683" lon="1.13845">
        <ele>124.1</ele>
        <time>2011-05-01T07:37:26Z</time>
      </trkpt>
      <trkpt lat="49.36837" lon="1.1382">
        <ele>123.7</ele>
        <time>2011-05-01T07:37:29Z</time>
      </trkpt>
      <trkpt lat="49.36849" lon="1.13757">
        <ele>122.4</ele>
        <time>2011-05-01T07:37:35Z</time>
      </trkpt>
      <trkpt lat="49.36837" lon="1.13719">
        <ele>122</ele>
        <time>2011-05-01T07:37:39Z</time>
      </trkpt>
      <trkpt lat="49.36828" lon="1.13701">
        <ele>121.4</ele>
        <time>2011-05-01T07:37:41Z</time>
      </trkpt>
      <trkpt lat="49.36814" lon="1.13661">
        <ele>119</ele>
        <time>2011-05-01T07:37:46Z</time>
      </trkpt>
      <trkpt lat="49.368" lon="1.13613">
        <ele>115.5</ele>
        <time>2011-05-01T07:37:52Z</time>
      </trkpt>
      <trkpt lat="49.36798" lon="1.13605">
        <ele>114.8</ele>
        <time>2011-05-01T07:37:53Z</time>
      </trkpt>
      <trkpt lat="49.36784" lon="1.1357">
        <ele>110.8</ele>
        <time>2011-05-01T07:37:58Z</time>
      </trkpt>
      <trkpt lat="49.36782" lon="1.13566">
        <ele>110.2</ele>
        <time>2011-05-01T07:37:59Z</time>
      </trkpt>
      <trkpt lat="49.36775" lon="1.1355">
        <ele>107.9</ele>
        <time>2011-05-01T07:38:03Z</time>
      </trkpt>
      <trkpt lat="49.3677" lon="1.13538">
        <ele>106.2</ele>
        <time>2011-05-01T07:38:07Z</time>
      </trkpt>
      <trkpt lat="49.36767" lon="1.13525">
        <ele>104.8</ele>
        <time>2011-05-01T07:38:13Z</time>
      </trkpt>
      <trkpt lat="49.36761" lon="1.13496">
        <ele>101.4</ele>
        <time>2011-05-01T07:38:19Z</time>
      </trkpt>
      <trkpt lat="49.36751" lon="1.13466">
        <ele>97.3</ele>
        <time>2011-05-01T07:38:23Z</time>
      </trkpt>
      <trkpt lat="49.36734" lon="1.13408">
        <ele>89.6</ele>
        <time>2011-05-01T07:38:28Z</time>
      </trkpt>
      <trkpt lat="49.36727" lon="1.13389">
        <ele>87.5</ele>
        <time>2011-05-01T07:38:30Z</time>
      </trkpt>
      <trkpt lat="49.36717" lon="1.13364">
        <ele>84.6</ele>
        <time>2011-05-01T07:38:33Z</time>
      </trkpt>
      <trkpt lat="49.36707" lon="1.13334">
        <ele>81.4</ele>
        <time>2011-05-01T07:38:37Z</time>
      </trkpt>
      <trkpt lat="49.36695" lon="1.13304">
        <ele>77.8</ele>
        <time>2011-05-01T07:38:43Z</time>
      </trkpt>
      <trkpt lat="49.36691" lon="1.1329">
        <ele>76.4</ele>
        <time>2011-05-01T07:38:45Z</time>
      </trkpt>
      <trkpt lat="49.36685" lon="1.13261">
        <ele>73.8</ele>
        <time>2011-05-01T07:38:48Z</time>
      </trkpt>
      <trkpt lat="49.36683" lon="1.13197">
        <ele>66.4</ele>
        <time>2011-05-01T07:38:54Z</time>
      </trkpt>
      <trkpt lat="49.36683" lon="1.13188">
        <ele>65.2</ele>
        <time>2011-05-01T07:38:55Z</time>
      </trkpt>
      <trkpt lat="49.36692" lon="1.13142">
        <ele>58.8</ele>
        <time>2011-05-01T07:39:00Z</time>
      </trkpt>
      <trkpt lat="49.36702" lon="1.13106">
        <ele>53.1</ele>
        <time>2011-05-01T07:39:04Z</time>
      </trkpt>
      <trkpt lat="49.36705" lon="1.13097">
        <ele>51.7</ele>
        <time>2011-05-01T07:39:05Z</time>
      </trkpt>
      <trkpt lat="49.36721" lon="1.13066">
        <ele>45.6</ele>
        <time>2011-05-01T07:39:10Z</time>
      </trkpt>
      <trkpt lat="49.36723" lon="1.13058">
        <ele>43.9</ele>
        <time>2011-05-01T07:39:12Z</time>
      </trkpt>
      <trkpt lat="49.36726" lon="1.13052">
        <ele>42.4</ele>
        <time>2011-05-01T07:39:17Z</time>
      </trkpt>
      <trkpt lat="49.3673" lon="1.13049">
        <ele>41.9</ele>
        <time>2011-05-01T07:39:23Z</time>
      </trkpt>
      <trkpt lat="49.36736" lon="1.13038">
        <ele>39.1</ele>
        <time>2011-05-01T07:39:27Z</time>
      </trkpt>
      <trkpt lat="49.36754" lon="1.12998">
        <ele>28.6</ele>
        <time>2011-05-01T07:39:33Z</time>
      </trkpt>
      <trkpt lat="49.36767" lon="1.12977">
        <ele>22.8</ele>
        <time>2011-05-01T07:39:36Z</time>
      </trkpt>
      <trkpt lat="49.36776" lon="1.12965">
        <ele>19.6</ele>
        <time>2011-05-01T07:39:38Z</time>
      </trkpt>
      <trkpt lat="49.36794" lon="1.12949">
        <ele>15.1</ele>
        <time>2011-05-01T07:39:42Z</time>
      </trkpt>
      <trkpt lat="49.36815" lon="1.12942">
        <ele>12</ele>
        <time>2011-05-01T07:39:46Z</time>
      </trkpt>
      <trkpt lat="49.36842" lon="1.12959">
        <ele>12.1</ele>
        <time>2011-05-01T07:39:51Z</time>
      </trkpt>
      <trkpt lat="49.36848" lon="1.12963">
        <ele>13.1</ele>
        <time>2011-05-01T07:39:52Z</time>
      </trkpt>
      <trkpt lat="49.36864" lon="1.12975">
        <ele>15.4</ele>
        <time>2011-05-01T07:39:56Z</time>
      </trkpt>
      <trkpt lat="49.36872" lon="1.12968">
        <ele>16.9</ele>
        <time>2011-05-01T07:39:59Z</time>
      </trkpt>
      <trkpt lat="49.36873" lon="1.12954">
        <ele>17.9</ele>
        <time>2011-05-01T07:40:01Z</time>
      </trkpt>
      <trkpt lat="49.3687" lon="1.12922">
        <ele>19.2</ele>
        <time>2011-05-01T07:40:05Z</time>
      </trkpt>
      <trkpt lat="49.36868" lon="1.12914">
        <ele>19</ele>
        <time>2011-05-01T07:40:07Z</time>
      </trkpt>
      <trkpt lat="49.3687" lon="1.12907">
        <ele>19.6</ele>
        <time>2011-05-01T07:40:12Z</time>
      </trkpt>
      <trkpt lat="49.3688" lon="1.129">
        <ele>22.8</ele>
        <time>2011-05-01T07:40:19Z</time>
      </trkpt>
      <trkpt lat="49.36891" lon="1.12883">
        <ele>26.3</ele>
        <time>2011-05-01T07:40:24Z</time>
      </trkpt>
      <trkpt lat="49.36903" lon="1.12866">
        <ele>30.3</ele>
        <time>2011-05-01T07:40:28Z</time>
      </trkpt>
      <trkpt lat="49.36911" lon="1.12869">
        <ele>32.5</ele>
        <time>2011-05-01T07:40:32Z</time>
      </trkpt>
      <trkpt lat="49.36915" lon="1.12872">
        <ele>33.5</ele>
        <time>2011-05-01T07:40:34Z</time>
      </trkpt>
      <trkpt lat="49.36927" lon="1.12887">
        <ele>37</ele>
        <time>2011-05-01T07:40:41Z</time>
      </trkpt>
      <trkpt lat="49.36935" lon="1.12899">
        <ele>39.2</ele>
        <time>2011-05-01T07:40:47Z</time>
      </trkpt>
      <trkpt lat="49.36941" lon="1.12906">
        <ele>40.5</ele>
        <time>2011-05-01T07:40:52Z</time>
      </trkpt>
      <trkpt lat="49.36948" lon="1.12917">
        <ele>42.5</ele>
        <time>2011-05-01T07:40:59Z</time>
      </trkpt>
      <trkpt lat="49.36949" lon="1.12921">
        <ele>41.9</ele>
        <time>2011-05-01T07:41:04Z</time>
      </trkpt>
      <trkpt lat="49.36949" lon="1.12923">
        <ele>41.4</ele>
        <time>2011-05-01T07:41:13Z</time>
      </trkpt>
      <trkpt lat="49.36953" lon="1.12925">
        <ele>42.3</ele>
        <time>2011-05-01T07:41:18Z</time>
      </trkpt>
      <trkpt lat="49.36958" lon="1.12929">
        <ele>42.9</ele>
        <time>2011-05-01T07:41:25Z</time>
      </trkpt>
      <trkpt lat="49.36963" lon="1.12935">
        <ele>43</ele>
        <time>2011-05-01T07:41:33Z</time>
      </trkpt>
      <trkpt lat="49.36969" lon="1.12939">
        <ele>43.6</ele>
        <time>2011-05-01T07:41:40Z</time>
      </trkpt>
      <trkpt lat="49.36973" lon="1.12941">
        <ele>44.3</ele>
        <time>2011-05-01T07:41:46Z</time>
      </trkpt>
      <trkpt lat="49.3698" lon="1.12944">
        <ele>45.4</ele>
        <time>2011-05-01T07:41:56Z</time>
      </trkpt>
      <trkpt lat="49.36985" lon="1.12945">
        <ele>46.4</ele>
        <time>2011-05-01T07:42:03Z</time>
      </trkpt>
      <trkpt lat="49.36989" lon="1.12946">
        <ele>47.5</ele>
        <time>2011-05-01T07:42:11Z</time>
      </trkpt>
      <trkpt lat="49.36997" lon="1.12947">
        <ele>49.2</ele>
        <time>2011-05-01T07:42:19Z</time>
      </trkpt>
      <trkpt lat="49.37006" lon="1.1295">
        <ele>50.9</ele>
        <time>2011-05-01T07:42:28Z</time>
      </trkpt>
      <trkpt lat="49.37014" lon="1.12952">
        <ele>52.6</ele>
        <time>2011-05-01T07:42:38Z</time>
      </trkpt>
      <trkpt lat="49.3702" lon="1.12953">
        <ele>54.2</ele>
        <time>2011-05-01T07:42:46Z</time>
      </trkpt>
      <trkpt lat="49.37025" lon="1.12954">
        <ele>55.2</ele>
        <time>2011-05-01T07:42:53Z</time>
      </trkpt>
      <trkpt lat="49.37032" lon="1.12955">
        <ele>56.9</ele>
        <time>2011-05-01T07:43:03Z</time>
      </trkpt>
      <trkpt lat="49.37039" lon="1.12954">
        <ele>59</ele>
        <time>2011-05-01T07:43:12Z</time>
      </trkpt>
      <trkpt lat="49.37045" lon="1.12955">
        <ele>60.5</ele>
        <time>2011-05-01T07:43:21Z</time>
      </trkpt>
      <trkpt lat="49.37051" lon="1.12955">
        <ele>62.1</ele>
        <time>2011-05-01T07:43:30Z</time>
      </trkpt>
      <trkpt lat="49.37058" lon="1.12955">
        <ele>64</ele>
        <time>2011-05-01T07:43:40Z</time>
      </trkpt>
      <trkpt lat="49.37065" lon="1.12954">
        <ele>66.3</ele>
        <time>2011-05-01T07:43:50Z</time>
      </trkpt>
      <trkpt lat="49.37071" lon="1.12953">
        <ele>68.2</ele>
        <time>2011-05-01T07:44:00Z</time>
      </trkpt>
      <trkpt lat="49.37073" lon="1.12953">
        <ele>68.8</ele>
        <time>2011-05-01T07:44:04Z</time>
      </trkpt>
      <trkpt lat="49.3708" lon="1.12953">
        <ele>70.7</ele>
        <time>2011-05-01T07:44:14Z</time>
      </trkpt>
      <trkpt lat="49.37086" lon="1.12952">
        <ele>72.5</ele>
        <time>2011-05-01T07:44:23Z</time>
      </trkpt>
      <trkpt lat="49.37092" lon="1.1295">
        <ele>74.1</ele>
        <time>2011-05-01T07:44:32Z</time>
      </trkpt>
      <trkpt lat="49.37096" lon="1.12949">
        <ele>75</ele>
        <time>2011-05-01T07:44:41Z</time>
      </trkpt>
      <trkpt lat="49.37103" lon="1.12948">
        <ele>76.7</ele>
        <time>2011-05-01T07:44:50Z</time>
      </trkpt>
      <trkpt lat="49.3711" lon="1.12947">
        <ele>78.2</ele>
        <time>2011-05-01T07:44:59Z</time>
      </trkpt>
      <trkpt lat="49.37117" lon="1.12946">
        <ele>79.8</ele>
        <time>2011-05-01T07:45:10Z</time>
      </trkpt>
      <trkpt lat="49.37126" lon="1.12945">
        <ele>81.4</ele>
        <time>2011-05-01T07:45:20Z</time>
      </trkpt>
      <trkpt lat="49.37133" lon="1.12942">
        <ele>83.4</ele>
        <time>2011-05-01T07:45:30Z</time>
      </trkpt>
      <trkpt lat="49.37143" lon="1.12943">
        <ele>84.9</ele>
        <time>2011-05-01T07:45:39Z</time>
      </trkpt>
      <trkpt lat="49.37151" lon="1.12944">
        <ele>86.2</ele>
        <time>2011-05-01T07:45:48Z</time>
      </trkpt>
      <trkpt lat="49.37159" lon="1.12946">
        <ele>87.4</ele>
        <time>2011-05-01T07:45:58Z</time>
      </trkpt>
      <trkpt lat="49.37167" lon="1.1295">
        <ele>88.6</ele>
        <time>2011-05-01T07:46:07Z</time>
      </trkpt>
      <trkpt lat="49.37179" lon="1.12955">
        <ele>90.5</ele>
        <time>2011-05-01T07:46:19Z</time>
      </trkpt>
      <trkpt lat="49.37189" lon="1.12959">
        <ele>92.5</ele>
        <time>2011-05-01T07:46:29Z</time>
      </trkpt>
      <trkpt lat="49.372" lon="1.12962">
        <ele>94.9</ele>
        <time>2011-05-01T07:46:40Z</time>
      </trkpt>
      <trkpt lat="49.37211" lon="1.12962">
        <ele>97.4</ele>
        <time>2011-05-01T07:46:50Z</time>
      </trkpt>
      <trkpt lat="49.37219" lon="1.12962">
        <ele>99.4</ele>
        <time>2011-05-01T07:47:00Z</time>
      </trkpt>
      <trkpt lat="49.37226" lon="1.12963">
        <ele>101</ele>
        <time>2011-05-01T07:47:08Z</time>
      </trkpt>
      <trkpt lat="49.37236" lon="1.12962">
        <ele>103.2</ele>
        <time>2011-05-01T07:47:18Z</time>
      </trkpt>
      <trkpt lat="49.37242" lon="1.12963">
        <ele>104.7</ele>
        <time>2011-05-01T07:47:26Z</time>
      </trkpt>
      <trkpt lat="49.37249" lon="1.12962">
        <ele>106.3</ele>
        <time>2011-05-01T07:47:41Z</time>
      </trkpt>
      <trkpt lat="49.37257" lon="1.1296">
        <ele>107.8</ele>
        <time>2011-05-01T07:47:50Z</time>
      </trkpt>
      <trkpt lat="49.37265" lon="1.12959">
        <ele>109.1</ele>
        <time>2011-05-01T07:47:59Z</time>
      </trkpt>
      <trkpt lat="49.37272" lon="1.12961">
        <ele>110.5</ele>
        <time>2011-05-01T07:48:08Z</time>
      </trkpt>
      <trkpt lat="49.37275" lon="1.12962">
        <ele>111.1</ele>
        <time>2011-05-01T07:48:16Z</time>
      </trkpt>
      <trkpt lat="49.37279" lon="1.12962">
        <ele>111.7</ele>
        <time>2011-05-01T07:48:27Z</time>
      </trkpt>
      <trkpt lat="49.37281" lon="1.12963">
        <ele>112.1</ele>
        <time>2011-05-01T07:48:34Z</time>
      </trkpt>
      <trkpt lat="49.37281" lon="1.12963">
        <ele>112.1</ele>
        <time>2011-05-01T07:48:56Z</time>
      </trkpt>
      <trkpt lat="49.37284" lon="1.12963">
        <ele>112.7</ele>
        <time>2011-05-01T07:49:06Z</time>
      </trkpt>
      <trkpt lat="49.3729" lon="1.12964">
        <ele>113.9</ele>
        <time>2011-05-01T07:49:15Z</time>
      </trkpt>
      <trkpt lat="49.37292" lon="1.12964">
        <ele>114.2</ele>
        <time>2011-05-01T07:49:23Z</time>
      </trkpt>
      <trkpt lat="49.37301" lon="1.12965">
        <ele>116</ele>
        <time>2011-05-01T07:49:30Z</time>
      </trkpt>
      <trkpt lat="49.37311" lon="1.12968">
        <ele>118.2</ele>
        <time>2011-05-01T07:49:37Z</time>
      </trkpt>
      <trkpt lat="49.37319" lon="1.12971">
        <ele>120.3</ele>
        <time>2011-05-01T07:49:44Z</time>
      </trkpt>
      <trkpt lat="49.37326" lon="1.12974">
        <ele>122.2</ele>
        <time>2011-05-01T07:49:51Z</time>
      </trkpt>
      <trkpt lat="49.37332" lon="1.12977">
        <ele>123.6</ele>
        <time>2011-05-01T07:49:56Z</time>
      </trkpt>
      <trkpt lat="49.37335" lon="1.12981">
        <ele>124.7</ele>
        <time>2011-05-01T07:50:02Z</time>
      </trkpt>
      <trkpt lat="49.37336" lon="1.12983">
        <ele>124.9</ele>
        <time>2011-05-01T07:50:16Z</time>
      </trkpt>
      <trkpt lat="49.37336" lon="1.1298">
        <ele>124.5</ele>
        <time>2011-05-01T07:50:34Z</time>
      </trkpt>
      <trkpt lat="49.37335" lon="1.12979">
        <ele>124.3</ele>
        <time>2011-05-01T07:50:51Z</time>
      </trkpt>
      <trkpt lat="49.37335" lon="1.12979">
        <ele>124.4</ele>
        <time>2011-05-01T07:51:03Z</time>
      </trkpt>
      <trkpt lat="49.37335" lon="1.12981">
        <ele>124.6</ele>
        <time>2011-05-01T07:51:17Z</time>
      </trkpt>
      <trkpt lat="49.37335" lon="1.12981">
        <ele>124.6</ele>
        <time>2011-05-01T07:51:26Z</time>
      </trkpt>
      <trkpt lat="49.37336" lon="1.12981">
        <ele>124.6</ele>
        <time>2011-05-01T07:51:36Z</time>
      </trkpt>
      <trkpt lat="49.37337" lon="1.12983">
        <ele>125</ele>
        <time>2011-05-01T07:51:40Z</time>
      </trkpt>
      <trkpt lat="49.37334" lon="1.13003">
        <ele>127.9</ele>
        <time>2011-05-01T07:51:47Z</time>
      </trkpt>
      <trkpt lat="49.37339" lon="1.13027">
        <ele>127.1</ele>
        <time>2011-05-01T07:51:51Z</time>
      </trkpt>
      <trkpt lat="49.37351" lon="1.13046">
        <ele>127</ele>
        <time>2011-05-01T07:51:55Z</time>
      </trkpt>
      <trkpt lat="49.37355" lon="1.13058">
        <ele>126.9</ele>
        <time>2011-05-01T07:51:57Z</time>
      </trkpt>
      <trkpt lat="49.37359" lon="1.13068">
        <ele>127</ele>
        <time>2011-05-01T07:51:59Z</time>
      </trkpt>
      <trkpt lat="49.37355" lon="1.13097">
        <ele>125.9</ele>
        <time>2011-05-01T07:52:04Z</time>
      </trkpt>
      <trkpt lat="49.37352" lon="1.13135">
        <ele>123.7</ele>
        <time>2011-05-01T07:52:10Z</time>
      </trkpt>
      <trkpt lat="49.37365" lon="1.13182">
        <ele>122.8</ele>
        <time>2011-05-01T07:52:17Z</time>
      </trkpt>
      <trkpt lat="49.37374" lon="1.13226">
        <ele>122.3</ele>
        <time>2011-05-01T07:52:23Z</time>
      </trkpt>
      <trkpt lat="49.3738" lon="1.13245">
        <ele>122.3</ele>
        <time>2011-05-01T07:52:26Z</time>
      </trkpt>
      <trkpt lat="49.37387" lon="1.1328">
        <ele>122.5</ele>
        <time>2011-05-01T07:52:31Z</time>
      </trkpt>
      <trkpt lat="49.3739" lon="1.13293">
        <ele>122.8</ele>
        <time>2011-05-01T07:52:33Z</time>
      </trkpt>
      <trkpt lat="49.37398" lon="1.1335">
        <ele>121.9</ele>
        <time>2011-05-01T07:52:40Z</time>
      </trkpt>
      <trkpt lat="49.37413" lon="1.13393">
        <ele>120.6</ele>
        <time>2011-05-01T07:52:46Z</time>
      </trkpt>
      <trkpt lat="49.37425" lon="1.13417">
        <ele>119.6</ele>
        <time>2011-05-01T07:52:50Z</time>
      </trkpt>
      <trkpt lat="49.37425" lon="1.13461">
        <ele>113.6</ele>
        <time>2011-05-01T07:52:55Z</time>
      </trkpt>
      <trkpt lat="49.37423" lon="1.1347">
        <ele>112.1</ele>
        <time>2011-05-01T07:52:56Z</time>
      </trkpt>
      <trkpt lat="49.3742" lon="1.1349">
        <ele>108.8</ele>
        <time>2011-05-01T07:52:59Z</time>
      </trkpt>
      <trkpt lat="49.37422" lon="1.13517">
        <ele>103.8</ele>
        <time>2011-05-01T07:53:03Z</time>
      </trkpt>
      <trkpt lat="49.37428" lon="1.13545">
        <ele>97.7</ele>
        <time>2011-05-01T07:53:07Z</time>
      </trkpt>
      <trkpt lat="49.37439" lon="1.13607">
        <ele>86.8</ele>
        <time>2011-05-01T07:53:14Z</time>
      </trkpt>
      <trkpt lat="49.37448" lon="1.13642">
        <ele>83.9</ele>
        <time>2011-05-01T07:53:19Z</time>
      </trkpt>
      <trkpt lat="49.37461" lon="1.13664">
        <ele>85.3</ele>
        <time>2011-05-01T07:53:24Z</time>
      </trkpt>
      <trkpt lat="49.37465" lon="1.13673">
        <ele>85.5</ele>
        <time>2011-05-01T07:53:26Z</time>
      </trkpt>
      <trkpt lat="49.37472" lon="1.137">
        <ele>82.9</ele>
        <time>2011-05-01T07:53:31Z</time>
      </trkpt>
      <trkpt lat="49.37479" lon="1.13714">
        <ele>82.6</ele>
        <time>2011-05-01T07:53:35Z</time>
      </trkpt>
      <trkpt lat="49.37476" lon="1.13722">
        <ele>79.6</ele>
        <time>2011-05-01T07:53:39Z</time>
      </trkpt>
      <trkpt lat="49.37467" lon="1.13722">
        <ele>76.8</ele>
        <time>2011-05-01T07:53:43Z</time>
      </trkpt>
      <trkpt lat="49.37463" lon="1.13727">
        <ele>74.3</ele>
        <time>2011-05-01T07:53:46Z</time>
      </trkpt>
      <trkpt lat="49.37458" lon="1.13742">
        <ele>69.5</ele>
        <time>2011-05-01T07:53:50Z</time>
      </trkpt>
      <trkpt lat="49.37458" lon="1.13762">
        <ele>64.9</ele>
        <time>2011-05-01T07:53:55Z</time>
      </trkpt>
      <trkpt lat="49.37459" lon="1.13766">
        <ele>64.1</ele>
        <time>2011-05-01T07:53:56Z</time>
      </trkpt>
      <trkpt lat="49.37477" lon="1.13796">
        <ele>60.7</ele>
        <time>2011-05-01T07:54:03Z</time>
      </trkpt>
      <trkpt lat="49.37498" lon="1.13814">
        <ele>60.2</ele>
        <time>2011-05-01T07:54:09Z</time>
      </trkpt>
      <trkpt lat="49.37518" lon="1.13823">
        <ele>60.5</ele>
        <time>2011-05-01T07:54:16Z</time>
      </trkpt>
      <trkpt lat="49.37546" lon="1.13833">
        <ele>62.1</ele>
        <time>2011-05-01T07:54:25Z</time>
      </trkpt>
      <trkpt lat="49.37564" lon="1.13841">
        <ele>62.7</ele>
        <time>2011-05-01T07:54:32Z</time>
      </trkpt>
      <trkpt lat="49.3758" lon="1.13849">
        <ele>63.2</ele>
        <time>2011-05-01T07:54:39Z</time>
      </trkpt>
      <trkpt lat="49.37592" lon="1.13856">
        <ele>62.7</ele>
        <time>2011-05-01T07:54:45Z</time>
      </trkpt>
      <trkpt lat="49.3761" lon="1.13864">
        <ele>62.2</ele>
        <time>2011-05-01T07:54:53Z</time>
      </trkpt>
      <trkpt lat="49.37625" lon="1.13871">
        <ele>61.7</ele>
        <time>2011-05-01T07:55:01Z</time>
      </trkpt>
      <trkpt lat="49.37636" lon="1.13875">
        <ele>61.6</ele>
        <time>2011-05-01T07:55:07Z</time>
      </trkpt>
      <trkpt lat="49.37651" lon="1.13879">
        <ele>62.1</ele>
        <time>2011-05-01T07:55:14Z</time>
      </trkpt>
      <trkpt lat="49.37669" lon="1.13883">
        <ele>62.6</ele>
        <time>2011-05-01T07:55:23Z</time>
      </trkpt>
      <trkpt lat="49.37685" lon="1.13885">
        <ele>63.6</ele>
        <time>2011-05-01T07:55:31Z</time>
      </trkpt>
      <trkpt lat="49.37703" lon="1.13885">
        <ele>65.7</ele>
        <time>2011-05-01T07:55:40Z</time>
      </trkpt>
      <trkpt lat="49.37716" lon="1.13882">
        <ele>67.5</ele>
        <time>2011-05-01T07:55:46Z</time>
      </trkpt>
      <trkpt lat="49.37725" lon="1.13872">
        <ele>71.5</ele>
        <time>2011-05-01T07:55:51Z</time>
      </trkpt>
      <trkpt lat="49.37734" lon="1.13853">
        <ele>77.9</ele>
        <time>2011-05-01T07:55:58Z</time>
      </trkpt>
      <trkpt lat="49.3774" lon="1.13843">
        <ele>81.4</ele>
        <time>2011-05-01T07:56:03Z</time>
      </trkpt>
      <trkpt lat="49.37749" lon="1.13841">
        <ele>82.8</ele>
        <time>2011-05-01T07:56:09Z</time>
      </trkpt>
      <trkpt lat="49.37751" lon="1.13842">
        <ele>82.7</ele>
        <time>2011-05-01T07:56:10Z</time>
      </trkpt>
      <trkpt lat="49.37764" lon="1.13852">
        <ele>82.2</ele>
        <time>2011-05-01T07:56:17Z</time>
      </trkpt>
      <trkpt lat="49.37783" lon="1.1387">
        <ele>81.6</ele>
        <time>2011-05-01T07:56:26Z</time>
      </trkpt>
      <trkpt lat="49.3779" lon="1.13877">
        <ele>81.5</ele>
        <time>2011-05-01T07:56:31Z</time>
      </trkpt>
      <trkpt lat="49.37797" lon="1.13879">
        <ele>82.9</ele>
        <time>2011-05-01T07:56:37Z</time>
      </trkpt>
      <trkpt lat="49.37807" lon="1.13872">
        <ele>86.2</ele>
        <time>2011-05-01T07:56:44Z</time>
      </trkpt>
      <trkpt lat="49.37814" lon="1.13865">
        <ele>88.6</ele>
        <time>2011-05-01T07:56:50Z</time>
      </trkpt>
      <trkpt lat="49.37825" lon="1.13856">
        <ele>91.6</ele>
        <time>2011-05-01T07:56:54Z</time>
      </trkpt>
      <trkpt lat="49.37849" lon="1.13839">
        <ele>99.7</ele>
        <time>2011-05-01T07:57:01Z</time>
      </trkpt>
      <trkpt lat="49.37867" lon="1.1383">
        <ele>106</ele>
        <time>2011-05-01T07:57:05Z</time>
      </trkpt>
      <trkpt lat="49.37882" lon="1.13825">
        <ele>111.2</ele>
        <time>2011-05-01T07:57:10Z</time>
      </trkpt>
      <trkpt lat="49.37886" lon="1.13826">
        <ele>112.1</ele>
        <time>2011-05-01T07:57:13Z</time>
      </trkpt>
      <trkpt lat="49.37891" lon="1.13819">
        <ele>113.9</ele>
        <time>2011-05-01T07:57:20Z</time>
      </trkpt>
      <trkpt lat="49.37892" lon="1.13818">
        <ele>114.3</ele>
        <time>2011-05-01T07:57:21Z</time>
      </trkpt>
      <trkpt lat="49.37895" lon="1.13812">
        <ele>115.1</ele>
        <time>2011-05-01T07:57:27Z</time>
      </trkpt>
      <trkpt lat="49.37902" lon="1.13805">
        <ele>117.2</ele>
        <time>2011-05-01T07:57:33Z</time>
      </trkpt>
      <trkpt lat="49.37904" lon="1.13801">
        <ele>117.9</ele>
        <time>2011-05-01T07:57:35Z</time>
      </trkpt>
      <trkpt lat="49.37907" lon="1.13795">
        <ele>118.6</ele>
        <time>2011-05-01T07:57:39Z</time>
      </trkpt>
      <trkpt lat="49.37911" lon="1.13788">
        <ele>119.4</ele>
        <time>2011-05-01T07:57:44Z</time>
      </trkpt>
      <trkpt lat="49.37914" lon="1.13783">
        <ele>120.2</ele>
        <time>2011-05-01T07:57:48Z</time>
      </trkpt>
      <trkpt lat="49.37915" lon="1.1378">
        <ele>120.4</ele>
        <time>2011-05-01T07:57:50Z</time>
      </trkpt>
      <trkpt lat="49.37919" lon="1.13771">
        <ele>120.8</ele>
        <time>2011-05-01T07:57:56Z</time>
      </trkpt>
      <trkpt lat="49.37926" lon="1.13763">
        <ele>121.4</ele>
        <time>2011-05-01T07:58:02Z</time>
      </trkpt>
      <trkpt lat="49.37934" lon="1.13753">
        <ele>122.1</ele>
        <time>2011-05-01T07:58:09Z</time>
      </trkpt>
      <trkpt lat="49.37937" lon="1.13747">
        <ele>122.3</ele>
        <time>2011-05-01T07:58:13Z</time>
      </trkpt>
      <trkpt lat="49.37941" lon="1.1374">
        <ele>122.6</ele>
        <time>2011-05-01T07:58:18Z</time>
      </trkpt>
      <trkpt lat="49.37946" lon="1.13729">
        <ele>123</ele>
        <time>2011-05-01T07:58:26Z</time>
      </trkpt>
      <trkpt lat="49.37954" lon="1.13716">
        <ele>123.5</ele>
        <time>2011-05-01T07:58:33Z</time>
      </trkpt>
      <trkpt lat="49.37959" lon="1.13708">
        <ele>123.8</ele>
        <time>2011-05-01T07:58:40Z</time>
      </trkpt>
      <trkpt lat="49.37966" lon="1.13703">
        <ele>124.4</ele>
        <time>2011-05-01T07:58:47Z</time>
      </trkpt>
      <trkpt lat="49.37973" lon="1.13694">
        <ele>124.9</ele>
        <time>2011-05-01T07:59:14Z</time>
      </trkpt>
      <trkpt lat="49.37976" lon="1.13694">
        <ele>125.3</ele>
        <time>2011-05-01T07:59:42Z</time>
      </trkpt>
      <trkpt lat="49.37978" lon="1.13694">
        <ele>125.5</ele>
        <time>2011-05-01T07:59:52Z</time>
      </trkpt>
      <trkpt lat="49.37979" lon="1.13688">
        <ele>125.4</ele>
        <time>2011-05-01T07:59:59Z</time>
      </trkpt>
      <trkpt lat="49.37985" lon="1.13683">
        <ele>125.9</ele>
        <time>2011-05-01T08:00:06Z</time>
      </trkpt>
      <trkpt lat="49.37988" lon="1.1368">
        <ele>126.1</ele>
        <time>2011-05-01T08:00:09Z</time>
      </trkpt>
      <trkpt lat="49.37991" lon="1.13674">
        <ele>126.3</ele>
        <time>2011-05-01T08:00:14Z</time>
      </trkpt>
      <trkpt lat="49.37992" lon="1.13672">
        <ele>126.4</ele>
        <time>2011-05-01T08:00:16Z</time>
      </trkpt>
      <trkpt lat="49.37999" lon="1.13666">
        <ele>126.9</ele>
        <time>2011-05-01T08:00:24Z</time>
      </trkpt>
      <trkpt lat="49.38002" lon="1.13667">
        <ele>127.1</ele>
        <time>2011-05-01T08:00:29Z</time>
      </trkpt>
      <trkpt lat="49.3801" lon="1.13665">
        <ele>127.9</ele>
        <time>2011-05-01T08:00:35Z</time>
      </trkpt>
      <trkpt lat="49.3802" lon="1.13663">
        <ele>128.9</ele>
        <time>2011-05-01T08:00:42Z</time>
      </trkpt>
      <trkpt lat="49.38026" lon="1.13662">
        <ele>129.3</ele>
        <time>2011-05-01T08:00:47Z</time>
      </trkpt>
      <trkpt lat="49.38034" lon="1.13666">
        <ele>129.5</ele>
        <time>2011-05-01T08:00:54Z</time>
      </trkpt>
      <trkpt lat="49.38038" lon="1.13667">
        <ele>129.7</ele>
        <time>2011-05-01T08:00:57Z</time>
      </trkpt>
      <trkpt lat="49.38048" lon="1.13673">
        <ele>130.5</ele>
        <time>2011-05-01T08:01:06Z</time>
      </trkpt>
      <trkpt lat="49.38055" lon="1.13677">
        <ele>131.1</ele>
        <time>2011-05-01T08:01:12Z</time>
      </trkpt>
      <trkpt lat="49.38062" lon="1.1368">
        <ele>131.6</ele>
        <time>2011-05-01T08:01:19Z</time>
      </trkpt>
      <trkpt lat="49.38066" lon="1.13681">
        <ele>131.8</ele>
        <time>2011-05-01T08:01:22Z</time>
      </trkpt>
      <trkpt lat="49.38069" lon="1.13685">
        <ele>132.1</ele>
        <time>2011-05-01T08:01:27Z</time>
      </trkpt>
      <trkpt lat="49.38073" lon="1.13686">
        <ele>132.3</ele>
        <time>2011-05-01T08:01:30Z</time>
      </trkpt>
      <trkpt lat="49.38078" lon="1.13687">
        <ele>132.7</ele>
        <time>2011-05-01T08:01:37Z</time>
      </trkpt>
      <trkpt lat="49.38081" lon="1.13688">
        <ele>132.8</ele>
        <time>2011-05-01T08:01:44Z</time>
      </trkpt>
      <trkpt lat="49.38087" lon="1.13686">
        <ele>133.2</ele>
        <time>2011-05-01T08:01:53Z</time>
      </trkpt>
      <trkpt lat="49.38091" lon="1.13688">
        <ele>133.3</ele>
        <time>2011-05-01T08:02:01Z</time>
      </trkpt>
      <trkpt lat="49.38094" lon="1.13688">
        <ele>133.5</ele>
        <time>2011-05-01T08:02:06Z</time>
      </trkpt>
      <trkpt lat="49.381" lon="1.13691">
        <ele>133.7</ele>
        <time>2011-05-01T08:02:14Z</time>
      </trkpt>
      <trkpt lat="49.38103" lon="1.13695">
        <ele>133.8</ele>
        <time>2011-05-01T08:02:20Z</time>
      </trkpt>
      <trkpt lat="49.38108" lon="1.13695">
        <ele>134</ele>
        <time>2011-05-01T08:02:25Z</time>
      </trkpt>
      <trkpt lat="49.38112" lon="1.13694">
        <ele>134.1</ele>
        <time>2011-05-01T08:02:29Z</time>
      </trkpt>
      <trkpt lat="49.38114" lon="1.13696">
        <ele>134.2</ele>
        <time>2011-05-01T08:02:32Z</time>
      </trkpt>
      <trkpt lat="49.38118" lon="1.13697">
        <ele>134.4</ele>
        <time>2011-05-01T08:02:39Z</time>
      </trkpt>
      <trkpt lat="49.38126" lon="1.13703">
        <ele>134.6</ele>
        <time>2011-05-01T08:02:50Z</time>
      </trkpt>
      <trkpt lat="49.38135" lon="1.13711">
        <ele>134.8</ele>
        <time>2011-05-01T08:02:59Z</time>
      </trkpt>
      <trkpt lat="49.3814" lon="1.13716">
        <ele>134.9</ele>
        <time>2011-05-01T08:03:06Z</time>
      </trkpt>
      <trkpt lat="49.38145" lon="1.13722">
        <ele>135</ele>
        <time>2011-05-01T08:03:15Z</time>
      </trkpt>
      <trkpt lat="49.38148" lon="1.13723">
        <ele>135.1</ele>
        <time>2011-05-01T08:03:20Z</time>
      </trkpt>
      <trkpt lat="49.38151" lon="1.13724">
        <ele>135.1</ele>
        <time>2011-05-01T08:03:25Z</time>
      </trkpt>
      <trkpt lat="49.38153" lon="1.13727">
        <ele>135.1</ele>
        <time>2011-05-01T08:03:29Z</time>
      </trkpt>
      <trkpt lat="49.38153" lon="1.13728">
        <ele>135.1</ele>
        <time>2011-05-01T08:03:37Z</time>
      </trkpt>
      <trkpt lat="49.38153" lon="1.13728">
        <ele>135.1</ele>
        <time>2011-05-01T08:03:49Z</time>
      </trkpt>
      <trkpt lat="49.38153" lon="1.13728">
        <ele>135.1</ele>
        <time>2011-05-01T08:04:04Z</time>
      </trkpt>
      <trkpt lat="49.38154" lon="1.13728">
        <ele>135.1</ele>
        <time>2011-05-01T08:04:18Z</time>
      </trkpt>
      <trkpt lat="49.38153" lon="1.1373">
        <ele>135.1</ele>
        <time>2011-05-01T08:04:43Z</time>
      </trkpt>
      <trkpt lat="49.38154" lon="1.13732">
        <ele>135.1</ele>
        <time>2011-05-01T08:05:01Z</time>
      </trkpt>
      <trkpt lat="49.38154" lon="1.13731">
        <ele>135.1</ele>
        <time>2011-05-01T08:05:12Z</time>
      </trkpt>
      <trkpt lat="49.38155" lon="1.13731">
        <ele>135.1</ele>
        <time>2011-05-01T08:05:23Z</time>
      </trkpt>
      <trkpt lat="49.38156" lon="1.13729">
        <ele>135.2</ele>
        <time>2011-05-01T08:05:35Z</time>
      </trkpt>
      <trkpt lat="49.38158" lon="1.13725">
        <ele>135.3</ele>
        <time>2011-05-01T08:05:38Z</time>
      </trkpt>
      <trkpt lat="49.38166" lon="1.13717">
        <ele>135.8</ele>
        <time>2011-05-01T08:05:44Z</time>
      </trkpt>
      <trkpt lat="49.38168" lon="1.13715">
        <ele>135.9</ele>
        <time>2011-05-01T08:05:45Z</time>
      </trkpt>
      <trkpt lat="49.38181" lon="1.13701">
        <ele>136.4</ele>
        <time>2011-05-01T08:05:52Z</time>
      </trkpt>
      <trkpt lat="49.38198" lon="1.13683">
        <ele>137.1</ele>
        <time>2011-05-01T08:05:59Z</time>
      </trkpt>
      <trkpt lat="49.38218" lon="1.13664">
        <ele>137.6</ele>
        <time>2011-05-01T08:06:07Z</time>
      </trkpt>
      <trkpt lat="49.38231" lon="1.13655">
        <ele>137.5</ele>
        <time>2011-05-01T08:06:12Z</time>
      </trkpt>
      <trkpt lat="49.38241" lon="1.13665">
        <ele>137.8</ele>
        <time>2011-05-01T08:06:16Z</time>
      </trkpt>
      <trkpt lat="49.38256" lon="1.13701">
        <ele>137.5</ele>
        <time>2011-05-01T08:06:24Z</time>
      </trkpt>
      <trkpt lat="49.38274" lon="1.13737">
        <ele>137.3</ele>
        <time>2011-05-01T08:06:32Z</time>
      </trkpt>
      <trkpt lat="49.38296" lon="1.13762">
        <ele>137.7</ele>
        <time>2011-05-01T08:06:40Z</time>
      </trkpt>
      <trkpt lat="49.38327" lon="1.13794">
        <ele>138.4</ele>
        <time>2011-05-01T08:06:50Z</time>
      </trkpt>
      <trkpt lat="49.38354" lon="1.13823">
        <ele>138.7</ele>
        <time>2011-05-01T08:06:59Z</time>
      </trkpt>
      <trkpt lat="49.38373" lon="1.13844">
        <ele>138.6</ele>
        <time>2011-05-01T08:07:05Z</time>
      </trkpt>
      <trkpt lat="49.38396" lon="1.13879">
        <ele>138.7</ele>
        <time>2011-05-01T08:07:13Z</time>
      </trkpt>
      <trkpt lat="49.38422" lon="1.1392">
        <ele>139.3</ele>
        <time>2011-05-01T08:07:22Z</time>
      </trkpt>
      <trkpt lat="49.38446" lon="1.13958">
        <ele>141</ele>
        <time>2011-05-01T08:07:30Z</time>
      </trkpt>
      <trkpt lat="49.38467" lon="1.13994">
        <ele>142.7</ele>
        <time>2011-05-01T08:07:37Z</time>
      </trkpt>
      <trkpt lat="49.38492" lon="1.14034">
        <ele>143.4</ele>
        <time>2011-05-01T08:07:45Z</time>
      </trkpt>
      <trkpt lat="49.38494" lon="1.14039">
        <ele>143.4</ele>
        <time>2011-05-01T08:07:46Z</time>
      </trkpt>
      <trkpt lat="49.38508" lon="1.14042">
        <ele>143.4</ele>
        <time>2011-05-01T08:07:50Z</time>
      </trkpt>
      <trkpt lat="49.38542" lon="1.1401">
        <ele>143.4</ele>
        <time>2011-05-01T08:07:58Z</time>
      </trkpt>
      <trkpt lat="49.38558" lon="1.13994">
        <ele>143.2</ele>
        <time>2011-05-01T08:08:02Z</time>
      </trkpt>
      <trkpt lat="49.386" lon="1.13963">
        <ele>142.5</ele>
        <time>2011-05-01T08:08:11Z</time>
      </trkpt>
      <trkpt lat="49.38633" lon="1.13945">
        <ele>141.9</ele>
        <time>2011-05-01T08:08:17Z</time>
      </trkpt>
      <trkpt lat="49.38674" lon="1.13921">
        <ele>141.2</ele>
        <time>2011-05-01T08:08:24Z</time>
      </trkpt>
      <trkpt lat="49.38713" lon="1.13891">
        <ele>141.1</ele>
        <time>2011-05-01T08:08:31Z</time>
      </trkpt>
      <trkpt lat="49.38752" lon="1.1385">
        <ele>141.3</ele>
        <time>2011-05-01T08:08:39Z</time>
      </trkpt>
      <trkpt lat="49.38757" lon="1.13845">
        <ele>141.4</ele>
        <time>2011-05-01T08:08:40Z</time>
      </trkpt>
      <trkpt lat="49.38784" lon="1.1382">
        <ele>142</ele>
        <time>2011-05-01T08:08:45Z</time>
      </trkpt>
      <trkpt lat="49.38816" lon="1.13787">
        <ele>142.4</ele>
        <time>2011-05-01T08:08:51Z</time>
      </trkpt>
      <trkpt lat="49.38826" lon="1.13782">
        <ele>142.5</ele>
        <time>2011-05-01T08:08:55Z</time>
      </trkpt>
      <trkpt lat="49.38828" lon="1.13781">
        <ele>142.6</ele>
        <time>2011-05-01T08:09:00Z</time>
      </trkpt>
      <trkpt lat="49.38831" lon="1.13793">
        <ele>142.9</ele>
        <time>2011-05-01T08:09:05Z</time>
      </trkpt>
      <trkpt lat="49.38838" lon="1.13818">
        <ele>143.7</ele>
        <time>2011-05-01T08:09:10Z</time>
      </trkpt>
      <trkpt lat="49.38849" lon="1.13861">
        <ele>144.7</ele>
        <time>2011-05-01T08:09:17Z</time>
      </trkpt>
      <trkpt lat="49.38861" lon="1.13905">
        <ele>145.5</ele>
        <time>2011-05-01T08:09:24Z</time>
      </trkpt>
      <trkpt lat="49.38878" lon="1.13963">
        <ele>144.2</ele>
        <time>2011-05-01T08:09:33Z</time>
      </trkpt>
      <trkpt lat="49.38897" lon="1.14025">
        <ele>143.7</ele>
        <time>2011-05-01T08:09:43Z</time>
      </trkpt>
      <trkpt lat="49.38899" lon="1.14031">
        <ele>143.7</ele>
        <time>2011-05-01T08:09:44Z</time>
      </trkpt>
      <trkpt lat="49.38915" lon="1.14095">
        <ele>144.1</ele>
        <time>2011-05-01T08:09:54Z</time>
      </trkpt>
      <trkpt lat="49.38927" lon="1.14136">
        <ele>145.4</ele>
        <time>2011-05-01T08:10:01Z</time>
      </trkpt>
      <trkpt lat="49.38944" lon="1.14194">
        <ele>146.7</ele>
        <time>2011-05-01T08:10:11Z</time>
      </trkpt>
      <trkpt lat="49.38963" lon="1.14252">
        <ele>147.4</ele>
        <time>2011-05-01T08:10:21Z</time>
      </trkpt>
      <trkpt lat="49.38983" lon="1.14311">
        <ele>148.6</ele>
        <time>2011-05-01T08:10:31Z</time>
      </trkpt>
      <trkpt lat="49.39002" lon="1.14369">
        <ele>149.6</ele>
        <time>2011-05-01T08:10:40Z</time>
      </trkpt>
      <trkpt lat="49.39022" lon="1.14428">
        <ele>149.4</ele>
        <time>2011-05-01T08:10:50Z</time>
      </trkpt>
      <trkpt lat="49.39032" lon="1.14455">
        <ele>148.8</ele>
        <time>2011-05-01T08:10:55Z</time>
      </trkpt>
      <trkpt lat="49.39046" lon="1.14474">
        <ele>148.6</ele>
        <time>2011-05-01T08:11:02Z</time>
      </trkpt>
      <trkpt lat="49.39049" lon="1.14477">
        <ele>148.6</ele>
        <time>2011-05-01T08:11:04Z</time>
      </trkpt>
      <trkpt lat="49.3905" lon="1.14482">
        <ele>148.5</ele>
        <time>2011-05-01T08:11:10Z</time>
      </trkpt>
      <trkpt lat="49.39047" lon="1.14483">
        <ele>148.3</ele>
        <time>2011-05-01T08:11:31Z</time>
      </trkpt>
      <trkpt lat="49.3905" lon="1.1448">
        <ele>148.5</ele>
        <time>2011-05-01T08:12:02Z</time>
      </trkpt>
      <trkpt lat="49.39049" lon="1.14474">
        <ele>148.7</ele>
        <time>2011-05-01T08:12:04Z</time>
      </trkpt>
      <trkpt lat="49.39036" lon="1.14458">
        <ele>148.8</ele>
        <time>2011-05-01T08:12:09Z</time>
      </trkpt>
      <trkpt lat="49.39024" lon="1.14428">
        <ele>149.5</ele>
        <time>2011-05-01T08:12:14Z</time>
      </trkpt>
      <trkpt lat="49.39003" lon="1.14369">
        <ele>149.7</ele>
        <time>2011-05-01T08:12:22Z</time>
      </trkpt>
      <trkpt lat="49.38982" lon="1.14305">
        <ele>148.6</ele>
        <time>2011-05-01T08:12:30Z</time>
      </trkpt>
      <trkpt lat="49.38959" lon="1.14234">
        <ele>147.3</ele>
        <time>2011-05-01T08:12:38Z</time>
      </trkpt>
      <trkpt lat="49.38934" lon="1.14153">
        <ele>146.1</ele>
        <time>2011-05-01T08:12:47Z</time>
      </trkpt>
      <trkpt lat="49.38917" lon="1.14093">
        <ele>144.1</ele>
        <time>2011-05-01T08:12:54Z</time>
      </trkpt>
      <trkpt lat="49.38904" lon="1.1405">
        <ele>143.8</ele>
        <time>2011-05-01T08:13:01Z</time>
      </trkpt>
      <trkpt lat="49.38902" lon="1.14041">
        <ele>143.8</ele>
        <time>2011-05-01T08:13:03Z</time>
      </trkpt>
      <trkpt lat="49.38894" lon="1.14013">
        <ele>143.6</ele>
        <time>2011-05-01T08:13:09Z</time>
      </trkpt>
      <trkpt lat="49.38882" lon="1.13963">
        <ele>144.4</ele>
        <time>2011-05-01T08:13:17Z</time>
      </trkpt>
      <trkpt lat="49.38865" lon="1.13903">
        <ele>145.6</ele>
        <time>2011-05-01T08:13:25Z</time>
      </trkpt>
      <trkpt lat="49.38856" lon="1.13871">
        <ele>145</ele>
        <time>2011-05-01T08:13:29Z</time>
      </trkpt>
      <trkpt lat="49.38839" lon="1.13812">
        <ele>143.7</ele>
        <time>2011-05-01T08:13:36Z</time>
      </trkpt>
      <trkpt lat="49.38828" lon="1.13778">
        <ele>142.5</ele>
        <time>2011-05-01T08:13:41Z</time>
      </trkpt>
      <trkpt lat="49.38815" lon="1.13777">
        <ele>142.1</ele>
        <time>2011-05-01T08:13:45Z</time>
      </trkpt>
      <trkpt lat="49.38812" lon="1.1378">
        <ele>142.1</ele>
        <time>2011-05-01T08:13:46Z</time>
      </trkpt>
      <trkpt lat="49.38789" lon="1.13806">
        <ele>141.9</ele>
        <time>2011-05-01T08:13:54Z</time>
      </trkpt>
      <trkpt lat="49.38768" lon="1.13828">
        <ele>141.6</ele>
        <time>2011-05-01T08:14:00Z</time>
      </trkpt>
      <trkpt lat="49.38729" lon="1.13867">
        <ele>141</ele>
        <time>2011-05-01T08:14:10Z</time>
      </trkpt>
      <trkpt lat="49.38719" lon="1.13878">
        <ele>141</ele>
        <time>2011-05-01T08:14:13Z</time>
      </trkpt>
      <trkpt lat="49.38697" lon="1.13898">
        <ele>141</ele>
        <time>2011-05-01T08:14:20Z</time>
      </trkpt>
      <trkpt lat="49.38675" lon="1.13915">
        <ele>141.1</ele>
        <time>2011-05-01T08:14:26Z</time>
      </trkpt>
      <trkpt lat="49.38647" lon="1.13932">
        <ele>141.5</ele>
        <time>2011-05-01T08:14:33Z</time>
      </trkpt>
      <trkpt lat="49.3861" lon="1.13953">
        <ele>142.2</ele>
        <time>2011-05-01T08:14:42Z</time>
      </trkpt>
      <trkpt lat="49.38578" lon="1.13973">
        <ele>142.7</ele>
        <time>2011-05-01T08:14:50Z</time>
      </trkpt>
      <trkpt lat="49.38574" lon="1.13976">
        <ele>142.8</ele>
        <time>2011-05-01T08:14:51Z</time>
      </trkpt>
      <trkpt lat="49.38544" lon="1.14004">
        <ele>143.4</ele>
        <time>2011-05-01T08:15:00Z</time>
      </trkpt>
      <trkpt lat="49.38519" lon="1.14029">
        <ele>143.5</ele>
        <time>2011-05-01T08:15:07Z</time>
      </trkpt>
      <trkpt lat="49.38505" lon="1.14043">
        <ele>143.5</ele>
        <time>2011-05-01T08:15:12Z</time>
      </trkpt>
      <trkpt lat="49.38502" lon="1.14046">
        <ele>143.4</ele>
        <time>2011-05-01T08:15:14Z</time>
      </trkpt>
      <trkpt lat="49.38496" lon="1.14037">
        <ele>143.5</ele>
        <time>2011-05-01T08:15:19Z</time>
      </trkpt>
      <trkpt lat="49.3849" lon="1.14028">
        <ele>143.4</ele>
        <time>2011-05-01T08:15:23Z</time>
      </trkpt>
      <trkpt lat="49.38475" lon="1.14001">
        <ele>143.1</ele>
        <time>2011-05-01T08:15:29Z</time>
      </trkpt>
      <trkpt lat="49.38442" lon="1.13951">
        <ele>140.7</ele>
        <time>2011-05-01T08:15:38Z</time>
      </trkpt>
      <trkpt lat="49.38426" lon="1.13928">
        <ele>139.6</ele>
        <time>2011-05-01T08:15:42Z</time>
      </trkpt>
      <trkpt lat="49.384" lon="1.13885">
        <ele>138.7</ele>
        <time>2011-05-01T08:15:49Z</time>
      </trkpt>
      <trkpt lat="49.38396" lon="1.13878">
        <ele>138.7</ele>
        <time>2011-05-01T08:15:50Z</time>
      </trkpt>
      <trkpt lat="49.38363" lon="1.13833">
        <ele>138.6</ele>
        <time>2011-05-01T08:15:58Z</time>
      </trkpt>
      <trkpt lat="49.38328" lon="1.13795">
        <ele>138.5</ele>
        <time>2011-05-01T08:16:05Z</time>
      </trkpt>
      <trkpt lat="49.383" lon="1.13765">
        <ele>137.8</ele>
        <time>2011-05-01T08:16:11Z</time>
      </trkpt>
      <trkpt lat="49.38283" lon="1.13747">
        <ele>137.4</ele>
        <time>2011-05-01T08:16:16Z</time>
      </trkpt>
      <trkpt lat="49.38264" lon="1.13721">
        <ele>137.3</ele>
        <time>2011-05-01T08:16:22Z</time>
      </trkpt>
      <trkpt lat="49.38245" lon="1.13681">
        <ele>137.8</ele>
        <time>2011-05-01T08:16:28Z</time>
      </trkpt>
      <trkpt lat="49.38233" lon="1.13651">
        <ele>137.5</ele>
        <time>2011-05-01T08:16:33Z</time>
      </trkpt>
      <trkpt lat="49.38225" lon="1.1365">
        <ele>137.4</ele>
        <time>2011-05-01T08:16:37Z</time>
      </trkpt>
      <trkpt lat="49.38204" lon="1.13674">
        <ele>137.3</ele>
        <time>2011-05-01T08:16:43Z</time>
      </trkpt>
      <trkpt lat="49.38176" lon="1.13702">
        <ele>136.3</ele>
        <time>2011-05-01T08:16:49Z</time>
      </trkpt>
      <trkpt lat="49.38156" lon="1.13723">
        <ele>135.3</ele>
        <time>2011-05-01T08:16:54Z</time>
      </trkpt>
      <trkpt lat="49.38149" lon="1.1373">
        <ele>135</ele>
        <time>2011-05-01T08:16:59Z</time>
      </trkpt>
      <trkpt lat="49.38149" lon="1.13731">
        <ele>134.9</ele>
        <time>2011-05-01T08:17:21Z</time>
      </trkpt>
      <trkpt lat="49.38148" lon="1.13731">
        <ele>134.9</ele>
        <time>2011-05-01T08:17:46Z</time>
      </trkpt>
      <trkpt lat="49.38149" lon="1.13731">
        <ele>134.9</ele>
        <time>2011-05-01T08:18:52Z</time>
      </trkpt>
      <trkpt lat="49.38149" lon="1.1373">
        <ele>135</ele>
        <time>2011-05-01T08:20:07Z</time>
      </trkpt>
      <trkpt lat="49.38149" lon="1.1373">
        <ele>135</ele>
        <time>2011-05-01T08:20:21Z</time>
      </trkpt>
      <trkpt lat="49.38149" lon="1.1373">
        <ele>135</ele>
        <time>2011-05-01T08:20:51Z</time>
      </trkpt>
      <trkpt lat="49.3815" lon="1.13729">
        <ele>135</ele>
        <time>2011-05-01T08:20:52Z</time>
      </trkpt>
      <trkpt lat="49.38154" lon="1.13724">
        <ele>135.2</ele>
        <time>2011-05-01T08:20:56Z</time>
      </trkpt>
      <trkpt lat="49.38167" lon="1.13713">
        <ele>135.9</ele>
        <time>2011-05-01T08:21:03Z</time>
      </trkpt>
      <trkpt lat="49.38181" lon="1.13698">
        <ele>136.5</ele>
        <time>2011-05-01T08:21:08Z</time>
      </trkpt>
      <trkpt lat="49.38201" lon="1.13676">
        <ele>137.3</ele>
        <time>2011-05-01T08:21:14Z</time>
      </trkpt>
      <trkpt lat="49.38225" lon="1.13657">
        <ele>137.5</ele>
        <time>2011-05-01T08:21:21Z</time>
      </trkpt>
      <trkpt lat="49.38238" lon="1.13668">
        <ele>137.8</ele>
        <time>2011-05-01T08:21:25Z</time>
      </trkpt>
      <trkpt lat="49.38266" lon="1.13729">
        <ele>137.3</ele>
        <time>2011-05-01T08:21:35Z</time>
      </trkpt>
      <trkpt lat="49.38296" lon="1.13766">
        <ele>137.7</ele>
        <time>2011-05-01T08:21:43Z</time>
      </trkpt>
      <trkpt lat="49.38322" lon="1.13793">
        <ele>138.4</ele>
        <time>2011-05-01T08:21:50Z</time>
      </trkpt>
      <trkpt lat="49.38356" lon="1.13829">
        <ele>138.7</ele>
        <time>2011-05-01T08:22:00Z</time>
      </trkpt>
      <trkpt lat="49.38388" lon="1.1387">
        <ele>138.6</ele>
        <time>2011-05-01T08:22:09Z</time>
      </trkpt>
      <trkpt lat="49.38415" lon="1.13911">
        <ele>138.9</ele>
        <time>2011-05-01T08:22:17Z</time>
      </trkpt>
      <trkpt lat="49.38445" lon="1.13959">
        <ele>141</ele>
        <time>2011-05-01T08:22:26Z</time>
      </trkpt>
      <trkpt lat="49.38473" lon="1.14002">
        <ele>143</ele>
        <time>2011-05-01T08:22:34Z</time>
      </trkpt>
      <trkpt lat="49.38495" lon="1.14041">
        <ele>143.4</ele>
        <time>2011-05-01T08:22:41Z</time>
      </trkpt>
      <trkpt lat="49.38507" lon="1.14042">
        <ele>143.5</ele>
        <time>2011-05-01T08:22:44Z</time>
      </trkpt>
      <trkpt lat="49.38511" lon="1.14038">
        <ele>143.5</ele>
        <time>2011-05-01T08:22:45Z</time>
      </trkpt>
      <trkpt lat="49.38553" lon="1.13996">
        <ele>143.3</ele>
        <time>2011-05-01T08:22:55Z</time>
      </trkpt>
      <trkpt lat="49.38562" lon="1.13988">
        <ele>143.1</ele>
        <time>2011-05-01T08:22:57Z</time>
      </trkpt>
      <trkpt lat="49.38599" lon="1.13962">
        <ele>142.4</ele>
        <time>2011-05-01T08:23:05Z</time>
      </trkpt>
      <trkpt lat="49.38609" lon="1.13956">
        <ele>142.3</ele>
        <time>2011-05-01T08:23:07Z</time>
      </trkpt>
      <trkpt lat="49.3865" lon="1.13934">
        <ele>141.6</ele>
        <time>2011-05-01T08:23:15Z</time>
      </trkpt>
      <trkpt lat="49.38688" lon="1.1391">
        <ele>141.1</ele>
        <time>2011-05-01T08:23:22Z</time>
      </trkpt>
      <trkpt lat="49.38722" lon="1.13881">
        <ele>141.1</ele>
        <time>2011-05-01T08:23:29Z</time>
      </trkpt>
      <trkpt lat="49.38757" lon="1.13845">
        <ele>141.4</ele>
        <time>2011-05-01T08:23:36Z</time>
      </trkpt>
      <trkpt lat="49.38805" lon="1.13797">
        <ele>142.2</ele>
        <time>2011-05-01T08:23:45Z</time>
      </trkpt>
      <trkpt lat="49.38814" lon="1.13787">
        <ele>142.3</ele>
        <time>2011-05-01T08:23:47Z</time>
      </trkpt>
      <trkpt lat="49.38824" lon="1.13779">
        <ele>142.4</ele>
        <time>2011-05-01T08:23:51Z</time>
      </trkpt>
      <trkpt lat="49.38824" lon="1.13779">
        <ele>142.4</ele>
        <time>2011-05-01T08:23:58Z</time>
      </trkpt>
      <trkpt lat="49.38824" lon="1.13779">
        <ele>142.4</ele>
        <time>2011-05-01T08:24:07Z</time>
      </trkpt>
      <trkpt lat="49.38825" lon="1.13777">
        <ele>142.4</ele>
        <time>2011-05-01T08:24:19Z</time>
      </trkpt>
      <trkpt lat="49.38827" lon="1.1377">
        <ele>142.3</ele>
        <time>2011-05-01T08:24:22Z</time>
      </trkpt>
      <trkpt lat="49.38823" lon="1.13755">
        <ele>141.9</ele>
        <time>2011-05-01T08:24:26Z</time>
      </trkpt>
      <trkpt lat="49.38807" lon="1.1372">
        <ele>140.2</ele>
        <time>2011-05-01T08:24:32Z</time>
      </trkpt>
      <trkpt lat="49.38803" lon="1.13715">
        <ele>139.8</ele>
        <time>2011-05-01T08:24:33Z</time>
      </trkpt>
      <trkpt lat="49.38787" lon="1.13704">
        <ele>138.9</ele>
        <time>2011-05-01T08:24:36Z</time>
      </trkpt>
      <trkpt lat="49.3874" lon="1.13691">
        <ele>136.7</ele>
        <time>2011-05-01T08:24:43Z</time>
      </trkpt>
      <trkpt lat="49.38695" lon="1.13676">
        <ele>134</ele>
        <time>2011-05-01T08:24:49Z</time>
      </trkpt>
      <trkpt lat="49.38681" lon="1.13667">
        <ele>132.7</ele>
        <time>2011-05-01T08:24:51Z</time>
      </trkpt>
      <trkpt lat="49.3863" lon="1.13612">
        <ele>127.5</ele>
        <time>2011-05-01T08:24:59Z</time>
      </trkpt>
      <trkpt lat="49.38593" lon="1.1356">
        <ele>120.4</ele>
        <time>2011-05-01T08:25:05Z</time>
      </trkpt>
      <trkpt lat="49.38551" lon="1.1348">
        <ele>113.5</ele>
        <time>2011-05-01T08:25:13Z</time>
      </trkpt>
      <trkpt lat="49.38532" lon="1.13438">
        <ele>109.8</ele>
        <time>2011-05-01T08:25:17Z</time>
      </trkpt>
      <trkpt lat="49.38522" lon="1.13389">
        <ele>103.6</ele>
        <time>2011-05-01T08:25:21Z</time>
      </trkpt>
      <trkpt lat="49.38519" lon="1.13364">
        <ele>100.2</ele>
        <time>2011-05-01T08:25:23Z</time>
      </trkpt>
      <trkpt lat="49.38504" lon="1.1332">
        <ele>95.8</ele>
        <time>2011-05-01T08:25:27Z</time>
      </trkpt>
      <trkpt lat="49.38497" lon="1.13276">
        <ele>92.1</ele>
        <time>2011-05-01T08:25:31Z</time>
      </trkpt>
      <trkpt lat="49.3851" lon="1.13247">
        <ele>86.3</ele>
        <time>2011-05-01T08:25:34Z</time>
      </trkpt>
      <trkpt lat="49.38515" lon="1.13209">
        <ele>84.1</ele>
        <time>2011-05-01T08:25:37Z</time>
      </trkpt>
      <trkpt lat="49.38513" lon="1.13196">
        <ele>84.2</ele>
        <time>2011-05-01T08:25:38Z</time>
      </trkpt>
      <trkpt lat="49.38502" lon="1.13161">
        <ele>86.9</ele>
        <time>2011-05-01T08:25:41Z</time>
      </trkpt>
      <trkpt lat="49.38498" lon="1.13113">
        <ele>91.4</ele>
        <time>2011-05-01T08:25:45Z</time>
      </trkpt>
      <trkpt lat="49.38517" lon="1.13085">
        <ele>86.9</ele>
        <time>2011-05-01T08:25:48Z</time>
      </trkpt>
      <trkpt lat="49.38524" lon="1.13078">
        <ele>85</ele>
        <time>2011-05-01T08:25:49Z</time>
      </trkpt>
      <trkpt lat="49.38553" lon="1.13049">
        <ele>77.9</ele>
        <time>2011-05-01T08:25:53Z</time>
      </trkpt>
      <trkpt lat="49.38572" lon="1.13005">
        <ele>75.9</ele>
        <time>2011-05-01T08:25:57Z</time>
      </trkpt>
      <trkpt lat="49.38577" lon="1.12979">
        <ele>77.4</ele>
        <time>2011-05-01T08:25:59Z</time>
      </trkpt>
      <trkpt lat="49.38605" lon="1.12904">
        <ele>77.2</ele>
        <time>2011-05-01T08:26:05Z</time>
      </trkpt>
      <trkpt lat="49.38638" lon="1.12832">
        <ele>70.5</ele>
        <time>2011-05-01T08:26:11Z</time>
      </trkpt>
      <trkpt lat="49.38649" lon="1.12781">
        <ele>67.7</ele>
        <time>2011-05-01T08:26:16Z</time>
      </trkpt>
      <trkpt lat="49.3864" lon="1.12768">
        <ele>71</ele>
        <time>2011-05-01T08:26:18Z</time>
      </trkpt>
      <trkpt lat="49.38616" lon="1.12779">
        <ele>78.3</ele>
        <time>2011-05-01T08:26:21Z</time>
      </trkpt>
      <trkpt lat="49.38602" lon="1.12799">
        <ele>83.5</ele>
        <time>2011-05-01T08:26:23Z</time>
      </trkpt>
      <trkpt lat="49.38557" lon="1.12861">
        <ele>92.5</ele>
        <time>2011-05-01T08:26:30Z</time>
      </trkpt>
      <trkpt lat="49.3851" lon="1.12912">
        <ele>102.1</ele>
        <time>2011-05-01T08:26:36Z</time>
      </trkpt>
      <trkpt lat="49.38466" lon="1.12945">
        <ele>103.1</ele>
        <time>2011-05-01T08:26:41Z</time>
      </trkpt>
      <trkpt lat="49.38425" lon="1.12956">
        <ele>103.5</ele>
        <time>2011-05-01T08:26:45Z</time>
      </trkpt>
      <trkpt lat="49.3839" lon="1.1298">
        <ele>104.9</ele>
        <time>2011-05-01T08:26:49Z</time>
      </trkpt>
      <trkpt lat="49.38359" lon="1.13013">
        <ele>108.1</ele>
        <time>2011-05-01T08:26:53Z</time>
      </trkpt>
      <trkpt lat="49.38321" lon="1.13028">
        <ele>106.4</ele>
        <time>2011-05-01T08:26:57Z</time>
      </trkpt>
      <trkpt lat="49.38278" lon="1.13062">
        <ele>107.1</ele>
        <time>2011-05-01T08:27:02Z</time>
      </trkpt>
      <trkpt lat="49.38258" lon="1.13094">
        <ele>111.7</ele>
        <time>2011-05-01T08:27:05Z</time>
      </trkpt>
      <trkpt lat="49.38226" lon="1.13111">
        <ele>107.3</ele>
        <time>2011-05-01T08:27:09Z</time>
      </trkpt>
      <trkpt lat="49.38197" lon="1.13096">
        <ele>97.2</ele>
        <time>2011-05-01T08:27:12Z</time>
      </trkpt>
      <trkpt lat="49.38193" lon="1.13052">
        <ele>87.8</ele>
        <time>2011-05-01T08:27:15Z</time>
      </trkpt>
      <trkpt lat="49.38197" lon="1.13021">
        <ele>82.4</ele>
        <time>2011-05-01T08:27:17Z</time>
      </trkpt>
      <trkpt lat="49.38207" lon="1.12963">
        <ele>74.3</ele>
        <time>2011-05-01T08:27:21Z</time>
      </trkpt>
      <trkpt lat="49.38232" lon="1.12918">
        <ele>65.4</ele>
        <time>2011-05-01T08:27:25Z</time>
      </trkpt>
      <trkpt lat="49.38238" lon="1.1291">
        <ele>64</ele>
        <time>2011-05-01T08:27:26Z</time>
      </trkpt>
      <trkpt lat="49.38268" lon="1.12849">
        <ele>58.1</ele>
        <time>2011-05-01T08:27:31Z</time>
      </trkpt>
      <trkpt lat="49.38272" lon="1.12835">
        <ele>56.3</ele>
        <time>2011-05-01T08:27:32Z</time>
      </trkpt>
      <trkpt lat="49.38299" lon="1.12788">
        <ele>52.3</ele>
        <time>2011-05-01T08:27:36Z</time>
      </trkpt>
      <trkpt lat="49.38324" lon="1.12761">
        <ele>45.4</ele>
        <time>2011-05-01T08:27:39Z</time>
      </trkpt>
      <trkpt lat="49.38338" lon="1.12712">
        <ele>39.3</ele>
        <time>2011-05-01T08:27:43Z</time>
      </trkpt>
      <trkpt lat="49.38325" lon="1.12689">
        <ele>39</ele>
        <time>2011-05-01T08:27:45Z</time>
      </trkpt>
      <trkpt lat="49.38307" lon="1.12677">
        <ele>41.4</ele>
        <time>2011-05-01T08:27:47Z</time>
      </trkpt>
      <trkpt lat="49.38237" lon="1.12657">
        <ele>48.4</ele>
        <time>2011-05-01T08:27:54Z</time>
      </trkpt>
      <trkpt lat="49.38175" lon="1.12646">
        <ele>51.6</ele>
        <time>2011-05-01T08:28:00Z</time>
      </trkpt>
      <trkpt lat="49.38133" lon="1.12654">
        <ele>56.2</ele>
        <time>2011-05-01T08:28:04Z</time>
      </trkpt>
      <trkpt lat="49.38113" lon="1.12662">
        <ele>59.3</ele>
        <time>2011-05-01T08:28:06Z</time>
      </trkpt>
      <trkpt lat="49.38076" lon="1.12649">
        <ele>55.6</ele>
        <time>2011-05-01T08:28:10Z</time>
      </trkpt>
      <trkpt lat="49.38046" lon="1.12626">
        <ele>46.5</ele>
        <time>2011-05-01T08:28:13Z</time>
      </trkpt>
      <trkpt lat="49.38015" lon="1.1262">
        <ele>43.5</ele>
        <time>2011-05-01T08:28:16Z</time>
      </trkpt>
      <trkpt lat="49.37988" lon="1.12641">
        <ele>49.2</ele>
        <time>2011-05-01T08:28:19Z</time>
      </trkpt>
      <trkpt lat="49.37977" lon="1.12668">
        <ele>56.4</ele>
        <time>2011-05-01T08:28:21Z</time>
      </trkpt>
      <trkpt lat="49.37965" lon="1.12711">
        <ele>63.9</ele>
        <time>2011-05-01T08:28:24Z</time>
      </trkpt>
      <trkpt lat="49.37948" lon="1.12738">
        <ele>66.6</ele>
        <time>2011-05-01T08:28:27Z</time>
      </trkpt>
      <trkpt lat="49.37924" lon="1.12734">
        <ele>61.6</ele>
        <time>2011-05-01T08:28:30Z</time>
      </trkpt>
      <trkpt lat="49.37902" lon="1.12704">
        <ele>53.6</ele>
        <time>2011-05-01T08:28:33Z</time>
      </trkpt>
      <trkpt lat="49.37899" lon="1.12656">
        <ele>44.8</ele>
        <time>2011-05-01T08:28:36Z</time>
      </trkpt>
      <trkpt lat="49.37892" lon="1.12598">
        <ele>29.2</ele>
        <time>2011-05-01T08:28:40Z</time>
      </trkpt>
      <trkpt lat="49.37864" lon="1.12573">
        <ele>24.4</ele>
        <time>2011-05-01T08:28:43Z</time>
      </trkpt>
      <trkpt lat="49.37827" lon="1.12568">
        <ele>24.8</ele>
        <time>2011-05-01T08:28:46Z</time>
      </trkpt>
      <trkpt lat="49.37735" lon="1.12573">
        <ele>29.3</ele>
        <time>2011-05-01T08:28:54Z</time>
      </trkpt>
      <trkpt lat="49.37665" lon="1.12586">
        <ele>28.5</ele>
        <time>2011-05-01T08:29:00Z</time>
      </trkpt>
      <trkpt lat="49.37607" lon="1.12597">
        <ele>27</ele>
        <time>2011-05-01T08:29:05Z</time>
      </trkpt>
      <trkpt lat="49.37554" lon="1.12608">
        <ele>25.2</ele>
        <time>2011-05-01T08:29:10Z</time>
      </trkpt>
      <trkpt lat="49.37543" lon="1.1261">
        <ele>24.7</ele>
        <time>2011-05-01T08:29:11Z</time>
      </trkpt>
      <trkpt lat="49.3747" lon="1.12612">
        <ele>22</ele>
        <time>2011-05-01T08:29:18Z</time>
      </trkpt>
      <trkpt lat="49.37422" lon="1.12614">
        <ele>23.8</ele>
        <time>2011-05-01T08:29:23Z</time>
      </trkpt>
      <trkpt lat="49.37403" lon="1.12615">
        <ele>24.2</ele>
        <time>2011-05-01T08:29:26Z</time>
      </trkpt>
      <trkpt lat="49.37386" lon="1.12605">
        <ele>20.7</ele>
        <time>2011-05-01T08:29:30Z</time>
      </trkpt>
      <trkpt lat="49.37365" lon="1.12599">
        <ele>18.5</ele>
        <time>2011-05-01T08:29:34Z</time>
      </trkpt>
      <trkpt lat="49.37325" lon="1.12608">
        <ele>20.1</ele>
        <time>2011-05-01T08:29:41Z</time>
      </trkpt>
      <trkpt lat="49.37275" lon="1.12618">
        <ele>20.3</ele>
        <time>2011-05-01T08:29:49Z</time>
      </trkpt>
      <trkpt lat="49.3723" lon="1.12628">
        <ele>22.1</ele>
        <time>2011-05-01T08:29:56Z</time>
      </trkpt>
      <trkpt lat="49.37193" lon="1.12638">
        <ele>25.3</ele>
        <time>2011-05-01T08:30:01Z</time>
      </trkpt>
      <trkpt lat="49.37143" lon="1.12658">
        <ele>26.9</ele>
        <time>2011-05-01T08:30:08Z</time>
      </trkpt>
      <trkpt lat="49.37105" lon="1.1268">
        <ele>28.3</ele>
        <time>2011-05-01T08:30:14Z</time>
      </trkpt>
      <trkpt lat="49.37062" lon="1.12709">
        <ele>33.1</ele>
        <time>2011-05-01T08:30:21Z</time>
      </trkpt>
      <trkpt lat="49.37025" lon="1.12735">
        <ele>34.2</ele>
        <time>2011-05-01T08:30:27Z</time>
      </trkpt>
      <trkpt lat="49.36977" lon="1.12772">
        <ele>34.4</ele>
        <time>2011-05-01T08:30:36Z</time>
      </trkpt>
      <trkpt lat="49.36941" lon="1.12807">
        <ele>35.9</ele>
        <time>2011-05-01T08:30:43Z</time>
      </trkpt>
      <trkpt lat="49.36918" lon="1.12838">
        <ele>35.3</ele>
        <time>2011-05-01T08:30:49Z</time>
      </trkpt>
      <trkpt lat="49.36897" lon="1.12867">
        <ele>28.3</ele>
        <time>2011-05-01T08:30:55Z</time>
      </trkpt>
      <trkpt lat="49.36891" lon="1.12875">
        <ele>26.6</ele>
        <time>2011-05-01T08:30:58Z</time>
      </trkpt>
      <trkpt lat="49.36877" lon="1.12893">
        <ele>22</ele>
        <time>2011-05-01T08:31:06Z</time>
      </trkpt>
      <trkpt lat="49.36876" lon="1.12894">
        <ele>21.6</ele>
        <time>2011-05-01T08:31:07Z</time>
      </trkpt>
      <trkpt lat="49.36877" lon="1.12901">
        <ele>21.9</ele>
        <time>2011-05-01T08:31:11Z</time>
      </trkpt>
      <trkpt lat="49.36881" lon="1.129">
        <ele>23.2</ele>
        <time>2011-05-01T08:31:15Z</time>
      </trkpt>
      <trkpt lat="49.36881" lon="1.12899">
        <ele>23.2</ele>
        <time>2011-05-01T08:31:22Z</time>
      </trkpt>
      <trkpt lat="49.36881" lon="1.12901">
        <ele>23.1</ele>
        <time>2011-05-01T08:31:33Z</time>
      </trkpt>
      <trkpt lat="49.36875" lon="1.12903">
        <ele>21.3</ele>
        <time>2011-05-01T08:31:42Z</time>
      </trkpt>
      <trkpt lat="49.36874" lon="1.12905">
        <ele>20.9</ele>
        <time>2011-05-01T08:31:52Z</time>
      </trkpt>
      <trkpt lat="49.36873" lon="1.12905">
        <ele>20.6</ele>
        <time>2011-05-01T08:31:53Z</time>
      </trkpt>
      <trkpt lat="49.36871" lon="1.12908">
        <ele>19.9</ele>
        <time>2011-05-01T08:31:56Z</time>
      </trkpt>
      <trkpt lat="49.36875" lon="1.12929">
        <ele>20</ele>
        <time>2011-05-01T08:32:03Z</time>
      </trkpt>
      <trkpt lat="49.36874" lon="1.12958">
        <ele>17.8</ele>
        <time>2011-05-01T08:32:10Z</time>
      </trkpt>
      <trkpt lat="49.36873" lon="1.12973">
        <ele>16.7</ele>
        <time>2011-05-01T08:32:14Z</time>
      </trkpt>
      <trkpt lat="49.36864" lon="1.12979">
        <ele>15.1</ele>
        <time>2011-05-01T08:32:19Z</time>
      </trkpt>
      <trkpt lat="49.36861" lon="1.12978">
        <ele>14.8</ele>
        <time>2011-05-01T08:32:20Z</time>
      </trkpt>
      <trkpt lat="49.36844" lon="1.12963">
        <ele>12.5</ele>
        <time>2011-05-01T08:32:29Z</time>
      </trkpt>
      <trkpt lat="49.36831" lon="1.12951">
        <ele>10.6</ele>
        <time>2011-05-01T08:32:36Z</time>
      </trkpt>
      <trkpt lat="49.3682" lon="1.12948">
        <ele>11.7</ele>
        <time>2011-05-01T08:32:42Z</time>
      </trkpt>
      <trkpt lat="49.36807" lon="1.12948">
        <ele>13.3</ele>
        <time>2011-05-01T08:32:49Z</time>
      </trkpt>
      <trkpt lat="49.368" lon="1.1295">
        <ele>14.5</ele>
        <time>2011-05-01T08:32:55Z</time>
      </trkpt>
      <trkpt lat="49.36788" lon="1.12956">
        <ele>16.7</ele>
        <time>2011-05-01T08:33:04Z</time>
      </trkpt>
      <trkpt lat="49.36785" lon="1.12959">
        <ele>17.4</ele>
        <time>2011-05-01T08:33:06Z</time>
      </trkpt>
      <trkpt lat="49.36773" lon="1.12972">
        <ele>21.1</ele>
        <time>2011-05-01T08:33:15Z</time>
      </trkpt>
      <trkpt lat="49.36767" lon="1.12978">
        <ele>22.9</ele>
        <time>2011-05-01T08:33:20Z</time>
      </trkpt>
      <trkpt lat="49.3676" lon="1.12986">
        <ele>25.4</ele>
        <time>2011-05-01T08:33:27Z</time>
      </trkpt>
      <trkpt lat="49.36756" lon="1.12993">
        <ele>27.3</ele>
        <time>2011-05-01T08:33:33Z</time>
      </trkpt>
      <trkpt lat="49.3675" lon="1.13005">
        <ele>31</ele>
        <time>2011-05-01T08:33:40Z</time>
      </trkpt>
      <trkpt lat="49.36749" lon="1.13006">
        <ele>31.4</ele>
        <time>2011-05-01T08:33:41Z</time>
      </trkpt>
      <trkpt lat="49.36743" lon="1.13022">
        <ele>35.3</ele>
        <time>2011-05-01T08:33:50Z</time>
      </trkpt>
      <trkpt lat="49.3674" lon="1.13027">
        <ele>36.5</ele>
        <time>2011-05-01T08:33:53Z</time>
      </trkpt>
      <trkpt lat="49.36739" lon="1.13031">
        <ele>37.5</ele>
        <time>2011-05-01T08:33:55Z</time>
      </trkpt>
      <trkpt lat="49.36732" lon="1.13043">
        <ele>40.5</ele>
        <time>2011-05-01T08:34:02Z</time>
      </trkpt>
      <trkpt lat="49.36725" lon="1.13062">
        <ele>44.9</ele>
        <time>2011-05-01T08:34:19Z</time>
      </trkpt>
      <trkpt lat="49.36725" lon="1.13067">
        <ele>45.9</ele>
        <time>2011-05-01T08:34:24Z</time>
      </trkpt>
      <trkpt lat="49.36724" lon="1.1307">
        <ele>46.5</ele>
        <time>2011-05-01T08:34:26Z</time>
      </trkpt>
      <trkpt lat="49.3672" lon="1.13077">
        <ele>48</ele>
        <time>2011-05-01T08:34:33Z</time>
      </trkpt>
      <trkpt lat="49.36719" lon="1.13081">
        <ele>48.9</ele>
        <time>2011-05-01T08:34:38Z</time>
      </trkpt>
      <trkpt lat="49.36712" lon="1.13091">
        <ele>50.8</ele>
        <time>2011-05-01T08:34:43Z</time>
      </trkpt>
      <trkpt lat="49.36707" lon="1.13104">
        <ele>52.9</ele>
        <time>2011-05-01T08:34:49Z</time>
      </trkpt>
      <trkpt lat="49.36705" lon="1.13109">
        <ele>53.6</ele>
        <time>2011-05-01T08:34:51Z</time>
      </trkpt>
      <trkpt lat="49.36698" lon="1.13126">
        <ele>56.3</ele>
        <time>2011-05-01T08:34:59Z</time>
      </trkpt>
      <trkpt lat="49.36691" lon="1.13143">
        <ele>58.9</ele>
        <time>2011-05-01T08:35:05Z</time>
      </trkpt>
      <trkpt lat="49.36686" lon="1.1316">
        <ele>61.6</ele>
        <time>2011-05-01T08:35:12Z</time>
      </trkpt>
      <trkpt lat="49.36686" lon="1.13162">
        <ele>61.9</ele>
        <time>2011-05-01T08:35:13Z</time>
      </trkpt>
      <trkpt lat="49.36682" lon="1.13184">
        <ele>64.6</ele>
        <time>2011-05-01T08:35:21Z</time>
      </trkpt>
      <trkpt lat="49.36679" lon="1.13201">
        <ele>66.6</ele>
        <time>2011-05-01T08:35:27Z</time>
      </trkpt>
      <trkpt lat="49.36679" lon="1.13215">
        <ele>68.4</ele>
        <time>2011-05-01T08:35:33Z</time>
      </trkpt>
      <trkpt lat="49.36678" lon="1.1323">
        <ele>70.1</ele>
        <time>2011-05-01T08:35:39Z</time>
      </trkpt>
      <trkpt lat="49.36681" lon="1.13242">
        <ele>71.7</ele>
        <time>2011-05-01T08:35:44Z</time>
      </trkpt>
      <trkpt lat="49.3668" lon="1.13258">
        <ele>73.3</ele>
        <time>2011-05-01T08:35:51Z</time>
      </trkpt>
      <trkpt lat="49.36691" lon="1.13277">
        <ele>75.5</ele>
        <time>2011-05-01T08:35:59Z</time>
      </trkpt>
      <trkpt lat="49.36692" lon="1.13279">
        <ele>75.6</ele>
        <time>2011-05-01T08:36:00Z</time>
      </trkpt>
      <trkpt lat="49.36694" lon="1.13286">
        <ele>76.3</ele>
        <time>2011-05-01T08:36:06Z</time>
      </trkpt>
      <trkpt lat="49.36697" lon="1.13293">
        <ele>77.1</ele>
        <time>2011-05-01T08:36:10Z</time>
      </trkpt>
      <trkpt lat="49.36702" lon="1.13312">
        <ele>79</ele>
        <time>2011-05-01T08:36:17Z</time>
      </trkpt>
      <trkpt lat="49.36705" lon="1.13326">
        <ele>80.5</ele>
        <time>2011-05-01T08:36:24Z</time>
      </trkpt>
      <trkpt lat="49.36707" lon="1.13344">
        <ele>82.1</ele>
        <time>2011-05-01T08:36:33Z</time>
      </trkpt>
      <trkpt lat="49.3671" lon="1.13356">
        <ele>83.3</ele>
        <time>2011-05-01T08:36:40Z</time>
      </trkpt>
      <trkpt lat="49.36716" lon="1.13369">
        <ele>84.8</ele>
        <time>2011-05-01T08:36:48Z</time>
      </trkpt>
      <trkpt lat="49.3672" lon="1.1338">
        <ele>86.1</ele>
        <time>2011-05-01T08:36:55Z</time>
      </trkpt>
      <trkpt lat="49.36724" lon="1.13389">
        <ele>87.2</ele>
        <time>2011-05-01T08:37:00Z</time>
      </trkpt>
      <trkpt lat="49.3673" lon="1.13402">
        <ele>88.8</ele>
        <time>2011-05-01T08:37:08Z</time>
      </trkpt>
      <trkpt lat="49.36737" lon="1.13412">
        <ele>90.2</ele>
        <time>2011-05-01T08:37:13Z</time>
      </trkpt>
      <trkpt lat="49.36737" lon="1.13413">
        <ele>90.4</ele>
        <time>2011-05-01T08:37:14Z</time>
      </trkpt>
      <trkpt lat="49.36742" lon="1.13426">
        <ele>92.1</ele>
        <time>2011-05-01T08:37:21Z</time>
      </trkpt>
      <trkpt lat="49.36743" lon="1.13427">
        <ele>92.3</ele>
        <time>2011-05-01T08:37:22Z</time>
      </trkpt>
      <trkpt lat="49.36748" lon="1.13439">
        <ele>94.1</ele>
        <time>2011-05-01T08:37:30Z</time>
      </trkpt>
      <trkpt lat="49.36752" lon="1.13455">
        <ele>96.1</ele>
        <time>2011-05-01T08:37:38Z</time>
      </trkpt>
      <trkpt lat="49.3675" lon="1.13463">
        <ele>96.9</ele>
        <time>2011-05-01T08:37:43Z</time>
      </trkpt>
      <trkpt lat="49.36752" lon="1.13476">
        <ele>98.5</ele>
        <time>2011-05-01T08:37:50Z</time>
      </trkpt>
      <trkpt lat="49.36755" lon="1.13479">
        <ele>99.1</ele>
        <time>2011-05-01T08:37:52Z</time>
      </trkpt>
      <trkpt lat="49.36758" lon="1.13483">
        <ele>99.7</ele>
        <time>2011-05-01T08:37:54Z</time>
      </trkpt>
      <trkpt lat="49.36761" lon="1.13496">
        <ele>101.5</ele>
        <time>2011-05-01T08:38:00Z</time>
      </trkpt>
      <trkpt lat="49.36765" lon="1.13506">
        <ele>102.9</ele>
        <time>2011-05-01T08:38:06Z</time>
      </trkpt>
      <trkpt lat="49.36766" lon="1.13512">
        <ele>103.6</ele>
        <time>2011-05-01T08:38:09Z</time>
      </trkpt>
      <trkpt lat="49.36769" lon="1.13526">
        <ele>105.1</ele>
        <time>2011-05-01T08:38:16Z</time>
      </trkpt>
      <trkpt lat="49.36775" lon="1.13533">
        <ele>106.3</ele>
        <time>2011-05-01T08:38:21Z</time>
      </trkpt>
      <trkpt lat="49.36776" lon="1.13542">
        <ele>107.3</ele>
        <time>2011-05-01T08:38:27Z</time>
      </trkpt>
      <trkpt lat="49.36777" lon="1.1355">
        <ele>108.1</ele>
        <time>2011-05-01T08:38:31Z</time>
      </trkpt>
      <trkpt lat="49.36781" lon="1.13565">
        <ele>109.9</ele>
        <time>2011-05-01T08:38:39Z</time>
      </trkpt>
      <trkpt lat="49.36786" lon="1.13579">
        <ele>111.8</ele>
        <time>2011-05-01T08:38:47Z</time>
      </trkpt>
      <trkpt lat="49.36793" lon="1.13592">
        <ele>113.6</ele>
        <time>2011-05-01T08:38:55Z</time>
      </trkpt>
      <trkpt lat="49.36792" lon="1.13594">
        <ele>113.6</ele>
        <time>2011-05-01T08:38:56Z</time>
      </trkpt>
      <trkpt lat="49.36799" lon="1.13608">
        <ele>115.1</ele>
        <time>2011-05-01T08:39:04Z</time>
      </trkpt>
      <trkpt lat="49.36801" lon="1.13614">
        <ele>115.7</ele>
        <time>2011-05-01T08:39:08Z</time>
      </trkpt>
      <trkpt lat="49.36802" lon="1.13618">
        <ele>116</ele>
        <time>2011-05-01T08:39:11Z</time>
      </trkpt>
      <trkpt lat="49.36803" lon="1.13621">
        <ele>116.2</ele>
        <time>2011-05-01T08:39:13Z</time>
      </trkpt>
      <trkpt lat="49.36804" lon="1.1363">
        <ele>116.8</ele>
        <time>2011-05-01T08:39:18Z</time>
      </trkpt>
      <trkpt lat="49.36806" lon="1.13633">
        <ele>117.1</ele>
        <time>2011-05-01T08:39:20Z</time>
      </trkpt>
      <trkpt lat="49.36811" lon="1.13644">
        <ele>118</ele>
        <time>2011-05-01T08:39:26Z</time>
      </trkpt>
      <trkpt lat="49.36811" lon="1.13648">
        <ele>118.2</ele>
        <time>2011-05-01T08:39:28Z</time>
      </trkpt>
      <trkpt lat="49.36815" lon="1.13658">
        <ele>119.1</ele>
        <time>2011-05-01T08:39:34Z</time>
      </trkpt>
      <trkpt lat="49.36816" lon="1.13667">
        <ele>119.5</ele>
        <time>2011-05-01T08:39:38Z</time>
      </trkpt>
      <trkpt lat="49.36817" lon="1.13676">
        <ele>119.9</ele>
        <time>2011-05-01T08:39:44Z</time>
      </trkpt>
      <trkpt lat="49.36822" lon="1.13685">
        <ele>120.6</ele>
        <time>2011-05-01T08:39:50Z</time>
      </trkpt>
      <trkpt lat="49.36824" lon="1.13696">
        <ele>121</ele>
        <time>2011-05-01T08:39:56Z</time>
      </trkpt>
      <trkpt lat="49.36827" lon="1.13705">
        <ele>121.5</ele>
        <time>2011-05-01T08:40:02Z</time>
      </trkpt>
      <trkpt lat="49.36832" lon="1.13717">
        <ele>122.1</ele>
        <time>2011-05-01T08:40:10Z</time>
      </trkpt>
      <trkpt lat="49.36835" lon="1.13724">
        <ele>122.3</ele>
        <time>2011-05-01T08:40:15Z</time>
      </trkpt>
      <trkpt lat="49.36839" lon="1.1374">
        <ele>122.4</ele>
        <time>2011-05-01T08:40:24Z</time>
      </trkpt>
      <trkpt lat="49.36843" lon="1.13751">
        <ele>122.5</ele>
        <time>2011-05-01T08:40:31Z</time>
      </trkpt>
      <trkpt lat="49.36845" lon="1.1377">
        <ele>122.8</ele>
        <time>2011-05-01T08:40:40Z</time>
      </trkpt>
      <trkpt lat="49.36843" lon="1.13781">
        <ele>123</ele>
        <time>2011-05-01T08:40:46Z</time>
      </trkpt>
      <trkpt lat="49.36842" lon="1.13795">
        <ele>123.2</ele>
        <time>2011-05-01T08:40:53Z</time>
      </trkpt>
      <trkpt lat="49.36842" lon="1.138">
        <ele>123.3</ele>
        <time>2011-05-01T08:40:55Z</time>
      </trkpt>
      <trkpt lat="49.36839" lon="1.1381">
        <ele>123.5</ele>
        <time>2011-05-01T08:41:01Z</time>
      </trkpt>
      <trkpt lat="49.36838" lon="1.13817">
        <ele>123.7</ele>
        <time>2011-05-01T08:41:04Z</time>
      </trkpt>
      <trkpt lat="49.36837" lon="1.13825">
        <ele>123.8</ele>
        <time>2011-05-01T08:41:08Z</time>
      </trkpt>
      <trkpt lat="49.36833" lon="1.13838">
        <ele>124</ele>
        <time>2011-05-01T08:41:16Z</time>
      </trkpt>
      <trkpt lat="49.36833" lon="1.13841">
        <ele>124.1</ele>
        <time>2011-05-01T08:41:18Z</time>
      </trkpt>
      <trkpt lat="49.36833" lon="1.13855">
        <ele>124.3</ele>
        <time>2011-05-01T08:41:25Z</time>
      </trkpt>
      <trkpt lat="49.36833" lon="1.13861">
        <ele>124.3</ele>
        <time>2011-05-01T08:41:28Z</time>
      </trkpt>
      <trkpt lat="49.36834" lon="1.13871">
        <ele>124.4</ele>
        <time>2011-05-01T08:41:34Z</time>
      </trkpt>
      <trkpt lat="49.36833" lon="1.13876">
        <ele>124.5</ele>
        <time>2011-05-01T08:41:43Z</time>
      </trkpt>
      <trkpt lat="49.36837" lon="1.13889">
        <ele>124.7</ele>
        <time>2011-05-01T08:41:50Z</time>
      </trkpt>
      <trkpt lat="49.36841" lon="1.13901">
        <ele>124.9</ele>
        <time>2011-05-01T08:41:55Z</time>
      </trkpt>
      <trkpt lat="49.36847" lon="1.13924">
        <ele>125.3</ele>
        <time>2011-05-01T08:42:02Z</time>
      </trkpt>
      <trkpt lat="49.36853" lon="1.13948">
        <ele>125.9</ele>
        <time>2011-05-01T08:42:08Z</time>
      </trkpt>
      <trkpt lat="49.36862" lon="1.13973">
        <ele>126.5</ele>
        <time>2011-05-01T08:42:14Z</time>
      </trkpt>
      <trkpt lat="49.36871" lon="1.13997">
        <ele>126.9</ele>
        <time>2011-05-01T08:42:20Z</time>
      </trkpt>
      <trkpt lat="49.36879" lon="1.14025">
        <ele>127.2</ele>
        <time>2011-05-01T08:42:26Z</time>
      </trkpt>
      <trkpt lat="49.36894" lon="1.14063">
        <ele>127.9</ele>
        <time>2011-05-01T08:42:33Z</time>
      </trkpt>
      <trkpt lat="49.36901" lon="1.14085">
        <ele>128.4</ele>
        <time>2011-05-01T08:42:38Z</time>
      </trkpt>
      <trkpt lat="49.36905" lon="1.14105">
        <ele>128.2</ele>
        <time>2011-05-01T08:42:44Z</time>
      </trkpt>
      <trkpt lat="49.36908" lon="1.14112">
        <ele>128.1</ele>
        <time>2011-05-01T08:42:46Z</time>
      </trkpt>
      <trkpt lat="49.36915" lon="1.14139">
        <ele>127.7</ele>
        <time>2011-05-01T08:42:54Z</time>
      </trkpt>
      <trkpt lat="49.36922" lon="1.14168">
        <ele>127.2</ele>
        <time>2011-05-01T08:43:01Z</time>
      </trkpt>
      <trkpt lat="49.36933" lon="1.14203">
        <ele>127.8</ele>
        <time>2011-05-01T08:43:09Z</time>
      </trkpt>
      <trkpt lat="49.3694" lon="1.14234">
        <ele>128</ele>
        <time>2011-05-01T08:43:15Z</time>
      </trkpt>
      <trkpt lat="49.3695" lon="1.14262">
        <ele>127.9</ele>
        <time>2011-05-01T08:43:20Z</time>
      </trkpt>
      <trkpt lat="49.36958" lon="1.14289">
        <ele>127.5</ele>
        <time>2011-05-01T08:43:25Z</time>
      </trkpt>
      <trkpt lat="49.36966" lon="1.14315">
        <ele>127.1</ele>
        <time>2011-05-01T08:43:30Z</time>
      </trkpt>
      <trkpt lat="49.36973" lon="1.14336">
        <ele>126.6</ele>
        <time>2011-05-01T08:43:35Z</time>
      </trkpt>
      <trkpt lat="49.36982" lon="1.14354">
        <ele>126.2</ele>
        <time>2011-05-01T08:43:41Z</time>
      </trkpt>
      <trkpt lat="49.3698" lon="1.14355">
        <ele>126.2</ele>
        <time>2011-05-01T08:43:49Z</time>
      </trkpt>
      <trkpt lat="49.36977" lon="1.14356">
        <ele>126.3</ele>
        <time>2011-05-01T08:43:56Z</time>
      </trkpt>
      <trkpt lat="49.36977" lon="1.14354">
        <ele>126.3</ele>
        <time>2011-05-01T08:44:05Z</time>
      </trkpt>
      <trkpt lat="49.36976" lon="1.14356">
        <ele>126.3</ele>
        <time>2011-05-01T08:44:13Z</time>
      </trkpt>
      <trkpt lat="49.36976" lon="1.14352">
        <ele>126.4</ele>
        <time>2011-05-01T08:44:21Z</time>
      </trkpt>
      <trkpt lat="49.36976" lon="1.14351">
        <ele>126.4</ele>
        <time>2011-05-01T08:44:38Z</time>
      </trkpt>
      <trkpt lat="49.36977" lon="1.14351">
        <ele>126.4</ele>
        <time>2011-05-01T08:44:46Z</time>
      </trkpt>
      <trkpt lat="49.36978" lon="1.1435">
        <ele>126.3</ele>
        <time>2011-05-01T08:44:47Z</time>
      </trkpt>
      <trkpt lat="49.36991" lon="1.14363">
        <ele>125.9</ele>
        <time>2011-05-01T08:44:53Z</time>
      </trkpt>
      <trkpt lat="49.3701" lon="1.144">
        <ele>125.5</ele>
        <time>2011-05-01T08:45:00Z</time>
      </trkpt>
      <trkpt lat="49.37015" lon="1.14411">
        <ele>125.3</ele>
        <time>2011-05-01T08:45:02Z</time>
      </trkpt>
      <trkpt lat="49.37024" lon="1.14426">
        <ele>125.5</ele>
        <time>2011-05-01T08:45:05Z</time>
      </trkpt>
      <trkpt lat="49.3703" lon="1.14441">
        <ele>126</ele>
        <time>2011-05-01T08:45:08Z</time>
      </trkpt>
      <trkpt lat="49.37049" lon="1.14483">
        <ele>127</ele>
        <time>2011-05-01T08:45:16Z</time>
      </trkpt>
      <trkpt lat="49.37073" lon="1.14536">
        <ele>129.1</ele>
        <time>2011-05-01T08:45:25Z</time>
      </trkpt>
      <trkpt lat="49.37091" lon="1.14573">
        <ele>131.4</ele>
        <time>2011-05-01T08:45:32Z</time>
      </trkpt>
      <trkpt lat="49.37107" lon="1.14607">
        <ele>132.9</ele>
        <time>2011-05-01T08:45:39Z</time>
      </trkpt>
      <trkpt lat="49.37122" lon="1.14645">
        <ele>134.5</ele>
        <time>2011-05-01T08:45:47Z</time>
      </trkpt>
      <trkpt lat="49.37119" lon="1.14666">
        <ele>135.4</ele>
        <time>2011-05-01T08:45:52Z</time>
      </trkpt>
      <trkpt lat="49.37107" lon="1.1469">
        <ele>136.4</ele>
        <time>2011-05-01T08:45:58Z</time>
      </trkpt>
      <trkpt lat="49.37093" lon="1.14718">
        <ele>137.9</ele>
        <time>2011-05-01T08:46:04Z</time>
      </trkpt>
      <trkpt lat="49.37077" lon="1.14755">
        <ele>140</ele>
        <time>2011-05-01T08:46:11Z</time>
      </trkpt>
      <trkpt lat="49.37063" lon="1.14786">
        <ele>140.8</ele>
        <time>2011-05-01T08:46:17Z</time>
      </trkpt>
      <trkpt lat="49.3705" lon="1.1481">
        <ele>141.4</ele>
        <time>2011-05-01T08:46:22Z</time>
      </trkpt>
      <trkpt lat="49.37043" lon="1.14828">
        <ele>141.8</ele>
        <time>2011-05-01T08:46:26Z</time>
      </trkpt>
      <trkpt lat="49.37039" lon="1.14863">
        <ele>141.4</ele>
        <time>2011-05-01T08:46:33Z</time>
      </trkpt>
      <trkpt lat="49.37038" lon="1.14885">
        <ele>140.9</ele>
        <time>2011-05-01T08:46:38Z</time>
      </trkpt>
      <trkpt lat="49.37035" lon="1.14905">
        <ele>140.5</ele>
        <time>2011-05-01T08:46:42Z</time>
      </trkpt>
      <trkpt lat="49.37029" lon="1.14933">
        <ele>140.1</ele>
        <time>2011-05-01T08:46:48Z</time>
      </trkpt>
      <trkpt lat="49.37031" lon="1.14961">
        <ele>140.3</ele>
        <time>2011-05-01T08:46:53Z</time>
      </trkpt>
      <trkpt lat="49.37044" lon="1.14998">
        <ele>140.5</ele>
        <time>2011-05-01T08:47:00Z</time>
      </trkpt>
      <trkpt lat="49.37062" lon="1.15044">
        <ele>141.3</ele>
        <time>2011-05-01T08:47:09Z</time>
      </trkpt>
      <trkpt lat="49.37082" lon="1.15068">
        <ele>141.8</ele>
        <time>2011-05-01T08:47:15Z</time>
      </trkpt>
      <trkpt lat="49.37096" lon="1.15082">
        <ele>142.1</ele>
        <time>2011-05-01T08:47:19Z</time>
      </trkpt>
      <trkpt lat="49.37111" lon="1.15103">
        <ele>142.5</ele>
        <time>2011-05-01T08:47:24Z</time>
      </trkpt>
      <trkpt lat="49.37132" lon="1.15136">
        <ele>142.8</ele>
        <time>2011-05-01T08:47:31Z</time>
      </trkpt>
      <trkpt lat="49.37158" lon="1.15166">
        <ele>143</ele>
        <time>2011-05-01T08:47:39Z</time>
      </trkpt>
      <trkpt lat="49.37169" lon="1.15178">
        <ele>143</ele>
        <time>2011-05-01T08:47:42Z</time>
      </trkpt>
      <trkpt lat="49.37196" lon="1.15211">
        <ele>143.5</ele>
        <time>2011-05-01T08:47:50Z</time>
      </trkpt>
      <trkpt lat="49.37219" lon="1.15242">
        <ele>144.2</ele>
        <time>2011-05-01T08:47:57Z</time>
      </trkpt>
      <trkpt lat="49.3723" lon="1.15255">
        <ele>144.6</ele>
        <time>2011-05-01T08:48:00Z</time>
      </trkpt>
      <trkpt lat="49.37242" lon="1.15273">
        <ele>145.1</ele>
        <time>2011-05-01T08:48:04Z</time>
      </trkpt>
      <trkpt lat="49.37249" lon="1.15289">
        <ele>145.4</ele>
        <time>2011-05-01T08:48:07Z</time>
      </trkpt>
      <trkpt lat="49.37251" lon="1.15312">
        <ele>145.7</ele>
        <time>2011-05-01T08:48:12Z</time>
      </trkpt>
      <trkpt lat="49.37247" lon="1.1532">
        <ele>145.8</ele>
        <time>2011-05-01T08:48:14Z</time>
      </trkpt>
      <trkpt lat="49.37221" lon="1.15351">
        <ele>145.8</ele>
        <time>2011-05-01T08:48:23Z</time>
      </trkpt>
      <trkpt lat="49.37193" lon="1.15385">
        <ele>145.5</ele>
        <time>2011-05-01T08:48:31Z</time>
      </trkpt>
      <trkpt lat="49.37163" lon="1.15422">
        <ele>145.1</ele>
        <time>2011-05-01T08:48:39Z</time>
      </trkpt>
      <trkpt lat="49.37134" lon="1.15457">
        <ele>145.4</ele>
        <time>2011-05-01T08:48:47Z</time>
      </trkpt>
      <trkpt lat="49.37131" lon="1.15462">
        <ele>145.4</ele>
        <time>2011-05-01T08:48:48Z</time>
      </trkpt>
      <trkpt lat="49.37105" lon="1.15493">
        <ele>144.8</ele>
        <time>2011-05-01T08:48:55Z</time>
      </trkpt>
      <trkpt lat="49.37074" lon="1.15529">
        <ele>143.8</ele>
        <time>2011-05-01T08:49:03Z</time>
      </trkpt>
      <trkpt lat="49.37054" lon="1.15555">
        <ele>143.5</ele>
        <time>2011-05-01T08:49:09Z</time>
      </trkpt>
      <trkpt lat="49.37048" lon="1.15565">
        <ele>143.5</ele>
        <time>2011-05-01T08:49:13Z</time>
      </trkpt>
      <trkpt lat="49.37048" lon="1.15565">
        <ele>143.5</ele>
        <time>2011-05-01T08:49:21Z</time>
      </trkpt>
      <trkpt lat="49.37049" lon="1.15565">
        <ele>143.5</ele>
        <time>2011-05-01T08:49:35Z</time>
      </trkpt>
      <trkpt lat="49.37049" lon="1.15564">
        <ele>143.5</ele>
        <time>2011-05-01T08:49:44Z</time>
      </trkpt>
      <trkpt lat="49.37048" lon="1.15565">
        <ele>143.5</ele>
        <time>2011-05-01T08:50:50Z</time>
      </trkpt>
      <trkpt lat="49.37049" lon="1.15566">
        <ele>143.5</ele>
        <time>2011-05-01T08:51:01Z</time>
      </trkpt>
      <trkpt lat="49.37049" lon="1.15564">
        <ele>143.5</ele>
        <time>2011-05-01T08:51:14Z</time>
      </trkpt>
      <trkpt lat="49.37049" lon="1.15563">
        <ele>143.5</ele>
        <time>2011-05-01T08:51:51Z</time>
      </trkpt>
      <trkpt lat="49.37049" lon="1.15563">
        <ele>143.5</ele>
        <time>2011-05-01T08:52:00Z</time>
      </trkpt>
      <trkpt lat="49.37049" lon="1.15564">
        <ele>143.5</ele>
        <time>2011-05-01T08:52:13Z</time>
      </trkpt>
      <trkpt lat="49.37052" lon="1.15561">
        <ele>143.5</ele>
        <time>2011-05-01T08:52:18Z</time>
      </trkpt>
      <trkpt lat="49.37052" lon="1.1556">
        <ele>143.5</ele>
        <time>2011-05-01T08:52:19Z</time>
      </trkpt>
      <trkpt lat="49.37056" lon="1.15549">
        <ele>143.5</ele>
        <time>2011-05-01T08:52:23Z</time>
      </trkpt>
      <trkpt lat="49.37075" lon="1.15524">
        <ele>143.8</ele>
        <time>2011-05-01T08:52:31Z</time>
      </trkpt>
      <trkpt lat="49.37093" lon="1.15502">
        <ele>144.4</ele>
        <time>2011-05-01T08:52:38Z</time>
      </trkpt>
      <trkpt lat="49.37122" lon="1.15467">
        <ele>145.2</ele>
        <time>2011-05-01T08:52:48Z</time>
      </trkpt>
      <trkpt lat="49.37147" lon="1.15436">
        <ele>145.3</ele>
        <time>2011-05-01T08:52:56Z</time>
      </trkpt>
      <trkpt lat="49.37181" lon="1.15395">
        <ele>145.3</ele>
        <time>2011-05-01T08:53:06Z</time>
      </trkpt>
      <trkpt lat="49.37213" lon="1.15356">
        <ele>145.7</ele>
        <time>2011-05-01T08:53:15Z</time>
      </trkpt>
      <trkpt lat="49.37238" lon="1.15325">
        <ele>145.7</ele>
        <time>2011-05-01T08:53:22Z</time>
      </trkpt>
      <trkpt lat="49.37245" lon="1.15316">
        <ele>145.7</ele>
        <time>2011-05-01T08:53:24Z</time>
      </trkpt>
      <trkpt lat="49.37252" lon="1.15292">
        <ele>145.5</ele>
        <time>2011-05-01T08:53:28Z</time>
      </trkpt>
      <trkpt lat="49.37241" lon="1.15264">
        <ele>145</ele>
        <time>2011-05-01T08:53:32Z</time>
      </trkpt>
      <trkpt lat="49.37202" lon="1.15212">
        <ele>143.6</ele>
        <time>2011-05-01T08:53:41Z</time>
      </trkpt>
      <trkpt lat="49.37169" lon="1.15174">
        <ele>143</ele>
        <time>2011-05-01T08:53:48Z</time>
      </trkpt>
      <trkpt lat="49.37132" lon="1.15133">
        <ele>142.8</ele>
        <time>2011-05-01T08:53:56Z</time>
      </trkpt>
      <trkpt lat="49.37102" lon="1.15089">
        <ele>142.3</ele>
        <time>2011-05-01T08:54:03Z</time>
      </trkpt>
      <trkpt lat="49.37069" lon="1.15048">
        <ele>141.4</ele>
        <time>2011-05-01T08:54:10Z</time>
      </trkpt>
      <trkpt lat="49.37059" lon="1.15037">
        <ele>141.1</ele>
        <time>2011-05-01T08:54:12Z</time>
      </trkpt>
      <trkpt lat="49.37037" lon="1.14982">
        <ele>140.4</ele>
        <time>2011-05-01T08:54:19Z</time>
      </trkpt>
      <trkpt lat="49.3703" lon="1.14957">
        <ele>140.2</ele>
        <time>2011-05-01T08:54:22Z</time>
      </trkpt>
      <trkpt lat="49.37029" lon="1.14912">
        <ele>140.1</ele>
        <time>2011-05-01T08:54:27Z</time>
      </trkpt>
      <trkpt lat="49.37036" lon="1.14878">
        <ele>141</ele>
        <time>2011-05-01T08:54:31Z</time>
      </trkpt>
      <trkpt lat="49.37037" lon="1.1487">
        <ele>141.1</ele>
        <time>2011-05-01T08:54:32Z</time>
      </trkpt>
      <trkpt lat="49.37038" lon="1.14845">
        <ele>141.6</ele>
        <time>2011-05-01T08:54:35Z</time>
      </trkpt>
      <trkpt lat="49.37031" lon="1.14818">
        <ele>140.9</ele>
        <time>2011-05-01T08:54:39Z</time>
      </trkpt>
      <trkpt lat="49.37026" lon="1.14815">
        <ele>140.5</ele>
        <time>2011-05-01T08:54:40Z</time>
      </trkpt>
      <trkpt lat="49.36995" lon="1.14798">
        <ele>138.4</ele>
        <time>2011-05-01T08:54:45Z</time>
      </trkpt>
      <trkpt lat="49.36954" lon="1.14792">
        <ele>135.7</ele>
        <time>2011-05-01T08:54:50Z</time>
      </trkpt>
      <trkpt lat="49.36946" lon="1.14791">
        <ele>135.2</ele>
        <time>2011-05-01T08:54:51Z</time>
      </trkpt>
      <trkpt lat="49.36908" lon="1.14776">
        <ele>132.6</ele>
        <time>2011-05-01T08:54:56Z</time>
      </trkpt>
      <trkpt lat="49.3689" lon="1.1476">
        <ele>131.4</ele>
        <time>2011-05-01T08:54:59Z</time>
      </trkpt>
      <trkpt lat="49.36875" lon="1.14771">
        <ele>131.2</ele>
        <time>2011-05-01T08:55:03Z</time>
      </trkpt>
      <trkpt lat="49.36848" lon="1.14807">
        <ele>131.6</ele>
        <time>2011-05-01T08:55:11Z</time>
      </trkpt>
      <trkpt lat="49.36818" lon="1.1484">
        <ele>132.5</ele>
        <time>2011-05-01T08:55:19Z</time>
      </trkpt>
      <trkpt lat="49.36791" lon="1.14869">
        <ele>134.3</ele>
        <time>2011-05-01T08:55:26Z</time>
      </trkpt>
      <trkpt lat="49.36787" lon="1.14874">
        <ele>134.6</ele>
        <time>2011-05-01T08:55:27Z</time>
      </trkpt>
      <trkpt lat="49.3677" lon="1.14892">
        <ele>135.6</ele>
        <time>2011-05-01T08:55:32Z</time>
      </trkpt>
      <trkpt lat="49.36758" lon="1.14921">
        <ele>137.3</ele>
        <time>2011-05-01T08:55:39Z</time>
      </trkpt>
      <trkpt lat="49.36747" lon="1.14938">
        <ele>138.1</ele>
        <time>2011-05-01T08:55:44Z</time>
      </trkpt>
      <trkpt lat="49.36734" lon="1.14961">
        <ele>138.6</ele>
        <time>2011-05-01T08:55:48Z</time>
      </trkpt>
      <trkpt lat="49.36727" lon="1.14982">
        <ele>139</ele>
        <time>2011-05-01T08:55:51Z</time>
      </trkpt>
      <trkpt lat="49.36719" lon="1.15">
        <ele>139</ele>
        <time>2011-05-01T08:55:55Z</time>
      </trkpt>
      <trkpt lat="49.36708" lon="1.15021">
        <ele>137.9</ele>
        <time>2011-05-01T08:55:59Z</time>
      </trkpt>
      <trkpt lat="49.367" lon="1.15031">
        <ele>137</ele>
        <time>2011-05-01T08:56:01Z</time>
      </trkpt>
      <trkpt lat="49.36677" lon="1.15068">
        <ele>134.3</ele>
        <time>2011-05-01T08:56:06Z</time>
      </trkpt>
      <trkpt lat="49.36659" lon="1.1512">
        <ele>132.1</ele>
        <time>2011-05-01T08:56:11Z</time>
      </trkpt>
      <trkpt lat="49.36658" lon="1.15125">
        <ele>132</ele>
        <time>2011-05-01T08:56:12Z</time>
      </trkpt>
      <trkpt lat="49.36657" lon="1.15151">
        <ele>131.6</ele>
        <time>2011-05-01T08:56:17Z</time>
      </trkpt>
      <trkpt lat="49.36656" lon="1.15159">
        <ele>131.4</ele>
        <time>2011-05-01T08:56:23Z</time>
      </trkpt>
      <trkpt lat="49.36655" lon="1.15159">
        <ele>131.4</ele>
        <time>2011-05-01T08:56:26Z</time>
      </trkpt>
      <trkpt lat="49.36654" lon="1.1516">
        <ele>131.3</ele>
        <time>2011-05-01T08:56:32Z</time>
      </trkpt>
      <trkpt lat="49.36649" lon="1.1517">
        <ele>131</ele>
        <time>2011-05-01T08:56:37Z</time>
      </trkpt>
      <trkpt lat="49.36645" lon="1.15163">
        <ele>130.8</ele>
        <time>2011-05-01T08:56:40Z</time>
      </trkpt>
      <trkpt lat="49.36639" lon="1.1516">
        <ele>130.4</ele>
        <time>2011-05-01T08:56:43Z</time>
      </trkpt>
      <trkpt lat="49.36624" lon="1.15158">
        <ele>129.5</ele>
        <time>2011-05-01T08:56:49Z</time>
      </trkpt>
      <trkpt lat="49.36618" lon="1.15174">
        <ele>129.5</ele>
        <time>2011-05-01T08:56:54Z</time>
      </trkpt>
      <trkpt lat="49.36612" lon="1.15193">
        <ele>130.3</ele>
        <time>2011-05-01T08:57:00Z</time>
      </trkpt>
      <trkpt lat="49.36602" lon="1.15212">
        <ele>131.4</ele>
        <time>2011-05-01T08:57:07Z</time>
      </trkpt>
      <trkpt lat="49.36599" lon="1.15217">
        <ele>131.8</ele>
        <time>2011-05-01T08:57:10Z</time>
      </trkpt>
      <trkpt lat="49.36595" lon="1.15231">
        <ele>133</ele>
        <time>2011-05-01T08:57:17Z</time>
      </trkpt>
      <trkpt lat="49.36592" lon="1.15243">
        <ele>134</ele>
        <time>2011-05-01T08:57:23Z</time>
      </trkpt>
      <trkpt lat="49.36586" lon="1.15254">
        <ele>135.2</ele>
        <time>2011-05-01T08:57:29Z</time>
      </trkpt>
      <trkpt lat="49.36574" lon="1.15264">
        <ele>136.5</ele>
        <time>2011-05-01T08:57:38Z</time>
      </trkpt>
      <trkpt lat="49.36567" lon="1.15268">
        <ele>137.2</ele>
        <time>2011-05-01T08:57:45Z</time>
      </trkpt>
      <trkpt lat="49.36566" lon="1.1527">
        <ele>137.3</ele>
        <time>2011-05-01T08:57:46Z</time>
      </trkpt>
      <trkpt lat="49.36565" lon="1.15275">
        <ele>137.7</ele>
        <time>2011-05-01T08:57:49Z</time>
      </trkpt>
      <trkpt lat="49.36562" lon="1.15281">
        <ele>138.2</ele>
        <time>2011-05-01T08:57:53Z</time>
      </trkpt>
      <trkpt lat="49.36555" lon="1.1529">
        <ele>138.9</ele>
        <time>2011-05-01T08:57:58Z</time>
      </trkpt>
      <trkpt lat="49.36551" lon="1.15304">
        <ele>139.7</ele>
        <time>2011-05-01T08:58:04Z</time>
      </trkpt>
      <trkpt lat="49.36548" lon="1.1532">
        <ele>140.4</ele>
        <time>2011-05-01T08:58:10Z</time>
      </trkpt>
      <trkpt lat="49.36542" lon="1.15353">
        <ele>141.3</ele>
        <time>2011-05-01T08:58:18Z</time>
      </trkpt>
      <trkpt lat="49.36537" lon="1.15374">
        <ele>141.7</ele>
        <time>2011-05-01T08:58:24Z</time>
      </trkpt>
      <trkpt lat="49.36526" lon="1.15388">
        <ele>141.9</ele>
        <time>2011-05-01T08:58:30Z</time>
      </trkpt>
      <trkpt lat="49.36513" lon="1.15392">
        <ele>141.8</ele>
        <time>2011-05-01T08:58:35Z</time>
      </trkpt>
      <trkpt lat="49.36494" lon="1.1539">
        <ele>141.3</ele>
        <time>2011-05-01T08:58:41Z</time>
      </trkpt>
      <trkpt lat="49.36484" lon="1.15399">
        <ele>140.9</ele>
        <time>2011-05-01T08:58:45Z</time>
      </trkpt>
      <trkpt lat="49.36467" lon="1.15413">
        <ele>140</ele>
        <time>2011-05-01T08:58:52Z</time>
      </trkpt>
      <trkpt lat="49.36461" lon="1.1542">
        <ele>139.6</ele>
        <time>2011-05-01T08:58:55Z</time>
      </trkpt>
      <trkpt lat="49.36465" lon="1.15423">
        <ele>139.7</ele>
        <time>2011-05-01T08:58:59Z</time>
      </trkpt>
      <trkpt lat="49.36466" lon="1.15421">
        <ele>139.9</ele>
        <time>2011-05-01T08:59:00Z</time>
      </trkpt>
      <trkpt lat="49.36477" lon="1.15404">
        <ele>140.6</ele>
        <time>2011-05-01T08:59:07Z</time>
      </trkpt>
      <trkpt lat="49.36484" lon="1.15391">
        <ele>140.8</ele>
        <time>2011-05-01T08:59:12Z</time>
      </trkpt>
      <trkpt lat="49.36484" lon="1.15386">
        <ele>140.8</ele>
        <time>2011-05-01T08:59:14Z</time>
      </trkpt>
      <trkpt lat="49.36476" lon="1.15376">
        <ele>140.4</ele>
        <time>2011-05-01T08:59:20Z</time>
      </trkpt>
      <trkpt lat="49.36471" lon="1.1537">
        <ele>140.1</ele>
        <time>2011-05-01T08:59:23Z</time>
      </trkpt>
      <trkpt lat="49.36454" lon="1.15375">
        <ele>139.3</ele>
        <time>2011-05-01T08:59:29Z</time>
      </trkpt>
      <trkpt lat="49.36437" lon="1.15389">
        <ele>138.4</ele>
        <time>2011-05-01T08:59:34Z</time>
      </trkpt>
      <trkpt lat="49.36434" lon="1.15389">
        <ele>138.2</ele>
        <time>2011-05-01T08:59:35Z</time>
      </trkpt>
      <trkpt lat="49.36426" lon="1.15399">
        <ele>137.8</ele>
        <time>2011-05-01T08:59:39Z</time>
      </trkpt>
      <trkpt lat="49.3642" lon="1.15423">
        <ele>137.1</ele>
        <time>2011-05-01T08:59:45Z</time>
      </trkpt>
      <trkpt lat="49.36418" lon="1.15445">
        <ele>136.4</ele>
        <time>2011-05-01T08:59:49Z</time>
      </trkpt>
      <trkpt lat="49.36414" lon="1.15467">
        <ele>135.8</ele>
        <time>2011-05-01T08:59:53Z</time>
      </trkpt>
      <trkpt lat="49.36403" lon="1.15489">
        <ele>134.9</ele>
        <time>2011-05-01T08:59:58Z</time>
      </trkpt>
      <trkpt lat="49.3638" lon="1.15508">
        <ele>133.8</ele>
        <time>2011-05-01T09:00:03Z</time>
      </trkpt>
      <trkpt lat="49.36346" lon="1.15534">
        <ele>133.2</ele>
        <time>2011-05-01T09:00:09Z</time>
      </trkpt>
      <trkpt lat="49.36334" lon="1.15545">
        <ele>133.1</ele>
        <time>2011-05-01T09:00:11Z</time>
      </trkpt>
      <trkpt lat="49.36325" lon="1.15575">
        <ele>133.1</ele>
        <time>2011-05-01T09:00:15Z</time>
      </trkpt>
      <trkpt lat="49.36326" lon="1.15583">
        <ele>133.3</ele>
        <time>2011-05-01T09:00:16Z</time>
      </trkpt>
      <trkpt lat="49.36328" lon="1.156">
        <ele>133.8</ele>
        <time>2011-05-01T09:00:18Z</time>
      </trkpt>
      <trkpt lat="49.36322" lon="1.15621">
        <ele>133.5</ele>
        <time>2011-05-01T09:00:22Z</time>
      </trkpt>
      <trkpt lat="49.36317" lon="1.15624">
        <ele>133.2</ele>
        <time>2011-05-01T09:00:23Z</time>
      </trkpt>
      <trkpt lat="49.36286" lon="1.15637">
        <ele>131</ele>
        <time>2011-05-01T09:00:28Z</time>
      </trkpt>
      <trkpt lat="49.36276" lon="1.15651">
        <ele>130.5</ele>
        <time>2011-05-01T09:00:32Z</time>
      </trkpt>
      <trkpt lat="49.36279" lon="1.15665">
        <ele>131</ele>
        <time>2011-05-01T09:00:35Z</time>
      </trkpt>
      <trkpt lat="49.36294" lon="1.15706">
        <ele>132.1</ele>
        <time>2011-05-01T09:00:43Z</time>
      </trkpt>
      <trkpt lat="49.36305" lon="1.15748">
        <ele>132.7</ele>
        <time>2011-05-01T09:00:50Z</time>
      </trkpt>
      <trkpt lat="49.36314" lon="1.15777">
        <ele>133.6</ele>
        <time>2011-05-01T09:00:55Z</time>
      </trkpt>
      <trkpt lat="49.36326" lon="1.15826">
        <ele>135.3</ele>
        <time>2011-05-01T09:01:04Z</time>
      </trkpt>
      <trkpt lat="49.36329" lon="1.15858">
        <ele>136</ele>
        <time>2011-05-01T09:01:11Z</time>
      </trkpt>
      <trkpt lat="49.36322" lon="1.15872">
        <ele>135.8</ele>
        <time>2011-05-01T09:01:16Z</time>
      </trkpt>
      <trkpt lat="49.36308" lon="1.15884">
        <ele>135.1</ele>
        <time>2011-05-01T09:01:21Z</time>
      </trkpt>
      <trkpt lat="49.36289" lon="1.15899">
        <ele>134.4</ele>
        <time>2011-05-01T09:01:28Z</time>
      </trkpt>
      <trkpt lat="49.3627" lon="1.15923">
        <ele>134.1</ele>
        <time>2011-05-01T09:01:36Z</time>
      </trkpt>
      <trkpt lat="49.36249" lon="1.1596">
        <ele>134.6</ele>
        <time>2011-05-01T09:01:46Z</time>
      </trkpt>
      <trkpt lat="49.36239" lon="1.15976">
        <ele>135.4</ele>
        <time>2011-05-01T09:01:51Z</time>
      </trkpt>
      <trkpt lat="49.36219" lon="1.15974">
        <ele>135.8</ele>
        <time>2011-05-01T09:01:56Z</time>
      </trkpt>
      <trkpt lat="49.36184" lon="1.15966">
        <ele>136.3</ele>
        <time>2011-05-01T09:02:03Z</time>
      </trkpt>
      <trkpt lat="49.36167" lon="1.15965">
        <ele>136.7</ele>
        <time>2011-05-01T09:02:07Z</time>
      </trkpt>
      <trkpt lat="49.36139" lon="1.15961">
        <ele>136.1</ele>
        <time>2011-05-01T09:02:15Z</time>
      </trkpt>
      <trkpt lat="49.36128" lon="1.15948">
        <ele>135.6</ele>
        <time>2011-05-01T09:02:20Z</time>
      </trkpt>
      <trkpt lat="49.36113" lon="1.15933">
        <ele>135.2</ele>
        <time>2011-05-01T09:02:24Z</time>
      </trkpt>
      <trkpt lat="49.36109" lon="1.15931">
        <ele>135.2</ele>
        <time>2011-05-01T09:02:25Z</time>
      </trkpt>
      <trkpt lat="49.3609" lon="1.15924">
        <ele>135</ele>
        <time>2011-05-01T09:02:29Z</time>
      </trkpt>
      <trkpt lat="49.36062" lon="1.15901">
        <ele>134.5</ele>
        <time>2011-05-01T09:02:35Z</time>
      </trkpt>
      <trkpt lat="49.36047" lon="1.15887">
        <ele>134.1</ele>
        <time>2011-05-01T09:02:39Z</time>
      </trkpt>
      <trkpt lat="49.36045" lon="1.15885">
        <ele>134.1</ele>
        <time>2011-05-01T09:02:45Z</time>
      </trkpt>
      <trkpt lat="49.36048" lon="1.15888">
        <ele>134.1</ele>
        <time>2011-05-01T09:02:57Z</time>
      </trkpt>
      <trkpt lat="49.3605" lon="1.15889">
        <ele>134.2</ele>
        <time>2011-05-01T09:03:03Z</time>
      </trkpt>
      <trkpt lat="49.36049" lon="1.15887">
        <ele>134.2</ele>
        <time>2011-05-01T09:03:09Z</time>
      </trkpt>
      <trkpt lat="49.36052" lon="1.15888">
        <ele>134.2</ele>
        <time>2011-05-01T09:03:14Z</time>
      </trkpt>
      <trkpt lat="49.36049" lon="1.15886">
        <ele>134.2</ele>
        <time>2011-05-01T09:03:18Z</time>
      </trkpt>
      <trkpt lat="49.36037" lon="1.15874">
        <ele>133.9</ele>
        <time>2011-05-01T09:03:23Z</time>
      </trkpt>
      <trkpt lat="49.36022" lon="1.15863">
        <ele>133.5</ele>
        <time>2011-05-01T09:03:29Z</time>
      </trkpt>
      <trkpt lat="49.36012" lon="1.1585">
        <ele>133.3</ele>
        <time>2011-05-01T09:03:33Z</time>
      </trkpt>
      <trkpt lat="49.35996" lon="1.15837">
        <ele>132.7</ele>
        <time>2011-05-01T09:03:38Z</time>
      </trkpt>
      <trkpt lat="49.35983" lon="1.15821">
        <ele>131.7</ele>
        <time>2011-05-01T09:03:43Z</time>
      </trkpt>
      <trkpt lat="49.35974" lon="1.15804">
        <ele>131</ele>
        <time>2011-05-01T09:03:47Z</time>
      </trkpt>
      <trkpt lat="49.35965" lon="1.15781">
        <ele>130.2</ele>
        <time>2011-05-01T09:03:51Z</time>
      </trkpt>
      <trkpt lat="49.35963" lon="1.15777">
        <ele>129.9</ele>
        <time>2011-05-01T09:03:52Z</time>
      </trkpt>
      <trkpt lat="49.3595" lon="1.15768">
        <ele>128.7</ele>
        <time>2011-05-01T09:03:57Z</time>
      </trkpt>
      <trkpt lat="49.35947" lon="1.15766">
        <ele>128.3</ele>
        <time>2011-05-01T09:03:59Z</time>
      </trkpt>
      <trkpt lat="49.35945" lon="1.15769">
        <ele>128.1</ele>
        <time>2011-05-01T09:04:01Z</time>
      </trkpt>
      <trkpt lat="49.3594" lon="1.15777">
        <ele>127.7</ele>
        <time>2011-05-01T09:04:10Z</time>
      </trkpt>
      <trkpt lat="49.35939" lon="1.15785">
        <ele>127.7</ele>
        <time>2011-05-01T09:04:15Z</time>
      </trkpt>
      <trkpt lat="49.3594" lon="1.15794">
        <ele>127.7</ele>
        <time>2011-05-01T09:04:21Z</time>
      </trkpt>
      <trkpt lat="49.35939" lon="1.158">
        <ele>127.7</ele>
        <time>2011-05-01T09:04:24Z</time>
      </trkpt>
      <trkpt lat="49.35942" lon="1.1582">
        <ele>128</ele>
        <time>2011-05-01T09:04:30Z</time>
      </trkpt>
      <trkpt lat="49.35943" lon="1.15837">
        <ele>128.3</ele>
        <time>2011-05-01T09:04:35Z</time>
      </trkpt>
      <trkpt lat="49.35945" lon="1.15857">
        <ele>128.6</ele>
        <time>2011-05-01T09:04:41Z</time>
      </trkpt>
      <trkpt lat="49.35944" lon="1.15874">
        <ele>128.6</ele>
        <time>2011-05-01T09:04:47Z</time>
      </trkpt>
      <trkpt lat="49.35938" lon="1.15887">
        <ele>128.3</ele>
        <time>2011-05-01T09:04:53Z</time>
      </trkpt>
      <trkpt lat="49.3593" lon="1.15894">
        <ele>127.7</ele>
        <time>2011-05-01T09:04:58Z</time>
      </trkpt>
      <trkpt lat="49.35922" lon="1.15903">
        <ele>127.3</ele>
        <time>2011-05-01T09:05:02Z</time>
      </trkpt>
      <trkpt lat="49.35914" lon="1.15912">
        <ele>127</ele>
        <time>2011-05-01T09:05:08Z</time>
      </trkpt>
      <trkpt lat="49.35914" lon="1.15934">
        <ele>127.1</ele>
        <time>2011-05-01T09:05:15Z</time>
      </trkpt>
      <trkpt lat="49.35912" lon="1.1594">
        <ele>127.2</ele>
        <time>2011-05-01T09:05:17Z</time>
      </trkpt>
      <trkpt lat="49.35901" lon="1.15952">
        <ele>127.6</ele>
        <time>2011-05-01T09:05:25Z</time>
      </trkpt>
      <trkpt lat="49.35889" lon="1.15969">
        <ele>128.3</ele>
        <time>2011-05-01T09:05:31Z</time>
      </trkpt>
      <trkpt lat="49.35882" lon="1.15983">
        <ele>128.8</ele>
        <time>2011-05-01T09:05:36Z</time>
      </trkpt>
      <trkpt lat="49.3588" lon="1.15985">
        <ele>128.9</ele>
        <time>2011-05-01T09:05:37Z</time>
      </trkpt>
      <trkpt lat="49.35867" lon="1.15998">
        <ele>129.9</ele>
        <time>2011-05-01T09:05:42Z</time>
      </trkpt>
      <trkpt lat="49.35862" lon="1.16004">
        <ele>130.5</ele>
        <time>2011-05-01T09:05:44Z</time>
      </trkpt>
      <trkpt lat="49.35849" lon="1.16019">
        <ele>131.8</ele>
        <time>2011-05-01T09:05:49Z</time>
      </trkpt>
      <trkpt lat="49.3584" lon="1.16033">
        <ele>132.8</ele>
        <time>2011-05-01T09:05:55Z</time>
      </trkpt>
      <trkpt lat="49.35834" lon="1.16039">
        <ele>133.4</ele>
        <time>2011-05-01T09:05:59Z</time>
      </trkpt>
      <trkpt lat="49.35836" lon="1.1605">
        <ele>133.7</ele>
        <time>2011-05-01T09:06:04Z</time>
      </trkpt>
      <trkpt lat="49.35842" lon="1.16062">
        <ele>133.9</ele>
        <time>2011-05-01T09:06:09Z</time>
      </trkpt>
      <trkpt lat="49.35839" lon="1.16076">
        <ele>134.5</ele>
        <time>2011-05-01T09:06:14Z</time>
      </trkpt>
      <trkpt lat="49.35838" lon="1.16079">
        <ele>134.7</ele>
        <time>2011-05-01T09:06:15Z</time>
      </trkpt>
      <trkpt lat="49.35822" lon="1.16113">
        <ele>136.7</ele>
        <time>2011-05-01T09:06:24Z</time>
      </trkpt>
      <trkpt lat="49.35811" lon="1.16137">
        <ele>137.8</ele>
        <time>2011-05-01T09:06:30Z</time>
      </trkpt>
      <trkpt lat="49.35797" lon="1.16165">
        <ele>138.9</ele>
        <time>2011-05-01T09:06:37Z</time>
      </trkpt>
      <trkpt lat="49.35785" lon="1.16198">
        <ele>139.9</ele>
        <time>2011-05-01T09:06:44Z</time>
      </trkpt>
      <trkpt lat="49.35782" lon="1.16213">
        <ele>140.3</ele>
        <time>2011-05-01T09:06:49Z</time>
      </trkpt>
      <trkpt lat="49.35788" lon="1.16227">
        <ele>140.8</ele>
        <time>2011-05-01T09:06:54Z</time>
      </trkpt>
      <trkpt lat="49.35803" lon="1.1625">
        <ele>141.6</ele>
        <time>2011-05-01T09:07:01Z</time>
      </trkpt>
      <trkpt lat="49.35816" lon="1.1627">
        <ele>142</ele>
        <time>2011-05-01T09:07:07Z</time>
      </trkpt>
      <trkpt lat="49.35811" lon="1.1628">
        <ele>142.1</ele>
        <time>2011-05-01T09:07:11Z</time>
      </trkpt>
      <trkpt lat="49.35793" lon="1.16291">
        <ele>142</ele>
        <time>2011-05-01T09:07:16Z</time>
      </trkpt>
      <trkpt lat="49.35774" lon="1.16302">
        <ele>141.9</ele>
        <time>2011-05-01T09:07:21Z</time>
      </trkpt>
      <trkpt lat="49.35764" lon="1.1631">
        <ele>141.9</ele>
        <time>2011-05-01T09:07:24Z</time>
      </trkpt>
      <trkpt lat="49.3575" lon="1.1632">
        <ele>141.8</ele>
        <time>2011-05-01T09:07:27Z</time>
      </trkpt>
      <trkpt lat="49.35729" lon="1.16332">
        <ele>142.7</ele>
        <time>2011-05-01T09:07:32Z</time>
      </trkpt>
      <trkpt lat="49.35707" lon="1.16357">
        <ele>143.7</ele>
        <time>2011-05-01T09:07:37Z</time>
      </trkpt>
      <trkpt lat="49.35679" lon="1.1638">
        <ele>144.6</ele>
        <time>2011-05-01T09:07:42Z</time>
      </trkpt>
      <trkpt lat="49.35671" lon="1.16387">
        <ele>144.9</ele>
        <time>2011-05-01T09:07:44Z</time>
      </trkpt>
      <trkpt lat="49.35641" lon="1.16406">
        <ele>144</ele>
        <time>2011-05-01T09:07:49Z</time>
      </trkpt>
      <trkpt lat="49.35612" lon="1.16448">
        <ele>142</ele>
        <time>2011-05-01T09:07:55Z</time>
      </trkpt>
      <trkpt lat="49.356" lon="1.16472">
        <ele>140.7</ele>
        <time>2011-05-01T09:07:59Z</time>
      </trkpt>
      <trkpt lat="49.35586" lon="1.16491">
        <ele>139.5</ele>
        <time>2011-05-01T09:08:04Z</time>
      </trkpt>
      <trkpt lat="49.35576" lon="1.16506">
        <ele>138.8</ele>
        <time>2011-05-01T09:08:07Z</time>
      </trkpt>
      <trkpt lat="49.3557" lon="1.16516">
        <ele>138.5</ele>
        <time>2011-05-01T09:08:09Z</time>
      </trkpt>
      <trkpt lat="49.35551" lon="1.16524">
        <ele>138</ele>
        <time>2011-05-01T09:08:14Z</time>
      </trkpt>
      <trkpt lat="49.35532" lon="1.16508">
        <ele>137.7</ele>
        <time>2011-05-01T09:08:19Z</time>
      </trkpt>
      <trkpt lat="49.35528" lon="1.16502">
        <ele>137.7</ele>
        <time>2011-05-01T09:08:20Z</time>
      </trkpt>
      <trkpt lat="49.35522" lon="1.16489">
        <ele>137.6</ele>
        <time>2011-05-01T09:08:22Z</time>
      </trkpt>
      <trkpt lat="49.35517" lon="1.16477">
        <ele>137.6</ele>
        <time>2011-05-01T09:08:24Z</time>
      </trkpt>
      <trkpt lat="49.35503" lon="1.16451">
        <ele>137.1</ele>
        <time>2011-05-01T09:08:29Z</time>
      </trkpt>
      <trkpt lat="49.35492" lon="1.16437">
        <ele>136.1</ele>
        <time>2011-05-01T09:08:32Z</time>
      </trkpt>
      <trkpt lat="49.35487" lon="1.16435">
        <ele>135.7</ele>
        <time>2011-05-01T09:08:33Z</time>
      </trkpt>
      <trkpt lat="49.35472" lon="1.16436">
        <ele>134</ele>
        <time>2011-05-01T09:08:38Z</time>
      </trkpt>
      <trkpt lat="49.35467" lon="1.1644">
        <ele>133.6</ele>
        <time>2011-05-01T09:08:40Z</time>
      </trkpt>
      <trkpt lat="49.35453" lon="1.16459">
        <ele>132.8</ele>
        <time>2011-05-01T09:08:46Z</time>
      </trkpt>
      <trkpt lat="49.35434" lon="1.16481">
        <ele>132.1</ele>
        <time>2011-05-01T09:08:52Z</time>
      </trkpt>
      <trkpt lat="49.35416" lon="1.16496">
        <ele>131.7</ele>
        <time>2011-05-01T09:08:58Z</time>
      </trkpt>
      <trkpt lat="49.35412" lon="1.16499">
        <ele>131.7</ele>
        <time>2011-05-01T09:09:00Z</time>
      </trkpt>
      <trkpt lat="49.35408" lon="1.1651">
        <ele>132.1</ele>
        <time>2011-05-01T09:09:06Z</time>
      </trkpt>
      <trkpt lat="49.35404" lon="1.16508">
        <ele>131.8</ele>
        <time>2011-05-01T09:09:24Z</time>
      </trkpt>
      <trkpt lat="49.35405" lon="1.1651">
        <ele>131.9</ele>
        <time>2011-05-01T09:09:45Z</time>
      </trkpt>
      <trkpt lat="49.35404" lon="1.16509">
        <ele>131.8</ele>
        <time>2011-05-01T09:09:47Z</time>
      </trkpt>
      <trkpt lat="49.35401" lon="1.16502">
        <ele>131.3</ele>
        <time>2011-05-01T09:09:51Z</time>
      </trkpt>
      <trkpt lat="49.35394" lon="1.16475">
        <ele>129.3</ele>
        <time>2011-05-01T09:09:57Z</time>
      </trkpt>
      <trkpt lat="49.3538" lon="1.16448">
        <ele>126.8</ele>
        <time>2011-05-01T09:10:01Z</time>
      </trkpt>
      <trkpt lat="49.35372" lon="1.16436">
        <ele>125.6</ele>
        <time>2011-05-01T09:10:03Z</time>
      </trkpt>
      <trkpt lat="49.35355" lon="1.16415">
        <ele>123.2</ele>
        <time>2011-05-01T09:10:08Z</time>
      </trkpt>
      <trkpt lat="49.35353" lon="1.16413">
        <ele>122.9</ele>
        <time>2011-05-01T09:10:12Z</time>
      </trkpt>
      <trkpt lat="49.35352" lon="1.16413">
        <ele>122.8</ele>
        <time>2011-05-01T09:10:23Z</time>
      </trkpt>
      <trkpt lat="49.35351" lon="1.16412">
        <ele>122.7</ele>
        <time>2011-05-01T09:10:25Z</time>
      </trkpt>
      <trkpt lat="49.35336" lon="1.16424">
        <ele>122.7</ele>
        <time>2011-05-01T09:10:30Z</time>
      </trkpt>
      <trkpt lat="49.3531" lon="1.16443">
        <ele>121.7</ele>
        <time>2011-05-01T09:10:37Z</time>
      </trkpt>
      <trkpt lat="49.35278" lon="1.16463">
        <ele>120.4</ele>
        <time>2011-05-01T09:10:47Z</time>
      </trkpt>
      <trkpt lat="49.35252" lon="1.16478">
        <ele>119.3</ele>
        <time>2011-05-01T09:10:54Z</time>
      </trkpt>
      <trkpt lat="49.35238" lon="1.16477">
        <ele>118</ele>
        <time>2011-05-01T09:10:59Z</time>
      </trkpt>
      <trkpt lat="49.35237" lon="1.16476">
        <ele>117.9</ele>
        <time>2011-05-01T09:11:11Z</time>
      </trkpt>
      <trkpt lat="49.35231" lon="1.16475">
        <ele>117.3</ele>
        <time>2011-05-01T09:11:26Z</time>
      </trkpt>
      <trkpt lat="49.35213" lon="1.16474">
        <ele>115.8</ele>
        <time>2011-05-01T09:11:31Z</time>
      </trkpt>
      <trkpt lat="49.35182" lon="1.16472">
        <ele>113.2</ele>
        <time>2011-05-01T09:11:38Z</time>
      </trkpt>
      <trkpt lat="49.35146" lon="1.16471">
        <ele>111</ele>
        <time>2011-05-01T09:11:45Z</time>
      </trkpt>
      <trkpt lat="49.35122" lon="1.16474">
        <ele>110.1</ele>
        <time>2011-05-01T09:11:49Z</time>
      </trkpt>
      <trkpt lat="49.35106" lon="1.16485">
        <ele>110.1</ele>
        <time>2011-05-01T09:11:52Z</time>
      </trkpt>
      <trkpt lat="49.35076" lon="1.16502">
        <ele>109.6</ele>
        <time>2011-05-01T09:11:58Z</time>
      </trkpt>
      <trkpt lat="49.35046" lon="1.165">
        <ele>107.8</ele>
        <time>2011-05-01T09:12:03Z</time>
      </trkpt>
      <trkpt lat="49.35033" lon="1.16498">
        <ele>106.8</ele>
        <time>2011-05-01T09:12:05Z</time>
      </trkpt>
      <trkpt lat="49.35019" lon="1.16499">
        <ele>106.1</ele>
        <time>2011-05-01T09:12:08Z</time>
      </trkpt>
      <trkpt lat="49.35015" lon="1.16501">
        <ele>105.9</ele>
        <time>2011-05-01T09:12:10Z</time>
      </trkpt>
      <trkpt lat="49.35009" lon="1.16503">
        <ele>105.6</ele>
        <time>2011-05-01T09:12:12Z</time>
      </trkpt>
      <trkpt lat="49.35002" lon="1.16505">
        <ele>105.2</ele>
        <time>2011-05-01T09:12:16Z</time>
      </trkpt>
      <trkpt lat="49.34998" lon="1.16504">
        <ele>105</ele>
        <time>2011-05-01T09:12:22Z</time>
      </trkpt>
      <trkpt lat="49.34992" lon="1.16499">
        <ele>104.5</ele>
        <time>2011-05-01T09:12:27Z</time>
      </trkpt>
      <trkpt lat="49.34988" lon="1.16493">
        <ele>104</ele>
        <time>2011-05-01T09:12:30Z</time>
      </trkpt>
      <trkpt lat="49.34973" lon="1.16464">
        <ele>101.2</ele>
        <time>2011-05-01T09:12:37Z</time>
      </trkpt>
      <trkpt lat="49.34956" lon="1.16436">
        <ele>98.2</ele>
        <time>2011-05-01T09:12:42Z</time>
      </trkpt>
      <trkpt lat="49.34916" lon="1.16403">
        <ele>93.3</ele>
        <time>2011-05-01T09:12:49Z</time>
      </trkpt>
      <trkpt lat="49.34912" lon="1.16398">
        <ele>93.1</ele>
        <time>2011-05-01T09:12:50Z</time>
      </trkpt>
      <trkpt lat="49.34892" lon="1.16399">
        <ele>93</ele>
        <time>2011-05-01T09:12:55Z</time>
      </trkpt>
      <trkpt lat="49.34889" lon="1.16403">
        <ele>93.2</ele>
        <time>2011-05-01T09:12:56Z</time>
      </trkpt>
      <trkpt lat="49.34877" lon="1.16417">
        <ele>94</ele>
        <time>2011-05-01T09:12:59Z</time>
      </trkpt>
      <trkpt lat="49.34854" lon="1.16426">
        <ele>95.3</ele>
        <time>2011-05-01T09:13:03Z</time>
      </trkpt>
      <trkpt lat="49.34812" lon="1.16434">
        <ele>96.2</ele>
        <time>2011-05-01T09:13:10Z</time>
      </trkpt>
      <trkpt lat="49.3479" lon="1.16445">
        <ele>97.5</ele>
        <time>2011-05-01T09:13:14Z</time>
      </trkpt>
      <trkpt lat="49.34781" lon="1.16453">
        <ele>98.5</ele>
        <time>2011-05-01T09:13:16Z</time>
      </trkpt>
      <trkpt lat="49.34769" lon="1.16472">
        <ele>101.2</ele>
        <time>2011-05-01T09:13:19Z</time>
      </trkpt>
      <trkpt lat="49.34753" lon="1.16491">
        <ele>103.7</ele>
        <time>2011-05-01T09:13:23Z</time>
      </trkpt>
      <trkpt lat="49.34736" lon="1.16527">
        <ele>104.7</ele>
        <time>2011-05-01T09:13:29Z</time>
      </trkpt>
      <trkpt lat="49.34728" lon="1.16562">
        <ele>106</ele>
        <time>2011-05-01T09:13:34Z</time>
      </trkpt>
      <trkpt lat="49.34725" lon="1.1661">
        <ele>108</ele>
        <time>2011-05-01T09:13:42Z</time>
      </trkpt>
      <trkpt lat="49.34721" lon="1.16666">
        <ele>109.8</ele>
        <time>2011-05-01T09:13:52Z</time>
      </trkpt>
      <trkpt lat="49.3472" lon="1.16676">
        <ele>110.5</ele>
        <time>2011-05-01T09:13:54Z</time>
      </trkpt>
      <trkpt lat="49.34711" lon="1.16679">
        <ele>109.7</ele>
        <time>2011-05-01T09:13:58Z</time>
      </trkpt>
      <trkpt lat="49.34703" lon="1.16663">
        <ele>107.7</ele>
        <time>2011-05-01T09:14:02Z</time>
      </trkpt>
      <trkpt lat="49.34695" lon="1.16636">
        <ele>105.7</ele>
        <time>2011-05-01T09:14:06Z</time>
      </trkpt>
      <trkpt lat="49.34676" lon="1.16605">
        <ele>102.1</ele>
        <time>2011-05-01T09:14:11Z</time>
      </trkpt>
      <trkpt lat="49.34637" lon="1.16571">
        <ele>97.5</ele>
        <time>2011-05-01T09:14:18Z</time>
      </trkpt>
      <trkpt lat="49.34585" lon="1.16544">
        <ele>92.7</ele>
        <time>2011-05-01T09:14:25Z</time>
      </trkpt>
      <trkpt lat="49.34527" lon="1.16513">
        <ele>91.8</ele>
        <time>2011-05-01T09:14:32Z</time>
      </trkpt>
      <trkpt lat="49.34467" lon="1.16472">
        <ele>87.9</ele>
        <time>2011-05-01T09:14:39Z</time>
      </trkpt>
      <trkpt lat="49.3446" lon="1.16463">
        <ele>87.1</ele>
        <time>2011-05-01T09:14:40Z</time>
      </trkpt>
      <trkpt lat="49.34437" lon="1.16419">
        <ele>83.6</ele>
        <time>2011-05-01T09:14:44Z</time>
      </trkpt>
      <trkpt lat="49.34432" lon="1.16396">
        <ele>82.6</ele>
        <time>2011-05-01T09:14:46Z</time>
      </trkpt>
      <trkpt lat="49.3443" lon="1.16373">
        <ele>81.6</ele>
        <time>2011-05-01T09:14:49Z</time>
      </trkpt>
      <trkpt lat="49.34428" lon="1.1636">
        <ele>81.1</ele>
        <time>2011-05-01T09:14:53Z</time>
      </trkpt>
      <trkpt lat="49.34422" lon="1.16368">
        <ele>81.3</ele>
        <time>2011-05-01T09:14:56Z</time>
      </trkpt>
      <trkpt lat="49.34415" lon="1.16387">
        <ele>81.9</ele>
        <time>2011-05-01T09:14:59Z</time>
      </trkpt>
      <trkpt lat="49.34403" lon="1.16406">
        <ele>82.6</ele>
        <time>2011-05-01T09:15:02Z</time>
      </trkpt>
      <trkpt lat="49.34367" lon="1.16429">
        <ele>83.5</ele>
        <time>2011-05-01T09:15:08Z</time>
      </trkpt>
      <trkpt lat="49.34321" lon="1.16452">
        <ele>84.1</ele>
        <time>2011-05-01T09:15:15Z</time>
      </trkpt>
      <trkpt lat="49.34308" lon="1.16457">
        <ele>84.3</ele>
        <time>2011-05-01T09:15:17Z</time>
      </trkpt>
      <trkpt lat="49.34292" lon="1.16471">
        <ele>84.9</ele>
        <time>2011-05-01T09:15:20Z</time>
      </trkpt>
      <trkpt lat="49.34277" lon="1.16496">
        <ele>86.4</ele>
        <time>2011-05-01T09:15:23Z</time>
      </trkpt>
      <trkpt lat="49.34251" lon="1.16543">
        <ele>91</ele>
        <time>2011-05-01T09:15:29Z</time>
      </trkpt>
      <trkpt lat="49.34246" lon="1.16547">
        <ele>91.6</ele>
        <time>2011-05-01T09:15:30Z</time>
      </trkpt>
      <trkpt lat="49.34225" lon="1.16573">
        <ele>94.5</ele>
        <time>2011-05-01T09:15:35Z</time>
      </trkpt>
      <trkpt lat="49.34217" lon="1.16582">
        <ele>95.6</ele>
        <time>2011-05-01T09:15:37Z</time>
      </trkpt>
      <trkpt lat="49.3419" lon="1.1661">
        <ele>98.4</ele>
        <time>2011-05-01T09:15:44Z</time>
      </trkpt>
      <trkpt lat="49.34187" lon="1.16614">
        <ele>98.7</ele>
        <time>2011-05-01T09:15:45Z</time>
      </trkpt>
      <trkpt lat="49.34171" lon="1.16626">
        <ele>99.9</ele>
        <time>2011-05-01T09:15:49Z</time>
      </trkpt>
      <trkpt lat="49.34159" lon="1.16638">
        <ele>100.6</ele>
        <time>2011-05-01T09:15:52Z</time>
      </trkpt>
      <trkpt lat="49.34148" lon="1.16651">
        <ele>101.1</ele>
        <time>2011-05-01T09:15:55Z</time>
      </trkpt>
      <trkpt lat="49.34136" lon="1.16664">
        <ele>101.6</ele>
        <time>2011-05-01T09:15:59Z</time>
      </trkpt>
      <trkpt lat="49.34117" lon="1.16677">
        <ele>101.7</ele>
        <time>2011-05-01T09:16:04Z</time>
      </trkpt>
      <trkpt lat="49.34099" lon="1.16688">
        <ele>101.5</ele>
        <time>2011-05-01T09:16:08Z</time>
      </trkpt>
      <trkpt lat="49.34081" lon="1.1669">
        <ele>100.9</ele>
        <time>2011-05-01T09:16:12Z</time>
      </trkpt>
      <trkpt lat="49.34059" lon="1.16694">
        <ele>99.9</ele>
        <time>2011-05-01T09:16:17Z</time>
      </trkpt>
      <trkpt lat="49.34016" lon="1.16702">
        <ele>98</ele>
        <time>2011-05-01T09:16:25Z</time>
      </trkpt>
      <trkpt lat="49.33982" lon="1.1671">
        <ele>97.1</ele>
        <time>2011-05-01T09:16:31Z</time>
      </trkpt>
      <trkpt lat="49.33977" lon="1.16711">
        <ele>97.1</ele>
        <time>2011-05-01T09:16:32Z</time>
      </trkpt>
      <trkpt lat="49.33959" lon="1.16714">
        <ele>96.9</ele>
        <time>2011-05-01T09:16:37Z</time>
      </trkpt>
      <trkpt lat="49.33942" lon="1.1672">
        <ele>97</ele>
        <time>2011-05-01T09:16:41Z</time>
      </trkpt>
      <trkpt lat="49.33912" lon="1.16729">
        <ele>97.4</ele>
        <time>2011-05-01T09:16:47Z</time>
      </trkpt>
      <trkpt lat="49.3388" lon="1.16731">
        <ele>98.7</ele>
        <time>2011-05-01T09:16:53Z</time>
      </trkpt>
      <trkpt lat="49.33864" lon="1.16734">
        <ele>99.6</ele>
        <time>2011-05-01T09:16:56Z</time>
      </trkpt>
      <trkpt lat="49.33837" lon="1.16749">
        <ele>102.6</ele>
        <time>2011-05-01T09:17:01Z</time>
      </trkpt>
      <trkpt lat="49.33826" lon="1.16756">
        <ele>103.6</ele>
        <time>2011-05-01T09:17:06Z</time>
      </trkpt>
      <trkpt lat="49.33818" lon="1.16739">
        <ele>101.7</ele>
        <time>2011-05-01T09:17:09Z</time>
      </trkpt>
      <trkpt lat="49.33803" lon="1.16712">
        <ele>98.4</ele>
        <time>2011-05-01T09:17:13Z</time>
      </trkpt>
      <trkpt lat="49.33792" lon="1.16707">
        <ele>98</ele>
        <time>2011-05-01T09:17:15Z</time>
      </trkpt>
      <trkpt lat="49.33782" lon="1.16708">
        <ele>98.3</ele>
        <time>2011-05-01T09:17:19Z</time>
      </trkpt>
      <trkpt lat="49.33764" lon="1.16705">
        <ele>98.2</ele>
        <time>2011-05-01T09:17:23Z</time>
      </trkpt>
      <trkpt lat="49.33749" lon="1.16706">
        <ele>98.7</ele>
        <time>2011-05-01T09:17:26Z</time>
      </trkpt>
      <trkpt lat="49.33733" lon="1.16697">
        <ele>98.1</ele>
        <time>2011-05-01T09:17:30Z</time>
      </trkpt>
      <trkpt lat="49.3373" lon="1.16692">
        <ele>97.7</ele>
        <time>2011-05-01T09:17:31Z</time>
      </trkpt>
      <trkpt lat="49.33705" lon="1.16684">
        <ele>97.8</ele>
        <time>2011-05-01T09:17:35Z</time>
      </trkpt>
      <trkpt lat="49.33692" lon="1.16686">
        <ele>98.6</ele>
        <time>2011-05-01T09:17:37Z</time>
      </trkpt>
      <trkpt lat="49.3368" lon="1.16704">
        <ele>100.7</ele>
        <time>2011-05-01T09:17:41Z</time>
      </trkpt>
      <trkpt lat="49.33678" lon="1.16716">
        <ele>101.8</ele>
        <time>2011-05-01T09:17:43Z</time>
      </trkpt>
      <trkpt lat="49.33672" lon="1.16727">
        <ele>102.9</ele>
        <time>2011-05-01T09:17:45Z</time>
      </trkpt>
      <trkpt lat="49.33651" lon="1.16744">
        <ele>104.3</ele>
        <time>2011-05-01T09:17:50Z</time>
      </trkpt>
      <trkpt lat="49.33647" lon="1.16748">
        <ele>104.6</ele>
        <time>2011-05-01T09:17:51Z</time>
      </trkpt>
      <trkpt lat="49.3364" lon="1.16756">
        <ele>105</ele>
        <time>2011-05-01T09:17:53Z</time>
      </trkpt>
      <trkpt lat="49.33626" lon="1.16785">
        <ele>106.6</ele>
        <time>2011-05-01T09:17:58Z</time>
      </trkpt>
      <trkpt lat="49.3362" lon="1.168">
        <ele>107.3</ele>
        <time>2011-05-01T09:18:00Z</time>
      </trkpt>
      <trkpt lat="49.3361" lon="1.16836">
        <ele>109</ele>
        <time>2011-05-01T09:18:05Z</time>
      </trkpt>
      <trkpt lat="49.33608" lon="1.16853">
        <ele>109.3</ele>
        <time>2011-05-01T09:18:08Z</time>
      </trkpt>
      <trkpt lat="49.33616" lon="1.1687">
        <ele>110</ele>
        <time>2011-05-01T09:18:13Z</time>
      </trkpt>
      <trkpt lat="49.33628" lon="1.16887">
        <ele>110.9</ele>
        <time>2011-05-01T09:18:18Z</time>
      </trkpt>
      <trkpt lat="49.33642" lon="1.16904">
        <ele>111.8</ele>
        <time>2011-05-01T09:18:23Z</time>
      </trkpt>
      <trkpt lat="49.33652" lon="1.16918">
        <ele>112.5</ele>
        <time>2011-05-01T09:18:27Z</time>
      </trkpt>
      <trkpt lat="49.33668" lon="1.16939">
        <ele>113.5</ele>
        <time>2011-05-01T09:18:32Z</time>
      </trkpt>
      <trkpt lat="49.33677" lon="1.16964">
        <ele>114.3</ele>
        <time>2011-05-01T09:18:37Z</time>
      </trkpt>
      <trkpt lat="49.33687" lon="1.16976">
        <ele>114.8</ele>
        <time>2011-05-01T09:18:40Z</time>
      </trkpt>
      <trkpt lat="49.337" lon="1.16992">
        <ele>115.5</ele>
        <time>2011-05-01T09:18:44Z</time>
      </trkpt>
      <trkpt lat="49.33707" lon="1.16999">
        <ele>115.9</ele>
        <time>2011-05-01T09:18:46Z</time>
      </trkpt>
      <trkpt lat="49.33719" lon="1.17017">
        <ele>116.8</ele>
        <time>2011-05-01T09:18:52Z</time>
      </trkpt>
      <trkpt lat="49.33733" lon="1.17032">
        <ele>117.6</ele>
        <time>2011-05-01T09:18:57Z</time>
      </trkpt>
      <trkpt lat="49.33747" lon="1.17049">
        <ele>118.7</ele>
        <time>2011-05-01T09:19:03Z</time>
      </trkpt>
      <trkpt lat="49.33752" lon="1.17054">
        <ele>119</ele>
        <time>2011-05-01T09:19:05Z</time>
      </trkpt>
      <trkpt lat="49.33764" lon="1.17074">
        <ele>120</ele>
        <time>2011-05-01T09:19:11Z</time>
      </trkpt>
      <trkpt lat="49.33777" lon="1.17093">
        <ele>120.8</ele>
        <time>2011-05-01T09:19:17Z</time>
      </trkpt>
      <trkpt lat="49.33791" lon="1.1711">
        <ele>121.4</ele>
        <time>2011-05-01T09:19:23Z</time>
      </trkpt>
      <trkpt lat="49.33803" lon="1.17119">
        <ele>122</ele>
        <time>2011-05-01T09:19:27Z</time>
      </trkpt>
      <trkpt lat="49.33814" lon="1.17132">
        <ele>122.6</ele>
        <time>2011-05-01T09:19:32Z</time>
      </trkpt>
      <trkpt lat="49.33828" lon="1.17151">
        <ele>123.4</ele>
        <time>2011-05-01T09:19:38Z</time>
      </trkpt>
      <trkpt lat="49.33841" lon="1.17165">
        <ele>124.3</ele>
        <time>2011-05-01T09:19:43Z</time>
      </trkpt>
      <trkpt lat="49.33853" lon="1.17183">
        <ele>125</ele>
        <time>2011-05-01T09:19:48Z</time>
      </trkpt>
      <trkpt lat="49.33865" lon="1.17203">
        <ele>125.6</ele>
        <time>2011-05-01T09:19:54Z</time>
      </trkpt>
      <trkpt lat="49.33877" lon="1.17213">
        <ele>126.1</ele>
        <time>2011-05-01T09:19:59Z</time>
      </trkpt>
      <trkpt lat="49.33889" lon="1.17206">
        <ele>126.5</ele>
        <time>2011-05-01T09:20:04Z</time>
      </trkpt>
      <trkpt lat="49.33898" lon="1.17194">
        <ele>126.9</ele>
        <time>2011-05-01T09:20:08Z</time>
      </trkpt>
      <trkpt lat="49.3391" lon="1.17173">
        <ele>127.6</ele>
        <time>2011-05-01T09:20:14Z</time>
      </trkpt>
      <trkpt lat="49.33921" lon="1.17158">
        <ele>128</ele>
        <time>2011-05-01T09:20:19Z</time>
      </trkpt>
      <trkpt lat="49.33933" lon="1.17159">
        <ele>128.2</ele>
        <time>2011-05-01T09:20:23Z</time>
      </trkpt>
      <trkpt lat="49.33936" lon="1.17156">
        <ele>128.2</ele>
        <time>2011-05-01T09:20:24Z</time>
      </trkpt>
      <trkpt lat="49.33947" lon="1.17145">
        <ele>127.9</ele>
        <time>2011-05-01T09:20:29Z</time>
      </trkpt>
      <trkpt lat="49.33961" lon="1.17148">
        <ele>128.1</ele>
        <time>2011-05-01T09:20:34Z</time>
      </trkpt>
      <trkpt lat="49.3397" lon="1.17152">
        <ele>128.4</ele>
        <time>2011-05-01T09:20:38Z</time>
      </trkpt>
      <trkpt lat="49.33982" lon="1.17156">
        <ele>128.8</ele>
        <time>2011-05-01T09:20:43Z</time>
      </trkpt>
      <trkpt lat="49.33997" lon="1.17162">
        <ele>129.5</ele>
        <time>2011-05-01T09:20:49Z</time>
      </trkpt>
      <trkpt lat="49.34" lon="1.17165">
        <ele>129.8</ele>
        <time>2011-05-01T09:20:53Z</time>
      </trkpt>
      <trkpt lat="49.34007" lon="1.17169">
        <ele>129.7</ele>
        <time>2011-05-01T09:21:05Z</time>
      </trkpt>
      <trkpt lat="49.34016" lon="1.17174">
        <ele>129.4</ele>
        <time>2011-05-01T09:21:10Z</time>
      </trkpt>
      <trkpt lat="49.34027" lon="1.17172">
        <ele>129.1</ele>
        <time>2011-05-01T09:21:14Z</time>
      </trkpt>
      <trkpt lat="49.34029" lon="1.17173">
        <ele>129</ele>
        <time>2011-05-01T09:21:15Z</time>
      </trkpt>
      <trkpt lat="49.34057" lon="1.17164">
        <ele>127.7</ele>
        <time>2011-05-01T09:21:22Z</time>
      </trkpt>
      <trkpt lat="49.34072" lon="1.17158">
        <ele>126.9</ele>
        <time>2011-05-01T09:21:26Z</time>
      </trkpt>
      <trkpt lat="49.34089" lon="1.1716">
        <ele>126.6</ele>
        <time>2011-05-01T09:21:31Z</time>
      </trkpt>
      <trkpt lat="49.34107" lon="1.17164">
        <ele>126.6</ele>
        <time>2011-05-01T09:21:36Z</time>
      </trkpt>
      <trkpt lat="49.34127" lon="1.17169">
        <ele>126.6</ele>
        <time>2011-05-01T09:21:40Z</time>
      </trkpt>
      <trkpt lat="49.34141" lon="1.17179">
        <ele>127</ele>
        <time>2011-05-01T09:21:45Z</time>
      </trkpt>
      <trkpt lat="49.34154" lon="1.17192">
        <ele>127.6</ele>
        <time>2011-05-01T09:21:49Z</time>
      </trkpt>
      <trkpt lat="49.34167" lon="1.17207">
        <ele>128.4</ele>
        <time>2011-05-01T09:21:53Z</time>
      </trkpt>
      <trkpt lat="49.34174" lon="1.17225">
        <ele>129.6</ele>
        <time>2011-05-01T09:21:57Z</time>
      </trkpt>
      <trkpt lat="49.34181" lon="1.17251">
        <ele>131.3</ele>
        <time>2011-05-01T09:22:02Z</time>
      </trkpt>
      <trkpt lat="49.34184" lon="1.17256">
        <ele>131.5</ele>
        <time>2011-05-01T09:22:04Z</time>
      </trkpt>
      <trkpt lat="49.34204" lon="1.17249">
        <ele>131.8</ele>
        <time>2011-05-01T09:22:10Z</time>
      </trkpt>
      <trkpt lat="49.34213" lon="1.17256">
        <ele>132.2</ele>
        <time>2011-05-01T09:22:13Z</time>
      </trkpt>
      <trkpt lat="49.34227" lon="1.17266">
        <ele>132.8</ele>
        <time>2011-05-01T09:22:18Z</time>
      </trkpt>
      <trkpt lat="49.34241" lon="1.17277">
        <ele>133.4</ele>
        <time>2011-05-01T09:22:22Z</time>
      </trkpt>
      <trkpt lat="49.34252" lon="1.17294">
        <ele>134</ele>
        <time>2011-05-01T09:22:27Z</time>
      </trkpt>
      <trkpt lat="49.34259" lon="1.17305">
        <ele>134.1</ele>
        <time>2011-05-01T09:22:30Z</time>
      </trkpt>
      <trkpt lat="49.34276" lon="1.17305">
        <ele>133.8</ele>
        <time>2011-05-01T09:22:35Z</time>
      </trkpt>
      <trkpt lat="49.34284" lon="1.17303">
        <ele>133.6</ele>
        <time>2011-05-01T09:22:37Z</time>
      </trkpt>
      <trkpt lat="49.34298" lon="1.1731">
        <ele>133.4</ele>
        <time>2011-05-01T09:22:42Z</time>
      </trkpt>
      <trkpt lat="49.3431" lon="1.17308">
        <ele>133.2</ele>
        <time>2011-05-01T09:22:47Z</time>
      </trkpt>
      <trkpt lat="49.34319" lon="1.17306">
        <ele>133</ele>
        <time>2011-05-01T09:22:51Z</time>
      </trkpt>
      <trkpt lat="49.34319" lon="1.17315">
        <ele>133.1</ele>
        <time>2011-05-01T09:22:55Z</time>
      </trkpt>
      <trkpt lat="49.3432" lon="1.17331">
        <ele>133.3</ele>
        <time>2011-05-01T09:23:00Z</time>
      </trkpt>
      <trkpt lat="49.34327" lon="1.17332">
        <ele>133.1</ele>
        <time>2011-05-01T09:23:04Z</time>
      </trkpt>
      <trkpt lat="49.3433" lon="1.17332">
        <ele>133.1</ele>
        <time>2011-05-01T09:23:06Z</time>
      </trkpt>
      <trkpt lat="49.34346" lon="1.17333">
        <ele>132.7</ele>
        <time>2011-05-01T09:23:12Z</time>
      </trkpt>
      <trkpt lat="49.34361" lon="1.17329">
        <ele>132.3</ele>
        <time>2011-05-01T09:23:16Z</time>
      </trkpt>
      <trkpt lat="49.34384" lon="1.17326">
        <ele>131.7</ele>
        <time>2011-05-01T09:23:21Z</time>
      </trkpt>
      <trkpt lat="49.34399" lon="1.17323">
        <ele>131.3</ele>
        <time>2011-05-01T09:23:24Z</time>
      </trkpt>
      <trkpt lat="49.34419" lon="1.1732">
        <ele>130.8</ele>
        <time>2011-05-01T09:23:29Z</time>
      </trkpt>
      <trkpt lat="49.34433" lon="1.17318">
        <ele>130.8</ele>
        <time>2011-05-01T09:23:32Z</time>
      </trkpt>
      <trkpt lat="49.34442" lon="1.17318">
        <ele>130.8</ele>
        <time>2011-05-01T09:23:34Z</time>
      </trkpt>
      <trkpt lat="49.34485" lon="1.17309">
        <ele>130.7</ele>
        <time>2011-05-01T09:23:42Z</time>
      </trkpt>
      <trkpt lat="49.34507" lon="1.17303">
        <ele>130.3</ele>
        <time>2011-05-01T09:23:46Z</time>
      </trkpt>
      <trkpt lat="49.34546" lon="1.17294">
        <ele>128.3</ele>
        <time>2011-05-01T09:23:54Z</time>
      </trkpt>
      <trkpt lat="49.3457" lon="1.17287">
        <ele>127.1</ele>
        <time>2011-05-01T09:23:59Z</time>
      </trkpt>
      <trkpt lat="49.3458" lon="1.17281">
        <ele>126.5</ele>
        <time>2011-05-01T09:24:01Z</time>
      </trkpt>
      <trkpt lat="49.34624" lon="1.17263">
        <ele>124.7</ele>
        <time>2011-05-01T09:24:09Z</time>
      </trkpt>
      <trkpt lat="49.34643" lon="1.17255">
        <ele>123.9</ele>
        <time>2011-05-01T09:24:12Z</time>
      </trkpt>
      <trkpt lat="49.34667" lon="1.17274">
        <ele>123.3</ele>
        <time>2011-05-01T09:24:16Z</time>
      </trkpt>
      <trkpt lat="49.34671" lon="1.17283">
        <ele>123.8</ele>
        <time>2011-05-01T09:24:17Z</time>
      </trkpt>
      <trkpt lat="49.34694" lon="1.17362">
        <ele>126.5</ele>
        <time>2011-05-01T09:24:25Z</time>
      </trkpt>
      <trkpt lat="49.34698" lon="1.17371">
        <ele>126.7</ele>
        <time>2011-05-01T09:24:26Z</time>
      </trkpt>
      <trkpt lat="49.34728" lon="1.17413">
        <ele>126.9</ele>
        <time>2011-05-01T09:24:32Z</time>
      </trkpt>
      <trkpt lat="49.34762" lon="1.1745">
        <ele>127.8</ele>
        <time>2011-05-01T09:24:39Z</time>
      </trkpt>
      <trkpt lat="49.3477" lon="1.17459">
        <ele>128.2</ele>
        <time>2011-05-01T09:24:41Z</time>
      </trkpt>
      <trkpt lat="49.34774" lon="1.17477">
        <ele>128.6</ele>
        <time>2011-05-01T09:24:45Z</time>
      </trkpt>
      <trkpt lat="49.34779" lon="1.17503">
        <ele>129.1</ele>
        <time>2011-05-01T09:24:50Z</time>
      </trkpt>
      <trkpt lat="49.34793" lon="1.17537">
        <ele>130.4</ele>
        <time>2011-05-01T09:24:56Z</time>
      </trkpt>
      <trkpt lat="49.34806" lon="1.17581">
        <ele>131.6</ele>
        <time>2011-05-01T09:25:03Z</time>
      </trkpt>
      <trkpt lat="49.3481" lon="1.17597">
        <ele>132</ele>
        <time>2011-05-01T09:25:06Z</time>
      </trkpt>
      <trkpt lat="49.34802" lon="1.17605">
        <ele>132.1</ele>
        <time>2011-05-01T09:25:10Z</time>
      </trkpt>
      <trkpt lat="49.3478" lon="1.17613">
        <ele>132.2</ele>
        <time>2011-05-01T09:25:15Z</time>
      </trkpt>
      <trkpt lat="49.34777" lon="1.17615">
        <ele>132.2</ele>
        <time>2011-05-01T09:25:16Z</time>
      </trkpt>
      <trkpt lat="49.34776" lon="1.17637">
        <ele>132.8</ele>
        <time>2011-05-01T09:25:21Z</time>
      </trkpt>
      <trkpt lat="49.34777" lon="1.17642">
        <ele>133</ele>
        <time>2011-05-01T09:25:22Z</time>
      </trkpt>
      <trkpt lat="49.34793" lon="1.17693">
        <ele>134.4</ele>
        <time>2011-05-01T09:25:30Z</time>
      </trkpt>
      <trkpt lat="49.34807" lon="1.17746">
        <ele>136.5</ele>
        <time>2011-05-01T09:25:38Z</time>
      </trkpt>
      <trkpt lat="49.34814" lon="1.17789">
        <ele>137.8</ele>
        <time>2011-05-01T09:25:45Z</time>
      </trkpt>
      <trkpt lat="49.34809" lon="1.17805">
        <ele>138.2</ele>
        <time>2011-05-01T09:25:49Z</time>
      </trkpt>
      <trkpt lat="49.34804" lon="1.17809">
        <ele>138.3</ele>
        <time>2011-05-01T09:25:51Z</time>
      </trkpt>
      <trkpt lat="49.34785" lon="1.17814">
        <ele>138.4</ele>
        <time>2011-05-01T09:25:57Z</time>
      </trkpt>
      <trkpt lat="49.34749" lon="1.17824">
        <ele>138.6</ele>
        <time>2011-05-01T09:26:07Z</time>
      </trkpt>
      <trkpt lat="49.34718" lon="1.17831">
        <ele>137.4</ele>
        <time>2011-05-01T09:26:15Z</time>
      </trkpt>
      <trkpt lat="49.34689" lon="1.17837">
        <ele>136.2</ele>
        <time>2011-05-01T09:26:22Z</time>
      </trkpt>
      <trkpt lat="49.34659" lon="1.17844">
        <ele>135.2</ele>
        <time>2011-05-01T09:26:29Z</time>
      </trkpt>
      <trkpt lat="49.34618" lon="1.17852">
        <ele>135.3</ele>
        <time>2011-05-01T09:26:38Z</time>
      </trkpt>
      <trkpt lat="49.34575" lon="1.17856">
        <ele>135.4</ele>
        <time>2011-05-01T09:26:47Z</time>
      </trkpt>
      <trkpt lat="49.34532" lon="1.17858">
        <ele>135.9</ele>
        <time>2011-05-01T09:26:56Z</time>
      </trkpt>
      <trkpt lat="49.34487" lon="1.1786">
        <ele>136.4</ele>
        <time>2011-05-01T09:27:05Z</time>
      </trkpt>
      <trkpt lat="49.34437" lon="1.17861">
        <ele>136.8</ele>
        <time>2011-05-01T09:27:14Z</time>
      </trkpt>
      <trkpt lat="49.34388" lon="1.17861">
        <ele>136.4</ele>
        <time>2011-05-01T09:27:22Z</time>
      </trkpt>
      <trkpt lat="49.34325" lon="1.17859">
        <ele>135.2</ele>
        <time>2011-05-01T09:27:32Z</time>
      </trkpt>
      <trkpt lat="49.34266" lon="1.17857">
        <ele>134.5</ele>
        <time>2011-05-01T09:27:41Z</time>
      </trkpt>
      <trkpt lat="49.3421" lon="1.17862">
        <ele>134.2</ele>
        <time>2011-05-01T09:27:49Z</time>
      </trkpt>
      <trkpt lat="49.34156" lon="1.17869">
        <ele>133.8</ele>
        <time>2011-05-01T09:27:57Z</time>
      </trkpt>
      <trkpt lat="49.34087" lon="1.17881">
        <ele>132.6</ele>
        <time>2011-05-01T09:28:07Z</time>
      </trkpt>
      <trkpt lat="49.34027" lon="1.17904">
        <ele>131.6</ele>
        <time>2011-05-01T09:28:16Z</time>
      </trkpt>
      <trkpt lat="49.33964" lon="1.17932">
        <ele>131.1</ele>
        <time>2011-05-01T09:28:26Z</time>
      </trkpt>
      <trkpt lat="49.33887" lon="1.17965">
        <ele>130.6</ele>
        <time>2011-05-01T09:28:38Z</time>
      </trkpt>
      <trkpt lat="49.33828" lon="1.1799">
        <ele>129.9</ele>
        <time>2011-05-01T09:28:47Z</time>
      </trkpt>
      <trkpt lat="49.33753" lon="1.18022">
        <ele>129</ele>
        <time>2011-05-01T09:28:58Z</time>
      </trkpt>
      <trkpt lat="49.33675" lon="1.18054">
        <ele>127.8</ele>
        <time>2011-05-01T09:29:10Z</time>
      </trkpt>
      <trkpt lat="49.33645" lon="1.18067">
        <ele>127.3</ele>
        <time>2011-05-01T09:29:16Z</time>
      </trkpt>
      <trkpt lat="49.3363" lon="1.18063">
        <ele>127</ele>
        <time>2011-05-01T09:29:21Z</time>
      </trkpt>
      <trkpt lat="49.336" lon="1.1804">
        <ele>126.3</ele>
        <time>2011-05-01T09:29:29Z</time>
      </trkpt>
      <trkpt lat="49.33569" lon="1.18016">
        <ele>125.7</ele>
        <time>2011-05-01T09:29:36Z</time>
      </trkpt>
      <trkpt lat="49.3356" lon="1.18009">
        <ele>125.5</ele>
        <time>2011-05-01T09:29:38Z</time>
      </trkpt>
      <trkpt lat="49.3352" lon="1.17977">
        <ele>124.4</ele>
        <time>2011-05-01T09:29:46Z</time>
      </trkpt>
      <trkpt lat="49.33477" lon="1.17938">
        <ele>124.3</ele>
        <time>2011-05-01T09:29:54Z</time>
      </trkpt>
      <trkpt lat="49.33413" lon="1.17867">
        <ele>123.8</ele>
        <time>2011-05-01T09:30:05Z</time>
      </trkpt>
      <trkpt lat="49.33359" lon="1.17806">
        <ele>122.3</ele>
        <time>2011-05-01T09:30:14Z</time>
      </trkpt>
      <trkpt lat="49.33334" lon="1.17781">
        <ele>122</ele>
        <time>2011-05-01T09:30:18Z</time>
      </trkpt>
      <trkpt lat="49.33315" lon="1.1777">
        <ele>121.9</ele>
        <time>2011-05-01T09:30:21Z</time>
      </trkpt>
      <trkpt lat="49.33292" lon="1.17778">
        <ele>121.8</ele>
        <time>2011-05-01T09:30:25Z</time>
      </trkpt>
      <trkpt lat="49.33286" lon="1.17795">
        <ele>121.7</ele>
        <time>2011-05-01T09:30:27Z</time>
      </trkpt>
      <trkpt lat="49.33258" lon="1.17888">
        <ele>121.8</ele>
        <time>2011-05-01T09:30:37Z</time>
      </trkpt>
      <trkpt lat="49.33237" lon="1.1796">
        <ele>122.3</ele>
        <time>2011-05-01T09:30:45Z</time>
      </trkpt>
      <trkpt lat="49.33217" lon="1.1803">
        <ele>122</ele>
        <time>2011-05-01T09:30:53Z</time>
      </trkpt>
      <trkpt lat="49.33199" lon="1.18091">
        <ele>121.3</ele>
        <time>2011-05-01T09:31:00Z</time>
      </trkpt>
      <trkpt lat="49.33179" lon="1.18158">
        <ele>120.4</ele>
        <time>2011-05-01T09:31:08Z</time>
      </trkpt>
      <trkpt lat="49.33161" lon="1.18219">
        <ele>118.9</ele>
        <time>2011-05-01T09:31:15Z</time>
      </trkpt>
      <trkpt lat="49.33144" lon="1.18284">
        <ele>117.9</ele>
        <time>2011-05-01T09:31:22Z</time>
      </trkpt>
      <trkpt lat="49.33125" lon="1.18347">
        <ele>116.7</ele>
        <time>2011-05-01T09:31:29Z</time>
      </trkpt>
      <trkpt lat="49.33096" lon="1.18446">
        <ele>113.6</ele>
        <time>2011-05-01T09:31:39Z</time>
      </trkpt>
      <trkpt lat="49.33068" lon="1.18539">
        <ele>110.8</ele>
        <time>2011-05-01T09:31:48Z</time>
      </trkpt>
      <trkpt lat="49.33045" lon="1.18617">
        <ele>109.5</ele>
        <time>2011-05-01T09:31:55Z</time>
      </trkpt>
      <trkpt lat="49.33025" lon="1.18677">
        <ele>109.7</ele>
        <time>2011-05-01T09:32:00Z</time>
      </trkpt>
      <trkpt lat="49.33007" lon="1.18737">
        <ele>109.3</ele>
        <time>2011-05-01T09:32:05Z</time>
      </trkpt>
      <trkpt lat="49.32988" lon="1.188">
        <ele>107.6</ele>
        <time>2011-05-01T09:32:10Z</time>
      </trkpt>
      <trkpt lat="49.32964" lon="1.18883">
        <ele>102.4</ele>
        <time>2011-05-01T09:32:16Z</time>
      </trkpt>
      <trkpt lat="49.32938" lon="1.18973">
        <ele>95.4</ele>
        <time>2011-05-01T09:32:22Z</time>
      </trkpt>
      <trkpt lat="49.32904" lon="1.19087">
        <ele>90.2</ele>
        <time>2011-05-01T09:32:29Z</time>
      </trkpt>
      <trkpt lat="49.32864" lon="1.19225">
        <ele>80.6</ele>
        <time>2011-05-01T09:32:37Z</time>
      </trkpt>
      <trkpt lat="49.32835" lon="1.19324">
        <ele>75.3</ele>
        <time>2011-05-01T09:32:43Z</time>
      </trkpt>
      <trkpt lat="49.32824" lon="1.19355">
        <ele>73.4</ele>
        <time>2011-05-01T09:32:46Z</time>
      </trkpt>
      <trkpt lat="49.32824" lon="1.19387">
        <ele>72.1</ele>
        <time>2011-05-01T09:32:51Z</time>
      </trkpt>
      <trkpt lat="49.32845" lon="1.19452">
        <ele>71.6</ele>
        <time>2011-05-01T09:33:00Z</time>
      </trkpt>
      <trkpt lat="49.32861" lon="1.19502">
        <ele>70.6</ele>
        <time>2011-05-01T09:33:07Z</time>
      </trkpt>
      <trkpt lat="49.32867" lon="1.19522">
        <ele>70.4</ele>
        <time>2011-05-01T09:33:10Z</time>
      </trkpt>
      <trkpt lat="49.32867" lon="1.1955">
        <ele>69.9</ele>
        <time>2011-05-01T09:33:15Z</time>
      </trkpt>
      <trkpt lat="49.32859" lon="1.19561">
        <ele>69.4</ele>
        <time>2011-05-01T09:33:18Z</time>
      </trkpt>
      <trkpt lat="49.32853" lon="1.19567">
        <ele>69.1</ele>
        <time>2011-05-01T09:33:24Z</time>
      </trkpt>
      <trkpt lat="49.32838" lon="1.1958">
        <ele>68.2</ele>
        <time>2011-05-01T09:33:28Z</time>
      </trkpt>
      <trkpt lat="49.32805" lon="1.19606">
        <ele>66.2</ele>
        <time>2011-05-01T09:33:34Z</time>
      </trkpt>
      <trkpt lat="49.32755" lon="1.19646">
        <ele>63.4</ele>
        <time>2011-05-01T09:33:42Z</time>
      </trkpt>
      <trkpt lat="49.32718" lon="1.19677">
        <ele>60.8</ele>
        <time>2011-05-01T09:33:47Z</time>
      </trkpt>
      <trkpt lat="49.32661" lon="1.19728">
        <ele>55.9</ele>
        <time>2011-05-01T09:33:54Z</time>
      </trkpt>
      <trkpt lat="49.3263" lon="1.19753">
        <ele>52</ele>
        <time>2011-05-01T09:33:59Z</time>
      </trkpt>
      <trkpt lat="49.3262" lon="1.19777">
        <ele>50.6</ele>
        <time>2011-05-01T09:34:03Z</time>
      </trkpt>
      <trkpt lat="49.32621" lon="1.19784">
        <ele>50.5</ele>
        <time>2011-05-01T09:34:04Z</time>
      </trkpt>
      <trkpt lat="49.3263" lon="1.19853">
        <ele>49.9</ele>
        <time>2011-05-01T09:34:12Z</time>
      </trkpt>
      <trkpt lat="49.32633" lon="1.1992">
        <ele>48.5</ele>
        <time>2011-05-01T09:34:19Z</time>
      </trkpt>
      <trkpt lat="49.32632" lon="1.1999">
        <ele>47</ele>
        <time>2011-05-01T09:34:26Z</time>
      </trkpt>
      <trkpt lat="49.32628" lon="1.20061">
        <ele>44.7</ele>
        <time>2011-05-01T09:34:33Z</time>
      </trkpt>
      <trkpt lat="49.32634" lon="1.20092">
        <ele>43.8</ele>
        <time>2011-05-01T09:34:37Z</time>
      </trkpt>
      <trkpt lat="49.32631" lon="1.201">
        <ele>43.6</ele>
        <time>2011-05-01T09:34:40Z</time>
      </trkpt>
      <trkpt lat="49.32628" lon="1.20098">
        <ele>43.7</ele>
        <time>2011-05-01T09:34:44Z</time>
      </trkpt>
      <trkpt lat="49.32623" lon="1.20093">
        <ele>43.8</ele>
        <time>2011-05-01T09:34:50Z</time>
      </trkpt>
      <trkpt lat="49.32604" lon="1.20081">
        <ele>44.1</ele>
        <time>2011-05-01T09:34:55Z</time>
      </trkpt>
      <trkpt lat="49.32575" lon="1.20062">
        <ele>43.5</ele>
        <time>2011-05-01T09:35:00Z</time>
      </trkpt>
      <trkpt lat="49.32538" lon="1.20044">
        <ele>40.2</ele>
        <time>2011-05-01T09:35:05Z</time>
      </trkpt>
      <trkpt lat="49.32489" lon="1.20026">
        <ele>35.6</ele>
        <time>2011-05-01T09:35:11Z</time>
      </trkpt>
      <trkpt lat="49.3244" lon="1.19997">
        <ele>32.4</ele>
        <time>2011-05-01T09:35:17Z</time>
      </trkpt>
      <trkpt lat="49.324" lon="1.1998">
        <ele>29.8</ele>
        <time>2011-05-01T09:35:22Z</time>
      </trkpt>
      <trkpt lat="49.32382" lon="1.19976">
        <ele>28.6</ele>
        <time>2011-05-01T09:35:25Z</time>
      </trkpt>
      <trkpt lat="49.32375" lon="1.19973">
        <ele>28.1</ele>
        <time>2011-05-01T09:35:30Z</time>
      </trkpt>
      <trkpt lat="49.32376" lon="1.19974">
        <ele>28.2</ele>
        <time>2011-05-01T09:35:51Z</time>
      </trkpt>
      <trkpt lat="49.32365" lon="1.1997">
        <ele>27.5</ele>
        <time>2011-05-01T09:35:56Z</time>
      </trkpt>
      <trkpt lat="49.32353" lon="1.19976">
        <ele>26.9</ele>
        <time>2011-05-01T09:36:00Z</time>
      </trkpt>
      <trkpt lat="49.32315" lon="1.19976">
        <ele>25.1</ele>
        <time>2011-05-01T09:36:07Z</time>
      </trkpt>
      <trkpt lat="49.32263" lon="1.19979">
        <ele>23.2</ele>
        <time>2011-05-01T09:36:15Z</time>
      </trkpt>
      <trkpt lat="49.32199" lon="1.19987">
        <ele>21.6</ele>
        <time>2011-05-01T09:36:24Z</time>
      </trkpt>
      <trkpt lat="49.32126" lon="1.19999">
        <ele>19</ele>
        <time>2011-05-01T09:36:34Z</time>
      </trkpt>
      <trkpt lat="49.32064" lon="1.20017">
        <ele>16.4</ele>
        <time>2011-05-01T09:36:43Z</time>
      </trkpt>
      <trkpt lat="49.32044" lon="1.20021">
        <ele>15.7</ele>
        <time>2011-05-01T09:36:46Z</time>
      </trkpt>
      <trkpt lat="49.32003" lon="1.20019">
        <ele>14.3</ele>
        <time>2011-05-01T09:36:52Z</time>
      </trkpt>
      <trkpt lat="49.31961" lon="1.20015">
        <ele>13.6</ele>
        <time>2011-05-01T09:36:58Z</time>
      </trkpt>
      <trkpt lat="49.31913" lon="1.20013">
        <ele>13</ele>
        <time>2011-05-01T09:37:05Z</time>
      </trkpt>
      <trkpt lat="49.31874" lon="1.20016">
        <ele>12.7</ele>
        <time>2011-05-01T09:37:11Z</time>
      </trkpt>
      <trkpt lat="49.31822" lon="1.20018">
        <ele>12.1</ele>
        <time>2011-05-01T09:37:19Z</time>
      </trkpt>
      <trkpt lat="49.31791" lon="1.2002">
        <ele>11.4</ele>
        <time>2011-05-01T09:37:24Z</time>
      </trkpt>
      <trkpt lat="49.31756" lon="1.20018">
        <ele>10.8</ele>
        <time>2011-05-01T09:37:30Z</time>
      </trkpt>
      <trkpt lat="49.31732" lon="1.20022">
        <ele>10.9</ele>
        <time>2011-05-01T09:37:35Z</time>
      </trkpt>
      <trkpt lat="49.31727" lon="1.20023">
        <ele>10.9</ele>
        <time>2011-05-01T09:37:36Z</time>
      </trkpt>
      <trkpt lat="49.3172" lon="1.20023">
        <ele>11</ele>
        <time>2011-05-01T09:37:38Z</time>
      </trkpt>
      <trkpt lat="49.31714" lon="1.20024">
        <ele>11.1</ele>
        <time>2011-05-01T09:37:40Z</time>
      </trkpt>
      <trkpt lat="49.31691" lon="1.20025">
        <ele>11.6</ele>
        <time>2011-05-01T09:37:46Z</time>
      </trkpt>
      <trkpt lat="49.31668" lon="1.20035">
        <ele>11.7</ele>
        <time>2011-05-01T09:37:52Z</time>
      </trkpt>
      <trkpt lat="49.3165" lon="1.20049">
        <ele>11.6</ele>
        <time>2011-05-01T09:37:58Z</time>
      </trkpt>
      <trkpt lat="49.31647" lon="1.20051">
        <ele>11.6</ele>
        <time>2011-05-01T09:38:02Z</time>
      </trkpt>
      <trkpt lat="49.31646" lon="1.20052">
        <ele>11.6</ele>
        <time>2011-05-01T09:38:08Z</time>
      </trkpt>
      <trkpt lat="49.3165" lon="1.20052">
        <ele>11.5</ele>
        <time>2011-05-01T09:38:18Z</time>
      </trkpt>
      <trkpt lat="49.3165" lon="1.20051">
        <ele>11.5</ele>
        <time>2011-05-01T09:38:24Z</time>
      </trkpt>
      <trkpt lat="49.3165" lon="1.20051">
        <ele>11.5</ele>
        <time>2011-05-01T09:38:34Z</time>
      </trkpt>
      <trkpt lat="49.31654" lon="1.20051">
        <ele>11.5</ele>
        <time>2011-05-01T09:38:49Z</time>
      </trkpt>
      <trkpt lat="49.31654" lon="1.20051">
        <ele>11.5</ele>
        <time>2011-05-01T09:38:57Z</time>
      </trkpt>
      <trkpt lat="49.31654" lon="1.20051">
        <ele>11.4</ele>
        <time>2011-05-01T09:39:07Z</time>
      </trkpt>
      <trkpt lat="49.31654" lon="1.2005">
        <ele>11.5</ele>
        <time>2011-05-01T09:39:17Z</time>
      </trkpt>
      <trkpt lat="49.31653" lon="1.20049">
        <ele>11.5</ele>
        <time>2011-05-01T09:39:30Z</time>
      </trkpt>
      <trkpt lat="49.31651" lon="1.20048">
        <ele>11.6</ele>
        <time>2011-05-01T09:39:45Z</time>
      </trkpt>
      <trkpt lat="49.31651" lon="1.20048">
        <ele>11.6</ele>
        <time>2011-05-01T09:39:51Z</time>
      </trkpt>
      <trkpt lat="49.31649" lon="1.2005">
        <ele>11.6</ele>
        <time>2011-05-01T09:39:56Z</time>
      </trkpt>
      <trkpt lat="49.31648" lon="1.2005">
        <ele>11.6</ele>
        <time>2011-05-01T09:40:04Z</time>
      </trkpt>
      <trkpt lat="49.31649" lon="1.20049">
        <ele>11.6</ele>
        <time>2011-05-01T09:40:11Z</time>
      </trkpt>
      <trkpt lat="49.31648" lon="1.20049">
        <ele>11.6</ele>
        <time>2011-05-01T09:40:15Z</time>
      </trkpt>
      <trkpt lat="49.31649" lon="1.2005">
        <ele>11.6</ele>
        <time>2011-05-01T09:40:29Z</time>
      </trkpt>
      <trkpt lat="49.3165" lon="1.2005">
        <ele>11.6</ele>
        <time>2011-05-01T09:40:40Z</time>
      </trkpt>
      <trkpt lat="49.3165" lon="1.2005">
        <ele>11.6</ele>
        <time>2011-05-01T09:40:54Z</time>
      </trkpt>
      <trkpt lat="49.3165" lon="1.2005">
        <ele>11.6</ele>
        <time>2011-05-01T09:41:00Z</time>
      </trkpt>
      <trkpt lat="49.3165" lon="1.20051">
        <ele>11.6</ele>
        <time>2011-05-01T09:41:13Z</time>
      </trkpt>
      <trkpt lat="49.31649" lon="1.20051">
        <ele>11.6</ele>
        <time>2011-05-01T09:41:26Z</time>
      </trkpt>
      <trkpt lat="49.31651" lon="1.20051">
        <ele>11.5</ele>
        <time>2011-05-01T09:41:32Z</time>
      </trkpt>
      <trkpt lat="49.31652" lon="1.20051">
        <ele>11.5</ele>
        <time>2011-05-01T09:41:44Z</time>
      </trkpt>
      <trkpt lat="49.31651" lon="1.20053">
        <ele>11.5</ele>
        <time>2011-05-01T09:41:53Z</time>
      </trkpt>
      <trkpt lat="49.31651" lon="1.20053">
        <ele>11.5</ele>
        <time>2011-05-01T09:42:09Z</time>
      </trkpt>
      <trkpt lat="49.31653" lon="1.20052">
        <ele>11.4</ele>
        <time>2011-05-01T09:42:20Z</time>
      </trkpt>
      <trkpt lat="49.31654" lon="1.20052">
        <ele>11.4</ele>
        <time>2011-05-01T09:42:31Z</time>
      </trkpt>
      <trkpt lat="49.31655" lon="1.20051">
        <ele>11.4</ele>
        <time>2011-05-01T09:42:46Z</time>
      </trkpt>
      <trkpt lat="49.31655" lon="1.2005">
        <ele>11.5</ele>
        <time>2011-05-01T09:43:00Z</time>
      </trkpt>
      <trkpt lat="49.31652" lon="1.20052">
        <ele>11.5</ele>
        <time>2011-05-01T09:43:06Z</time>
      </trkpt>
      <trkpt lat="49.31651" lon="1.20053">
        <ele>11.5</ele>
        <time>2011-05-01T09:43:17Z</time>
      </trkpt>
      <trkpt lat="49.31651" lon="1.2005">
        <ele>11.6</ele>
        <time>2011-05-01T09:43:34Z</time>
      </trkpt>
      <trkpt lat="49.31651" lon="1.20048">
        <ele>11.6</ele>
        <time>2011-05-01T09:43:52Z</time>
      </trkpt>
      <trkpt lat="49.31649" lon="1.20049">
        <ele>11.6</ele>
        <time>2011-05-01T09:44:04Z</time>
      </trkpt>
      <trkpt lat="49.31648" lon="1.2005">
        <ele>11.6</ele>
        <time>2011-05-01T09:44:10Z</time>
      </trkpt>
      <trkpt lat="49.31648" lon="1.20049">
        <ele>11.6</ele>
        <time>2011-05-01T09:44:17Z</time>
      </trkpt>
      <trkpt lat="49.31649" lon="1.2005">
        <ele>11.6</ele>
        <time>2011-05-01T09:44:21Z</time>
      </trkpt>
      <trkpt lat="49.31649" lon="1.2005">
        <ele>11.6</ele>
        <time>2011-05-01T09:44:29Z</time>
      </trkpt>
      <trkpt lat="49.31649" lon="1.2005">
        <ele>11.6</ele>
        <time>2011-05-01T09:44:39Z</time>
      </trkpt>
      <trkpt lat="49.31649" lon="1.2005">
        <ele>11.6</ele>
        <time>2011-05-01T09:44:49Z</time>
      </trkpt>
      <trkpt lat="49.31649" lon="1.2005">
        <ele>11.6</ele>
        <time>2011-05-01T09:45:01Z</time>
      </trkpt>
      <trkpt lat="49.31649" lon="1.2005">
        <ele>11.6</ele>
        <time>2011-05-01T09:45:17Z</time>
      </trkpt>
      <trkpt lat="49.31647" lon="1.20051">
        <ele>11.6</ele>
        <time>2011-05-01T09:45:22Z</time>
      </trkpt>
      <trkpt lat="49.31638" lon="1.20054">
        <ele>11.7</ele>
        <time>2011-05-01T09:45:27Z</time>
      </trkpt>
      <trkpt lat="49.31622" lon="1.20067">
        <ele>11.9</ele>
        <time>2011-05-01T09:45:32Z</time>
      </trkpt>
      <trkpt lat="49.31597" lon="1.20082">
        <ele>12.5</ele>
        <time>2011-05-01T09:45:37Z</time>
      </trkpt>
      <trkpt lat="49.3156" lon="1.20094">
        <ele>12.3</ele>
        <time>2011-05-01T09:45:43Z</time>
      </trkpt>
      <trkpt lat="49.31507" lon="1.20104">
        <ele>11.4</ele>
        <time>2011-05-01T09:45:51Z</time>
      </trkpt>
      <trkpt lat="49.31446" lon="1.20116">
        <ele>12.4</ele>
        <time>2011-05-01T09:46:00Z</time>
      </trkpt>
      <trkpt lat="49.31397" lon="1.20127">
        <ele>12.8</ele>
        <time>2011-05-01T09:46:08Z</time>
      </trkpt>
      <trkpt lat="49.31391" lon="1.20127">
        <ele>12.7</ele>
        <time>2011-05-01T09:46:09Z</time>
      </trkpt>
      <trkpt lat="49.31343" lon="1.20131">
        <ele>12.1</ele>
        <time>2011-05-01T09:46:17Z</time>
      </trkpt>
      <trkpt lat="49.31295" lon="1.20127">
        <ele>12.2</ele>
        <time>2011-05-01T09:46:25Z</time>
      </trkpt>
      <trkpt lat="49.31268" lon="1.2012">
        <ele>12.3</ele>
        <time>2011-05-01T09:46:30Z</time>
      </trkpt>
      <trkpt lat="49.31259" lon="1.20118">
        <ele>12.4</ele>
        <time>2011-05-01T09:46:32Z</time>
      </trkpt>
      <trkpt lat="49.31221" lon="1.20107">
        <ele>12.3</ele>
        <time>2011-05-01T09:46:39Z</time>
      </trkpt>
      <trkpt lat="49.31174" lon="1.20095">
        <ele>12.1</ele>
        <time>2011-05-01T09:46:47Z</time>
      </trkpt>
      <trkpt lat="49.31129" lon="1.20083">
        <ele>12.5</ele>
        <time>2011-05-01T09:46:54Z</time>
      </trkpt>
      <trkpt lat="49.3109" lon="1.20074">
        <ele>12.9</ele>
        <time>2011-05-01T09:47:00Z</time>
      </trkpt>
      <trkpt lat="49.31075" lon="1.20054">
        <ele>12.9</ele>
        <time>2011-05-01T09:47:04Z</time>
      </trkpt>
      <trkpt lat="49.31073" lon="1.20034">
        <ele>12.9</ele>
        <time>2011-05-01T09:47:07Z</time>
      </trkpt>
      <trkpt lat="49.31065" lon="1.20027">
        <ele>12.9</ele>
        <time>2011-05-01T09:47:09Z</time>
      </trkpt>
      <trkpt lat="49.31033" lon="1.20009">
        <ele>12.9</ele>
        <time>2011-05-01T09:47:15Z</time>
      </trkpt>
      <trkpt lat="49.3103" lon="1.20007">
        <ele>12.9</ele>
        <time>2011-05-01T09:47:16Z</time>
      </trkpt>
      <trkpt lat="49.3102" lon="1.20006">
        <ele>12.9</ele>
        <time>2011-05-01T09:47:21Z</time>
      </trkpt>
      <trkpt lat="49.31013" lon="1.19998">
        <ele>13</ele>
        <time>2011-05-01T09:47:25Z</time>
      </trkpt>
      <trkpt lat="49.31006" lon="1.19996">
        <ele>12.9</ele>
        <time>2011-05-01T09:47:27Z</time>
      </trkpt>
      <trkpt lat="49.30991" lon="1.19982">
        <ele>12.4</ele>
        <time>2011-05-01T09:47:32Z</time>
      </trkpt>
      <trkpt lat="49.30986" lon="1.19979">
        <ele>12.2</ele>
        <time>2011-05-01T09:47:37Z</time>
      </trkpt>
      <trkpt lat="49.30987" lon="1.19981">
        <ele>12.3</ele>
        <time>2011-05-01T09:47:39Z</time>
      </trkpt>
      <trkpt lat="49.30989" lon="1.20004">
        <ele>12.5</ele>
        <time>2011-05-01T09:47:44Z</time>
      </trkpt>
      <trkpt lat="49.30992" lon="1.20041">
        <ele>11.8</ele>
        <time>2011-05-01T09:47:49Z</time>
      </trkpt>
      <trkpt lat="49.30997" lon="1.20101">
        <ele>10.9</ele>
        <time>2011-05-01T09:47:56Z</time>
      </trkpt>
      <trkpt lat="49.31008" lon="1.20166">
        <ele>11.3</ele>
        <time>2011-05-01T09:48:03Z</time>
      </trkpt>
      <trkpt lat="49.31021" lon="1.20238">
        <ele>11.6</ele>
        <time>2011-05-01T09:48:11Z</time>
      </trkpt>
      <trkpt lat="49.3103" lon="1.20294">
        <ele>11</ele>
        <time>2011-05-01T09:48:17Z</time>
      </trkpt>
      <trkpt lat="49.3104" lon="1.20361">
        <ele>10.3</ele>
        <time>2011-05-01T09:48:25Z</time>
      </trkpt>
      <trkpt lat="49.31048" lon="1.20388">
        <ele>10.3</ele>
        <time>2011-05-01T09:48:30Z</time>
      </trkpt>
      <trkpt lat="49.31051" lon="1.20399">
        <ele>10.3</ele>
        <time>2011-05-01T09:48:32Z</time>
      </trkpt>
      <trkpt lat="49.31054" lon="1.20411">
        <ele>10.3</ele>
        <time>2011-05-01T09:48:34Z</time>
      </trkpt>
      <trkpt lat="49.31069" lon="1.20437">
        <ele>10.6</ele>
        <time>2011-05-01T09:48:40Z</time>
      </trkpt>
      <trkpt lat="49.31072" lon="1.20458">
        <ele>10.7</ele>
        <time>2011-05-01T09:48:43Z</time>
      </trkpt>
      <trkpt lat="49.31074" lon="1.20486">
        <ele>10.7</ele>
        <time>2011-05-01T09:48:47Z</time>
      </trkpt>
      <trkpt lat="49.31077" lon="1.20534">
        <ele>10.4</ele>
        <time>2011-05-01T09:48:54Z</time>
      </trkpt>
      <trkpt lat="49.31083" lon="1.20591">
        <ele>10</ele>
        <time>2011-05-01T09:49:01Z</time>
      </trkpt>
      <trkpt lat="49.31085" lon="1.20609">
        <ele>10</ele>
        <time>2011-05-01T09:49:03Z</time>
      </trkpt>
      <trkpt lat="49.3109" lon="1.20672">
        <ele>10.1</ele>
        <time>2011-05-01T09:49:10Z</time>
      </trkpt>
      <trkpt lat="49.31091" lon="1.2068">
        <ele>10.3</ele>
        <time>2011-05-01T09:49:11Z</time>
      </trkpt>
      <trkpt lat="49.31092" lon="1.20718">
        <ele>11.2</ele>
        <time>2011-05-01T09:49:16Z</time>
      </trkpt>
      <trkpt lat="49.31093" lon="1.20746">
        <ele>11.9</ele>
        <time>2011-05-01T09:49:21Z</time>
      </trkpt>
      <trkpt lat="49.31094" lon="1.2075">
        <ele>12</ele>
        <time>2011-05-01T09:49:22Z</time>
      </trkpt>
      <trkpt lat="49.31103" lon="1.20806">
        <ele>11.7</ele>
        <time>2011-05-01T09:49:30Z</time>
      </trkpt>
      <trkpt lat="49.31112" lon="1.2085">
        <ele>11.5</ele>
        <time>2011-05-01T09:49:36Z</time>
      </trkpt>
      <trkpt lat="49.31117" lon="1.20872">
        <ele>11.3</ele>
        <time>2011-05-01T09:49:39Z</time>
      </trkpt>
      <trkpt lat="49.31126" lon="1.20917">
        <ele>11</ele>
        <time>2011-05-01T09:49:46Z</time>
      </trkpt>
      <trkpt lat="49.31128" lon="1.20942">
        <ele>11.2</ele>
        <time>2011-05-01T09:49:50Z</time>
      </trkpt>
      <trkpt lat="49.31134" lon="1.20993">
        <ele>11.8</ele>
        <time>2011-05-01T09:49:57Z</time>
      </trkpt>
      <trkpt lat="49.31138" lon="1.21008">
        <ele>11.9</ele>
        <time>2011-05-01T09:49:59Z</time>
      </trkpt>
      <trkpt lat="49.31148" lon="1.21034">
        <ele>11.9</ele>
        <time>2011-05-01T09:50:03Z</time>
      </trkpt>
      <trkpt lat="49.31152" lon="1.21059">
        <ele>11.8</ele>
        <time>2011-05-01T09:50:07Z</time>
      </trkpt>
      <trkpt lat="49.31151" lon="1.21072">
        <ele>11.6</ele>
        <time>2011-05-01T09:50:09Z</time>
      </trkpt>
      <trkpt lat="49.3115" lon="1.21099">
        <ele>11.4</ele>
        <time>2011-05-01T09:50:14Z</time>
      </trkpt>
      <trkpt lat="49.3115" lon="1.2113">
        <ele>11.3</ele>
        <time>2011-05-01T09:50:18Z</time>
      </trkpt>
      <trkpt lat="49.3115" lon="1.2115">
        <ele>11.2</ele>
        <time>2011-05-01T09:50:20Z</time>
      </trkpt>
      <trkpt lat="49.3114" lon="1.2118">
        <ele>10.6</ele>
        <time>2011-05-01T09:50:24Z</time>
      </trkpt>
      <trkpt lat="49.31135" lon="1.21185">
        <ele>10.4</ele>
        <time>2011-05-01T09:50:25Z</time>
      </trkpt>
      <trkpt lat="49.31125" lon="1.21199">
        <ele>10</ele>
        <time>2011-05-01T09:50:29Z</time>
      </trkpt>
      <trkpt lat="49.31123" lon="1.21205">
        <ele>9.9</ele>
        <time>2011-05-01T09:50:31Z</time>
      </trkpt>
      <trkpt lat="49.31124" lon="1.21223">
        <ele>10</ele>
        <time>2011-05-01T09:50:36Z</time>
      </trkpt>
      <trkpt lat="49.31122" lon="1.21241">
        <ele>9.9</ele>
        <time>2011-05-01T09:50:40Z</time>
      </trkpt>
      <trkpt lat="49.31124" lon="1.21264">
        <ele>10.3</ele>
        <time>2011-05-01T09:50:45Z</time>
      </trkpt>
      <trkpt lat="49.31123" lon="1.21286">
        <ele>10.8</ele>
        <time>2011-05-01T09:50:49Z</time>
      </trkpt>
      <trkpt lat="49.31119" lon="1.21312">
        <ele>11.3</ele>
        <time>2011-05-01T09:50:53Z</time>
      </trkpt>
      <trkpt lat="49.31119" lon="1.21325">
        <ele>11.7</ele>
        <time>2011-05-01T09:50:55Z</time>
      </trkpt>
      <trkpt lat="49.31121" lon="1.21349">
        <ele>11.7</ele>
        <time>2011-05-01T09:50:59Z</time>
      </trkpt>
      <trkpt lat="49.31125" lon="1.21385">
        <ele>11.4</ele>
        <time>2011-05-01T09:51:06Z</time>
      </trkpt>
      <trkpt lat="49.31128" lon="1.21405">
        <ele>11.3</ele>
        <time>2011-05-01T09:51:10Z</time>
      </trkpt>
      <trkpt lat="49.31139" lon="1.21408">
        <ele>11.7</ele>
        <time>2011-05-01T09:51:16Z</time>
      </trkpt>
      <trkpt lat="49.31143" lon="1.21416">
        <ele>11.9</ele>
        <time>2011-05-01T09:51:19Z</time>
      </trkpt>
      <trkpt lat="49.3114" lon="1.21452">
        <ele>11.1</ele>
        <time>2011-05-01T09:51:24Z</time>
      </trkpt>
      <trkpt lat="49.31135" lon="1.21482">
        <ele>10.5</ele>
        <time>2011-05-01T09:51:28Z</time>
      </trkpt>
      <trkpt lat="49.31124" lon="1.21527">
        <ele>10</ele>
        <time>2011-05-01T09:51:34Z</time>
      </trkpt>
      <trkpt lat="49.31122" lon="1.21533">
        <ele>9.9</ele>
        <time>2011-05-01T09:51:35Z</time>
      </trkpt>
      <trkpt lat="49.31108" lon="1.21573">
        <ele>9.6</ele>
        <time>2011-05-01T09:51:41Z</time>
      </trkpt>
      <trkpt lat="49.31102" lon="1.21609">
        <ele>9.4</ele>
        <time>2011-05-01T09:51:46Z</time>
      </trkpt>
      <trkpt lat="49.311" lon="1.21665">
        <ele>9.4</ele>
        <time>2011-05-01T09:51:53Z</time>
      </trkpt>
      <trkpt lat="49.31098" lon="1.21703">
        <ele>8.4</ele>
        <time>2011-05-01T09:51:58Z</time>
      </trkpt>
      <trkpt lat="49.31099" lon="1.21724">
        <ele>7.8</ele>
        <time>2011-05-01T09:52:01Z</time>
      </trkpt>
      <trkpt lat="49.31099" lon="1.21782">
        <ele>6.4</ele>
        <time>2011-05-01T09:52:09Z</time>
      </trkpt>
      <trkpt lat="49.31099" lon="1.21816">
        <ele>5.7</ele>
        <time>2011-05-01T09:52:13Z</time>
      </trkpt>
      <trkpt lat="49.311" lon="1.21879">
        <ele>5.4</ele>
        <time>2011-05-01T09:52:21Z</time>
      </trkpt>
      <trkpt lat="49.311" lon="1.21894">
        <ele>5.4</ele>
        <time>2011-05-01T09:52:23Z</time>
      </trkpt>
      <trkpt lat="49.31099" lon="1.21916">
        <ele>5.4</ele>
        <time>2011-05-01T09:52:26Z</time>
      </trkpt>
      <trkpt lat="49.31099" lon="1.21931">
        <ele>5.5</ele>
        <time>2011-05-01T09:52:28Z</time>
      </trkpt>
      <trkpt lat="49.31103" lon="1.21989">
        <ele>6.1</ele>
        <time>2011-05-01T09:52:36Z</time>
      </trkpt>
      <trkpt lat="49.31106" lon="1.22039">
        <ele>6.3</ele>
        <time>2011-05-01T09:52:43Z</time>
      </trkpt>
      <trkpt lat="49.3111" lon="1.22072">
        <ele>6.3</ele>
        <time>2011-05-01T09:52:48Z</time>
      </trkpt>
      <trkpt lat="49.31111" lon="1.22119">
        <ele>6.6</ele>
        <time>2011-05-01T09:52:54Z</time>
      </trkpt>
      <trkpt lat="49.31117" lon="1.22189">
        <ele>6.8</ele>
        <time>2011-05-01T09:53:03Z</time>
      </trkpt>
      <trkpt lat="49.31122" lon="1.22244">
        <ele>6.5</ele>
        <time>2011-05-01T09:53:10Z</time>
      </trkpt>
      <trkpt lat="49.3113" lon="1.22312">
        <ele>6.6</ele>
        <time>2011-05-01T09:53:18Z</time>
      </trkpt>
      <trkpt lat="49.31137" lon="1.22365">
        <ele>6.8</ele>
        <time>2011-05-01T09:53:24Z</time>
      </trkpt>
      <trkpt lat="49.31148" lon="1.22394">
        <ele>6.9</ele>
        <time>2011-05-01T09:53:28Z</time>
      </trkpt>
      <trkpt lat="49.31165" lon="1.22418">
        <ele>7</ele>
        <time>2011-05-01T09:53:32Z</time>
      </trkpt>
      <trkpt lat="49.31209" lon="1.22464">
        <ele>7.3</ele>
        <time>2011-05-01T09:53:41Z</time>
      </trkpt>
      <trkpt lat="49.31244" lon="1.22499">
        <ele>7.1</ele>
        <time>2011-05-01T09:53:48Z</time>
      </trkpt>
      <trkpt lat="49.31279" lon="1.22526">
        <ele>6.9</ele>
        <time>2011-05-01T09:53:55Z</time>
      </trkpt>
      <trkpt lat="49.31314" lon="1.22555">
        <ele>6.5</ele>
        <time>2011-05-01T09:54:02Z</time>
      </trkpt>
      <trkpt lat="49.31348" lon="1.2259">
        <ele>6.1</ele>
        <time>2011-05-01T09:54:09Z</time>
      </trkpt>
      <trkpt lat="49.31383" lon="1.22622">
        <ele>6.7</ele>
        <time>2011-05-01T09:54:16Z</time>
      </trkpt>
      <trkpt lat="49.31407" lon="1.22645">
        <ele>6.8</ele>
        <time>2011-05-01T09:54:21Z</time>
      </trkpt>
      <trkpt lat="49.31423" lon="1.22663">
        <ele>7</ele>
        <time>2011-05-01T09:54:25Z</time>
      </trkpt>
      <trkpt lat="49.31454" lon="1.22696">
        <ele>7</ele>
        <time>2011-05-01T09:54:32Z</time>
      </trkpt>
      <trkpt lat="49.31478" lon="1.22726">
        <ele>6.7</ele>
        <time>2011-05-01T09:54:38Z</time>
      </trkpt>
      <trkpt lat="49.31501" lon="1.22755">
        <ele>6.1</ele>
        <time>2011-05-01T09:54:44Z</time>
      </trkpt>
      <trkpt lat="49.31504" lon="1.22759">
        <ele>6.2</ele>
        <time>2011-05-01T09:54:45Z</time>
      </trkpt>
      <trkpt lat="49.31511" lon="1.22766">
        <ele>6.4</ele>
        <time>2011-05-01T09:54:48Z</time>
      </trkpt>
      <trkpt lat="49.31515" lon="1.22765">
        <ele>6.5</ele>
        <time>2011-05-01T09:54:55Z</time>
      </trkpt>
      <trkpt lat="49.31515" lon="1.22765">
        <ele>6.5</ele>
        <time>2011-05-01T09:55:01Z</time>
      </trkpt>
      <trkpt lat="49.31514" lon="1.22765">
        <ele>6.5</ele>
        <time>2011-05-01T09:55:10Z</time>
      </trkpt>
      <trkpt lat="49.31515" lon="1.22766">
        <ele>6.5</ele>
        <time>2011-05-01T09:55:18Z</time>
      </trkpt>
      <trkpt lat="49.31514" lon="1.22764">
        <ele>6.5</ele>
        <time>2011-05-01T09:55:34Z</time>
      </trkpt>
      <trkpt lat="49.31514" lon="1.22766">
        <ele>6.5</ele>
        <time>2011-05-01T09:55:40Z</time>
      </trkpt>
      <trkpt lat="49.31513" lon="1.22765">
        <ele>6.5</ele>
        <time>2011-05-01T09:55:51Z</time>
      </trkpt>
      <trkpt lat="49.31513" lon="1.22765">
        <ele>6.5</ele>
        <time>2011-05-01T09:55:59Z</time>
      </trkpt>
      <trkpt lat="49.31513" lon="1.22765">
        <ele>6.5</ele>
        <time>2011-05-01T09:56:08Z</time>
      </trkpt>
      <trkpt lat="49.31513" lon="1.22766">
        <ele>6.5</ele>
        <time>2011-05-01T09:56:25Z</time>
      </trkpt>
      <trkpt lat="49.31513" lon="1.22767">
        <ele>6.5</ele>
        <time>2011-05-01T09:56:32Z</time>
      </trkpt>
      <trkpt lat="49.31513" lon="1.22766">
        <ele>6.5</ele>
        <time>2011-05-01T09:56:39Z</time>
      </trkpt>
      <trkpt lat="49.31513" lon="1.22765">
        <ele>6.5</ele>
        <time>2011-05-01T09:56:47Z</time>
      </trkpt>
      <trkpt lat="49.31513" lon="1.22765">
        <ele>6.5</ele>
        <time>2011-05-01T09:56:54Z</time>
      </trkpt>
      <trkpt lat="49.31515" lon="1.22763">
        <ele>6.5</ele>
        <time>2011-05-01T09:57:08Z</time>
      </trkpt>
      <trkpt lat="49.31515" lon="1.22764">
        <ele>6.5</ele>
        <time>2011-05-01T09:57:23Z</time>
      </trkpt>
      <trkpt lat="49.31514" lon="1.22763">
        <ele>6.5</ele>
        <time>2011-05-01T09:57:39Z</time>
      </trkpt>
      <trkpt lat="49.31515" lon="1.22763">
        <ele>6.5</ele>
        <time>2011-05-01T09:57:44Z</time>
      </trkpt>
      <trkpt lat="49.31515" lon="1.22763">
        <ele>6.5</ele>
        <time>2011-05-01T09:57:50Z</time>
      </trkpt>
      <trkpt lat="49.31514" lon="1.22762">
        <ele>6.5</ele>
        <time>2011-05-01T09:57:57Z</time>
      </trkpt>
      <trkpt lat="49.31514" lon="1.22762">
        <ele>6.4</ele>
        <time>2011-05-01T09:58:05Z</time>
      </trkpt>
      <trkpt lat="49.31513" lon="1.22762">
        <ele>6.4</ele>
        <time>2011-05-01T09:58:19Z</time>
      </trkpt>
      <trkpt lat="49.31513" lon="1.22762">
        <ele>6.4</ele>
        <time>2011-05-01T09:58:30Z</time>
      </trkpt>
      <trkpt lat="49.31514" lon="1.2276">
        <ele>6.4</ele>
        <time>2011-05-01T09:58:40Z</time>
      </trkpt>
      <trkpt lat="49.31513" lon="1.22759">
        <ele>6.4</ele>
        <time>2011-05-01T09:58:46Z</time>
      </trkpt>
      <trkpt lat="49.31513" lon="1.22759">
        <ele>6.4</ele>
        <time>2011-05-01T09:58:54Z</time>
      </trkpt>
      <trkpt lat="49.31513" lon="1.22759">
        <ele>6.4</ele>
        <time>2011-05-01T09:59:04Z</time>
      </trkpt>
      <trkpt lat="49.31513" lon="1.2276">
        <ele>6.4</ele>
        <time>2011-05-01T09:59:12Z</time>
      </trkpt>
      <trkpt lat="49.31514" lon="1.22761">
        <ele>6.4</ele>
        <time>2011-05-01T09:59:20Z</time>
      </trkpt>
      <trkpt lat="49.31515" lon="1.22762">
        <ele>6.5</ele>
        <time>2011-05-01T09:59:26Z</time>
      </trkpt>
      <trkpt lat="49.31515" lon="1.22763">
        <ele>6.5</ele>
        <time>2011-05-01T09:59:32Z</time>
      </trkpt>
      <trkpt lat="49.31516" lon="1.22763">
        <ele>6.5</ele>
        <time>2011-05-01T09:59:40Z</time>
      </trkpt>
      <trkpt lat="49.31522" lon="1.22757">
        <ele>6.6</ele>
        <time>2011-05-01T09:59:45Z</time>
      </trkpt>
      <trkpt lat="49.31535" lon="1.22731">
        <ele>7.1</ele>
        <time>2011-05-01T09:59:52Z</time>
      </trkpt>
      <trkpt lat="49.3154" lon="1.22718">
        <ele>7.4</ele>
        <time>2011-05-01T09:59:55Z</time>
      </trkpt>
      <trkpt lat="49.31554" lon="1.2269">
        <ele>8</ele>
        <time>2011-05-01T10:00:01Z</time>
      </trkpt>
      <trkpt lat="49.31577" lon="1.22647">
        <ele>9.1</ele>
        <time>2011-05-01T10:00:09Z</time>
      </trkpt>
      <trkpt lat="49.3159" lon="1.22625">
        <ele>9.6</ele>
        <time>2011-05-01T10:00:13Z</time>
      </trkpt>
      <trkpt lat="49.31605" lon="1.22603">
        <ele>10</ele>
        <time>2011-05-01T10:00:18Z</time>
      </trkpt>
      <trkpt lat="49.31618" lon="1.22586">
        <ele>10.4</ele>
        <time>2011-05-01T10:00:22Z</time>
      </trkpt>
      <trkpt lat="49.31633" lon="1.22566">
        <ele>10.9</ele>
        <time>2011-05-01T10:00:27Z</time>
      </trkpt>
      <trkpt lat="49.31655" lon="1.22535">
        <ele>11.5</ele>
        <time>2011-05-01T10:00:35Z</time>
      </trkpt>
      <trkpt lat="49.31679" lon="1.22498">
        <ele>12.5</ele>
        <time>2011-05-01T10:00:42Z</time>
      </trkpt>
      <trkpt lat="49.31708" lon="1.22451">
        <ele>14.1</ele>
        <time>2011-05-01T10:00:50Z</time>
      </trkpt>
      <trkpt lat="49.31744" lon="1.22391">
        <ele>16.1</ele>
        <time>2011-05-01T10:01:00Z</time>
      </trkpt>
      <trkpt lat="49.31775" lon="1.22338">
        <ele>17.3</ele>
        <time>2011-05-01T10:01:09Z</time>
      </trkpt>
      <trkpt lat="49.3181" lon="1.22276">
        <ele>17.4</ele>
        <time>2011-05-01T10:01:19Z</time>
      </trkpt>
      <trkpt lat="49.31821" lon="1.22258">
        <ele>17.2</ele>
        <time>2011-05-01T10:01:22Z</time>
      </trkpt>
      <trkpt lat="49.31846" lon="1.22244">
        <ele>17.2</ele>
        <time>2011-05-01T10:01:27Z</time>
      </trkpt>
      <trkpt lat="49.31867" lon="1.22242">
        <ele>17.5</ele>
        <time>2011-05-01T10:01:31Z</time>
      </trkpt>
      <trkpt lat="49.31885" lon="1.22253">
        <ele>17.6</ele>
        <time>2011-05-01T10:01:35Z</time>
      </trkpt>
      <trkpt lat="49.31889" lon="1.22268">
        <ele>17.6</ele>
        <time>2011-05-01T10:01:37Z</time>
      </trkpt>
      <trkpt lat="49.319" lon="1.22313">
        <ele>17.3</ele>
        <time>2011-05-01T10:01:43Z</time>
      </trkpt>
      <trkpt lat="49.31911" lon="1.22341">
        <ele>17</ele>
        <time>2011-05-01T10:01:48Z</time>
      </trkpt>
      <trkpt lat="49.3192" lon="1.22339">
        <ele>16.9</ele>
        <time>2011-05-01T10:01:50Z</time>
      </trkpt>
      <trkpt lat="49.31958" lon="1.22325">
        <ele>17.1</ele>
        <time>2011-05-01T10:01:57Z</time>
      </trkpt>
      <trkpt lat="49.31977" lon="1.22337">
        <ele>17</ele>
        <time>2011-05-01T10:02:01Z</time>
      </trkpt>
      <trkpt lat="49.31979" lon="1.22353">
        <ele>16.8</ele>
        <time>2011-05-01T10:02:03Z</time>
      </trkpt>
      <trkpt lat="49.31982" lon="1.2237">
        <ele>16.6</ele>
        <time>2011-05-01T10:02:05Z</time>
      </trkpt>
      <trkpt lat="49.31991" lon="1.22387">
        <ele>16.4</ele>
        <time>2011-05-01T10:02:08Z</time>
      </trkpt>
      <trkpt lat="49.32007" lon="1.22388">
        <ele>16.5</ele>
        <time>2011-05-01T10:02:11Z</time>
      </trkpt>
      <trkpt lat="49.3205" lon="1.22388">
        <ele>17.3</ele>
        <time>2011-05-01T10:02:19Z</time>
      </trkpt>
      <trkpt lat="49.32093" lon="1.22391">
        <ele>18</ele>
        <time>2011-05-01T10:02:27Z</time>
      </trkpt>
      <trkpt lat="49.32126" lon="1.224">
        <ele>18</ele>
        <time>2011-05-01T10:02:34Z</time>
      </trkpt>
      <trkpt lat="49.32163" lon="1.22407">
        <ele>18</ele>
        <time>2011-05-01T10:02:42Z</time>
      </trkpt>
      <trkpt lat="49.32166" lon="1.22408">
        <ele>18</ele>
        <time>2011-05-01T10:02:43Z</time>
      </trkpt>
      <trkpt lat="49.32175" lon="1.22421">
        <ele>18</ele>
        <time>2011-05-01T10:02:47Z</time>
      </trkpt>
      <trkpt lat="49.32184" lon="1.2242">
        <ele>18</ele>
        <time>2011-05-01T10:02:51Z</time>
      </trkpt>
      <trkpt lat="49.32205" lon="1.22413">
        <ele>18</ele>
        <time>2011-05-01T10:02:56Z</time>
      </trkpt>
      <trkpt lat="49.32228" lon="1.22421">
        <ele>18</ele>
        <time>2011-05-01T10:03:01Z</time>
      </trkpt>
      <trkpt lat="49.32254" lon="1.22432">
        <ele>18</ele>
        <time>2011-05-01T10:03:07Z</time>
      </trkpt>
      <trkpt lat="49.32278" lon="1.2244">
        <ele>18.1</ele>
        <time>2011-05-01T10:03:13Z</time>
      </trkpt>
      <trkpt lat="49.32305" lon="1.22446">
        <ele>18.2</ele>
        <time>2011-05-01T10:03:20Z</time>
      </trkpt>
      <trkpt lat="49.32333" lon="1.22447">
        <ele>18.4</ele>
        <time>2011-05-01T10:03:26Z</time>
      </trkpt>
      <trkpt lat="49.32375" lon="1.22449">
        <ele>18.4</ele>
        <time>2011-05-01T10:03:34Z</time>
      </trkpt>
      <trkpt lat="49.32411" lon="1.22451">
        <ele>18.4</ele>
        <time>2011-05-01T10:03:41Z</time>
      </trkpt>
      <trkpt lat="49.32415" lon="1.22452">
        <ele>18.4</ele>
        <time>2011-05-01T10:03:42Z</time>
      </trkpt>
      <trkpt lat="49.32449" lon="1.22459">
        <ele>19.1</ele>
        <time>2011-05-01T10:03:49Z</time>
      </trkpt>
      <trkpt lat="49.32454" lon="1.22459">
        <ele>19.2</ele>
        <time>2011-05-01T10:03:50Z</time>
      </trkpt>
      <trkpt lat="49.32496" lon="1.22453">
        <ele>20.1</ele>
        <time>2011-05-01T10:03:58Z</time>
      </trkpt>
      <trkpt lat="49.3254" lon="1.22447">
        <ele>22.2</ele>
        <time>2011-05-01T10:04:07Z</time>
      </trkpt>
      <trkpt lat="49.32583" lon="1.22429">
        <ele>24.7</ele>
        <time>2011-05-01T10:04:16Z</time>
      </trkpt>
      <trkpt lat="49.32609" lon="1.22411">
        <ele>25.4</ele>
        <time>2011-05-01T10:04:22Z</time>
      </trkpt>
      <trkpt lat="49.32644" lon="1.22398">
        <ele>26</ele>
        <time>2011-05-01T10:04:30Z</time>
      </trkpt>
      <trkpt lat="49.32665" lon="1.22392">
        <ele>26.3</ele>
        <time>2011-05-01T10:04:35Z</time>
      </trkpt>
      <trkpt lat="49.32673" lon="1.22392">
        <ele>26.5</ele>
        <time>2011-05-01T10:04:37Z</time>
      </trkpt>
      <trkpt lat="49.32693" lon="1.22391">
        <ele>27.3</ele>
        <time>2011-05-01T10:04:42Z</time>
      </trkpt>
      <trkpt lat="49.3272" lon="1.22386">
        <ele>28.3</ele>
        <time>2011-05-01T10:04:50Z</time>
      </trkpt>
      <trkpt lat="49.3274" lon="1.22385">
        <ele>29</ele>
        <time>2011-05-01T10:04:57Z</time>
      </trkpt>
      <trkpt lat="49.32742" lon="1.22385">
        <ele>29.1</ele>
        <time>2011-05-01T10:04:58Z</time>
      </trkpt>
      <trkpt lat="49.32744" lon="1.22386">
        <ele>29.2</ele>
        <time>2011-05-01T10:05:03Z</time>
      </trkpt>
      <trkpt lat="49.32744" lon="1.22387">
        <ele>29.2</ele>
        <time>2011-05-01T10:05:06Z</time>
      </trkpt>
      <trkpt lat="49.32751" lon="1.22387">
        <ele>29.4</ele>
        <time>2011-05-01T10:05:10Z</time>
      </trkpt>
      <trkpt lat="49.32772" lon="1.22373">
        <ele>29.7</ele>
        <time>2011-05-01T10:05:17Z</time>
      </trkpt>
      <trkpt lat="49.32802" lon="1.2236">
        <ele>30.1</ele>
        <time>2011-05-01T10:05:25Z</time>
      </trkpt>
      <trkpt lat="49.32833" lon="1.22345">
        <ele>30.7</ele>
        <time>2011-05-01T10:05:33Z</time>
      </trkpt>
      <trkpt lat="49.32868" lon="1.22333">
        <ele>28.9</ele>
        <time>2011-05-01T10:05:41Z</time>
      </trkpt>
      <trkpt lat="49.32904" lon="1.22321">
        <ele>26.9</ele>
        <time>2011-05-01T10:05:48Z</time>
      </trkpt>
      <trkpt lat="49.32921" lon="1.22311">
        <ele>26.3</ele>
        <time>2011-05-01T10:05:51Z</time>
      </trkpt>
      <trkpt lat="49.32967" lon="1.22274">
        <ele>27.1</ele>
        <time>2011-05-01T10:05:59Z</time>
      </trkpt>
      <trkpt lat="49.32986" lon="1.22265">
        <ele>27.5</ele>
        <time>2011-05-01T10:06:02Z</time>
      </trkpt>
      <trkpt lat="49.33047" lon="1.22249">
        <ele>34.2</ele>
        <time>2011-05-01T10:06:12Z</time>
      </trkpt>
      <trkpt lat="49.33075" lon="1.22235">
        <ele>38.2</ele>
        <time>2011-05-01T10:06:18Z</time>
      </trkpt>
      <trkpt lat="49.33082" lon="1.22231">
        <ele>39.3</ele>
        <time>2011-05-01T10:06:20Z</time>
      </trkpt>
      <trkpt lat="49.33097" lon="1.2223">
        <ele>40.7</ele>
        <time>2011-05-01T10:06:24Z</time>
      </trkpt>
      <trkpt lat="49.3312" lon="1.22236">
        <ele>42.5</ele>
        <time>2011-05-01T10:06:31Z</time>
      </trkpt>
      <trkpt lat="49.33138" lon="1.22244">
        <ele>43.8</ele>
        <time>2011-05-01T10:06:37Z</time>
      </trkpt>
      <trkpt lat="49.33155" lon="1.22247">
        <ele>45.1</ele>
        <time>2011-05-01T10:06:42Z</time>
      </trkpt>
      <trkpt lat="49.33174" lon="1.22249">
        <ele>46.9</ele>
        <time>2011-05-01T10:06:48Z</time>
      </trkpt>
      <trkpt lat="49.33186" lon="1.22249">
        <ele>48.3</ele>
        <time>2011-05-01T10:06:52Z</time>
      </trkpt>
      <trkpt lat="49.33207" lon="1.2225">
        <ele>50.8</ele>
        <time>2011-05-01T10:06:59Z</time>
      </trkpt>
      <trkpt lat="49.33228" lon="1.22253">
        <ele>53.5</ele>
        <time>2011-05-01T10:07:06Z</time>
      </trkpt>
      <trkpt lat="49.33246" lon="1.22255">
        <ele>55.6</ele>
        <time>2011-05-01T10:07:11Z</time>
      </trkpt>
      <trkpt lat="49.33263" lon="1.22263">
        <ele>58</ele>
        <time>2011-05-01T10:07:17Z</time>
      </trkpt>
      <trkpt lat="49.33281" lon="1.22274">
        <ele>60.3</ele>
        <time>2011-05-01T10:07:24Z</time>
      </trkpt>
      <trkpt lat="49.33293" lon="1.22287">
        <ele>61.8</ele>
        <time>2011-05-01T10:07:29Z</time>
      </trkpt>
      <trkpt lat="49.33305" lon="1.22298">
        <ele>63.2</ele>
        <time>2011-05-01T10:07:35Z</time>
      </trkpt>
      <trkpt lat="49.33315" lon="1.22308">
        <ele>64.2</ele>
        <time>2011-05-01T10:07:40Z</time>
      </trkpt>
      <trkpt lat="49.33321" lon="1.22316">
        <ele>64.9</ele>
        <time>2011-05-01T10:07:45Z</time>
      </trkpt>
      <trkpt lat="49.33331" lon="1.22324">
        <ele>65.8</ele>
        <time>2011-05-01T10:07:51Z</time>
      </trkpt>
      <trkpt lat="49.33343" lon="1.22334">
        <ele>66.8</ele>
        <time>2011-05-01T10:07:58Z</time>
      </trkpt>
      <trkpt lat="49.33356" lon="1.22335">
        <ele>67.9</ele>
        <time>2011-05-01T10:08:05Z</time>
      </trkpt>
      <trkpt lat="49.33369" lon="1.22334">
        <ele>69</ele>
        <time>2011-05-01T10:08:11Z</time>
      </trkpt>
      <trkpt lat="49.33385" lon="1.22333">
        <ele>70.4</ele>
        <time>2011-05-01T10:08:17Z</time>
      </trkpt>
      <trkpt lat="49.33401" lon="1.22336">
        <ele>71.6</ele>
        <time>2011-05-01T10:08:23Z</time>
      </trkpt>
      <trkpt lat="49.33412" lon="1.22345">
        <ele>72.3</ele>
        <time>2011-05-01T10:08:29Z</time>
      </trkpt>
      <trkpt lat="49.33425" lon="1.2236">
        <ele>72.4</ele>
        <time>2011-05-01T10:08:35Z</time>
      </trkpt>
      <trkpt lat="49.33435" lon="1.22369">
        <ele>72.4</ele>
        <time>2011-05-01T10:08:39Z</time>
      </trkpt>
      <trkpt lat="49.33444" lon="1.22373">
        <ele>72.5</ele>
        <time>2011-05-01T10:08:43Z</time>
      </trkpt>
      <trkpt lat="49.33455" lon="1.22379">
        <ele>72.4</ele>
        <time>2011-05-01T10:08:49Z</time>
      </trkpt>
      <trkpt lat="49.33472" lon="1.22387">
        <ele>72.3</ele>
        <time>2011-05-01T10:08:56Z</time>
      </trkpt>
      <trkpt lat="49.33482" lon="1.22389">
        <ele>72.4</ele>
        <time>2011-05-01T10:09:01Z</time>
      </trkpt>
      <trkpt lat="49.33497" lon="1.22392">
        <ele>72.4</ele>
        <time>2011-05-01T10:09:07Z</time>
      </trkpt>
      <trkpt lat="49.335" lon="1.22393">
        <ele>72.4</ele>
        <time>2011-05-01T10:09:08Z</time>
      </trkpt>
      <trkpt lat="49.33521" lon="1.22395">
        <ele>70.6</ele>
        <time>2011-05-01T10:09:16Z</time>
      </trkpt>
      <trkpt lat="49.33543" lon="1.22394">
        <ele>69</ele>
        <time>2011-05-01T10:09:23Z</time>
      </trkpt>
      <trkpt lat="49.3356" lon="1.22384">
        <ele>68.5</ele>
        <time>2011-05-01T10:09:29Z</time>
      </trkpt>
      <trkpt lat="49.33579" lon="1.2237">
        <ele>68.3</ele>
        <time>2011-05-01T10:09:36Z</time>
      </trkpt>
      <trkpt lat="49.3359" lon="1.22367">
        <ele>67.1</ele>
        <time>2011-05-01T10:09:41Z</time>
      </trkpt>
      <trkpt lat="49.33598" lon="1.22363">
        <ele>65.9</ele>
        <time>2011-05-01T10:09:45Z</time>
      </trkpt>
      <trkpt lat="49.33607" lon="1.22352">
        <ele>65</ele>
        <time>2011-05-01T10:09:50Z</time>
      </trkpt>
      <trkpt lat="49.33616" lon="1.22333">
        <ele>64.8</ele>
        <time>2011-05-01T10:09:56Z</time>
      </trkpt>
      <trkpt lat="49.33623" lon="1.22319">
        <ele>65.1</ele>
        <time>2011-05-01T10:10:01Z</time>
      </trkpt>
      <trkpt lat="49.33631" lon="1.22297">
        <ele>66.2</ele>
        <time>2011-05-01T10:10:08Z</time>
      </trkpt>
      <trkpt lat="49.33632" lon="1.22282">
        <ele>67.9</ele>
        <time>2011-05-01T10:10:13Z</time>
      </trkpt>
      <trkpt lat="49.33636" lon="1.22257">
        <ele>70.3</ele>
        <time>2011-05-01T10:10:20Z</time>
      </trkpt>
      <trkpt lat="49.33648" lon="1.22237">
        <ele>71.6</ele>
        <time>2011-05-01T10:10:27Z</time>
      </trkpt>
      <trkpt lat="49.33656" lon="1.22229">
        <ele>71.9</ele>
        <time>2011-05-01T10:10:31Z</time>
      </trkpt>
      <trkpt lat="49.33666" lon="1.22214">
        <ele>73.1</ele>
        <time>2011-05-01T10:10:36Z</time>
      </trkpt>
      <trkpt lat="49.33677" lon="1.22197">
        <ele>75.6</ele>
        <time>2011-05-01T10:10:41Z</time>
      </trkpt>
      <trkpt lat="49.33685" lon="1.22181">
        <ele>78</ele>
        <time>2011-05-01T10:10:46Z</time>
      </trkpt>
      <trkpt lat="49.33688" lon="1.22175">
        <ele>78.9</ele>
        <time>2011-05-01T10:10:48Z</time>
      </trkpt>
      <trkpt lat="49.33696" lon="1.22163">
        <ele>80.7</ele>
        <time>2011-05-01T10:10:52Z</time>
      </trkpt>
      <trkpt lat="49.33702" lon="1.22145">
        <ele>83.9</ele>
        <time>2011-05-01T10:10:57Z</time>
      </trkpt>
      <trkpt lat="49.33714" lon="1.22127">
        <ele>87.2</ele>
        <time>2011-05-01T10:11:04Z</time>
      </trkpt>
      <trkpt lat="49.33717" lon="1.22122">
        <ele>88.1</ele>
        <time>2011-05-01T10:11:06Z</time>
      </trkpt>
      <trkpt lat="49.33724" lon="1.22106">
        <ele>91.4</ele>
        <time>2011-05-01T10:11:12Z</time>
      </trkpt>
      <trkpt lat="49.33737" lon="1.22091">
        <ele>94.9</ele>
        <time>2011-05-01T10:11:19Z</time>
      </trkpt>
      <trkpt lat="49.33747" lon="1.22086">
        <ele>96.5</ele>
        <time>2011-05-01T10:11:25Z</time>
      </trkpt>
      <trkpt lat="49.33757" lon="1.22079">
        <ele>98.1</ele>
        <time>2011-05-01T10:11:30Z</time>
      </trkpt>
      <trkpt lat="49.33766" lon="1.22066">
        <ele>100.5</ele>
        <time>2011-05-01T10:11:36Z</time>
      </trkpt>
      <trkpt lat="49.33776" lon="1.22054">
        <ele>102.9</ele>
        <time>2011-05-01T10:11:43Z</time>
      </trkpt>
      <trkpt lat="49.33783" lon="1.22044">
        <ele>104.9</ele>
        <time>2011-05-01T10:11:50Z</time>
      </trkpt>
      <trkpt lat="49.33791" lon="1.22032">
        <ele>107.1</ele>
        <time>2011-05-01T10:11:57Z</time>
      </trkpt>
      <trkpt lat="49.33795" lon="1.22029">
        <ele>107.8</ele>
        <time>2011-05-01T10:12:00Z</time>
      </trkpt>
      <trkpt lat="49.33802" lon="1.22021">
        <ele>109.5</ele>
        <time>2011-05-01T10:12:07Z</time>
      </trkpt>
      <trkpt lat="49.3381" lon="1.22009">
        <ele>111.8</ele>
        <time>2011-05-01T10:12:15Z</time>
      </trkpt>
      <trkpt lat="49.33819" lon="1.21995">
        <ele>113.9</ele>
        <time>2011-05-01T10:12:22Z</time>
      </trkpt>
      <trkpt lat="49.33827" lon="1.2198">
        <ele>115.4</ele>
        <time>2011-05-01T10:12:29Z</time>
      </trkpt>
      <trkpt lat="49.33834" lon="1.21969">
        <ele>116.7</ele>
        <time>2011-05-01T10:12:35Z</time>
      </trkpt>
      <trkpt lat="49.33842" lon="1.21957">
        <ele>118.2</ele>
        <time>2011-05-01T10:12:42Z</time>
      </trkpt>
      <trkpt lat="49.33852" lon="1.21943">
        <ele>120</ele>
        <time>2011-05-01T10:12:50Z</time>
      </trkpt>
      <trkpt lat="49.33861" lon="1.21933">
        <ele>121.4</ele>
        <time>2011-05-01T10:12:56Z</time>
      </trkpt>
      <trkpt lat="49.33867" lon="1.21922">
        <ele>122.6</ele>
        <time>2011-05-01T10:13:02Z</time>
      </trkpt>
      <trkpt lat="49.33875" lon="1.21908">
        <ele>123.9</ele>
        <time>2011-05-01T10:13:08Z</time>
      </trkpt>
      <trkpt lat="49.33878" lon="1.21903">
        <ele>124.3</ele>
        <time>2011-05-01T10:13:11Z</time>
      </trkpt>
      <trkpt lat="49.33882" lon="1.21882">
        <ele>125.4</ele>
        <time>2011-05-01T10:13:18Z</time>
      </trkpt>
      <trkpt lat="49.33886" lon="1.21868">
        <ele>126.3</ele>
        <time>2011-05-01T10:13:23Z</time>
      </trkpt>
      <trkpt lat="49.33897" lon="1.2186">
        <ele>127.4</ele>
        <time>2011-05-01T10:13:29Z</time>
      </trkpt>
      <trkpt lat="49.33905" lon="1.21849">
        <ele>128.5</ele>
        <time>2011-05-01T10:13:34Z</time>
      </trkpt>
      <trkpt lat="49.33916" lon="1.21839">
        <ele>129.7</ele>
        <time>2011-05-01T10:13:40Z</time>
      </trkpt>
      <trkpt lat="49.33923" lon="1.21831">
        <ele>130</ele>
        <time>2011-05-01T10:13:45Z</time>
      </trkpt>
      <trkpt lat="49.33935" lon="1.2182">
        <ele>130</ele>
        <time>2011-05-01T10:13:52Z</time>
      </trkpt>
      <trkpt lat="49.33946" lon="1.2181">
        <ele>130.1</ele>
        <time>2011-05-01T10:13:58Z</time>
      </trkpt>
      <trkpt lat="49.33958" lon="1.21803">
        <ele>130.2</ele>
        <time>2011-05-01T10:14:05Z</time>
      </trkpt>
      <trkpt lat="49.33967" lon="1.21799">
        <ele>130.3</ele>
        <time>2011-05-01T10:14:10Z</time>
      </trkpt>
      <trkpt lat="49.33981" lon="1.21795">
        <ele>130.4</ele>
        <time>2011-05-01T10:14:17Z</time>
      </trkpt>
      <trkpt lat="49.33986" lon="1.21792">
        <ele>130.5</ele>
        <time>2011-05-01T10:14:21Z</time>
      </trkpt>
      <trkpt lat="49.3399" lon="1.21788">
        <ele>130.6</ele>
        <time>2011-05-01T10:14:31Z</time>
      </trkpt>
      <trkpt lat="49.3399" lon="1.21786">
        <ele>130.7</ele>
        <time>2011-05-01T10:14:39Z</time>
      </trkpt>
      <trkpt lat="49.3399" lon="1.21783">
        <ele>130.8</ele>
        <time>2011-05-01T10:14:51Z</time>
      </trkpt>
      <trkpt lat="49.33991" lon="1.21778">
        <ele>131</ele>
        <time>2011-05-01T10:15:01Z</time>
      </trkpt>
      <trkpt lat="49.33993" lon="1.21777">
        <ele>131</ele>
        <time>2011-05-01T10:15:09Z</time>
      </trkpt>
      <trkpt lat="49.33993" lon="1.21782">
        <ele>130.8</ele>
        <time>2011-05-01T10:15:19Z</time>
      </trkpt>
      <trkpt lat="49.33997" lon="1.21784">
        <ele>130.8</ele>
        <time>2011-05-01T10:15:34Z</time>
      </trkpt>
      <trkpt lat="49.33997" lon="1.21784">
        <ele>130.8</ele>
        <time>2011-05-01T10:15:55Z</time>
      </trkpt>
      <trkpt lat="49.34" lon="1.21782">
        <ele>130.9</ele>
        <time>2011-05-01T10:15:58Z</time>
      </trkpt>
      <trkpt lat="49.34011" lon="1.21775">
        <ele>131.2</ele>
        <time>2011-05-01T10:16:04Z</time>
      </trkpt>
      <trkpt lat="49.34032" lon="1.21761">
        <ele>131.7</ele>
        <time>2011-05-01T10:16:12Z</time>
      </trkpt>
      <trkpt lat="49.34044" lon="1.21747">
        <ele>132</ele>
        <time>2011-05-01T10:16:17Z</time>
      </trkpt>
      <trkpt lat="49.34058" lon="1.21728">
        <ele>132.1</ele>
        <time>2011-05-01T10:16:23Z</time>
      </trkpt>
      <trkpt lat="49.34078" lon="1.21703">
        <ele>132</ele>
        <time>2011-05-01T10:16:30Z</time>
      </trkpt>
      <trkpt lat="49.34095" lon="1.21691">
        <ele>132.1</ele>
        <time>2011-05-01T10:16:36Z</time>
      </trkpt>
      <trkpt lat="49.34111" lon="1.21678">
        <ele>132.3</ele>
        <time>2011-05-01T10:16:42Z</time>
      </trkpt>
      <trkpt lat="49.34129" lon="1.21672">
        <ele>132.5</ele>
        <time>2011-05-01T10:16:47Z</time>
      </trkpt>
      <trkpt lat="49.34156" lon="1.21667">
        <ele>132.9</ele>
        <time>2011-05-01T10:16:54Z</time>
      </trkpt>
      <trkpt lat="49.34174" lon="1.21668">
        <ele>133</ele>
        <time>2011-05-01T10:16:59Z</time>
      </trkpt>
      <trkpt lat="49.34196" lon="1.21663">
        <ele>133</ele>
        <time>2011-05-01T10:17:04Z</time>
      </trkpt>
      <trkpt lat="49.34204" lon="1.21658">
        <ele>133</ele>
        <time>2011-05-01T10:17:06Z</time>
      </trkpt>
      <trkpt lat="49.34212" lon="1.21655">
        <ele>133.1</ele>
        <time>2011-05-01T10:17:08Z</time>
      </trkpt>
      <trkpt lat="49.34233" lon="1.21644">
        <ele>133.2</ele>
        <time>2011-05-01T10:17:13Z</time>
      </trkpt>
      <trkpt lat="49.34251" lon="1.21639">
        <ele>133.3</ele>
        <time>2011-05-01T10:17:17Z</time>
      </trkpt>
      <trkpt lat="49.34269" lon="1.21628">
        <ele>133.1</ele>
        <time>2011-05-01T10:17:22Z</time>
      </trkpt>
      <trkpt lat="49.34298" lon="1.21628">
        <ele>132.6</ele>
        <time>2011-05-01T10:17:30Z</time>
      </trkpt>
      <trkpt lat="49.34322" lon="1.21619">
        <ele>132.5</ele>
        <time>2011-05-01T10:17:36Z</time>
      </trkpt>
      <trkpt lat="49.34338" lon="1.21611">
        <ele>132.4</ele>
        <time>2011-05-01T10:17:40Z</time>
      </trkpt>
      <trkpt lat="49.34353" lon="1.21602">
        <ele>132</ele>
        <time>2011-05-01T10:17:44Z</time>
      </trkpt>
      <trkpt lat="49.3437" lon="1.21591">
        <ele>131.8</ele>
        <time>2011-05-01T10:17:48Z</time>
      </trkpt>
      <trkpt lat="49.34386" lon="1.21569">
        <ele>132</ele>
        <time>2011-05-01T10:17:53Z</time>
      </trkpt>
      <trkpt lat="49.34392" lon="1.21558">
        <ele>132.1</ele>
        <time>2011-05-01T10:17:55Z</time>
      </trkpt>
      <trkpt lat="49.34399" lon="1.21536">
        <ele>132.8</ele>
        <time>2011-05-01T10:17:59Z</time>
      </trkpt>
      <trkpt lat="49.34406" lon="1.21513">
        <ele>133.6</ele>
        <time>2011-05-01T10:18:03Z</time>
      </trkpt>
      <trkpt lat="49.34422" lon="1.21477">
        <ele>133.3</ele>
        <time>2011-05-01T10:18:10Z</time>
      </trkpt>
      <trkpt lat="49.34428" lon="1.21466">
        <ele>132.8</ele>
        <time>2011-05-01T10:18:12Z</time>
      </trkpt>
      <trkpt lat="49.34447" lon="1.21455">
        <ele>131.7</ele>
        <time>2011-05-01T10:18:17Z</time>
      </trkpt>
      <trkpt lat="49.34455" lon="1.21459">
        <ele>131.2</ele>
        <time>2011-05-01T10:18:19Z</time>
      </trkpt>
      <trkpt lat="49.34464" lon="1.21465">
        <ele>130.5</ele>
        <time>2011-05-01T10:18:21Z</time>
      </trkpt>
      <trkpt lat="49.34478" lon="1.2148">
        <ele>128.9</ele>
        <time>2011-05-01T10:18:24Z</time>
      </trkpt>
      <trkpt lat="49.34495" lon="1.21487">
        <ele>127.3</ele>
        <time>2011-05-01T10:18:27Z</time>
      </trkpt>
      <trkpt lat="49.34519" lon="1.21471">
        <ele>125.5</ele>
        <time>2011-05-01T10:18:32Z</time>
      </trkpt>
      <trkpt lat="49.34523" lon="1.21466">
        <ele>125.3</ele>
        <time>2011-05-01T10:18:33Z</time>
      </trkpt>
      <trkpt lat="49.34548" lon="1.21438">
        <ele>124.7</ele>
        <time>2011-05-01T10:18:38Z</time>
      </trkpt>
      <trkpt lat="49.34557" lon="1.2143">
        <ele>124.5</ele>
        <time>2011-05-01T10:18:40Z</time>
      </trkpt>
      <trkpt lat="49.34588" lon="1.21399">
        <ele>124.2</ele>
        <time>2011-05-01T10:18:46Z</time>
      </trkpt>
      <trkpt lat="49.346" lon="1.21386">
        <ele>125.4</ele>
        <time>2011-05-01T10:18:49Z</time>
      </trkpt>
      <trkpt lat="49.34615" lon="1.21366">
        <ele>127.1</ele>
        <time>2011-05-01T10:18:53Z</time>
      </trkpt>
      <trkpt lat="49.34623" lon="1.2136">
        <ele>127.8</ele>
        <time>2011-05-01T10:18:55Z</time>
      </trkpt>
      <trkpt lat="49.34644" lon="1.21345">
        <ele>129.5</ele>
        <time>2011-05-01T10:19:00Z</time>
      </trkpt>
      <trkpt lat="49.3466" lon="1.21338">
        <ele>130.5</ele>
        <time>2011-05-01T10:19:04Z</time>
      </trkpt>
      <trkpt lat="49.34674" lon="1.21344">
        <ele>131.2</ele>
        <time>2011-05-01T10:19:09Z</time>
      </trkpt>
      <trkpt lat="49.34686" lon="1.21352">
        <ele>131.8</ele>
        <time>2011-05-01T10:19:13Z</time>
      </trkpt>
      <trkpt lat="49.34693" lon="1.21362">
        <ele>132</ele>
        <time>2011-05-01T10:19:16Z</time>
      </trkpt>
      <trkpt lat="49.3471" lon="1.21381">
        <ele>132.7</ele>
        <time>2011-05-01T10:19:21Z</time>
      </trkpt>
      <trkpt lat="49.34715" lon="1.21385">
        <ele>133</ele>
        <time>2011-05-01T10:19:22Z</time>
      </trkpt>
      <trkpt lat="49.34736" lon="1.21391">
        <ele>134.5</ele>
        <time>2011-05-01T10:19:27Z</time>
      </trkpt>
      <trkpt lat="49.34753" lon="1.21378">
        <ele>136</ele>
        <time>2011-05-01T10:19:32Z</time>
      </trkpt>
      <trkpt lat="49.34767" lon="1.21366">
        <ele>136.5</ele>
        <time>2011-05-01T10:19:36Z</time>
      </trkpt>
      <trkpt lat="49.34792" lon="1.21351">
        <ele>137.5</ele>
        <time>2011-05-01T10:19:44Z</time>
      </trkpt>
      <trkpt lat="49.34811" lon="1.21352">
        <ele>137.9</ele>
        <time>2011-05-01T10:19:50Z</time>
      </trkpt>
      <trkpt lat="49.34832" lon="1.21351">
        <ele>138.4</ele>
        <time>2011-05-01T10:19:56Z</time>
      </trkpt>
      <trkpt lat="49.34851" lon="1.21347">
        <ele>139</ele>
        <time>2011-05-01T10:20:02Z</time>
      </trkpt>
      <trkpt lat="49.34865" lon="1.21344">
        <ele>139.5</ele>
        <time>2011-05-01T10:20:06Z</time>
      </trkpt>
      <trkpt lat="49.34879" lon="1.21344">
        <ele>139.9</ele>
        <time>2011-05-01T10:20:11Z</time>
      </trkpt>
      <trkpt lat="49.34896" lon="1.21342">
        <ele>140.4</ele>
        <time>2011-05-01T10:20:17Z</time>
      </trkpt>
      <trkpt lat="49.34911" lon="1.21349">
        <ele>140.7</ele>
        <time>2011-05-01T10:20:22Z</time>
      </trkpt>
      <trkpt lat="49.34933" lon="1.21358">
        <ele>140.3</ele>
        <time>2011-05-01T10:20:28Z</time>
      </trkpt>
      <trkpt lat="49.34955" lon="1.21361">
        <ele>139.8</ele>
        <time>2011-05-01T10:20:34Z</time>
      </trkpt>
      <trkpt lat="49.34976" lon="1.21368">
        <ele>139.2</ele>
        <time>2011-05-01T10:20:40Z</time>
      </trkpt>
      <trkpt lat="49.34992" lon="1.21385">
        <ele>138.6</ele>
        <time>2011-05-01T10:20:45Z</time>
      </trkpt>
      <trkpt lat="49.35011" lon="1.21402">
        <ele>137.9</ele>
        <time>2011-05-01T10:20:50Z</time>
      </trkpt>
      <trkpt lat="49.35034" lon="1.21422">
        <ele>137.2</ele>
        <time>2011-05-01T10:20:56Z</time>
      </trkpt>
      <trkpt lat="49.35058" lon="1.21456">
        <ele>137.1</ele>
        <time>2011-05-01T10:21:03Z</time>
      </trkpt>
      <trkpt lat="49.35065" lon="1.21465">
        <ele>137</ele>
        <time>2011-05-01T10:21:05Z</time>
      </trkpt>
      <trkpt lat="49.35076" lon="1.21483">
        <ele>137</ele>
        <time>2011-05-01T10:21:09Z</time>
      </trkpt>
      <trkpt lat="49.35083" lon="1.21492">
        <ele>136.9</ele>
        <time>2011-05-01T10:21:11Z</time>
      </trkpt>
      <trkpt lat="49.35102" lon="1.2151">
        <ele>137.1</ele>
        <time>2011-05-01T10:21:16Z</time>
      </trkpt>
      <trkpt lat="49.35118" lon="1.21524">
        <ele>137.1</ele>
        <time>2011-05-01T10:21:20Z</time>
      </trkpt>
      <trkpt lat="49.35126" lon="1.2153">
        <ele>137.2</ele>
        <time>2011-05-01T10:21:22Z</time>
      </trkpt>
      <trkpt lat="49.3516" lon="1.21538">
        <ele>137.5</ele>
        <time>2011-05-01T10:21:29Z</time>
      </trkpt>
      <trkpt lat="49.35195" lon="1.21548">
        <ele>138.2</ele>
        <time>2011-05-01T10:21:37Z</time>
      </trkpt>
      <trkpt lat="49.35225" lon="1.21556">
        <ele>139</ele>
        <time>2011-05-01T10:21:44Z</time>
      </trkpt>
      <trkpt lat="49.35262" lon="1.21561">
        <ele>139.7</ele>
        <time>2011-05-01T10:21:53Z</time>
      </trkpt>
      <trkpt lat="49.35282" lon="1.21563">
        <ele>139.8</ele>
        <time>2011-05-01T10:21:59Z</time>
      </trkpt>
      <trkpt lat="49.35312" lon="1.21566">
        <ele>139.8</ele>
        <time>2011-05-01T10:22:08Z</time>
      </trkpt>
      <trkpt lat="49.3534" lon="1.21568">
        <ele>139.7</ele>
        <time>2011-05-01T10:22:16Z</time>
      </trkpt>
      <trkpt lat="49.35368" lon="1.21571">
        <ele>139.2</ele>
        <time>2011-05-01T10:22:23Z</time>
      </trkpt>
      <trkpt lat="49.35402" lon="1.21573">
        <ele>138.5</ele>
        <time>2011-05-01T10:22:31Z</time>
      </trkpt>
      <trkpt lat="49.35448" lon="1.21574">
        <ele>137.9</ele>
        <time>2011-05-01T10:22:41Z</time>
      </trkpt>
      <trkpt lat="49.35468" lon="1.21575">
        <ele>137.7</ele>
        <time>2011-05-01T10:22:45Z</time>
      </trkpt>
      <trkpt lat="49.35497" lon="1.21575">
        <ele>137.3</ele>
        <time>2011-05-01T10:22:51Z</time>
      </trkpt>
      <trkpt lat="49.35544" lon="1.21576">
        <ele>137.8</ele>
        <time>2011-05-01T10:23:01Z</time>
      </trkpt>
      <trkpt lat="49.35594" lon="1.21576">
        <ele>138.5</ele>
        <time>2011-05-01T10:23:11Z</time>
      </trkpt>
      <trkpt lat="49.35633" lon="1.21572">
        <ele>139.6</ele>
        <time>2011-05-01T10:23:19Z</time>
      </trkpt>
      <trkpt lat="49.35666" lon="1.21563">
        <ele>140.7</ele>
        <time>2011-05-01T10:23:26Z</time>
      </trkpt>
      <trkpt lat="49.35709" lon="1.21549">
        <ele>142.1</ele>
        <time>2011-05-01T10:23:36Z</time>
      </trkpt>
      <trkpt lat="49.3575" lon="1.21533">
        <ele>143.2</ele>
        <time>2011-05-01T10:23:46Z</time>
      </trkpt>
      <trkpt lat="49.35783" lon="1.2152">
        <ele>143.9</ele>
        <time>2011-05-01T10:23:54Z</time>
      </trkpt>
      <trkpt lat="49.35816" lon="1.21505">
        <ele>144.7</ele>
        <time>2011-05-01T10:24:02Z</time>
      </trkpt>
      <trkpt lat="49.35843" lon="1.21493">
        <ele>145.1</ele>
        <time>2011-05-01T10:24:09Z</time>
      </trkpt>
      <trkpt lat="49.35865" lon="1.21485">
        <ele>144.9</ele>
        <time>2011-05-01T10:24:16Z</time>
      </trkpt>
      <trkpt lat="49.35879" lon="1.21482">
        <ele>144.8</ele>
        <time>2011-05-01T10:24:21Z</time>
      </trkpt>
      <trkpt lat="49.35907" lon="1.21477">
        <ele>144.4</ele>
        <time>2011-05-01T10:24:29Z</time>
      </trkpt>
      <trkpt lat="49.35945" lon="1.21474">
        <ele>144</ele>
        <time>2011-05-01T10:24:39Z</time>
      </trkpt>
      <trkpt lat="49.3598" lon="1.21468">
        <ele>143.6</ele>
        <time>2011-05-01T10:24:47Z</time>
      </trkpt>
      <trkpt lat="49.36023" lon="1.21456">
        <ele>143.9</ele>
        <time>2011-05-01T10:24:56Z</time>
      </trkpt>
      <trkpt lat="49.36064" lon="1.21447">
        <ele>144.7</ele>
        <time>2011-05-01T10:25:04Z</time>
      </trkpt>
      <trkpt lat="49.36102" lon="1.2145">
        <ele>145.5</ele>
        <time>2011-05-01T10:25:11Z</time>
      </trkpt>
      <trkpt lat="49.36136" lon="1.21465">
        <ele>146.6</ele>
        <time>2011-05-01T10:25:18Z</time>
      </trkpt>
      <trkpt lat="49.36174" lon="1.21491">
        <ele>147.8</ele>
        <time>2011-05-01T10:25:27Z</time>
      </trkpt>
      <trkpt lat="49.36202" lon="1.2151">
        <ele>147.5</ele>
        <time>2011-05-01T10:25:34Z</time>
      </trkpt>
      <trkpt lat="49.36239" lon="1.21535">
        <ele>147.1</ele>
        <time>2011-05-01T10:25:43Z</time>
      </trkpt>
      <trkpt lat="49.36277" lon="1.2156">
        <ele>147.2</ele>
        <time>2011-05-01T10:25:52Z</time>
      </trkpt>
      <trkpt lat="49.36314" lon="1.21586">
        <ele>147.8</ele>
        <time>2011-05-01T10:26:01Z</time>
      </trkpt>
      <trkpt lat="49.36348" lon="1.21616">
        <ele>148.5</ele>
        <time>2011-05-01T10:26:10Z</time>
      </trkpt>
      <trkpt lat="49.3638" lon="1.21645">
        <ele>148.9</ele>
        <time>2011-05-01T10:26:19Z</time>
      </trkpt>
      <trkpt lat="49.36417" lon="1.21678">
        <ele>149</ele>
        <time>2011-05-01T10:26:29Z</time>
      </trkpt>
      <trkpt lat="49.36448" lon="1.21702">
        <ele>149.2</ele>
        <time>2011-05-01T10:26:37Z</time>
      </trkpt>
      <trkpt lat="49.36494" lon="1.2173">
        <ele>149.7</ele>
        <time>2011-05-01T10:26:48Z</time>
      </trkpt>
      <trkpt lat="49.36536" lon="1.21759">
        <ele>149.7</ele>
        <time>2011-05-01T10:26:58Z</time>
      </trkpt>
      <trkpt lat="49.36578" lon="1.21796">
        <ele>149.6</ele>
        <time>2011-05-01T10:27:08Z</time>
      </trkpt>
      <trkpt lat="49.3661" lon="1.2183">
        <ele>149.6</ele>
        <time>2011-05-01T10:27:16Z</time>
      </trkpt>
      <trkpt lat="49.36653" lon="1.2188">
        <ele>149.6</ele>
        <time>2011-05-01T10:27:27Z</time>
      </trkpt>
      <trkpt lat="49.36688" lon="1.21921">
        <ele>149.8</ele>
        <time>2011-05-01T10:27:36Z</time>
      </trkpt>
      <trkpt lat="49.36721" lon="1.21958">
        <ele>149.8</ele>
        <time>2011-05-01T10:27:44Z</time>
      </trkpt>
      <trkpt lat="49.36729" lon="1.21967">
        <ele>149.9</ele>
        <time>2011-05-01T10:27:46Z</time>
      </trkpt>
      <trkpt lat="49.3674" lon="1.21965">
        <ele>149.7</ele>
        <time>2011-05-01T10:27:49Z</time>
      </trkpt>
      <trkpt lat="49.36739" lon="1.21945">
        <ele>149.5</ele>
        <time>2011-05-01T10:27:52Z</time>
      </trkpt>
      <trkpt lat="49.36719" lon="1.21876">
        <ele>148.9</ele>
        <time>2011-05-01T10:28:01Z</time>
      </trkpt>
      <trkpt lat="49.36717" lon="1.21859">
        <ele>148.7</ele>
        <time>2011-05-01T10:28:03Z</time>
      </trkpt>
      <trkpt lat="49.36724" lon="1.21826">
        <ele>148.1</ele>
        <time>2011-05-01T10:28:07Z</time>
      </trkpt>
      <trkpt lat="49.36739" lon="1.2181">
        <ele>147.3</ele>
        <time>2011-05-01T10:28:10Z</time>
      </trkpt>
      <trkpt lat="49.36786" lon="1.2176">
        <ele>144.8</ele>
        <time>2011-05-01T10:28:18Z</time>
      </trkpt>
      <trkpt lat="49.36836" lon="1.21712">
        <ele>142.7</ele>
        <time>2011-05-01T10:28:25Z</time>
      </trkpt>
      <trkpt lat="49.36887" lon="1.21667">
        <ele>142.3</ele>
        <time>2011-05-01T10:28:32Z</time>
      </trkpt>
      <trkpt lat="49.36898" lon="1.21655">
        <ele>142.7</ele>
        <time>2011-05-01T10:28:35Z</time>
      </trkpt>
      <trkpt lat="49.36901" lon="1.21653">
        <ele>142.8</ele>
        <time>2011-05-01T10:28:36Z</time>
      </trkpt>
      <trkpt lat="49.36915" lon="1.21645">
        <ele>143.2</ele>
        <time>2011-05-01T10:28:41Z</time>
      </trkpt>
      <trkpt lat="49.36944" lon="1.21619">
        <ele>143.6</ele>
        <time>2011-05-01T10:28:48Z</time>
      </trkpt>
      <trkpt lat="49.36972" lon="1.21593">
        <ele>143.9</ele>
        <time>2011-05-01T10:28:55Z</time>
      </trkpt>
      <trkpt lat="49.37006" lon="1.21559">
        <ele>145</ele>
        <time>2011-05-01T10:29:04Z</time>
      </trkpt>
      <trkpt lat="49.37042" lon="1.21521">
        <ele>146.9</ele>
        <time>2011-05-01T10:29:13Z</time>
      </trkpt>
      <trkpt lat="49.37074" lon="1.21482">
        <ele>149</ele>
        <time>2011-05-01T10:29:21Z</time>
      </trkpt>
      <trkpt lat="49.37111" lon="1.21444">
        <ele>152.5</ele>
        <time>2011-05-01T10:29:29Z</time>
      </trkpt>
      <trkpt lat="49.3714" lon="1.21427">
        <ele>154.1</ele>
        <time>2011-05-01T10:29:35Z</time>
      </trkpt>
      <trkpt lat="49.37163" lon="1.21416">
        <ele>154.9</ele>
        <time>2011-05-01T10:29:40Z</time>
      </trkpt>
      <trkpt lat="49.37185" lon="1.21412">
        <ele>154.2</ele>
        <time>2011-05-01T10:29:45Z</time>
      </trkpt>
      <trkpt lat="49.37209" lon="1.21395">
        <ele>152.4</ele>
        <time>2011-05-01T10:29:51Z</time>
      </trkpt>
      <trkpt lat="49.37216" lon="1.21386">
        <ele>151.6</ele>
        <time>2011-05-01T10:29:53Z</time>
      </trkpt>
      <trkpt lat="49.37232" lon="1.21378">
        <ele>150.3</ele>
        <time>2011-05-01T10:29:58Z</time>
      </trkpt>
      <trkpt lat="49.37235" lon="1.21378">
        <ele>150.1</ele>
        <time>2011-05-01T10:29:59Z</time>
      </trkpt>
      <trkpt lat="49.3726" lon="1.21371">
        <ele>147.8</ele>
        <time>2011-05-01T10:30:05Z</time>
      </trkpt>
      <trkpt lat="49.37266" lon="1.21371">
        <ele>147.4</ele>
        <time>2011-05-01T10:30:06Z</time>
      </trkpt>
      <trkpt lat="49.3729" lon="1.21357">
        <ele>144.5</ele>
        <time>2011-05-01T10:30:11Z</time>
      </trkpt>
      <trkpt lat="49.37299" lon="1.2135">
        <ele>143.5</ele>
        <time>2011-05-01T10:30:13Z</time>
      </trkpt>
      <trkpt lat="49.37328" lon="1.2134">
        <ele>140.7</ele>
        <time>2011-05-01T10:30:18Z</time>
      </trkpt>
      <trkpt lat="49.37341" lon="1.2134">
        <ele>140.4</ele>
        <time>2011-05-01T10:30:20Z</time>
      </trkpt>
      <trkpt lat="49.37365" lon="1.21348">
        <ele>141.1</ele>
        <time>2011-05-01T10:30:24Z</time>
      </trkpt>
      <trkpt lat="49.37388" lon="1.21371">
        <ele>142.5</ele>
        <time>2011-05-01T10:30:29Z</time>
      </trkpt>
      <trkpt lat="49.37398" lon="1.21371">
        <ele>142.6</ele>
        <time>2011-05-01T10:30:32Z</time>
      </trkpt>
      <trkpt lat="49.37409" lon="1.21368">
        <ele>142.6</ele>
        <time>2011-05-01T10:30:36Z</time>
      </trkpt>
      <trkpt lat="49.37421" lon="1.21361">
        <ele>142.2</ele>
        <time>2011-05-01T10:30:41Z</time>
      </trkpt>
      <trkpt lat="49.37426" lon="1.21363">
        <ele>142.3</ele>
        <time>2011-05-01T10:30:43Z</time>
      </trkpt>
      <trkpt lat="49.37442" lon="1.21366">
        <ele>142.3</ele>
        <time>2011-05-01T10:30:49Z</time>
      </trkpt>
      <trkpt lat="49.37457" lon="1.21355">
        <ele>141.8</ele>
        <time>2011-05-01T10:30:54Z</time>
      </trkpt>
      <trkpt lat="49.37473" lon="1.21347">
        <ele>141.4</ele>
        <time>2011-05-01T10:30:59Z</time>
      </trkpt>
      <trkpt lat="49.37493" lon="1.21337">
        <ele>141.1</ele>
        <time>2011-05-01T10:31:04Z</time>
      </trkpt>
      <trkpt lat="49.37503" lon="1.21336">
        <ele>141.1</ele>
        <time>2011-05-01T10:31:06Z</time>
      </trkpt>
      <trkpt lat="49.37511" lon="1.21333">
        <ele>141.1</ele>
        <time>2011-05-01T10:31:08Z</time>
      </trkpt>
      <trkpt lat="49.37525" lon="1.21329">
        <ele>141.4</ele>
        <time>2011-05-01T10:31:11Z</time>
      </trkpt>
      <trkpt lat="49.37533" lon="1.21326">
        <ele>141.5</ele>
        <time>2011-05-01T10:31:13Z</time>
      </trkpt>
      <trkpt lat="49.37544" lon="1.21326">
        <ele>141.7</ele>
        <time>2011-05-01T10:31:16Z</time>
      </trkpt>
      <trkpt lat="49.3757" lon="1.21337">
        <ele>141.9</ele>
        <time>2011-05-01T10:31:23Z</time>
      </trkpt>
      <trkpt lat="49.37584" lon="1.21342">
        <ele>142</ele>
        <time>2011-05-01T10:31:28Z</time>
      </trkpt>
      <trkpt lat="49.37601" lon="1.21342">
        <ele>142.9</ele>
        <time>2011-05-01T10:31:34Z</time>
      </trkpt>
      <trkpt lat="49.37613" lon="1.21341">
        <ele>143.4</ele>
        <time>2011-05-01T10:31:39Z</time>
      </trkpt>
      <trkpt lat="49.37626" lon="1.21338">
        <ele>144.1</ele>
        <time>2011-05-01T10:31:44Z</time>
      </trkpt>
      <trkpt lat="49.37647" lon="1.21327">
        <ele>145.1</ele>
        <time>2011-05-01T10:31:51Z</time>
      </trkpt>
      <trkpt lat="49.37668" lon="1.21317">
        <ele>146.3</ele>
        <time>2011-05-01T10:31:59Z</time>
      </trkpt>
      <trkpt lat="49.37688" lon="1.21306">
        <ele>147.3</ele>
        <time>2011-05-01T10:32:07Z</time>
      </trkpt>
      <trkpt lat="49.37715" lon="1.21291">
        <ele>148.8</ele>
        <time>2011-05-01T10:32:18Z</time>
      </trkpt>
      <trkpt lat="49.37743" lon="1.21277">
        <ele>150.3</ele>
        <time>2011-05-01T10:32:28Z</time>
      </trkpt>
      <trkpt lat="49.37767" lon="1.21264">
        <ele>151.1</ele>
        <time>2011-05-01T10:32:37Z</time>
      </trkpt>
      <trkpt lat="49.37789" lon="1.21248">
        <ele>151.4</ele>
        <time>2011-05-01T10:32:46Z</time>
      </trkpt>
      <trkpt lat="49.37809" lon="1.21227">
        <ele>151.4</ele>
        <time>2011-05-01T10:32:55Z</time>
      </trkpt>
      <trkpt lat="49.3783" lon="1.21199">
        <ele>151.3</ele>
        <time>2011-05-01T10:33:04Z</time>
      </trkpt>
      <trkpt lat="49.3785" lon="1.21173">
        <ele>150.9</ele>
        <time>2011-05-01T10:33:12Z</time>
      </trkpt>
      <trkpt lat="49.37872" lon="1.21142">
        <ele>150</ele>
        <time>2011-05-01T10:33:20Z</time>
      </trkpt>
      <trkpt lat="49.37893" lon="1.21116">
        <ele>148.8</ele>
        <time>2011-05-01T10:33:27Z</time>
      </trkpt>
      <trkpt lat="49.37924" lon="1.21088">
        <ele>147</ele>
        <time>2011-05-01T10:33:36Z</time>
      </trkpt>
      <trkpt lat="49.37957" lon="1.21054">
        <ele>145.5</ele>
        <time>2011-05-01T10:33:44Z</time>
      </trkpt>
      <trkpt lat="49.3799" lon="1.21012">
        <ele>143.6</ele>
        <time>2011-05-01T10:33:51Z</time>
      </trkpt>
      <trkpt lat="49.38019" lon="1.20958">
        <ele>143.7</ele>
        <time>2011-05-01T10:33:58Z</time>
      </trkpt>
      <trkpt lat="49.38044" lon="1.209">
        <ele>144.5</ele>
        <time>2011-05-01T10:34:05Z</time>
      </trkpt>
      <trkpt lat="49.38069" lon="1.20827">
        <ele>144.6</ele>
        <time>2011-05-01T10:34:14Z</time>
      </trkpt>
      <trkpt lat="49.38096" lon="1.20769">
        <ele>145.6</ele>
        <time>2011-05-01T10:34:22Z</time>
      </trkpt>
      <trkpt lat="49.38127" lon="1.20726">
        <ele>146.8</ele>
        <time>2011-05-01T10:34:30Z</time>
      </trkpt>
      <trkpt lat="49.38166" lon="1.20673">
        <ele>148</ele>
        <time>2011-05-01T10:34:40Z</time>
      </trkpt>
      <trkpt lat="49.38188" lon="1.20642">
        <ele>148.9</ele>
        <time>2011-05-01T10:34:47Z</time>
      </trkpt>
      <trkpt lat="49.38208" lon="1.20618">
        <ele>149.7</ele>
        <time>2011-05-01T10:34:54Z</time>
      </trkpt>
      <trkpt lat="49.38232" lon="1.2059">
        <ele>150.4</ele>
        <time>2011-05-01T10:35:01Z</time>
      </trkpt>
      <trkpt lat="49.38272" lon="1.20553">
        <ele>151.8</ele>
        <time>2011-05-01T10:35:11Z</time>
      </trkpt>
      <trkpt lat="49.38304" lon="1.20526">
        <ele>153.4</ele>
        <time>2011-05-01T10:35:19Z</time>
      </trkpt>
      <trkpt lat="49.38337" lon="1.20488">
        <ele>155</ele>
        <time>2011-05-01T10:35:28Z</time>
      </trkpt>
      <trkpt lat="49.38363" lon="1.20454">
        <ele>155.4</ele>
        <time>2011-05-01T10:35:36Z</time>
      </trkpt>
      <trkpt lat="49.38366" lon="1.20442">
        <ele>155.4</ele>
        <time>2011-05-01T10:35:40Z</time>
      </trkpt>
      <trkpt lat="49.38364" lon="1.20438">
        <ele>155.4</ele>
        <time>2011-05-01T10:35:41Z</time>
      </trkpt>
      <trkpt lat="49.38337" lon="1.20387">
        <ele>154.3</ele>
        <time>2011-05-01T10:35:50Z</time>
      </trkpt>
      <trkpt lat="49.38313" lon="1.20346">
        <ele>152.5</ele>
        <time>2011-05-01T10:35:56Z</time>
      </trkpt>
      <trkpt lat="49.38309" lon="1.20338">
        <ele>152.2</ele>
        <time>2011-05-01T10:35:57Z</time>
      </trkpt>
      <trkpt lat="49.38299" lon="1.20313">
        <ele>151.8</ele>
        <time>2011-05-01T10:36:00Z</time>
      </trkpt>
      <trkpt lat="49.38287" lon="1.20245">
        <ele>151.5</ele>
        <time>2011-05-01T10:36:07Z</time>
      </trkpt>
      <trkpt lat="49.38274" lon="1.20166">
        <ele>153.3</ele>
        <time>2011-05-01T10:36:15Z</time>
      </trkpt>
      <trkpt lat="49.38256" lon="1.20093">
        <ele>154</ele>
        <time>2011-05-01T10:36:23Z</time>
      </trkpt>
      <trkpt lat="49.38231" lon="1.2002">
        <ele>154.5</ele>
        <time>2011-05-01T10:36:32Z</time>
      </trkpt>
      <trkpt lat="49.38218" lon="1.1999">
        <ele>154.7</ele>
        <time>2011-05-01T10:36:36Z</time>
      </trkpt>
      <trkpt lat="49.38204" lon="1.19963">
        <ele>154.9</ele>
        <time>2011-05-01T10:36:40Z</time>
      </trkpt>
      <trkpt lat="49.38194" lon="1.19944">
        <ele>155</ele>
        <time>2011-05-01T10:36:43Z</time>
      </trkpt>
      <trkpt lat="49.38188" lon="1.19932">
        <ele>155.1</ele>
        <time>2011-05-01T10:36:45Z</time>
      </trkpt>
      <trkpt lat="49.38176" lon="1.19909">
        <ele>155</ele>
        <time>2011-05-01T10:36:49Z</time>
      </trkpt>
      <trkpt lat="49.38152" lon="1.19865">
        <ele>154.3</ele>
        <time>2011-05-01T10:36:57Z</time>
      </trkpt>
      <trkpt lat="49.38121" lon="1.19813">
        <ele>154</ele>
        <time>2011-05-01T10:37:06Z</time>
      </trkpt>
      <trkpt lat="49.38115" lon="1.19803">
        <ele>154</ele>
        <time>2011-05-01T10:37:08Z</time>
      </trkpt>
      <trkpt lat="49.38106" lon="1.19786">
        <ele>154</ele>
        <time>2011-05-01T10:37:11Z</time>
      </trkpt>
      <trkpt lat="49.381" lon="1.19771">
        <ele>154</ele>
        <time>2011-05-01T10:37:15Z</time>
      </trkpt>
      <trkpt lat="49.38084" lon="1.19753">
        <ele>154</ele>
        <time>2011-05-01T10:37:21Z</time>
      </trkpt>
      <trkpt lat="49.38067" lon="1.19724">
        <ele>153.8</ele>
        <time>2011-05-01T10:37:27Z</time>
      </trkpt>
      <trkpt lat="49.38047" lon="1.19685">
        <ele>153.6</ele>
        <time>2011-05-01T10:37:34Z</time>
      </trkpt>
      <trkpt lat="49.38025" lon="1.19648">
        <ele>153.3</ele>
        <time>2011-05-01T10:37:40Z</time>
      </trkpt>
      <trkpt lat="49.38005" lon="1.19612">
        <ele>153.1</ele>
        <time>2011-05-01T10:37:45Z</time>
      </trkpt>
      <trkpt lat="49.37984" lon="1.19592">
        <ele>153</ele>
        <time>2011-05-01T10:37:49Z</time>
      </trkpt>
      <trkpt lat="49.37936" lon="1.19571">
        <ele>153</ele>
        <time>2011-05-01T10:37:56Z</time>
      </trkpt>
      <trkpt lat="49.37883" lon="1.1955">
        <ele>152.4</ele>
        <time>2011-05-01T10:38:04Z</time>
      </trkpt>
      <trkpt lat="49.37821" lon="1.19524">
        <ele>151.1</ele>
        <time>2011-05-01T10:38:14Z</time>
      </trkpt>
      <trkpt lat="49.37767" lon="1.19507">
        <ele>150.2</ele>
        <time>2011-05-01T10:38:22Z</time>
      </trkpt>
      <trkpt lat="49.3772" lon="1.195">
        <ele>149.6</ele>
        <time>2011-05-01T10:38:29Z</time>
      </trkpt>
      <trkpt lat="49.37667" lon="1.19495">
        <ele>148.9</ele>
        <time>2011-05-01T10:38:38Z</time>
      </trkpt>
      <trkpt lat="49.37626" lon="1.19491">
        <ele>148.8</ele>
        <time>2011-05-01T10:38:46Z</time>
      </trkpt>
      <trkpt lat="49.37577" lon="1.19486">
        <ele>148.7</ele>
        <time>2011-05-01T10:38:56Z</time>
      </trkpt>
      <trkpt lat="49.37532" lon="1.19483">
        <ele>149.3</ele>
        <time>2011-05-01T10:39:05Z</time>
      </trkpt>
      <trkpt lat="49.3748" lon="1.1948">
        <ele>150</ele>
        <time>2011-05-01T10:39:15Z</time>
      </trkpt>
      <trkpt lat="49.37452" lon="1.19481">
        <ele>150.3</ele>
        <time>2011-05-01T10:39:21Z</time>
      </trkpt>
      <trkpt lat="49.37422" lon="1.19484">
        <ele>150.7</ele>
        <time>2011-05-01T10:39:27Z</time>
      </trkpt>
      <trkpt lat="49.3737" lon="1.19498">
        <ele>150.4</ele>
        <time>2011-05-01T10:39:37Z</time>
      </trkpt>
      <trkpt lat="49.37331" lon="1.19511">
        <ele>149.7</ele>
        <time>2011-05-01T10:39:44Z</time>
      </trkpt>
      <trkpt lat="49.37285" lon="1.19525">
        <ele>148.4</ele>
        <time>2011-05-01T10:39:52Z</time>
      </trkpt>
      <trkpt lat="49.37241" lon="1.19539">
        <ele>147.2</ele>
        <time>2011-05-01T10:39:59Z</time>
      </trkpt>
      <trkpt lat="49.37202" lon="1.19553">
        <ele>145.7</ele>
        <time>2011-05-01T10:40:05Z</time>
      </trkpt>
      <trkpt lat="49.37163" lon="1.1956">
        <ele>144.1</ele>
        <time>2011-05-01T10:40:11Z</time>
      </trkpt>
      <trkpt lat="49.3712" lon="1.19566">
        <ele>142.1</ele>
        <time>2011-05-01T10:40:18Z</time>
      </trkpt>
      <trkpt lat="49.37115" lon="1.19566">
        <ele>141.9</ele>
        <time>2011-05-01T10:40:19Z</time>
      </trkpt>
      <trkpt lat="49.37082" lon="1.19569">
        <ele>140.4</ele>
        <time>2011-05-01T10:40:25Z</time>
      </trkpt>
      <trkpt lat="49.37055" lon="1.19574">
        <ele>140.5</ele>
        <time>2011-05-01T10:40:30Z</time>
      </trkpt>
      <trkpt lat="49.37049" lon="1.19576">
        <ele>140.6</ele>
        <time>2011-05-01T10:40:31Z</time>
      </trkpt>
      <trkpt lat="49.37011" lon="1.19587">
        <ele>141</ele>
        <time>2011-05-01T10:40:37Z</time>
      </trkpt>
      <trkpt lat="49.36978" lon="1.19599">
        <ele>140.9</ele>
        <time>2011-05-01T10:40:42Z</time>
      </trkpt>
      <trkpt lat="49.36957" lon="1.19607">
        <ele>140.4</ele>
        <time>2011-05-01T10:40:45Z</time>
      </trkpt>
      <trkpt lat="49.36943" lon="1.19614">
        <ele>140</ele>
        <time>2011-05-01T10:40:47Z</time>
      </trkpt>
      <trkpt lat="49.36906" lon="1.19626">
        <ele>137.9</ele>
        <time>2011-05-01T10:40:52Z</time>
      </trkpt>
      <trkpt lat="49.36901" lon="1.19629">
        <ele>137.3</ele>
        <time>2011-05-01T10:40:53Z</time>
      </trkpt>
      <trkpt lat="49.36886" lon="1.19643">
        <ele>135.3</ele>
        <time>2011-05-01T10:40:57Z</time>
      </trkpt>
      <trkpt lat="49.36881" lon="1.1965">
        <ele>134.6</ele>
        <time>2011-05-01T10:40:59Z</time>
      </trkpt>
      <trkpt lat="49.36868" lon="1.19667">
        <ele>132.5</ele>
        <time>2011-05-01T10:41:03Z</time>
      </trkpt>
      <trkpt lat="49.36854" lon="1.19683">
        <ele>129.2</ele>
        <time>2011-05-01T10:41:06Z</time>
      </trkpt>
      <trkpt lat="49.36833" lon="1.19707">
        <ele>123.2</ele>
        <time>2011-05-01T10:41:09Z</time>
      </trkpt>
      <trkpt lat="49.36812" lon="1.19735">
        <ele>117</ele>
        <time>2011-05-01T10:41:12Z</time>
      </trkpt>
      <trkpt lat="49.3679" lon="1.19745">
        <ele>112.9</ele>
        <time>2011-05-01T10:41:17Z</time>
      </trkpt>
      <trkpt lat="49.36772" lon="1.19742">
        <ele>110.9</ele>
        <time>2011-05-01T10:41:20Z</time>
      </trkpt>
      <trkpt lat="49.3675" lon="1.19736">
        <ele>108.7</ele>
        <time>2011-05-01T10:41:24Z</time>
      </trkpt>
      <trkpt lat="49.36728" lon="1.19733">
        <ele>107</ele>
        <time>2011-05-01T10:41:29Z</time>
      </trkpt>
      <trkpt lat="49.36705" lon="1.19729">
        <ele>105.3</ele>
        <time>2011-05-01T10:41:33Z</time>
      </trkpt>
      <trkpt lat="49.36692" lon="1.1973">
        <ele>103.9</ele>
        <time>2011-05-01T10:41:35Z</time>
      </trkpt>
      <trkpt lat="49.3668" lon="1.19736">
        <ele>102.3</ele>
        <time>2011-05-01T10:41:37Z</time>
      </trkpt>
      <trkpt lat="49.3667" lon="1.19765">
        <ele>100.7</ele>
        <time>2011-05-01T10:41:41Z</time>
      </trkpt>
      <trkpt lat="49.3666" lon="1.19792">
        <ele>100.9</ele>
        <time>2011-05-01T10:41:44Z</time>
      </trkpt>
      <trkpt lat="49.3661" lon="1.19844">
        <ele>101.3</ele>
        <time>2011-05-01T10:41:51Z</time>
      </trkpt>
      <trkpt lat="49.36603" lon="1.19849">
        <ele>101.8</ele>
        <time>2011-05-01T10:41:52Z</time>
      </trkpt>
      <trkpt lat="49.36554" lon="1.1987">
        <ele>101.2</ele>
        <time>2011-05-01T10:41:58Z</time>
      </trkpt>
      <trkpt lat="49.36516" lon="1.19872">
        <ele>97.3</ele>
        <time>2011-05-01T10:42:03Z</time>
      </trkpt>
      <trkpt lat="49.36489" lon="1.19862">
        <ele>92.8</ele>
        <time>2011-05-01T10:42:07Z</time>
      </trkpt>
      <trkpt lat="49.36477" lon="1.19858">
        <ele>91.4</ele>
        <time>2011-05-01T10:42:09Z</time>
      </trkpt>
      <trkpt lat="49.36465" lon="1.19856">
        <ele>90.3</ele>
        <time>2011-05-01T10:42:11Z</time>
      </trkpt>
      <trkpt lat="49.36442" lon="1.19865">
        <ele>90.6</ele>
        <time>2011-05-01T10:42:15Z</time>
      </trkpt>
      <trkpt lat="49.36422" lon="1.19884">
        <ele>92.8</ele>
        <time>2011-05-01T10:42:19Z</time>
      </trkpt>
      <trkpt lat="49.36403" lon="1.1992">
        <ele>97.5</ele>
        <time>2011-05-01T10:42:24Z</time>
      </trkpt>
      <trkpt lat="49.36392" lon="1.19947">
        <ele>100.7</ele>
        <time>2011-05-01T10:42:27Z</time>
      </trkpt>
      <trkpt lat="49.36379" lon="1.19998">
        <ele>106.1</ele>
        <time>2011-05-01T10:42:33Z</time>
      </trkpt>
      <trkpt lat="49.36372" lon="1.20024">
        <ele>107.5</ele>
        <time>2011-05-01T10:42:36Z</time>
      </trkpt>
      <trkpt lat="49.36361" lon="1.20052">
        <ele>108.2</ele>
        <time>2011-05-01T10:42:40Z</time>
      </trkpt>
      <trkpt lat="49.36343" lon="1.2011">
        <ele>110.5</ele>
        <time>2011-05-01T10:42:47Z</time>
      </trkpt>
      <trkpt lat="49.36329" lon="1.20145">
        <ele>111.8</ele>
        <time>2011-05-01T10:42:51Z</time>
      </trkpt>
      <trkpt lat="49.36302" lon="1.20179">
        <ele>107.8</ele>
        <time>2011-05-01T10:42:57Z</time>
      </trkpt>
      <trkpt lat="49.36287" lon="1.20206">
        <ele>106</ele>
        <time>2011-05-01T10:43:02Z</time>
      </trkpt>
      <trkpt lat="49.36275" lon="1.20239">
        <ele>105.9</ele>
        <time>2011-05-01T10:43:07Z</time>
      </trkpt>
      <trkpt lat="49.3627" lon="1.20256">
        <ele>105.9</ele>
        <time>2011-05-01T10:43:09Z</time>
      </trkpt>
      <trkpt lat="49.36256" lon="1.20305">
        <ele>102.9</ele>
        <time>2011-05-01T10:43:15Z</time>
      </trkpt>
      <trkpt lat="49.36253" lon="1.2033">
        <ele>102.6</ele>
        <time>2011-05-01T10:43:18Z</time>
      </trkpt>
      <trkpt lat="49.36259" lon="1.20366">
        <ele>101.3</ele>
        <time>2011-05-01T10:43:23Z</time>
      </trkpt>
      <trkpt lat="49.36261" lon="1.20372">
        <ele>101.1</ele>
        <time>2011-05-01T10:43:24Z</time>
      </trkpt>
      <trkpt lat="49.36261" lon="1.20392">
        <ele>99.2</ele>
        <time>2011-05-01T10:43:27Z</time>
      </trkpt>
      <trkpt lat="49.36262" lon="1.20413">
        <ele>97.5</ele>
        <time>2011-05-01T10:43:32Z</time>
      </trkpt>
      <trkpt lat="49.36261" lon="1.20412">
        <ele>97.4</ele>
        <time>2011-05-01T10:43:37Z</time>
      </trkpt>
      <trkpt lat="49.36255" lon="1.20409">
        <ele>96</ele>
        <time>2011-05-01T10:43:41Z</time>
      </trkpt>
      <trkpt lat="49.36235" lon="1.20398">
        <ele>93.9</ele>
        <time>2011-05-01T10:43:47Z</time>
      </trkpt>
      <trkpt lat="49.36216" lon="1.20391">
        <ele>91.9</ele>
        <time>2011-05-01T10:43:51Z</time>
      </trkpt>
      <trkpt lat="49.36211" lon="1.2039">
        <ele>91.1</ele>
        <time>2011-05-01T10:43:52Z</time>
      </trkpt>
      <trkpt lat="49.36175" lon="1.20375">
        <ele>86.3</ele>
        <time>2011-05-01T10:43:59Z</time>
      </trkpt>
      <trkpt lat="49.36151" lon="1.20356">
        <ele>84.7</ele>
        <time>2011-05-01T10:44:04Z</time>
      </trkpt>
      <trkpt lat="49.36121" lon="1.20326">
        <ele>82.4</ele>
        <time>2011-05-01T10:44:11Z</time>
      </trkpt>
      <trkpt lat="49.36095" lon="1.203">
        <ele>79.6</ele>
        <time>2011-05-01T10:44:17Z</time>
      </trkpt>
      <trkpt lat="49.3607" lon="1.20275">
        <ele>77.8</ele>
        <time>2011-05-01T10:44:23Z</time>
      </trkpt>
      <trkpt lat="49.36057" lon="1.20264">
        <ele>77.1</ele>
        <time>2011-05-01T10:44:26Z</time>
      </trkpt>
      <trkpt lat="49.36046" lon="1.20253">
        <ele>76.2</ele>
        <time>2011-05-01T10:44:31Z</time>
      </trkpt>
      <trkpt lat="49.36041" lon="1.20248">
        <ele>76.1</ele>
        <time>2011-05-01T10:44:33Z</time>
      </trkpt>
      <trkpt lat="49.36016" lon="1.20236">
        <ele>76.2</ele>
        <time>2011-05-01T10:44:40Z</time>
      </trkpt>
      <trkpt lat="49.35993" lon="1.20227">
        <ele>76.7</ele>
        <time>2011-05-01T10:44:45Z</time>
      </trkpt>
      <trkpt lat="49.3598" lon="1.20226">
        <ele>77.6</ele>
        <time>2011-05-01T10:44:48Z</time>
      </trkpt>
      <trkpt lat="49.35959" lon="1.2022">
        <ele>78.9</ele>
        <time>2011-05-01T10:44:52Z</time>
      </trkpt>
      <trkpt lat="49.35939" lon="1.20214">
        <ele>80</ele>
        <time>2011-05-01T10:44:56Z</time>
      </trkpt>
      <trkpt lat="49.3593" lon="1.20212">
        <ele>80.4</ele>
        <time>2011-05-01T10:44:58Z</time>
      </trkpt>
      <trkpt lat="49.35902" lon="1.20197">
        <ele>81.2</ele>
        <time>2011-05-01T10:45:05Z</time>
      </trkpt>
      <trkpt lat="49.35898" lon="1.20184">
        <ele>80.7</ele>
        <time>2011-05-01T10:45:09Z</time>
      </trkpt>
      <trkpt lat="49.35895" lon="1.20171">
        <ele>80.2</ele>
        <time>2011-05-01T10:45:12Z</time>
      </trkpt>
      <trkpt lat="49.35893" lon="1.20153">
        <ele>81.7</ele>
        <time>2011-05-01T10:45:16Z</time>
      </trkpt>
      <trkpt lat="49.35889" lon="1.20135">
        <ele>84.1</ele>
        <time>2011-05-01T10:45:21Z</time>
      </trkpt>
      <trkpt lat="49.35889" lon="1.20122">
        <ele>85.5</ele>
        <time>2011-05-01T10:45:25Z</time>
      </trkpt>
      <trkpt lat="49.35889" lon="1.20119">
        <ele>85.9</ele>
        <time>2011-05-01T10:45:29Z</time>
      </trkpt>
      <trkpt lat="49.35889" lon="1.20115">
        <ele>86.4</ele>
        <time>2011-05-01T10:45:34Z</time>
      </trkpt>
      <trkpt lat="49.35894" lon="1.20108">
        <ele>87</ele>
        <time>2011-05-01T10:45:40Z</time>
      </trkpt>
      <trkpt lat="49.35897" lon="1.20102">
        <ele>87.6</ele>
        <time>2011-05-01T10:45:45Z</time>
      </trkpt>
      <trkpt lat="49.35896" lon="1.20093">
        <ele>88.7</ele>
        <time>2011-05-01T10:45:53Z</time>
      </trkpt>
      <trkpt lat="49.35898" lon="1.20089">
        <ele>89.1</ele>
        <time>2011-05-01T10:45:57Z</time>
      </trkpt>
      <trkpt lat="49.359" lon="1.20085">
        <ele>89.5</ele>
        <time>2011-05-01T10:46:03Z</time>
      </trkpt>
      <trkpt lat="49.35906" lon="1.20077">
        <ele>90</ele>
        <time>2011-05-01T10:46:10Z</time>
      </trkpt>
      <trkpt lat="49.35911" lon="1.20067">
        <ele>90.7</ele>
        <time>2011-05-01T10:46:17Z</time>
      </trkpt>
      <trkpt lat="49.35912" lon="1.20061">
        <ele>91.1</ele>
        <time>2011-05-01T10:46:24Z</time>
      </trkpt>
      <trkpt lat="49.35913" lon="1.20053">
        <ele>91.8</ele>
        <time>2011-05-01T10:46:30Z</time>
      </trkpt>
      <trkpt lat="49.35914" lon="1.20045">
        <ele>92.4</ele>
        <time>2011-05-01T10:46:36Z</time>
      </trkpt>
      <trkpt lat="49.35917" lon="1.20033">
        <ele>93.3</ele>
        <time>2011-05-01T10:46:43Z</time>
      </trkpt>
      <trkpt lat="49.35918" lon="1.2003">
        <ele>93.5</ele>
        <time>2011-05-01T10:46:45Z</time>
      </trkpt>
      <trkpt lat="49.35926" lon="1.2003">
        <ele>92.9</ele>
        <time>2011-05-01T10:46:52Z</time>
      </trkpt>
      <trkpt lat="49.35936" lon="1.20031">
        <ele>92.2</ele>
        <time>2011-05-01T10:46:59Z</time>
      </trkpt>
      <trkpt lat="49.35945" lon="1.20031">
        <ele>91.6</ele>
        <time>2011-05-01T10:47:04Z</time>
      </trkpt>
      <trkpt lat="49.35954" lon="1.20032">
        <ele>91</ele>
        <time>2011-05-01T10:47:09Z</time>
      </trkpt>
      <trkpt lat="49.35961" lon="1.20027">
        <ele>91</ele>
        <time>2011-05-01T10:47:15Z</time>
      </trkpt>
      <trkpt lat="49.35963" lon="1.20024">
        <ele>91.1</ele>
        <time>2011-05-01T10:47:20Z</time>
      </trkpt>
      <trkpt lat="49.3597" lon="1.20018">
        <ele>91.2</ele>
        <time>2011-05-01T10:47:29Z</time>
      </trkpt>
      <trkpt lat="49.35975" lon="1.20013">
        <ele>91.4</ele>
        <time>2011-05-01T10:47:35Z</time>
      </trkpt>
      <trkpt lat="49.35978" lon="1.20008">
        <ele>91.6</ele>
        <time>2011-05-01T10:47:41Z</time>
      </trkpt>
      <trkpt lat="49.35983" lon="1.20003">
        <ele>91.8</ele>
        <time>2011-05-01T10:47:48Z</time>
      </trkpt>
      <trkpt lat="49.35988" lon="1.20002">
        <ele>91.6</ele>
        <time>2011-05-01T10:47:54Z</time>
      </trkpt>
      <trkpt lat="49.35992" lon="1.19996">
        <ele>91.9</ele>
        <time>2011-05-01T10:48:00Z</time>
      </trkpt>
      <trkpt lat="49.3599" lon="1.19993">
        <ele>92.3</ele>
        <time>2011-05-01T10:48:03Z</time>
      </trkpt>
      <trkpt lat="49.35988" lon="1.1999">
        <ele>92.8</ele>
        <time>2011-05-01T10:48:06Z</time>
      </trkpt>
      <trkpt lat="49.35986" lon="1.19979">
        <ele>93.9</ele>
        <time>2011-05-01T10:48:11Z</time>
      </trkpt>
      <trkpt lat="49.35988" lon="1.19962">
        <ele>95.5</ele>
        <time>2011-05-01T10:48:16Z</time>
      </trkpt>
      <trkpt lat="49.3599" lon="1.19936">
        <ele>98</ele>
        <time>2011-05-01T10:48:21Z</time>
      </trkpt>
      <trkpt lat="49.35986" lon="1.19902">
        <ele>101.2</ele>
        <time>2011-05-01T10:48:26Z</time>
      </trkpt>
      <trkpt lat="49.35986" lon="1.19881">
        <ele>102.9</ele>
        <time>2011-05-01T10:48:29Z</time>
      </trkpt>
      <trkpt lat="49.35987" lon="1.19852">
        <ele>105.5</ele>
        <time>2011-05-01T10:48:34Z</time>
      </trkpt>
      <trkpt lat="49.35988" lon="1.19809">
        <ele>108.1</ele>
        <time>2011-05-01T10:48:41Z</time>
      </trkpt>
      <trkpt lat="49.35988" lon="1.19785">
        <ele>109.1</ele>
        <time>2011-05-01T10:48:46Z</time>
      </trkpt>
      <trkpt lat="49.35994" lon="1.19757">
        <ele>110.5</ele>
        <time>2011-05-01T10:48:51Z</time>
      </trkpt>
      <trkpt lat="49.36002" lon="1.19722">
        <ele>111.3</ele>
        <time>2011-05-01T10:48:57Z</time>
      </trkpt>
      <trkpt lat="49.36007" lon="1.1969">
        <ele>112.1</ele>
        <time>2011-05-01T10:49:03Z</time>
      </trkpt>
      <trkpt lat="49.36015" lon="1.1966">
        <ele>113.4</ele>
        <time>2011-05-01T10:49:08Z</time>
      </trkpt>
      <trkpt lat="49.36024" lon="1.19627">
        <ele>114.4</ele>
        <time>2011-05-01T10:49:13Z</time>
      </trkpt>
      <trkpt lat="49.36032" lon="1.19588">
        <ele>115.2</ele>
        <time>2011-05-01T10:49:19Z</time>
      </trkpt>
      <trkpt lat="49.36036" lon="1.19571">
        <ele>115.6</ele>
        <time>2011-05-01T10:49:22Z</time>
      </trkpt>
      <trkpt lat="49.36042" lon="1.1955">
        <ele>116.3</ele>
        <time>2011-05-01T10:49:26Z</time>
      </trkpt>
      <trkpt lat="49.36048" lon="1.19512">
        <ele>116.4</ele>
        <time>2011-05-01T10:49:33Z</time>
      </trkpt>
      <trkpt lat="49.36058" lon="1.19465">
        <ele>118.3</ele>
        <time>2011-05-01T10:49:41Z</time>
      </trkpt>
      <trkpt lat="49.36068" lon="1.19434">
        <ele>120</ele>
        <time>2011-05-01T10:49:47Z</time>
      </trkpt>
      <trkpt lat="49.36074" lon="1.19418">
        <ele>120.9</ele>
        <time>2011-05-01T10:49:51Z</time>
      </trkpt>
      <trkpt lat="49.36077" lon="1.1939">
        <ele>120.9</ele>
        <time>2011-05-01T10:49:58Z</time>
      </trkpt>
      <trkpt lat="49.3608" lon="1.19371">
        <ele>120.7</ele>
        <time>2011-05-01T10:50:04Z</time>
      </trkpt>
      <trkpt lat="49.36086" lon="1.19346">
        <ele>120.7</ele>
        <time>2011-05-01T10:50:10Z</time>
      </trkpt>
      <trkpt lat="49.36089" lon="1.19322">
        <ele>120.8</ele>
        <time>2011-05-01T10:50:16Z</time>
      </trkpt>
      <trkpt lat="49.36095" lon="1.19291">
        <ele>121.3</ele>
        <time>2011-05-01T10:50:23Z</time>
      </trkpt>
      <trkpt lat="49.361" lon="1.19266">
        <ele>121.6</ele>
        <time>2011-05-01T10:50:29Z</time>
      </trkpt>
      <trkpt lat="49.36105" lon="1.19223">
        <ele>122.4</ele>
        <time>2011-05-01T10:50:39Z</time>
      </trkpt>
      <trkpt lat="49.36111" lon="1.19196">
        <ele>123.6</ele>
        <time>2011-05-01T10:50:46Z</time>
      </trkpt>
      <trkpt lat="49.36117" lon="1.19166">
        <ele>124.8</ele>
        <time>2011-05-01T10:50:54Z</time>
      </trkpt>
      <trkpt lat="49.36118" lon="1.19146">
        <ele>125</ele>
        <time>2011-05-01T10:50:59Z</time>
      </trkpt>
      <trkpt lat="49.3612" lon="1.19115">
        <ele>125.2</ele>
        <time>2011-05-01T10:51:07Z</time>
      </trkpt>
      <trkpt lat="49.36121" lon="1.19097">
        <ele>125.4</ele>
        <time>2011-05-01T10:51:13Z</time>
      </trkpt>
      <trkpt lat="49.36125" lon="1.19077">
        <ele>126.1</ele>
        <time>2011-05-01T10:51:20Z</time>
      </trkpt>
      <trkpt lat="49.36128" lon="1.19057">
        <ele>126.8</ele>
        <time>2011-05-01T10:51:27Z</time>
      </trkpt>
      <trkpt lat="49.3613" lon="1.19024">
        <ele>127.5</ele>
        <time>2011-05-01T10:51:38Z</time>
      </trkpt>
      <trkpt lat="49.36133" lon="1.19003">
        <ele>127.9</ele>
        <time>2011-05-01T10:51:46Z</time>
      </trkpt>
      <trkpt lat="49.36126" lon="1.19">
        <ele>127.6</ele>
        <time>2011-05-01T10:51:51Z</time>
      </trkpt>
      <trkpt lat="49.36109" lon="1.19008">
        <ele>126.3</ele>
        <time>2011-05-01T10:52:00Z</time>
      </trkpt>
      <trkpt lat="49.36102" lon="1.19014">
        <ele>125.5</ele>
        <time>2011-05-01T10:52:05Z</time>
      </trkpt>
      <trkpt lat="49.36087" lon="1.19022">
        <ele>124</ele>
        <time>2011-05-01T10:52:13Z</time>
      </trkpt>
      <trkpt lat="49.36074" lon="1.19032">
        <ele>124.4</ele>
        <time>2011-05-01T10:52:20Z</time>
      </trkpt>
      <trkpt lat="49.36057" lon="1.19039">
        <ele>126.3</ele>
        <time>2011-05-01T10:52:27Z</time>
      </trkpt>
      <trkpt lat="49.36042" lon="1.19046">
        <ele>128.1</ele>
        <time>2011-05-01T10:52:33Z</time>
      </trkpt>
      <trkpt lat="49.36027" lon="1.19052">
        <ele>129.9</ele>
        <time>2011-05-01T10:52:39Z</time>
      </trkpt>
      <trkpt lat="49.36001" lon="1.19061">
        <ele>133.4</ele>
        <time>2011-05-01T10:52:48Z</time>
      </trkpt>
      <trkpt lat="49.35974" lon="1.19058">
        <ele>134.5</ele>
        <time>2011-05-01T10:52:56Z</time>
      </trkpt>
      <trkpt lat="49.35945" lon="1.19052">
        <ele>135.5</ele>
        <time>2011-05-01T10:53:04Z</time>
      </trkpt>
      <trkpt lat="49.35917" lon="1.1904">
        <ele>136.5</ele>
        <time>2011-05-01T10:53:11Z</time>
      </trkpt>
      <trkpt lat="49.35908" lon="1.19037">
        <ele>136.6</ele>
        <time>2011-05-01T10:53:13Z</time>
      </trkpt>
      <trkpt lat="49.35891" lon="1.19025">
        <ele>136.8</ele>
        <time>2011-05-01T10:53:17Z</time>
      </trkpt>
      <trkpt lat="49.35872" lon="1.19014">
        <ele>136.9</ele>
        <time>2011-05-01T10:53:21Z</time>
      </trkpt>
      <trkpt lat="49.35849" lon="1.18992">
        <ele>137</ele>
        <time>2011-05-01T10:53:26Z</time>
      </trkpt>
      <trkpt lat="49.35824" lon="1.18948">
        <ele>136.8</ele>
        <time>2011-05-01T10:53:32Z</time>
      </trkpt>
      <trkpt lat="49.35806" lon="1.18909">
        <ele>135.8</ele>
        <time>2011-05-01T10:53:36Z</time>
      </trkpt>
      <trkpt lat="49.35776" lon="1.18872">
        <ele>134.8</ele>
        <time>2011-05-01T10:53:41Z</time>
      </trkpt>
      <trkpt lat="49.35748" lon="1.1886">
        <ele>133.7</ele>
        <time>2011-05-01T10:53:45Z</time>
      </trkpt>
      <trkpt lat="49.3573" lon="1.18865">
        <ele>133.5</ele>
        <time>2011-05-01T10:53:48Z</time>
      </trkpt>
      <trkpt lat="49.35715" lon="1.18884">
        <ele>132.9</ele>
        <time>2011-05-01T10:53:52Z</time>
      </trkpt>
      <trkpt lat="49.35693" lon="1.18939">
        <ele>132</ele>
        <time>2011-05-01T10:54:01Z</time>
      </trkpt>
      <trkpt lat="49.35676" lon="1.18978">
        <ele>131.7</ele>
        <time>2011-05-01T10:54:08Z</time>
      </trkpt>
      <trkpt lat="49.35669" lon="1.18992">
        <ele>131.2</ele>
        <time>2011-05-01T10:54:11Z</time>
      </trkpt>
      <trkpt lat="49.35649" lon="1.19008">
        <ele>132.2</ele>
        <time>2011-05-01T10:54:16Z</time>
      </trkpt>
      <trkpt lat="49.35635" lon="1.19011">
        <ele>132.9</ele>
        <time>2011-05-01T10:54:19Z</time>
      </trkpt>
      <trkpt lat="49.35608" lon="1.19004">
        <ele>134.5</ele>
        <time>2011-05-01T10:54:25Z</time>
      </trkpt>
      <trkpt lat="49.35572" lon="1.18988">
        <ele>136.5</ele>
        <time>2011-05-01T10:54:33Z</time>
      </trkpt>
      <trkpt lat="49.35551" lon="1.18977">
        <ele>137.2</ele>
        <time>2011-05-01T10:54:38Z</time>
      </trkpt>
      <trkpt lat="49.35544" lon="1.18966">
        <ele>137.6</ele>
        <time>2011-05-01T10:54:42Z</time>
      </trkpt>
      <trkpt lat="49.35548" lon="1.18958">
        <ele>137.7</ele>
        <time>2011-05-01T10:54:46Z</time>
      </trkpt>
      <trkpt lat="49.35549" lon="1.18954">
        <ele>137.7</ele>
        <time>2011-05-01T10:54:48Z</time>
      </trkpt>
      <trkpt lat="49.3555" lon="1.18947">
        <ele>137.8</ele>
        <time>2011-05-01T10:54:56Z</time>
      </trkpt>
      <trkpt lat="49.35553" lon="1.18938">
        <ele>138</ele>
        <time>2011-05-01T10:55:04Z</time>
      </trkpt>
      <trkpt lat="49.35553" lon="1.18943">
        <ele>137.9</ele>
        <time>2011-05-01T10:55:09Z</time>
      </trkpt>
      <trkpt lat="49.35553" lon="1.18945">
        <ele>137.8</ele>
        <time>2011-05-01T10:55:14Z</time>
      </trkpt>
      <trkpt lat="49.35553" lon="1.18947">
        <ele>137.8</ele>
        <time>2011-05-01T10:55:19Z</time>
      </trkpt>
      <trkpt lat="49.35552" lon="1.18947">
        <ele>137.8</ele>
        <time>2011-05-01T10:55:25Z</time>
      </trkpt>
      <trkpt lat="49.35555" lon="1.18946">
        <ele>137.8</ele>
        <time>2011-05-01T10:55:32Z</time>
      </trkpt>
      <trkpt lat="49.35555" lon="1.18945">
        <ele>137.8</ele>
        <time>2011-05-01T10:55:37Z</time>
      </trkpt>
      <trkpt lat="49.35555" lon="1.18945">
        <ele>137.8</ele>
        <time>2011-05-01T10:55:44Z</time>
      </trkpt>
      <trkpt lat="49.35555" lon="1.18948">
        <ele>137.7</ele>
        <time>2011-05-01T10:55:53Z</time>
      </trkpt>
      <trkpt lat="49.35554" lon="1.18945">
        <ele>137.8</ele>
        <time>2011-05-01T10:55:59Z</time>
      </trkpt>
      <trkpt lat="49.35555" lon="1.18945">
        <ele>137.8</ele>
        <time>2011-05-01T10:56:06Z</time>
      </trkpt>
      <trkpt lat="49.35554" lon="1.18948">
        <ele>137.7</ele>
        <time>2011-05-01T10:56:13Z</time>
      </trkpt>
      <trkpt lat="49.35554" lon="1.18947">
        <ele>137.8</ele>
        <time>2011-05-01T10:56:19Z</time>
      </trkpt>
      <trkpt lat="49.35554" lon="1.18947">
        <ele>137.8</ele>
        <time>2011-05-01T10:56:27Z</time>
      </trkpt>
      <trkpt lat="49.35554" lon="1.18948">
        <ele>137.7</ele>
        <time>2011-05-01T10:56:32Z</time>
      </trkpt>
      <trkpt lat="49.35554" lon="1.18947">
        <ele>137.8</ele>
        <time>2011-05-01T10:56:42Z</time>
      </trkpt>
      <trkpt lat="49.35554" lon="1.18946">
        <ele>137.8</ele>
        <time>2011-05-01T10:56:47Z</time>
      </trkpt>
      <trkpt lat="49.35553" lon="1.18943">
        <ele>137.8</ele>
        <time>2011-05-01T10:56:54Z</time>
      </trkpt>
      <trkpt lat="49.35555" lon="1.18943">
        <ele>137.8</ele>
        <time>2011-05-01T10:57:02Z</time>
      </trkpt>
      <trkpt lat="49.35555" lon="1.18945">
        <ele>137.8</ele>
        <time>2011-05-01T10:57:13Z</time>
      </trkpt>
      <trkpt lat="49.35555" lon="1.18946">
        <ele>137.8</ele>
        <time>2011-05-01T10:57:26Z</time>
      </trkpt>
      <trkpt lat="49.35555" lon="1.18945">
        <ele>137.8</ele>
        <time>2011-05-01T10:57:35Z</time>
      </trkpt>
      <trkpt lat="49.35553" lon="1.18944">
        <ele>137.8</ele>
        <time>2011-05-01T10:57:46Z</time>
      </trkpt>
      <trkpt lat="49.35554" lon="1.18944">
        <ele>137.8</ele>
        <time>2011-05-01T10:58:04Z</time>
      </trkpt>
      <trkpt lat="49.35555" lon="1.18944">
        <ele>137.8</ele>
        <time>2011-05-01T10:58:12Z</time>
      </trkpt>
      <trkpt lat="49.35555" lon="1.18946">
        <ele>137.8</ele>
        <time>2011-05-01T10:58:29Z</time>
      </trkpt>
      <trkpt lat="49.35554" lon="1.18945">
        <ele>137.8</ele>
        <time>2011-05-01T10:58:57Z</time>
      </trkpt>
      <trkpt lat="49.35555" lon="1.18942">
        <ele>137.9</ele>
        <time>2011-05-01T10:59:03Z</time>
      </trkpt>
      <trkpt lat="49.35555" lon="1.18938">
        <ele>137.9</ele>
        <time>2011-05-01T11:00:03Z</time>
      </trkpt>
      <trkpt lat="49.35555" lon="1.18937">
        <ele>138</ele>
        <time>2011-05-01T11:00:22Z</time>
      </trkpt>
      <trkpt lat="49.35553" lon="1.18937">
        <ele>138</ele>
        <time>2011-05-01T11:00:36Z</time>
      </trkpt>
      <trkpt lat="49.35553" lon="1.18937">
        <ele>138</ele>
        <time>2011-05-01T11:00:50Z</time>
      </trkpt>
      <trkpt lat="49.35555" lon="1.1892">
        <ele>138.3</ele>
        <time>2011-05-01T11:00:56Z</time>
      </trkpt>
      <trkpt lat="49.35555" lon="1.18911">
        <ele>138.4</ele>
        <time>2011-05-01T11:00:58Z</time>
      </trkpt>
      <trkpt lat="49.35543" lon="1.18882">
        <ele>138.7</ele>
        <time>2011-05-01T11:01:04Z</time>
      </trkpt>
      <trkpt lat="49.35531" lon="1.18864">
        <ele>138.9</ele>
        <time>2011-05-01T11:01:08Z</time>
      </trkpt>
      <trkpt lat="49.3551" lon="1.18817">
        <ele>139.6</ele>
        <time>2011-05-01T11:01:16Z</time>
      </trkpt>
      <trkpt lat="49.35494" lon="1.18781">
        <ele>140.7</ele>
        <time>2011-05-01T11:01:22Z</time>
      </trkpt>
      <trkpt lat="49.35487" lon="1.18766">
        <ele>141</ele>
        <time>2011-05-01T11:01:25Z</time>
      </trkpt>
      <trkpt lat="49.35471" lon="1.1873">
        <ele>141.3</ele>
        <time>2011-05-01T11:01:32Z</time>
      </trkpt>
      <trkpt lat="49.35452" lon="1.18687">
        <ele>141.5</ele>
        <time>2011-05-01T11:01:40Z</time>
      </trkpt>
      <trkpt lat="49.35431" lon="1.18639">
        <ele>141.7</ele>
        <time>2011-05-01T11:01:49Z</time>
      </trkpt>
      <trkpt lat="49.35412" lon="1.18597">
        <ele>141.8</ele>
        <time>2011-05-01T11:01:57Z</time>
      </trkpt>
      <trkpt lat="49.35388" lon="1.18544">
        <ele>142</ele>
        <time>2011-05-01T11:02:07Z</time>
      </trkpt>
      <trkpt lat="49.35364" lon="1.18489">
        <ele>142.9</ele>
        <time>2011-05-01T11:02:17Z</time>
      </trkpt>
      <trkpt lat="49.35339" lon="1.18434">
        <ele>144.5</ele>
        <time>2011-05-01T11:02:27Z</time>
      </trkpt>
      <trkpt lat="49.35334" lon="1.18425">
        <ele>144.8</ele>
        <time>2011-05-01T11:02:29Z</time>
      </trkpt>
      <trkpt lat="49.35308" lon="1.18396">
        <ele>144.9</ele>
        <time>2011-05-01T11:02:36Z</time>
      </trkpt>
      <trkpt lat="49.3528" lon="1.18372">
        <ele>144.9</ele>
        <time>2011-05-01T11:02:43Z</time>
      </trkpt>
      <trkpt lat="49.35267" lon="1.18349">
        <ele>145</ele>
        <time>2011-05-01T11:02:48Z</time>
      </trkpt>
      <trkpt lat="49.35258" lon="1.18335">
        <ele>145.1</ele>
        <time>2011-05-01T11:02:53Z</time>
      </trkpt>
      <trkpt lat="49.35235" lon="1.18327">
        <ele>144.7</ele>
        <time>2011-05-01T11:02:59Z</time>
      </trkpt>
      <trkpt lat="49.35208" lon="1.18306">
        <ele>144.3</ele>
        <time>2011-05-01T11:03:05Z</time>
      </trkpt>
      <trkpt lat="49.3519" lon="1.18288">
        <ele>144.1</ele>
        <time>2011-05-01T11:03:09Z</time>
      </trkpt>
      <trkpt lat="49.35165" lon="1.18253">
        <ele>144</ele>
        <time>2011-05-01T11:03:15Z</time>
      </trkpt>
      <trkpt lat="49.35156" lon="1.18221">
        <ele>144.3</ele>
        <time>2011-05-01T11:03:19Z</time>
      </trkpt>
      <trkpt lat="49.35159" lon="1.18202">
        <ele>144.5</ele>
        <time>2011-05-01T11:03:22Z</time>
      </trkpt>
      <trkpt lat="49.35164" lon="1.182">
        <ele>144.6</ele>
        <time>2011-05-01T11:03:23Z</time>
      </trkpt>
      <trkpt lat="49.35201" lon="1.18188">
        <ele>145</ele>
        <time>2011-05-01T11:03:31Z</time>
      </trkpt>
      <trkpt lat="49.3521" lon="1.18184">
        <ele>145</ele>
        <time>2011-05-01T11:03:33Z</time>
      </trkpt>
      <trkpt lat="49.35234" lon="1.1817">
        <ele>145</ele>
        <time>2011-05-01T11:03:38Z</time>
      </trkpt>
      <trkpt lat="49.35272" lon="1.18146">
        <ele>145.2</ele>
        <time>2011-05-01T11:03:46Z</time>
      </trkpt>
      <trkpt lat="49.3531" lon="1.1812">
        <ele>145.2</ele>
        <time>2011-05-01T11:03:54Z</time>
      </trkpt>
      <trkpt lat="49.35318" lon="1.18114">
        <ele>145.1</ele>
        <time>2011-05-01T11:03:56Z</time>
      </trkpt>
      <trkpt lat="49.35339" lon="1.18099">
        <ele>145</ele>
        <time>2011-05-01T11:04:01Z</time>
      </trkpt>
      <trkpt lat="49.35359" lon="1.18088">
        <ele>145</ele>
        <time>2011-05-01T11:04:06Z</time>
      </trkpt>
      <trkpt lat="49.35377" lon="1.18084">
        <ele>145</ele>
        <time>2011-05-01T11:04:10Z</time>
      </trkpt>
      <trkpt lat="49.35389" lon="1.18081">
        <ele>145</ele>
        <time>2011-05-01T11:04:13Z</time>
      </trkpt>
      <trkpt lat="49.35426" lon="1.18069">
        <ele>144.9</ele>
        <time>2011-05-01T11:04:22Z</time>
      </trkpt>
      <trkpt lat="49.35466" lon="1.18047">
        <ele>144.9</ele>
        <time>2011-05-01T11:04:31Z</time>
      </trkpt>
      <trkpt lat="49.35494" lon="1.1803">
        <ele>144.7</ele>
        <time>2011-05-01T11:04:38Z</time>
      </trkpt>
      <trkpt lat="49.35525" lon="1.18011">
        <ele>144.5</ele>
        <time>2011-05-01T11:04:46Z</time>
      </trkpt>
      <trkpt lat="49.35557" lon="1.17992">
        <ele>144.7</ele>
        <time>2011-05-01T11:04:55Z</time>
      </trkpt>
      <trkpt lat="49.35565" lon="1.17987">
        <ele>144.8</ele>
        <time>2011-05-01T11:04:58Z</time>
      </trkpt>
      <trkpt lat="49.35566" lon="1.17972">
        <ele>144.8</ele>
        <time>2011-05-01T11:05:02Z</time>
      </trkpt>
      <trkpt lat="49.35559" lon="1.17939">
        <ele>144.7</ele>
        <time>2011-05-01T11:05:08Z</time>
      </trkpt>
      <trkpt lat="49.35553" lon="1.1789">
        <ele>144.4</ele>
        <time>2011-05-01T11:05:15Z</time>
      </trkpt>
      <trkpt lat="49.3555" lon="1.17868">
        <ele>144.2</ele>
        <time>2011-05-01T11:05:18Z</time>
      </trkpt>
      <trkpt lat="49.35544" lon="1.17797">
        <ele>143.4</ele>
        <time>2011-05-01T11:05:27Z</time>
      </trkpt>
      <trkpt lat="49.35541" lon="1.17749">
        <ele>142.5</ele>
        <time>2011-05-01T11:05:33Z</time>
      </trkpt>
      <trkpt lat="49.35535" lon="1.1772">
        <ele>142.2</ele>
        <time>2011-05-01T11:05:38Z</time>
      </trkpt>
      <trkpt lat="49.35536" lon="1.17709">
        <ele>142.2</ele>
        <time>2011-05-01T11:05:40Z</time>
      </trkpt>
      <trkpt lat="49.35541" lon="1.17645">
        <ele>142.1</ele>
        <time>2011-05-01T11:05:48Z</time>
      </trkpt>
      <trkpt lat="49.35541" lon="1.17571">
        <ele>142.3</ele>
        <time>2011-05-01T11:05:56Z</time>
      </trkpt>
      <trkpt lat="49.3554" lon="1.1754">
        <ele>141.9</ele>
        <time>2011-05-01T11:06:00Z</time>
      </trkpt>
      <trkpt lat="49.35537" lon="1.17515">
        <ele>141.6</ele>
        <time>2011-05-01T11:06:05Z</time>
      </trkpt>
      <trkpt lat="49.35543" lon="1.17501">
        <ele>141.5</ele>
        <time>2011-05-01T11:06:11Z</time>
      </trkpt>
      <trkpt lat="49.35557" lon="1.17492">
        <ele>141.9</ele>
        <time>2011-05-01T11:06:17Z</time>
      </trkpt>
      <trkpt lat="49.35555" lon="1.17473">
        <ele>142.2</ele>
        <time>2011-05-01T11:06:22Z</time>
      </trkpt>
      <trkpt lat="49.35549" lon="1.17431">
        <ele>142.7</ele>
        <time>2011-05-01T11:06:28Z</time>
      </trkpt>
      <trkpt lat="49.3554" lon="1.17379">
        <ele>142.4</ele>
        <time>2011-05-01T11:06:34Z</time>
      </trkpt>
      <trkpt lat="49.35525" lon="1.17308">
        <ele>141.3</ele>
        <time>2011-05-01T11:06:42Z</time>
      </trkpt>
      <trkpt lat="49.35522" lon="1.17283">
        <ele>140.6</ele>
        <time>2011-05-01T11:06:45Z</time>
      </trkpt>
      <trkpt lat="49.35522" lon="1.17249">
        <ele>139.8</ele>
        <time>2011-05-01T11:06:49Z</time>
      </trkpt>
      <trkpt lat="49.35529" lon="1.17208">
        <ele>140.2</ele>
        <time>2011-05-01T11:06:54Z</time>
      </trkpt>
      <trkpt lat="49.35549" lon="1.1716">
        <ele>141.5</ele>
        <time>2011-05-01T11:07:01Z</time>
      </trkpt>
      <trkpt lat="49.3557" lon="1.17115">
        <ele>142.7</ele>
        <time>2011-05-01T11:07:08Z</time>
      </trkpt>
      <trkpt lat="49.35575" lon="1.17101">
        <ele>142.8</ele>
        <time>2011-05-01T11:07:10Z</time>
      </trkpt>
      <trkpt lat="49.35581" lon="1.17079">
        <ele>143</ele>
        <time>2011-05-01T11:07:13Z</time>
      </trkpt>
      <trkpt lat="49.35579" lon="1.17047">
        <ele>142.9</ele>
        <time>2011-05-01T11:07:17Z</time>
      </trkpt>
      <trkpt lat="49.35572" lon="1.17024">
        <ele>142.7</ele>
        <time>2011-05-01T11:07:20Z</time>
      </trkpt>
      <trkpt lat="49.35554" lon="1.16976">
        <ele>141.5</ele>
        <time>2011-05-01T11:07:26Z</time>
      </trkpt>
      <trkpt lat="49.3554" lon="1.16955">
        <ele>140.6</ele>
        <time>2011-05-01T11:07:29Z</time>
      </trkpt>
      <trkpt lat="49.35524" lon="1.1691">
        <ele>139.6</ele>
        <time>2011-05-01T11:07:34Z</time>
      </trkpt>
      <trkpt lat="49.35502" lon="1.16828">
        <ele>138.9</ele>
        <time>2011-05-01T11:07:43Z</time>
      </trkpt>
      <trkpt lat="49.35488" lon="1.16773">
        <ele>137.3</ele>
        <time>2011-05-01T11:07:50Z</time>
      </trkpt>
      <trkpt lat="49.35477" lon="1.1673">
        <ele>136.7</ele>
        <time>2011-05-01T11:07:56Z</time>
      </trkpt>
      <trkpt lat="49.35475" lon="1.16697">
        <ele>136.5</ele>
        <time>2011-05-01T11:08:00Z</time>
      </trkpt>
      <trkpt lat="49.3548" lon="1.1664">
        <ele>136.6</ele>
        <time>2011-05-01T11:08:07Z</time>
      </trkpt>
      <trkpt lat="49.35482" lon="1.16623">
        <ele>136.7</ele>
        <time>2011-05-01T11:08:09Z</time>
      </trkpt>
      <trkpt lat="49.35481" lon="1.16577">
        <ele>136.7</ele>
        <time>2011-05-01T11:08:14Z</time>
      </trkpt>
      <trkpt lat="49.35478" lon="1.16556">
        <ele>136.4</ele>
        <time>2011-05-01T11:08:16Z</time>
      </trkpt>
      <trkpt lat="49.35473" lon="1.16534">
        <ele>135.9</ele>
        <time>2011-05-01T11:08:18Z</time>
      </trkpt>
      <trkpt lat="49.35456" lon="1.16516">
        <ele>134.8</ele>
        <time>2011-05-01T11:08:22Z</time>
      </trkpt>
      <trkpt lat="49.35428" lon="1.16515">
        <ele>133.3</ele>
        <time>2011-05-01T11:08:27Z</time>
      </trkpt>
      <trkpt lat="49.35416" lon="1.16513">
        <ele>132.6</ele>
        <time>2011-05-01T11:08:29Z</time>
      </trkpt>
      <trkpt lat="49.354" lon="1.16495">
        <ele>130.8</ele>
        <time>2011-05-01T11:08:33Z</time>
      </trkpt>
      <trkpt lat="49.35376" lon="1.16443">
        <ele>126.3</ele>
        <time>2011-05-01T11:08:39Z</time>
      </trkpt>
      <trkpt lat="49.35361" lon="1.16423">
        <ele>124.1</ele>
        <time>2011-05-01T11:08:42Z</time>
      </trkpt>
      <trkpt lat="49.35347" lon="1.16411">
        <ele>122.3</ele>
        <time>2011-05-01T11:08:46Z</time>
      </trkpt>
      <trkpt lat="49.35349" lon="1.16401">
        <ele>121.6</ele>
        <time>2011-05-01T11:08:49Z</time>
      </trkpt>
      <trkpt lat="49.35351" lon="1.16397">
        <ele>121.4</ele>
        <time>2011-05-01T11:08:50Z</time>
      </trkpt>
      <trkpt lat="49.35356" lon="1.16385">
        <ele>120.8</ele>
        <time>2011-05-01T11:08:52Z</time>
      </trkpt>
      <trkpt lat="49.35372" lon="1.16361">
        <ele>119.9</ele>
        <time>2011-05-01T11:08:56Z</time>
      </trkpt>
      <trkpt lat="49.35404" lon="1.16341">
        <ele>120.6</ele>
        <time>2011-05-01T11:09:02Z</time>
      </trkpt>
      <trkpt lat="49.3541" lon="1.16339">
        <ele>120.8</ele>
        <time>2011-05-01T11:09:03Z</time>
      </trkpt>
      <trkpt lat="49.35419" lon="1.16336">
        <ele>121.5</ele>
        <time>2011-05-01T11:09:05Z</time>
      </trkpt>
      <trkpt lat="49.35434" lon="1.16338">
        <ele>123.8</ele>
        <time>2011-05-01T11:09:08Z</time>
      </trkpt>
      <trkpt lat="49.35459" lon="1.16328">
        <ele>126.8</ele>
        <time>2011-05-01T11:09:13Z</time>
      </trkpt>
      <trkpt lat="49.35484" lon="1.16309">
        <ele>129.1</ele>
        <time>2011-05-01T11:09:20Z</time>
      </trkpt>
      <trkpt lat="49.35487" lon="1.16307">
        <ele>129.3</ele>
        <time>2011-05-01T11:09:21Z</time>
      </trkpt>
      <trkpt lat="49.35509" lon="1.16288">
        <ele>130.7</ele>
        <time>2011-05-01T11:09:29Z</time>
      </trkpt>
      <trkpt lat="49.35531" lon="1.16271">
        <ele>131.9</ele>
        <time>2011-05-01T11:09:37Z</time>
      </trkpt>
      <trkpt lat="49.35551" lon="1.16256">
        <ele>133.5</ele>
        <time>2011-05-01T11:09:44Z</time>
      </trkpt>
      <trkpt lat="49.35566" lon="1.16247">
        <ele>134.7</ele>
        <time>2011-05-01T11:09:49Z</time>
      </trkpt>
      <trkpt lat="49.3558" lon="1.16238">
        <ele>135.7</ele>
        <time>2011-05-01T11:09:55Z</time>
      </trkpt>
      <trkpt lat="49.35595" lon="1.16232">
        <ele>136.5</ele>
        <time>2011-05-01T11:10:02Z</time>
      </trkpt>
      <trkpt lat="49.35607" lon="1.16226">
        <ele>136.9</ele>
        <time>2011-05-01T11:10:08Z</time>
      </trkpt>
      <trkpt lat="49.3562" lon="1.16217">
        <ele>137.3</ele>
        <time>2011-05-01T11:10:15Z</time>
      </trkpt>
      <trkpt lat="49.35633" lon="1.16199">
        <ele>137.4</ele>
        <time>2011-05-01T11:10:21Z</time>
      </trkpt>
      <trkpt lat="49.35652" lon="1.16184">
        <ele>138.3</ele>
        <time>2011-05-01T11:10:28Z</time>
      </trkpt>
      <trkpt lat="49.35667" lon="1.16172">
        <ele>139.2</ele>
        <time>2011-05-01T11:10:33Z</time>
      </trkpt>
      <trkpt lat="49.35682" lon="1.16161">
        <ele>138.6</ele>
        <time>2011-05-01T11:10:38Z</time>
      </trkpt>
      <trkpt lat="49.35699" lon="1.16146">
        <ele>138</ele>
        <time>2011-05-01T11:10:44Z</time>
      </trkpt>
      <trkpt lat="49.3572" lon="1.16131">
        <ele>137.8</ele>
        <time>2011-05-01T11:10:51Z</time>
      </trkpt>
      <trkpt lat="49.35732" lon="1.1612">
        <ele>137.8</ele>
        <time>2011-05-01T11:10:56Z</time>
      </trkpt>
      <trkpt lat="49.35746" lon="1.16109">
        <ele>138.2</ele>
        <time>2011-05-01T11:11:01Z</time>
      </trkpt>
      <trkpt lat="49.35761" lon="1.16098">
        <ele>137.8</ele>
        <time>2011-05-01T11:11:07Z</time>
      </trkpt>
      <trkpt lat="49.35773" lon="1.16085">
        <ele>137.2</ele>
        <time>2011-05-01T11:11:12Z</time>
      </trkpt>
      <trkpt lat="49.35792" lon="1.16077">
        <ele>136.2</ele>
        <time>2011-05-01T11:11:18Z</time>
      </trkpt>
      <trkpt lat="49.35807" lon="1.16062">
        <ele>135.1</ele>
        <time>2011-05-01T11:11:24Z</time>
      </trkpt>
      <trkpt lat="49.35816" lon="1.16033">
        <ele>133.7</ele>
        <time>2011-05-01T11:11:30Z</time>
      </trkpt>
      <trkpt lat="49.3582" lon="1.16012">
        <ele>132.8</ele>
        <time>2011-05-01T11:11:34Z</time>
      </trkpt>
      <trkpt lat="49.35827" lon="1.15992">
        <ele>131.8</ele>
        <time>2011-05-01T11:11:38Z</time>
      </trkpt>
      <trkpt lat="49.35839" lon="1.15983">
        <ele>131.1</ele>
        <time>2011-05-01T11:11:43Z</time>
      </trkpt>
      <trkpt lat="49.35844" lon="1.15956">
        <ele>130</ele>
        <time>2011-05-01T11:11:48Z</time>
      </trkpt>
      <trkpt lat="49.35853" lon="1.15937">
        <ele>129.1</ele>
        <time>2011-05-01T11:11:52Z</time>
      </trkpt>
      <trkpt lat="49.35859" lon="1.15919">
        <ele>128.4</ele>
        <time>2011-05-01T11:11:55Z</time>
      </trkpt>
      <trkpt lat="49.35863" lon="1.15896">
        <ele>127.2</ele>
        <time>2011-05-01T11:11:59Z</time>
      </trkpt>
      <trkpt lat="49.35866" lon="1.15881">
        <ele>126.5</ele>
        <time>2011-05-01T11:12:01Z</time>
      </trkpt>
      <trkpt lat="49.35868" lon="1.15856">
        <ele>125.3</ele>
        <time>2011-05-01T11:12:04Z</time>
      </trkpt>
      <trkpt lat="49.35886" lon="1.15821">
        <ele>124.5</ele>
        <time>2011-05-01T11:12:10Z</time>
      </trkpt>
      <trkpt lat="49.35895" lon="1.15816">
        <ele>124.8</ele>
        <time>2011-05-01T11:12:13Z</time>
      </trkpt>
      <trkpt lat="49.35907" lon="1.15801">
        <ele>125.1</ele>
        <time>2011-05-01T11:12:18Z</time>
      </trkpt>
      <trkpt lat="49.35909" lon="1.15785">
        <ele>124.9</ele>
        <time>2011-05-01T11:12:22Z</time>
      </trkpt>
      <trkpt lat="49.35902" lon="1.15771">
        <ele>124.1</ele>
        <time>2011-05-01T11:12:26Z</time>
      </trkpt>
      <trkpt lat="49.35897" lon="1.1575">
        <ele>123.1</ele>
        <time>2011-05-01T11:12:30Z</time>
      </trkpt>
      <trkpt lat="49.35891" lon="1.15737">
        <ele>122.5</ele>
        <time>2011-05-01T11:12:33Z</time>
      </trkpt>
      <trkpt lat="49.35879" lon="1.15706">
        <ele>121</ele>
        <time>2011-05-01T11:12:38Z</time>
      </trkpt>
      <trkpt lat="49.35871" lon="1.15687">
        <ele>119.7</ele>
        <time>2011-05-01T11:12:42Z</time>
      </trkpt>
      <trkpt lat="49.35866" lon="1.15672">
        <ele>118.8</ele>
        <time>2011-05-01T11:12:46Z</time>
      </trkpt>
      <trkpt lat="49.3587" lon="1.15656">
        <ele>119</ele>
        <time>2011-05-01T11:12:49Z</time>
      </trkpt>
      <trkpt lat="49.35866" lon="1.15629">
        <ele>117.5</ele>
        <time>2011-05-01T11:12:53Z</time>
      </trkpt>
      <trkpt lat="49.3585" lon="1.15588">
        <ele>113.8</ele>
        <time>2011-05-01T11:12:58Z</time>
      </trkpt>
      <trkpt lat="49.35836" lon="1.15556">
        <ele>110.5</ele>
        <time>2011-05-01T11:13:02Z</time>
      </trkpt>
      <trkpt lat="49.35821" lon="1.15525">
        <ele>107.4</ele>
        <time>2011-05-01T11:13:06Z</time>
      </trkpt>
      <trkpt lat="49.35793" lon="1.15481">
        <ele>102</ele>
        <time>2011-05-01T11:13:12Z</time>
      </trkpt>
      <trkpt lat="49.35778" lon="1.15454">
        <ele>98.9</ele>
        <time>2011-05-01T11:13:15Z</time>
      </trkpt>
      <trkpt lat="49.35768" lon="1.15416">
        <ele>95.8</ele>
        <time>2011-05-01T11:13:20Z</time>
      </trkpt>
      <trkpt lat="49.35762" lon="1.15393">
        <ele>93.3</ele>
        <time>2011-05-01T11:13:23Z</time>
      </trkpt>
      <trkpt lat="49.35755" lon="1.15336">
        <ele>87.7</ele>
        <time>2011-05-01T11:13:30Z</time>
      </trkpt>
      <trkpt lat="49.35758" lon="1.15316">
        <ele>87.4</ele>
        <time>2011-05-01T11:13:34Z</time>
      </trkpt>
      <trkpt lat="49.35762" lon="1.153">
        <ele>87.3</ele>
        <time>2011-05-01T11:13:37Z</time>
      </trkpt>
      <trkpt lat="49.35757" lon="1.15271">
        <ele>86</ele>
        <time>2011-05-01T11:13:42Z</time>
      </trkpt>
      <trkpt lat="49.35752" lon="1.15253">
        <ele>85.2</ele>
        <time>2011-05-01T11:13:45Z</time>
      </trkpt>
      <trkpt lat="49.35763" lon="1.15239">
        <ele>85.4</ele>
        <time>2011-05-01T11:13:49Z</time>
      </trkpt>
      <trkpt lat="49.35779" lon="1.15236">
        <ele>86.1</ele>
        <time>2011-05-01T11:13:53Z</time>
      </trkpt>
      <trkpt lat="49.35818" lon="1.1521">
        <ele>87</ele>
        <time>2011-05-01T11:14:02Z</time>
      </trkpt>
      <trkpt lat="49.35848" lon="1.15189">
        <ele>87.8</ele>
        <time>2011-05-01T11:14:09Z</time>
      </trkpt>
      <trkpt lat="49.35866" lon="1.15171">
        <ele>88.2</ele>
        <time>2011-05-01T11:14:14Z</time>
      </trkpt>
      <trkpt lat="49.35888" lon="1.15158">
        <ele>89</ele>
        <time>2011-05-01T11:14:20Z</time>
      </trkpt>
      <trkpt lat="49.3592" lon="1.15161">
        <ele>91.2</ele>
        <time>2011-05-01T11:14:29Z</time>
      </trkpt>
      <trkpt lat="49.3595" lon="1.15164">
        <ele>94.8</ele>
        <time>2011-05-01T11:14:37Z</time>
      </trkpt>
      <trkpt lat="49.35971" lon="1.15154">
        <ele>97</ele>
        <time>2011-05-01T11:14:43Z</time>
      </trkpt>
      <trkpt lat="49.35996" lon="1.15135">
        <ele>99</ele>
        <time>2011-05-01T11:14:51Z</time>
      </trkpt>
      <trkpt lat="49.36013" lon="1.15132">
        <ele>100.9</ele>
        <time>2011-05-01T11:14:57Z</time>
      </trkpt>
      <trkpt lat="49.36037" lon="1.15143">
        <ele>104.2</ele>
        <time>2011-05-01T11:15:07Z</time>
      </trkpt>
      <trkpt lat="49.36055" lon="1.15151">
        <ele>106.6</ele>
        <time>2011-05-01T11:15:15Z</time>
      </trkpt>
      <trkpt lat="49.36071" lon="1.15149">
        <ele>108.3</ele>
        <time>2011-05-01T11:15:22Z</time>
      </trkpt>
      <trkpt lat="49.36087" lon="1.15139">
        <ele>110</ele>
        <time>2011-05-01T11:15:30Z</time>
      </trkpt>
      <trkpt lat="49.36108" lon="1.15124">
        <ele>112</ele>
        <time>2011-05-01T11:15:40Z</time>
      </trkpt>
      <trkpt lat="49.36123" lon="1.15115">
        <ele>113.5</ele>
        <time>2011-05-01T11:15:47Z</time>
      </trkpt>
      <trkpt lat="49.36131" lon="1.15107">
        <ele>114.3</ele>
        <time>2011-05-01T11:15:52Z</time>
      </trkpt>
      <trkpt lat="49.36131" lon="1.15096">
        <ele>114.2</ele>
        <time>2011-05-01T11:15:56Z</time>
      </trkpt>
      <trkpt lat="49.36113" lon="1.15069">
        <ele>112.4</ele>
        <time>2011-05-01T11:16:02Z</time>
      </trkpt>
      <trkpt lat="49.36076" lon="1.15035">
        <ele>108.3</ele>
        <time>2011-05-01T11:16:10Z</time>
      </trkpt>
      <trkpt lat="49.36044" lon="1.15006">
        <ele>102.1</ele>
        <time>2011-05-01T11:16:15Z</time>
      </trkpt>
      <trkpt lat="49.35995" lon="1.14965">
        <ele>91</ele>
        <time>2011-05-01T11:16:21Z</time>
      </trkpt>
      <trkpt lat="49.35948" lon="1.14915">
        <ele>86.4</ele>
        <time>2011-05-01T11:16:27Z</time>
      </trkpt>
      <trkpt lat="49.3591" lon="1.14878">
        <ele>83.3</ele>
        <time>2011-05-01T11:16:32Z</time>
      </trkpt>
      <trkpt lat="49.35879" lon="1.14837">
        <ele>80.7</ele>
        <time>2011-05-01T11:16:37Z</time>
      </trkpt>
      <trkpt lat="49.35862" lon="1.14805">
        <ele>79.7</ele>
        <time>2011-05-01T11:16:41Z</time>
      </trkpt>
      <trkpt lat="49.35852" lon="1.14797">
        <ele>79.2</ele>
        <time>2011-05-01T11:16:45Z</time>
      </trkpt>
      <trkpt lat="49.35848" lon="1.14804">
        <ele>79.2</ele>
        <time>2011-05-01T11:16:47Z</time>
      </trkpt>
      <trkpt lat="49.35837" lon="1.14835">
        <ele>79.1</ele>
        <time>2011-05-01T11:16:52Z</time>
      </trkpt>
      <trkpt lat="49.35825" lon="1.14856">
        <ele>79.2</ele>
        <time>2011-05-01T11:16:55Z</time>
      </trkpt>
      <trkpt lat="49.35809" lon="1.14875">
        <ele>79</ele>
        <time>2011-05-01T11:16:58Z</time>
      </trkpt>
      <trkpt lat="49.35785" lon="1.14887">
        <ele>78.2</ele>
        <time>2011-05-01T11:17:02Z</time>
      </trkpt>
      <trkpt lat="49.35739" lon="1.14897">
        <ele>76.4</ele>
        <time>2011-05-01T11:17:10Z</time>
      </trkpt>
      <trkpt lat="49.35705" lon="1.14912">
        <ele>75.8</ele>
        <time>2011-05-01T11:17:16Z</time>
      </trkpt>
      <trkpt lat="49.3566" lon="1.1493">
        <ele>75.2</ele>
        <time>2011-05-01T11:17:23Z</time>
      </trkpt>
      <trkpt lat="49.35634" lon="1.1492">
        <ele>74.3</ele>
        <time>2011-05-01T11:17:27Z</time>
      </trkpt>
      <trkpt lat="49.35623" lon="1.14906">
        <ele>73.6</ele>
        <time>2011-05-01T11:17:29Z</time>
      </trkpt>
      <trkpt lat="49.35589" lon="1.14848">
        <ele>71.4</ele>
        <time>2011-05-01T11:17:37Z</time>
      </trkpt>
      <trkpt lat="49.35566" lon="1.14802">
        <ele>71.3</ele>
        <time>2011-05-01T11:17:44Z</time>
      </trkpt>
      <trkpt lat="49.35546" lon="1.14778">
        <ele>72.3</ele>
        <time>2011-05-01T11:17:50Z</time>
      </trkpt>
      <trkpt lat="49.35543" lon="1.14775">
        <ele>72.5</ele>
        <time>2011-05-01T11:17:51Z</time>
      </trkpt>
      <trkpt lat="49.35537" lon="1.1475">
        <ele>72.9</ele>
        <time>2011-05-01T11:17:56Z</time>
      </trkpt>
      <trkpt lat="49.35536" lon="1.14717">
        <ele>71.8</ele>
        <time>2011-05-01T11:18:01Z</time>
      </trkpt>
      <trkpt lat="49.3554" lon="1.14681">
        <ele>70.2</ele>
        <time>2011-05-01T11:18:06Z</time>
      </trkpt>
      <trkpt lat="49.35545" lon="1.14599">
        <ele>69.2</ele>
        <time>2011-05-01T11:18:15Z</time>
      </trkpt>
      <trkpt lat="49.35554" lon="1.14529">
        <ele>67.2</ele>
        <time>2011-05-01T11:18:23Z</time>
      </trkpt>
      <trkpt lat="49.35562" lon="1.14465">
        <ele>65.7</ele>
        <time>2011-05-01T11:18:30Z</time>
      </trkpt>
      <trkpt lat="49.35557" lon="1.1439">
        <ele>65.6</ele>
        <time>2011-05-01T11:18:38Z</time>
      </trkpt>
      <trkpt lat="49.35557" lon="1.14381">
        <ele>65.5</ele>
        <time>2011-05-01T11:18:39Z</time>
      </trkpt>
      <trkpt lat="49.35558" lon="1.14355">
        <ele>65.1</ele>
        <time>2011-05-01T11:18:42Z</time>
      </trkpt>
      <trkpt lat="49.35557" lon="1.14337">
        <ele>65</ele>
        <time>2011-05-01T11:18:44Z</time>
      </trkpt>
      <trkpt lat="49.35554" lon="1.1432">
        <ele>65.1</ele>
        <time>2011-05-01T11:18:46Z</time>
      </trkpt>
      <trkpt lat="49.35547" lon="1.14294">
        <ele>65.6</ele>
        <time>2011-05-01T11:18:50Z</time>
      </trkpt>
      <trkpt lat="49.35558" lon="1.14288">
        <ele>64.8</ele>
        <time>2011-05-01T11:18:54Z</time>
      </trkpt>
      <trkpt lat="49.35592" lon="1.14281">
        <ele>63.6</ele>
        <time>2011-05-01T11:19:02Z</time>
      </trkpt>
      <trkpt lat="49.35595" lon="1.1428">
        <ele>63.8</ele>
        <time>2011-05-01T11:19:03Z</time>
      </trkpt>
      <trkpt lat="49.35605" lon="1.14273">
        <ele>64.5</ele>
        <time>2011-05-01T11:19:08Z</time>
      </trkpt>
      <trkpt lat="49.35606" lon="1.14274">
        <ele>64.6</ele>
        <time>2011-05-01T11:19:16Z</time>
      </trkpt>
      <trkpt lat="49.35608" lon="1.14272">
        <ele>64.7</ele>
        <time>2011-05-01T11:19:24Z</time>
      </trkpt>
      <trkpt lat="49.35609" lon="1.14271">
        <ele>64.7</ele>
        <time>2011-05-01T11:19:30Z</time>
      </trkpt>
      <trkpt lat="49.35612" lon="1.14265">
        <ele>65</ele>
        <time>2011-05-01T11:19:44Z</time>
      </trkpt>
      <trkpt lat="49.35618" lon="1.1426">
        <ele>65.4</ele>
        <time>2011-05-01T11:19:52Z</time>
      </trkpt>
      <trkpt lat="49.35622" lon="1.14258">
        <ele>65.7</ele>
        <time>2011-05-01T11:19:57Z</time>
      </trkpt>
      <trkpt lat="49.35624" lon="1.14256">
        <ele>65.9</ele>
        <time>2011-05-01T11:20:00Z</time>
      </trkpt>
      <trkpt lat="49.35629" lon="1.14248">
        <ele>66.2</ele>
        <time>2011-05-01T11:20:04Z</time>
      </trkpt>
      <trkpt lat="49.35649" lon="1.14232">
        <ele>67</ele>
        <time>2011-05-01T11:20:12Z</time>
      </trkpt>
      <trkpt lat="49.35651" lon="1.1423">
        <ele>67.1</ele>
        <time>2011-05-01T11:20:13Z</time>
      </trkpt>
      <trkpt lat="49.35658" lon="1.14221">
        <ele>67.3</ele>
        <time>2011-05-01T11:20:18Z</time>
      </trkpt>
      <trkpt lat="49.35673" lon="1.14217">
        <ele>68</ele>
        <time>2011-05-01T11:20:24Z</time>
      </trkpt>
      <trkpt lat="49.35674" lon="1.14216">
        <ele>68</ele>
        <time>2011-05-01T11:20:25Z</time>
      </trkpt>
      <trkpt lat="49.35685" lon="1.14202">
        <ele>68</ele>
        <time>2011-05-01T11:20:30Z</time>
      </trkpt>
      <trkpt lat="49.35695" lon="1.14176">
        <ele>67.6</ele>
        <time>2011-05-01T11:20:36Z</time>
      </trkpt>
      <trkpt lat="49.35702" lon="1.14152">
        <ele>66.7</ele>
        <time>2011-05-01T11:20:40Z</time>
      </trkpt>
      <trkpt lat="49.35709" lon="1.14131">
        <ele>65.7</ele>
        <time>2011-05-01T11:20:44Z</time>
      </trkpt>
      <trkpt lat="49.35716" lon="1.14107">
        <ele>64.7</ele>
        <time>2011-05-01T11:20:49Z</time>
      </trkpt>
      <trkpt lat="49.35728" lon="1.14084">
        <ele>64.6</ele>
        <time>2011-05-01T11:20:54Z</time>
      </trkpt>
      <trkpt lat="49.35743" lon="1.14066">
        <ele>64.4</ele>
        <time>2011-05-01T11:20:59Z</time>
      </trkpt>
      <trkpt lat="49.35758" lon="1.14058">
        <ele>64.1</ele>
        <time>2011-05-01T11:21:02Z</time>
      </trkpt>
      <trkpt lat="49.35774" lon="1.14046">
        <ele>63</ele>
        <time>2011-05-01T11:21:06Z</time>
      </trkpt>
      <trkpt lat="49.35787" lon="1.14038">
        <ele>62.4</ele>
        <time>2011-05-01T11:21:09Z</time>
      </trkpt>
      <trkpt lat="49.35806" lon="1.1403">
        <ele>62</ele>
        <time>2011-05-01T11:21:14Z</time>
      </trkpt>
      <trkpt lat="49.35809" lon="1.14029">
        <ele>62</ele>
        <time>2011-05-01T11:21:15Z</time>
      </trkpt>
      <trkpt lat="49.35819" lon="1.14024">
        <ele>61.8</ele>
        <time>2011-05-01T11:21:19Z</time>
      </trkpt>
      <trkpt lat="49.35829" lon="1.14016">
        <ele>61.6</ele>
        <time>2011-05-01T11:21:25Z</time>
      </trkpt>
      <trkpt lat="49.35838" lon="1.1401">
        <ele>61.8</ele>
        <time>2011-05-01T11:21:32Z</time>
      </trkpt>
      <trkpt lat="49.35849" lon="1.14009">
        <ele>62.4</ele>
        <time>2011-05-01T11:21:37Z</time>
      </trkpt>
      <trkpt lat="49.35862" lon="1.14013">
        <ele>63.3</ele>
        <time>2011-05-01T11:21:43Z</time>
      </trkpt>
      <trkpt lat="49.35875" lon="1.14022">
        <ele>64.1</ele>
        <time>2011-05-01T11:21:48Z</time>
      </trkpt>
      <trkpt lat="49.35888" lon="1.14036">
        <ele>64.7</ele>
        <time>2011-05-01T11:21:53Z</time>
      </trkpt>
      <trkpt lat="49.35902" lon="1.14051">
        <ele>64.9</ele>
        <time>2011-05-01T11:22:00Z</time>
      </trkpt>
      <trkpt lat="49.35904" lon="1.14052">
        <ele>64.9</ele>
        <time>2011-05-01T11:22:01Z</time>
      </trkpt>
      <trkpt lat="49.35919" lon="1.14062">
        <ele>64.9</ele>
        <time>2011-05-01T11:22:07Z</time>
      </trkpt>
      <trkpt lat="49.35932" lon="1.14062">
        <ele>65.9</ele>
        <time>2011-05-01T11:22:11Z</time>
      </trkpt>
      <trkpt lat="49.35943" lon="1.14058">
        <ele>66.8</ele>
        <time>2011-05-01T11:22:15Z</time>
      </trkpt>
      <trkpt lat="49.35945" lon="1.14043">
        <ele>67.5</ele>
        <time>2011-05-01T11:22:19Z</time>
      </trkpt>
      <trkpt lat="49.35943" lon="1.14039">
        <ele>67.5</ele>
        <time>2011-05-01T11:22:20Z</time>
      </trkpt>
      <trkpt lat="49.35934" lon="1.14011">
        <ele>67.9</ele>
        <time>2011-05-01T11:22:26Z</time>
      </trkpt>
      <trkpt lat="49.35927" lon="1.13979">
        <ele>68.5</ele>
        <time>2011-05-01T11:22:34Z</time>
      </trkpt>
      <trkpt lat="49.35916" lon="1.13956">
        <ele>68.6</ele>
        <time>2011-05-01T11:22:42Z</time>
      </trkpt>
      <trkpt lat="49.35905" lon="1.13944">
        <ele>68.3</ele>
        <time>2011-05-01T11:22:49Z</time>
      </trkpt>
      <trkpt lat="49.35895" lon="1.13932">
        <ele>68.3</ele>
        <time>2011-05-01T11:22:55Z</time>
      </trkpt>
      <trkpt lat="49.35884" lon="1.13918">
        <ele>68.4</ele>
        <time>2011-05-01T11:23:01Z</time>
      </trkpt>
      <trkpt lat="49.35872" lon="1.13905">
        <ele>68.2</ele>
        <time>2011-05-01T11:23:07Z</time>
      </trkpt>
      <trkpt lat="49.35863" lon="1.13885">
        <ele>68.3</ele>
        <time>2011-05-01T11:23:15Z</time>
      </trkpt>
      <trkpt lat="49.35865" lon="1.13866">
        <ele>68.9</ele>
        <time>2011-05-01T11:23:22Z</time>
      </trkpt>
      <trkpt lat="49.35868" lon="1.13846">
        <ele>69.5</ele>
        <time>2011-05-01T11:23:30Z</time>
      </trkpt>
      <trkpt lat="49.35872" lon="1.13832">
        <ele>70</ele>
        <time>2011-05-01T11:23:36Z</time>
      </trkpt>
      <trkpt lat="49.35882" lon="1.13831">
        <ele>70.2</ele>
        <time>2011-05-01T11:23:42Z</time>
      </trkpt>
      <trkpt lat="49.35888" lon="1.13837">
        <ele>70.3</ele>
        <time>2011-05-01T11:23:45Z</time>
      </trkpt>
      <trkpt lat="49.35909" lon="1.13855">
        <ele>70.5</ele>
        <time>2011-05-01T11:23:53Z</time>
      </trkpt>
      <trkpt lat="49.35936" lon="1.13883">
        <ele>71.7</ele>
        <time>2011-05-01T11:24:01Z</time>
      </trkpt>
      <trkpt lat="49.35942" lon="1.13894">
        <ele>71.9</ele>
        <time>2011-05-01T11:24:03Z</time>
      </trkpt>
      <trkpt lat="49.35948" lon="1.1391">
        <ele>72</ele>
        <time>2011-05-01T11:24:06Z</time>
      </trkpt>
      <trkpt lat="49.35962" lon="1.13955">
        <ele>71.6</ele>
        <time>2011-05-01T11:24:15Z</time>
      </trkpt>
      <trkpt lat="49.35973" lon="1.13978">
        <ele>71.7</ele>
        <time>2011-05-01T11:24:21Z</time>
      </trkpt>
      <trkpt lat="49.35994" lon="1.14007">
        <ele>72.4</ele>
        <time>2011-05-01T11:24:28Z</time>
      </trkpt>
      <trkpt lat="49.36016" lon="1.14028">
        <ele>73.7</ele>
        <time>2011-05-01T11:24:35Z</time>
      </trkpt>
      <trkpt lat="49.36045" lon="1.14044">
        <ele>76.6</ele>
        <time>2011-05-01T11:24:43Z</time>
      </trkpt>
      <trkpt lat="49.36072" lon="1.14051">
        <ele>79.9</ele>
        <time>2011-05-01T11:24:51Z</time>
      </trkpt>
      <trkpt lat="49.36099" lon="1.14058">
        <ele>83.6</ele>
        <time>2011-05-01T11:24:59Z</time>
      </trkpt>
      <trkpt lat="49.36117" lon="1.14077">
        <ele>86.6</ele>
        <time>2011-05-01T11:25:06Z</time>
      </trkpt>
      <trkpt lat="49.36127" lon="1.14097">
        <ele>87.7</ele>
        <time>2011-05-01T11:25:12Z</time>
      </trkpt>
      <trkpt lat="49.36129" lon="1.14101">
        <ele>87.9</ele>
        <time>2011-05-01T11:25:14Z</time>
      </trkpt>
      <trkpt lat="49.36136" lon="1.14102">
        <ele>88.9</ele>
        <time>2011-05-01T11:25:18Z</time>
      </trkpt>
      <trkpt lat="49.36154" lon="1.14111">
        <ele>91.3</ele>
        <time>2011-05-01T11:25:26Z</time>
      </trkpt>
      <trkpt lat="49.36174" lon="1.14121">
        <ele>93.6</ele>
        <time>2011-05-01T11:25:35Z</time>
      </trkpt>
      <trkpt lat="49.36196" lon="1.1413">
        <ele>96</ele>
        <time>2011-05-01T11:25:46Z</time>
      </trkpt>
      <trkpt lat="49.36219" lon="1.14135">
        <ele>98.7</ele>
        <time>2011-05-01T11:25:57Z</time>
      </trkpt>
      <trkpt lat="49.36231" lon="1.14139">
        <ele>100</ele>
        <time>2011-05-01T11:26:03Z</time>
      </trkpt>
      <trkpt lat="49.36246" lon="1.1414">
        <ele>101.8</ele>
        <time>2011-05-01T11:26:09Z</time>
      </trkpt>
      <trkpt lat="49.36264" lon="1.14146">
        <ele>103.4</ele>
        <time>2011-05-01T11:26:18Z</time>
      </trkpt>
      <trkpt lat="49.36274" lon="1.1415">
        <ele>104.3</ele>
        <time>2011-05-01T11:26:23Z</time>
      </trkpt>
      <trkpt lat="49.36284" lon="1.14162">
        <ele>104.8</ele>
        <time>2011-05-01T11:26:30Z</time>
      </trkpt>
      <trkpt lat="49.36301" lon="1.14172">
        <ele>106.4</ele>
        <time>2011-05-01T11:26:37Z</time>
      </trkpt>
      <trkpt lat="49.36318" lon="1.14178">
        <ele>108.2</ele>
        <time>2011-05-01T11:26:45Z</time>
      </trkpt>
      <trkpt lat="49.36336" lon="1.14182">
        <ele>110.1</ele>
        <time>2011-05-01T11:26:53Z</time>
      </trkpt>
      <trkpt lat="49.36351" lon="1.14188">
        <ele>111.4</ele>
        <time>2011-05-01T11:27:01Z</time>
      </trkpt>
      <trkpt lat="49.36366" lon="1.14189">
        <ele>112.8</ele>
        <time>2011-05-01T11:27:09Z</time>
      </trkpt>
      <trkpt lat="49.36386" lon="1.14188">
        <ele>114.6</ele>
        <time>2011-05-01T11:27:19Z</time>
      </trkpt>
      <trkpt lat="49.36399" lon="1.14182">
        <ele>116</ele>
        <time>2011-05-01T11:27:26Z</time>
      </trkpt>
      <trkpt lat="49.36417" lon="1.14172">
        <ele>117.9</ele>
        <time>2011-05-01T11:27:36Z</time>
      </trkpt>
      <trkpt lat="49.36428" lon="1.14181">
        <ele>118.4</ele>
        <time>2011-05-01T11:27:42Z</time>
      </trkpt>
      <trkpt lat="49.36439" lon="1.14198">
        <ele>118.9</ele>
        <time>2011-05-01T11:27:49Z</time>
      </trkpt>
      <trkpt lat="49.3645" lon="1.14224">
        <ele>119.5</ele>
        <time>2011-05-01T11:27:57Z</time>
      </trkpt>
      <trkpt lat="49.3646" lon="1.14245">
        <ele>120.2</ele>
        <time>2011-05-01T11:28:04Z</time>
      </trkpt>
      <trkpt lat="49.36472" lon="1.1426">
        <ele>121</ele>
        <time>2011-05-01T11:28:10Z</time>
      </trkpt>
      <trkpt lat="49.3648" lon="1.14275">
        <ele>121.3</ele>
        <time>2011-05-01T11:28:15Z</time>
      </trkpt>
      <trkpt lat="49.36487" lon="1.14298">
        <ele>120.9</ele>
        <time>2011-05-01T11:28:21Z</time>
      </trkpt>
      <trkpt lat="49.36498" lon="1.14318">
        <ele>120.7</ele>
        <time>2011-05-01T11:28:27Z</time>
      </trkpt>
      <trkpt lat="49.36513" lon="1.14342">
        <ele>120.4</ele>
        <time>2011-05-01T11:28:34Z</time>
      </trkpt>
      <trkpt lat="49.36527" lon="1.14366">
        <ele>120.4</ele>
        <time>2011-05-01T11:28:41Z</time>
      </trkpt>
      <trkpt lat="49.36541" lon="1.1439">
        <ele>120.3</ele>
        <time>2011-05-01T11:28:48Z</time>
      </trkpt>
      <trkpt lat="49.36562" lon="1.1441">
        <ele>120.5</ele>
        <time>2011-05-01T11:28:56Z</time>
      </trkpt>
      <trkpt lat="49.36583" lon="1.14409">
        <ele>121.3</ele>
        <time>2011-05-01T11:29:03Z</time>
      </trkpt>
      <trkpt lat="49.36601" lon="1.14402">
        <ele>122.1</ele>
        <time>2011-05-01T11:29:10Z</time>
      </trkpt>
      <trkpt lat="49.36619" lon="1.14396">
        <ele>122.8</ele>
        <time>2011-05-01T11:29:18Z</time>
      </trkpt>
      <trkpt lat="49.36641" lon="1.14388">
        <ele>123.6</ele>
        <time>2011-05-01T11:29:28Z</time>
      </trkpt>
      <trkpt lat="49.36657" lon="1.14382">
        <ele>124.2</ele>
        <time>2011-05-01T11:29:35Z</time>
      </trkpt>
      <trkpt lat="49.36681" lon="1.14373">
        <ele>124.9</ele>
        <time>2011-05-01T11:29:45Z</time>
      </trkpt>
      <trkpt lat="49.36706" lon="1.14364">
        <ele>125.4</ele>
        <time>2011-05-01T11:29:55Z</time>
      </trkpt>
      <trkpt lat="49.36728" lon="1.14357">
        <ele>125.9</ele>
        <time>2011-05-01T11:30:04Z</time>
      </trkpt>
      <trkpt lat="49.36747" lon="1.14355">
        <ele>126.2</ele>
        <time>2011-05-01T11:30:11Z</time>
      </trkpt>
      <trkpt lat="49.36765" lon="1.14351">
        <ele>126.8</ele>
        <time>2011-05-01T11:30:18Z</time>
      </trkpt>
      <trkpt lat="49.36786" lon="1.14348">
        <ele>127.7</ele>
        <time>2011-05-01T11:30:25Z</time>
      </trkpt>
      <trkpt lat="49.36814" lon="1.1435">
        <ele>128.8</ele>
        <time>2011-05-01T11:30:34Z</time>
      </trkpt>
      <trkpt lat="49.36834" lon="1.14351">
        <ele>129.6</ele>
        <time>2011-05-01T11:30:41Z</time>
      </trkpt>
      <trkpt lat="49.36861" lon="1.14351">
        <ele>129</ele>
        <time>2011-05-01T11:30:49Z</time>
      </trkpt>
      <trkpt lat="49.3689" lon="1.14355">
        <ele>128.3</ele>
        <time>2011-05-01T11:30:57Z</time>
      </trkpt>
      <trkpt lat="49.3692" lon="1.14357">
        <ele>127.6</ele>
        <time>2011-05-01T11:31:05Z</time>
      </trkpt>
      <trkpt lat="49.36942" lon="1.14355">
        <ele>127.1</ele>
        <time>2011-05-01T11:31:11Z</time>
      </trkpt>
      <trkpt lat="49.36963" lon="1.14352">
        <ele>126.7</ele>
        <time>2011-05-01T11:31:17Z</time>
      </trkpt>
      <trkpt lat="49.36981" lon="1.14347">
        <ele>126.3</ele>
        <time>2011-05-01T11:31:23Z</time>
      </trkpt>
      <trkpt lat="49.3698" lon="1.14349">
        <ele>126.3</ele>
        <time>2011-05-01T11:31:28Z</time>
      </trkpt>
      <trkpt lat="49.3698" lon="1.14352">
        <ele>126.3</ele>
        <time>2011-05-01T11:31:36Z</time>
      </trkpt>
      <trkpt lat="49.3698" lon="1.14354">
        <ele>126.2</ele>
        <time>2011-05-01T11:31:47Z</time>
      </trkpt>
      <trkpt lat="49.36981" lon="1.14354">
        <ele>126.2</ele>
        <time>2011-05-01T11:31:52Z</time>
      </trkpt>
      <trkpt lat="49.36978" lon="1.1435">
        <ele>126.3</ele>
        <time>2011-05-01T11:32:14Z</time>
      </trkpt>
      <trkpt lat="49.3698" lon="1.14351">
        <ele>126.3</ele>
        <time>2011-05-01T11:32:23Z</time>
      </trkpt>
      <trkpt lat="49.36981" lon="1.14351">
        <ele>126.2</ele>
        <time>2011-05-01T11:32:32Z</time>
      </trkpt>
      <trkpt lat="49.36979" lon="1.14336">
        <ele>126.5</ele>
        <time>2011-05-01T11:32:37Z</time>
      </trkpt>
      <trkpt lat="49.36967" lon="1.143">
        <ele>127.3</ele>
        <time>2011-05-01T11:32:45Z</time>
      </trkpt>
      <trkpt lat="49.36953" lon="1.1426">
        <ele>127.9</ele>
        <time>2011-05-01T11:32:51Z</time>
      </trkpt>
      <trkpt lat="49.36945" lon="1.14239">
        <ele>128</ele>
        <time>2011-05-01T11:32:54Z</time>
      </trkpt>
      <trkpt lat="49.36929" lon="1.14183">
        <ele>127.6</ele>
        <time>2011-05-01T11:33:02Z</time>
      </trkpt>
      <trkpt lat="49.36907" lon="1.14106">
        <ele>128.2</ele>
        <time>2011-05-01T11:33:12Z</time>
      </trkpt>
      <trkpt lat="49.36887" lon="1.14038">
        <ele>127.4</ele>
        <time>2011-05-01T11:33:20Z</time>
      </trkpt>
      <trkpt lat="49.36873" lon="1.13991">
        <ele>126.8</ele>
        <time>2011-05-01T11:33:25Z</time>
      </trkpt>
      <trkpt lat="49.36869" lon="1.13974">
        <ele>126.5</ele>
        <time>2011-05-01T11:33:27Z</time>
      </trkpt>
      <trkpt lat="49.36851" lon="1.13912">
        <ele>125.1</ele>
        <time>2011-05-01T11:33:33Z</time>
      </trkpt>
      <trkpt lat="49.36839" lon="1.13878">
        <ele>124.5</ele>
        <time>2011-05-01T11:33:37Z</time>
      </trkpt>
      <trkpt lat="49.36836" lon="1.13851">
        <ele>124.2</ele>
        <time>2011-05-01T11:33:41Z</time>
      </trkpt>
      <trkpt lat="49.36838" lon="1.13816">
        <ele>123.7</ele>
        <time>2011-05-01T11:33:45Z</time>
      </trkpt>
      <trkpt lat="49.36838" lon="1.13805">
        <ele>123.5</ele>
        <time>2011-05-01T11:33:46Z</time>
      </trkpt>
      <trkpt lat="49.36843" lon="1.1377">
        <ele>122.8</ele>
        <time>2011-05-01T11:33:51Z</time>
      </trkpt>
      <trkpt lat="49.36843" lon="1.13758">
        <ele>122.6</ele>
        <time>2011-05-01T11:33:53Z</time>
      </trkpt>
      <trkpt lat="49.36833" lon="1.13722">
        <ele>122.3</ele>
        <time>2011-05-01T11:33:58Z</time>
      </trkpt>
      <trkpt lat="49.36825" lon="1.13701">
        <ele>121.2</ele>
        <time>2011-05-01T11:34:01Z</time>
      </trkpt>
      <trkpt lat="49.3682" lon="1.13684">
        <ele>120.4</ele>
        <time>2011-05-01T11:34:03Z</time>
      </trkpt>
      <trkpt lat="49.36809" lon="1.13649">
        <ele>118.1</ele>
        <time>2011-05-01T11:34:08Z</time>
      </trkpt>
      <trkpt lat="49.36807" lon="1.13643">
        <ele>117.7</ele>
        <time>2011-05-01T11:34:09Z</time>
      </trkpt>
      <trkpt lat="49.36801" lon="1.13624">
        <ele>116.2</ele>
        <time>2011-05-01T11:34:12Z</time>
      </trkpt>
      <trkpt lat="49.36791" lon="1.13588">
        <ele>113.1</ele>
        <time>2011-05-01T11:34:17Z</time>
      </trkpt>
      <trkpt lat="49.36783" lon="1.13563">
        <ele>110</ele>
        <time>2011-05-01T11:34:22Z</time>
      </trkpt>
      <trkpt lat="49.36778" lon="1.13544">
        <ele>107.8</ele>
        <time>2011-05-01T11:34:27Z</time>
      </trkpt>
      <trkpt lat="49.36777" lon="1.1354">
        <ele>107.2</ele>
        <time>2011-05-01T11:34:30Z</time>
      </trkpt>
      <trkpt lat="49.36772" lon="1.13524">
        <ele>105.2</ele>
        <time>2011-05-01T11:34:36Z</time>
      </trkpt>
      <trkpt lat="49.36767" lon="1.13494">
        <ele>101.7</ele>
        <time>2011-05-01T11:34:42Z</time>
      </trkpt>
      <trkpt lat="49.36758" lon="1.13466">
        <ele>97.8</ele>
        <time>2011-05-01T11:34:46Z</time>
      </trkpt>
      <trkpt lat="49.36743" lon="1.13419">
        <ele>91.5</ele>
        <time>2011-05-01T11:34:52Z</time>
      </trkpt>
      <trkpt lat="49.36721" lon="1.13374">
        <ele>85.8</ele>
        <time>2011-05-01T11:34:58Z</time>
      </trkpt>
      <trkpt lat="49.36715" lon="1.13362">
        <ele>84.3</ele>
        <time>2011-05-01T11:35:00Z</time>
      </trkpt>
      <trkpt lat="49.36703" lon="1.1333">
        <ele>80.6</ele>
        <time>2011-05-01T11:35:05Z</time>
      </trkpt>
      <trkpt lat="49.36694" lon="1.13295">
        <ele>77</ele>
        <time>2011-05-01T11:35:10Z</time>
      </trkpt>
      <trkpt lat="49.36686" lon="1.13252">
        <ele>73.2</ele>
        <time>2011-05-01T11:35:15Z</time>
      </trkpt>
      <trkpt lat="49.36685" lon="1.13223">
        <ele>69.7</ele>
        <time>2011-05-01T11:35:18Z</time>
      </trkpt>
      <trkpt lat="49.36686" lon="1.13206">
        <ele>67.6</ele>
        <time>2011-05-01T11:35:20Z</time>
      </trkpt>
      <trkpt lat="49.36686" lon="1.13189">
        <ele>65.4</ele>
        <time>2011-05-01T11:35:22Z</time>
      </trkpt>
      <trkpt lat="49.3669" lon="1.13148">
        <ele>59.8</ele>
        <time>2011-05-01T11:35:26Z</time>
      </trkpt>
      <trkpt lat="49.36698" lon="1.13124">
        <ele>56</ele>
        <time>2011-05-01T11:35:29Z</time>
      </trkpt>
      <trkpt lat="49.3671" lon="1.13106">
        <ele>53.3</ele>
        <time>2011-05-01T11:35:32Z</time>
      </trkpt>
      <trkpt lat="49.36719" lon="1.13086">
        <ele>50.1</ele>
        <time>2011-05-01T11:35:35Z</time>
      </trkpt>
      <trkpt lat="49.36728" lon="1.13064">
        <ele>45.2</ele>
        <time>2011-05-01T11:35:40Z</time>
      </trkpt>
      <trkpt lat="49.36729" lon="1.13058">
        <ele>43.8</ele>
        <time>2011-05-01T11:35:45Z</time>
      </trkpt>
      <trkpt lat="49.36735" lon="1.13054">
        <ele>42.8</ele>
        <time>2011-05-01T11:35:58Z</time>
      </trkpt>
      <trkpt lat="49.36744" lon="1.13041">
        <ele>39.7</ele>
        <time>2011-05-01T11:36:03Z</time>
      </trkpt>
      <trkpt lat="49.36744" lon="1.13035">
        <ele>38.4</ele>
        <time>2011-05-01T11:36:04Z</time>
      </trkpt>
      <trkpt lat="49.36759" lon="1.13006">
        <ele>29.3</ele>
        <time>2011-05-01T11:36:10Z</time>
      </trkpt>
      <trkpt lat="49.36766" lon="1.12992">
        <ele>25.3</ele>
        <time>2011-05-01T11:36:12Z</time>
      </trkpt>
      <trkpt lat="49.36789" lon="1.12965">
        <ele>17.6</ele>
        <time>2011-05-01T11:36:17Z</time>
      </trkpt>
      <trkpt lat="49.36814" lon="1.12951">
        <ele>12.8</ele>
        <time>2011-05-01T11:36:22Z</time>
      </trkpt>
      <trkpt lat="49.36838" lon="1.1296">
        <ele>11.3</ele>
        <time>2011-05-01T11:36:27Z</time>
      </trkpt>
      <trkpt lat="49.36848" lon="1.12968">
        <ele>13.2</ele>
        <time>2011-05-01T11:36:29Z</time>
      </trkpt>
      <trkpt lat="49.36869" lon="1.12981">
        <ele>15.6</ele>
        <time>2011-05-01T11:36:34Z</time>
      </trkpt>
      <trkpt lat="49.3688" lon="1.12981">
        <ele>16.9</ele>
        <time>2011-05-01T11:36:37Z</time>
      </trkpt>
      <trkpt lat="49.36885" lon="1.12963">
        <ele>19.4</ele>
        <time>2011-05-01T11:36:41Z</time>
      </trkpt>
      <trkpt lat="49.3688" lon="1.12934">
        <ele>21.1</ele>
        <time>2011-05-01T11:36:45Z</time>
      </trkpt>
      <trkpt lat="49.36879" lon="1.12911">
        <ele>22.3</ele>
        <time>2011-05-01T11:36:50Z</time>
      </trkpt>
      <trkpt lat="49.36884" lon="1.12904">
        <ele>23.8</ele>
        <time>2011-05-01T11:36:56Z</time>
      </trkpt>
      <trkpt lat="49.36884" lon="1.12902">
        <ele>23.9</ele>
        <time>2011-05-01T11:37:07Z</time>
      </trkpt>
      <trkpt lat="49.36885" lon="1.12901">
        <ele>24.2</ele>
        <time>2011-05-01T11:37:08Z</time>
      </trkpt>
      <trkpt lat="49.36894" lon="1.12914">
        <ele>26.6</ele>
        <time>2011-05-01T11:37:13Z</time>
      </trkpt>
      <trkpt lat="49.36909" lon="1.12945">
        <ele>26.5</ele>
        <time>2011-05-01T11:37:19Z</time>
      </trkpt>
      <trkpt lat="49.36929" lon="1.12979">
        <ele>24.8</ele>
        <time>2011-05-01T11:37:26Z</time>
      </trkpt>
      <trkpt lat="49.36957" lon="1.13015">
        <ele>24.8</ele>
        <time>2011-05-01T11:37:35Z</time>
      </trkpt>
      <trkpt lat="49.36986" lon="1.13044">
        <ele>24.3</ele>
        <time>2011-05-01T11:37:43Z</time>
      </trkpt>
      <trkpt lat="49.37018" lon="1.13069">
        <ele>24.6</ele>
        <time>2011-05-01T11:37:52Z</time>
      </trkpt>
      <trkpt lat="49.37051" lon="1.13086">
        <ele>27.8</ele>
        <time>2011-05-01T11:38:01Z</time>
      </trkpt>
      <trkpt lat="49.37076" lon="1.13097">
        <ele>31.9</ele>
        <time>2011-05-01T11:38:08Z</time>
      </trkpt>
      <trkpt lat="49.37102" lon="1.13104">
        <ele>40.2</ele>
        <time>2011-05-01T11:38:16Z</time>
      </trkpt>
      <trkpt lat="49.37117" lon="1.13115">
        <ele>45.1</ele>
        <time>2011-05-01T11:38:21Z</time>
      </trkpt>
      <trkpt lat="49.37134" lon="1.13135">
        <ele>49.6</ele>
        <time>2011-05-01T11:38:28Z</time>
      </trkpt>
      <trkpt lat="49.37148" lon="1.13152">
        <ele>52.5</ele>
        <time>2011-05-01T11:38:34Z</time>
      </trkpt>
      <trkpt lat="49.37176" lon="1.13189">
        <ele>58.2</ele>
        <time>2011-05-01T11:38:46Z</time>
      </trkpt>
      <trkpt lat="49.37191" lon="1.13217">
        <ele>60.6</ele>
        <time>2011-05-01T11:38:54Z</time>
      </trkpt>
      <trkpt lat="49.37201" lon="1.1325">
        <ele>60.8</ele>
        <time>2011-05-01T11:39:02Z</time>
      </trkpt>
      <trkpt lat="49.37207" lon="1.13276">
        <ele>60.2</ele>
        <time>2011-05-01T11:39:08Z</time>
      </trkpt>
      <trkpt lat="49.3722" lon="1.13312">
        <ele>61.2</ele>
        <time>2011-05-01T11:39:16Z</time>
      </trkpt>
      <trkpt lat="49.37235" lon="1.13355">
        <ele>61</ele>
        <time>2011-05-01T11:39:26Z</time>
      </trkpt>
      <trkpt lat="49.37249" lon="1.13395">
        <ele>59.7</ele>
        <time>2011-05-01T11:39:35Z</time>
      </trkpt>
      <trkpt lat="49.37267" lon="1.13442">
        <ele>59.8</ele>
        <time>2011-05-01T11:39:45Z</time>
      </trkpt>
      <trkpt lat="49.3729" lon="1.13491">
        <ele>62</ele>
        <time>2011-05-01T11:39:56Z</time>
      </trkpt>
      <trkpt lat="49.37317" lon="1.13538">
        <ele>64.5</ele>
        <time>2011-05-01T11:40:07Z</time>
      </trkpt>
      <trkpt lat="49.37342" lon="1.1358">
        <ele>63.6</ele>
        <time>2011-05-01T11:40:18Z</time>
      </trkpt>
      <trkpt lat="49.37359" lon="1.13608">
        <ele>61.9</ele>
        <time>2011-05-01T11:40:26Z</time>
      </trkpt>
      <trkpt lat="49.37378" lon="1.13639">
        <ele>60.5</ele>
        <time>2011-05-01T11:40:35Z</time>
      </trkpt>
      <trkpt lat="49.37395" lon="1.13668">
        <ele>59.8</ele>
        <time>2011-05-01T11:40:43Z</time>
      </trkpt>
      <trkpt lat="49.37417" lon="1.13712">
        <ele>60.7</ele>
        <time>2011-05-01T11:40:54Z</time>
      </trkpt>
      <trkpt lat="49.37434" lon="1.13738">
        <ele>61.8</ele>
        <time>2011-05-01T11:41:02Z</time>
      </trkpt>
      <trkpt lat="49.37447" lon="1.13757">
        <ele>62.6</ele>
        <time>2011-05-01T11:41:11Z</time>
      </trkpt>
      <trkpt lat="49.37456" lon="1.13772">
        <ele>61.4</ele>
        <time>2011-05-01T11:41:17Z</time>
      </trkpt>
      <trkpt lat="49.37471" lon="1.13795">
        <ele>59.5</ele>
        <time>2011-05-01T11:41:25Z</time>
      </trkpt>
      <trkpt lat="49.37491" lon="1.13814">
        <ele>58.7</ele>
        <time>2011-05-01T11:41:34Z</time>
      </trkpt>
      <trkpt lat="49.37505" lon="1.13821">
        <ele>59.3</ele>
        <time>2011-05-01T11:41:41Z</time>
      </trkpt>
      <trkpt lat="49.37526" lon="1.13827">
        <ele>60.7</ele>
        <time>2011-05-01T11:41:51Z</time>
      </trkpt>
      <trkpt lat="49.37542" lon="1.13832">
        <ele>61.6</ele>
        <time>2011-05-01T11:41:59Z</time>
      </trkpt>
      <trkpt lat="49.37561" lon="1.13839">
        <ele>62.8</ele>
        <time>2011-05-01T11:42:08Z</time>
      </trkpt>
      <trkpt lat="49.37574" lon="1.13845">
        <ele>63.3</ele>
        <time>2011-05-01T11:42:15Z</time>
      </trkpt>
      <trkpt lat="49.37593" lon="1.13854">
        <ele>63.3</ele>
        <time>2011-05-01T11:42:25Z</time>
      </trkpt>
      <trkpt lat="49.37602" lon="1.13862">
        <ele>62.1</ele>
        <time>2011-05-01T11:42:31Z</time>
      </trkpt>
      <trkpt lat="49.37615" lon="1.13867">
        <ele>61.9</ele>
        <time>2011-05-01T11:42:38Z</time>
      </trkpt>
      <trkpt lat="49.37628" lon="1.1387">
        <ele>62.2</ele>
        <time>2011-05-01T11:42:45Z</time>
      </trkpt>
      <trkpt lat="49.3764" lon="1.13873">
        <ele>62.7</ele>
        <time>2011-05-01T11:42:51Z</time>
      </trkpt>
      <trkpt lat="49.37657" lon="1.13878">
        <ele>62.8</ele>
        <time>2011-05-01T11:42:58Z</time>
      </trkpt>
      <trkpt lat="49.37675" lon="1.13882">
        <ele>63.6</ele>
        <time>2011-05-01T11:43:06Z</time>
      </trkpt>
      <trkpt lat="49.37692" lon="1.13883">
        <ele>65</ele>
        <time>2011-05-01T11:43:14Z</time>
      </trkpt>
      <trkpt lat="49.37704" lon="1.13885">
        <ele>65.7</ele>
        <time>2011-05-01T11:43:21Z</time>
      </trkpt>
      <trkpt lat="49.37718" lon="1.13884">
        <ele>67.3</ele>
        <time>2011-05-01T11:43:30Z</time>
      </trkpt>
      <trkpt lat="49.37729" lon="1.13877">
        <ele>70.5</ele>
        <time>2011-05-01T11:43:36Z</time>
      </trkpt>
      <trkpt lat="49.37734" lon="1.13867">
        <ele>73.8</ele>
        <time>2011-05-01T11:43:41Z</time>
      </trkpt>
      <trkpt lat="49.37736" lon="1.13862">
        <ele>75.6</ele>
        <time>2011-05-01T11:43:44Z</time>
      </trkpt>
      <trkpt lat="49.37747" lon="1.13844">
        <ele>81.7</ele>
        <time>2011-05-01T11:43:55Z</time>
      </trkpt>
      <trkpt lat="49.37755" lon="1.13846">
        <ele>82.2</ele>
        <time>2011-05-01T11:44:01Z</time>
      </trkpt>
      <trkpt lat="49.37766" lon="1.13854">
        <ele>81.9</ele>
        <time>2011-05-01T11:44:09Z</time>
      </trkpt>
      <trkpt lat="49.3777" lon="1.13858">
        <ele>81.6</ele>
        <time>2011-05-01T11:44:13Z</time>
      </trkpt>
      <trkpt lat="49.37776" lon="1.13865">
        <ele>81</ele>
        <time>2011-05-01T11:44:18Z</time>
      </trkpt>
      <trkpt lat="49.37786" lon="1.13874">
        <ele>81.3</ele>
        <time>2011-05-01T11:44:24Z</time>
      </trkpt>
      <trkpt lat="49.37789" lon="1.13877">
        <ele>81.2</ele>
        <time>2011-05-01T11:44:31Z</time>
      </trkpt>
      <trkpt lat="49.37792" lon="1.13881">
        <ele>81.4</ele>
        <time>2011-05-01T11:44:38Z</time>
      </trkpt>
      <trkpt lat="49.37793" lon="1.13881">
        <ele>81.5</ele>
        <time>2011-05-01T11:44:39Z</time>
      </trkpt>
      <trkpt lat="49.37795" lon="1.13879">
        <ele>82.5</ele>
        <time>2011-05-01T11:44:42Z</time>
      </trkpt>
      <trkpt lat="49.37803" lon="1.13875">
        <ele>84.8</ele>
        <time>2011-05-01T11:44:50Z</time>
      </trkpt>
      <trkpt lat="49.37808" lon="1.13874">
        <ele>86.1</ele>
        <time>2011-05-01T11:45:00Z</time>
      </trkpt>
      <trkpt lat="49.37811" lon="1.13869">
        <ele>87.3</ele>
        <time>2011-05-01T11:45:06Z</time>
      </trkpt>
      <trkpt lat="49.37813" lon="1.13869">
        <ele>87.8</ele>
        <time>2011-05-01T11:45:09Z</time>
      </trkpt>
      <trkpt lat="49.37821" lon="1.13864">
        <ele>90.1</ele>
        <time>2011-05-01T11:45:15Z</time>
      </trkpt>
      <trkpt lat="49.37838" lon="1.13848">
        <ele>95.3</ele>
        <time>2011-05-01T11:45:21Z</time>
      </trkpt>
      <trkpt lat="49.37854" lon="1.13836">
        <ele>101.5</ele>
        <time>2011-05-01T11:45:25Z</time>
      </trkpt>
      <trkpt lat="49.37878" lon="1.13826">
        <ele>109.9</ele>
        <time>2011-05-01T11:45:29Z</time>
      </trkpt>
      <trkpt lat="49.37882" lon="1.13825">
        <ele>111</ele>
        <time>2011-05-01T11:45:30Z</time>
      </trkpt>
      <trkpt lat="49.37887" lon="1.13829">
        <ele>112.6</ele>
        <time>2011-05-01T11:45:35Z</time>
      </trkpt>
      <trkpt lat="49.37893" lon="1.13827">
        <ele>114.6</ele>
        <time>2011-05-01T11:45:43Z</time>
      </trkpt>
      <trkpt lat="49.37891" lon="1.13823">
        <ele>114</ele>
        <time>2011-05-01T11:45:49Z</time>
      </trkpt>
      <trkpt lat="49.37892" lon="1.13816">
        <ele>114.4</ele>
        <time>2011-05-01T11:45:55Z</time>
      </trkpt>
      <trkpt lat="49.37892" lon="1.13806">
        <ele>114.6</ele>
        <time>2011-05-01T11:46:02Z</time>
      </trkpt>
      <trkpt lat="49.37901" lon="1.13789">
        <ele>117.1</ele>
        <time>2011-05-01T11:46:29Z</time>
      </trkpt>
      <trkpt lat="49.37902" lon="1.1378">
        <ele>117.3</ele>
        <time>2011-05-01T11:46:35Z</time>
      </trkpt>
      <trkpt lat="49.37902" lon="1.13776">
        <ele>117.2</ele>
        <time>2011-05-01T11:46:37Z</time>
      </trkpt>
      <trkpt lat="49.37911" lon="1.13771">
        <ele>119.3</ele>
        <time>2011-05-01T11:46:46Z</time>
      </trkpt>
      <trkpt lat="49.37914" lon="1.13766">
        <ele>119.7</ele>
        <time>2011-05-01T11:46:51Z</time>
      </trkpt>
      <trkpt lat="49.3791" lon="1.13756">
        <ele>118.8</ele>
        <time>2011-05-01T11:46:57Z</time>
      </trkpt>
      <trkpt lat="49.37915" lon="1.13753">
        <ele>119.7</ele>
        <time>2011-05-01T11:47:03Z</time>
      </trkpt>
      <trkpt lat="49.37921" lon="1.13749">
        <ele>120.4</ele>
        <time>2011-05-01T11:47:11Z</time>
      </trkpt>
      <trkpt lat="49.37922" lon="1.13742">
        <ele>120.5</ele>
        <time>2011-05-01T11:47:16Z</time>
      </trkpt>
      <trkpt lat="49.37925" lon="1.13736">
        <ele>120.6</ele>
        <time>2011-05-01T11:47:20Z</time>
      </trkpt>
      <trkpt lat="49.37928" lon="1.1373">
        <ele>120.8</ele>
        <time>2011-05-01T11:47:26Z</time>
      </trkpt>
      <trkpt lat="49.37931" lon="1.13724">
        <ele>121</ele>
        <time>2011-05-01T11:47:33Z</time>
      </trkpt>
      <trkpt lat="49.37937" lon="1.13718">
        <ele>121.6</ele>
        <time>2011-05-01T11:47:40Z</time>
      </trkpt>
      <trkpt lat="49.3794" lon="1.13711">
        <ele>121.7</ele>
        <time>2011-05-01T11:47:46Z</time>
      </trkpt>
      <trkpt lat="49.37942" lon="1.13705">
        <ele>121.8</ele>
        <time>2011-05-01T11:47:53Z</time>
      </trkpt>
      <trkpt lat="49.37944" lon="1.13701">
        <ele>121.8</ele>
        <time>2011-05-01T11:47:58Z</time>
      </trkpt>
      <trkpt lat="49.37946" lon="1.13695">
        <ele>122</ele>
        <time>2011-05-01T11:48:03Z</time>
      </trkpt>
      <trkpt lat="49.37949" lon="1.13692">
        <ele>122.2</ele>
        <time>2011-05-01T11:48:07Z</time>
      </trkpt>
      <trkpt lat="49.37952" lon="1.1369">
        <ele>122.5</ele>
        <time>2011-05-01T11:48:10Z</time>
      </trkpt>
      <trkpt lat="49.37962" lon="1.13689">
        <ele>123.6</ele>
        <time>2011-05-01T11:48:17Z</time>
      </trkpt>
      <trkpt lat="49.37966" lon="1.13686">
        <ele>123.9</ele>
        <time>2011-05-01T11:48:20Z</time>
      </trkpt>
      <trkpt lat="49.37972" lon="1.13679">
        <ele>124.3</ele>
        <time>2011-05-01T11:48:26Z</time>
      </trkpt>
      <trkpt lat="49.37974" lon="1.13674">
        <ele>124.4</ele>
        <time>2011-05-01T11:48:33Z</time>
      </trkpt>
      <trkpt lat="49.37975" lon="1.13672">
        <ele>124.5</ele>
        <time>2011-05-01T11:48:37Z</time>
      </trkpt>
      <trkpt lat="49.37981" lon="1.13668">
        <ele>125</ele>
        <time>2011-05-01T11:48:45Z</time>
      </trkpt>
      <trkpt lat="49.37989" lon="1.13661">
        <ele>126.5</ele>
        <time>2011-05-01T11:48:53Z</time>
      </trkpt>
      <trkpt lat="49.37992" lon="1.13658">
        <ele>127</ele>
        <time>2011-05-01T11:48:57Z</time>
      </trkpt>
      <trkpt lat="49.37999" lon="1.13652">
        <ele>128.5</ele>
        <time>2011-05-01T11:49:05Z</time>
      </trkpt>
      <trkpt lat="49.38002" lon="1.13649">
        <ele>129.1</ele>
        <time>2011-05-01T11:49:11Z</time>
      </trkpt>
      <trkpt lat="49.38006" lon="1.13648">
        <ele>129.4</ele>
        <time>2011-05-01T11:49:16Z</time>
      </trkpt>
      <trkpt lat="49.3801" lon="1.13648">
        <ele>129.6</ele>
        <time>2011-05-01T11:49:21Z</time>
      </trkpt>
      <trkpt lat="49.38021" lon="1.13649">
        <ele>130.2</ele>
        <time>2011-05-01T11:49:27Z</time>
      </trkpt>
      <trkpt lat="49.38027" lon="1.1365">
        <ele>130.4</ele>
        <time>2011-05-01T11:49:33Z</time>
      </trkpt>
      <trkpt lat="49.38042" lon="1.13655">
        <ele>130.9</ele>
        <time>2011-05-01T11:49:45Z</time>
      </trkpt>
      <trkpt lat="49.38054" lon="1.13658">
        <ele>131.5</ele>
        <time>2011-05-01T11:49:53Z</time>
      </trkpt>
      <trkpt lat="49.38058" lon="1.13661">
        <ele>131.6</ele>
        <time>2011-05-01T11:49:58Z</time>
      </trkpt>
      <trkpt lat="49.38066" lon="1.13666">
        <ele>131.8</ele>
        <time>2011-05-01T11:50:05Z</time>
      </trkpt>
      <trkpt lat="49.38072" lon="1.13669">
        <ele>132.2</ele>
        <time>2011-05-01T11:50:13Z</time>
      </trkpt>
      <trkpt lat="49.38075" lon="1.13672">
        <ele>132.4</ele>
        <time>2011-05-01T11:50:20Z</time>
      </trkpt>
      <trkpt lat="49.38082" lon="1.13685">
        <ele>132.9</ele>
        <time>2011-05-01T11:50:39Z</time>
      </trkpt>
      <trkpt lat="49.3809" lon="1.13691">
        <ele>133.3</ele>
        <time>2011-05-01T11:50:55Z</time>
      </trkpt>
      <trkpt lat="49.38094" lon="1.13691">
        <ele>133.5</ele>
        <time>2011-05-01T11:51:00Z</time>
      </trkpt>
      <trkpt lat="49.38104" lon="1.13688">
        <ele>133.9</ele>
        <time>2011-05-01T11:51:14Z</time>
      </trkpt>
      <trkpt lat="49.38116" lon="1.13694">
        <ele>134.3</ele>
        <time>2011-05-01T11:51:36Z</time>
      </trkpt>
      <trkpt lat="49.38124" lon="1.13705">
        <ele>134.5</ele>
        <time>2011-05-01T11:51:53Z</time>
      </trkpt>
      <trkpt lat="49.38128" lon="1.1371">
        <ele>134.6</ele>
        <time>2011-05-01T11:52:05Z</time>
      </trkpt>
      <trkpt lat="49.38138" lon="1.13713">
        <ele>134.9</ele>
        <time>2011-05-01T11:52:16Z</time>
      </trkpt>
      <trkpt lat="49.38142" lon="1.13717">
        <ele>135</ele>
        <time>2011-05-01T11:52:23Z</time>
      </trkpt>
      <trkpt lat="49.38146" lon="1.13718">
        <ele>135.1</ele>
        <time>2011-05-01T11:52:29Z</time>
      </trkpt>
      <trkpt lat="49.38147" lon="1.1372">
        <ele>135.1</ele>
        <time>2011-05-01T11:52:35Z</time>
      </trkpt>
      <trkpt lat="49.38152" lon="1.13723">
        <ele>135.2</ele>
        <time>2011-05-01T11:52:44Z</time>
      </trkpt>
      <trkpt lat="49.38154" lon="1.13722">
        <ele>135.3</ele>
        <time>2011-05-01T11:52:50Z</time>
      </trkpt>
      <trkpt lat="49.38156" lon="1.13724">
        <ele>135.3</ele>
        <time>2011-05-01T11:52:55Z</time>
      </trkpt>
      <trkpt lat="49.38157" lon="1.13725">
        <ele>135.3</ele>
        <time>2011-05-01T11:53:02Z</time>
      </trkpt>
      <trkpt lat="49.38159" lon="1.13725">
        <ele>135.4</ele>
        <time>2011-05-01T11:53:07Z</time>
      </trkpt>
      <trkpt lat="49.38162" lon="1.13723">
        <ele>135.5</ele>
        <time>2011-05-01T11:53:09Z</time>
      </trkpt>
      <trkpt lat="49.3817" lon="1.13714">
        <ele>135.9</ele>
        <time>2011-05-01T11:53:15Z</time>
      </trkpt>
      <trkpt lat="49.38179" lon="1.13706">
        <ele>136.3</ele>
        <time>2011-05-01T11:53:22Z</time>
      </trkpt>
      <trkpt lat="49.38188" lon="1.13697">
        <ele>136.6</ele>
        <time>2011-05-01T11:53:27Z</time>
      </trkpt>
      <trkpt lat="49.38204" lon="1.13676">
        <ele>137.3</ele>
        <time>2011-05-01T11:53:35Z</time>
      </trkpt>
      <trkpt lat="49.38223" lon="1.13662">
        <ele>137.6</ele>
        <time>2011-05-01T11:53:43Z</time>
      </trkpt>
      <trkpt lat="49.3824" lon="1.13656">
        <ele>137.6</ele>
        <time>2011-05-01T11:53:50Z</time>
      </trkpt>
      <trkpt lat="49.38251" lon="1.13681">
        <ele>137.8</ele>
        <time>2011-05-01T11:53:57Z</time>
      </trkpt>
      <trkpt lat="49.38264" lon="1.13718">
        <ele>137.3</ele>
        <time>2011-05-01T11:54:05Z</time>
      </trkpt>
      <trkpt lat="49.38279" lon="1.13744">
        <ele>137.3</ele>
        <time>2011-05-01T11:54:12Z</time>
      </trkpt>
      <trkpt lat="49.38299" lon="1.13768">
        <ele>137.8</ele>
        <time>2011-05-01T11:54:20Z</time>
      </trkpt>
      <trkpt lat="49.38327" lon="1.13799">
        <ele>138.5</ele>
        <time>2011-05-01T11:54:30Z</time>
      </trkpt>
      <trkpt lat="49.38353" lon="1.13827">
        <ele>138.7</ele>
        <time>2011-05-01T11:54:39Z</time>
      </trkpt>
      <trkpt lat="49.3838" lon="1.13859">
        <ele>138.6</ele>
        <time>2011-05-01T11:54:48Z</time>
      </trkpt>
      <trkpt lat="49.38408" lon="1.13899">
        <ele>138.8</ele>
        <time>2011-05-01T11:54:57Z</time>
      </trkpt>
      <trkpt lat="49.38434" lon="1.13939">
        <ele>140.1</ele>
        <time>2011-05-01T11:55:06Z</time>
      </trkpt>
      <trkpt lat="49.38457" lon="1.13976">
        <ele>141.9</ele>
        <time>2011-05-01T11:55:14Z</time>
      </trkpt>
      <trkpt lat="49.38486" lon="1.14025">
        <ele>143.3</ele>
        <time>2011-05-01T11:55:24Z</time>
      </trkpt>
      <trkpt lat="49.38497" lon="1.14043">
        <ele>143.4</ele>
        <time>2011-05-01T11:55:28Z</time>
      </trkpt>
      <trkpt lat="49.38511" lon="1.14041">
        <ele>143.4</ele>
        <time>2011-05-01T11:55:32Z</time>
      </trkpt>
      <trkpt lat="49.38545" lon="1.14008">
        <ele>143.4</ele>
        <time>2011-05-01T11:55:41Z</time>
      </trkpt>
      <trkpt lat="49.38572" lon="1.13982">
        <ele>142.9</ele>
        <time>2011-05-01T11:55:48Z</time>
      </trkpt>
      <trkpt lat="49.38608" lon="1.13959">
        <ele>142.4</ele>
        <time>2011-05-01T11:55:56Z</time>
      </trkpt>
      <trkpt lat="49.38648" lon="1.13934">
        <ele>141.6</ele>
        <time>2011-05-01T11:56:04Z</time>
      </trkpt>
      <trkpt lat="49.38661" lon="1.13928">
        <ele>141.3</ele>
        <time>2011-05-01T11:56:07Z</time>
      </trkpt>
      <trkpt lat="49.387" lon="1.13903">
        <ele>141.1</ele>
        <time>2011-05-01T11:56:15Z</time>
      </trkpt>
      <trkpt lat="49.3872" lon="1.13885">
        <ele>141.1</ele>
        <time>2011-05-01T11:56:19Z</time>
      </trkpt>
      <trkpt lat="49.3876" lon="1.13844">
        <ele>141.5</ele>
        <time>2011-05-01T11:56:27Z</time>
      </trkpt>
      <trkpt lat="49.38802" lon="1.13803">
        <ele>142.3</ele>
        <time>2011-05-01T11:56:35Z</time>
      </trkpt>
      <trkpt lat="49.38816" lon="1.13787">
        <ele>142.4</ele>
        <time>2011-05-01T11:56:38Z</time>
      </trkpt>
      <trkpt lat="49.38832" lon="1.13784">
        <ele>142.8</ele>
        <time>2011-05-01T11:56:42Z</time>
      </trkpt>
      <trkpt lat="49.38836" lon="1.13795">
        <ele>143.2</ele>
        <time>2011-05-01T11:56:44Z</time>
      </trkpt>
      <trkpt lat="49.38855" lon="1.13866">
        <ele>144.9</ele>
        <time>2011-05-01T11:56:56Z</time>
      </trkpt>
      <trkpt lat="49.38868" lon="1.13918">
        <ele>145.8</ele>
        <time>2011-05-01T11:57:05Z</time>
      </trkpt>
      <trkpt lat="49.38884" lon="1.13977">
        <ele>143.9</ele>
        <time>2011-05-01T11:57:15Z</time>
      </trkpt>
      <trkpt lat="49.38895" lon="1.1402">
        <ele>143.6</ele>
        <time>2011-05-01T11:57:23Z</time>
      </trkpt>
      <trkpt lat="49.3889" lon="1.14036">
        <ele>143.2</ele>
        <time>2011-05-01T11:57:27Z</time>
      </trkpt>
      <trkpt lat="49.38887" lon="1.14038">
        <ele>143.1</ele>
        <time>2011-05-01T11:57:28Z</time>
      </trkpt>
      <trkpt lat="49.38866" lon="1.14055">
        <ele>142.1</ele>
        <time>2011-05-01T11:57:36Z</time>
      </trkpt>
      <trkpt lat="49.38853" lon="1.14072">
        <ele>141.6</ele>
        <time>2011-05-01T11:57:43Z</time>
      </trkpt>
      <trkpt lat="49.38852" lon="1.14076">
        <ele>141.6</ele>
        <time>2011-05-01T11:57:45Z</time>
      </trkpt>
      <trkpt lat="49.38852" lon="1.1408">
        <ele>141.7</ele>
        <time>2011-05-01T11:57:52Z</time>
      </trkpt>
      <trkpt lat="49.38857" lon="1.14082">
        <ele>141.8</ele>
        <time>2011-05-01T11:57:58Z</time>
      </trkpt>
      <trkpt lat="49.3885" lon="1.14079">
        <ele>141.6</ele>
        <time>2011-05-01T11:58:13Z</time>
      </trkpt>
      <trkpt lat="49.38847" lon="1.14086">
        <ele>141.6</ele>
        <time>2011-05-01T11:58:18Z</time>
      </trkpt>
      <trkpt lat="49.38851" lon="1.1409">
        <ele>141.8</ele>
        <time>2011-05-01T11:58:26Z</time>
      </trkpt>
      <trkpt lat="49.38854" lon="1.14086">
        <ele>141.8</ele>
        <time>2011-05-01T11:58:31Z</time>
      </trkpt>
      <trkpt lat="49.38853" lon="1.14085">
        <ele>141.7</ele>
        <time>2011-05-01T11:58:41Z</time>
      </trkpt>
      <trkpt lat="49.38853" lon="1.14089">
        <ele>141.8</ele>
        <time>2011-05-01T11:58:43Z</time>
      </trkpt>
      <trkpt lat="49.38858" lon="1.14098">
        <ele>142.2</ele>
        <time>2011-05-01T11:58:49Z</time>
      </trkpt>
      <trkpt lat="49.38862" lon="1.14098">
        <ele>142.3</ele>
        <time>2011-05-01T11:58:52Z</time>
      </trkpt>
      <trkpt lat="49.38869" lon="1.14095">
        <ele>142.5</ele>
        <time>2011-05-01T11:59:00Z</time>
      </trkpt>
      <trkpt lat="49.38875" lon="1.14107">
        <ele>142.9</ele>
        <time>2011-05-01T11:59:11Z</time>
      </trkpt>
      <trkpt lat="49.38876" lon="1.14112">
        <ele>143</ele>
        <time>2011-05-01T11:59:14Z</time>
      </trkpt>
      <trkpt lat="49.38876" lon="1.14118">
        <ele>143.1</ele>
        <time>2011-05-01T11:59:20Z</time>
      </trkpt>
      <trkpt lat="49.38879" lon="1.14123">
        <ele>143.3</ele>
        <time>2011-05-01T11:59:25Z</time>
      </trkpt>
      <trkpt lat="49.38889" lon="1.14132">
        <ele>143.8</ele>
        <time>2011-05-01T11:59:32Z</time>
      </trkpt>
      <trkpt lat="49.38886" lon="1.14136">
        <ele>143.7</ele>
        <time>2011-05-01T11:59:35Z</time>
      </trkpt>
      <trkpt lat="49.38886" lon="1.14143">
        <ele>143.9</ele>
        <time>2011-05-01T11:59:39Z</time>
      </trkpt>
      <trkpt lat="49.38876" lon="1.14146">
        <ele>143.7</ele>
        <time>2011-05-01T11:59:45Z</time>
      </trkpt>
      <trkpt lat="49.38873" lon="1.14146">
        <ele>143.6</ele>
        <time>2011-05-01T11:59:50Z</time>
      </trkpt>
      <trkpt lat="49.3887" lon="1.14147">
        <ele>143.5</ele>
        <time>2011-05-01T11:59:56Z</time>
      </trkpt>
      <trkpt lat="49.38872" lon="1.14153">
        <ele>143.7</ele>
        <time>2011-05-01T12:00:05Z</time>
      </trkpt>
      <trkpt lat="49.38872" lon="1.14151">
        <ele>143.6</ele>
        <time>2011-05-01T12:00:14Z</time>
      </trkpt>
      <trkpt lat="49.3887" lon="1.14154">
        <ele>143.6</ele>
        <time>2011-05-01T12:00:20Z</time>
      </trkpt>
      <trkpt lat="49.38869" lon="1.14157">
        <ele>143.7</ele>
        <time>2011-05-01T12:00:35Z</time>
      </trkpt>
      <trkpt lat="49.38874" lon="1.14152">
        <ele>143.7</ele>
        <time>2011-05-01T12:00:42Z</time>
      </trkpt>
      <trkpt lat="49.38878" lon="1.14148">
        <ele>143.7</ele>
        <time>2011-05-01T12:00:49Z</time>
      </trkpt>
      <trkpt lat="49.38878" lon="1.14151">
        <ele>143.8</ele>
        <time>2011-05-01T12:00:52Z</time>
      </trkpt>
      <trkpt lat="49.38864" lon="1.14151">
        <ele>143.4</ele>
        <time>2011-05-01T12:00:57Z</time>
      </trkpt>
      <trkpt lat="49.38861" lon="1.14149">
        <ele>143.3</ele>
        <time>2011-05-01T12:00:59Z</time>
      </trkpt>
      <trkpt lat="49.3885" lon="1.14149">
        <ele>143</ele>
        <time>2011-05-01T12:01:04Z</time>
      </trkpt>
      <trkpt lat="49.38854" lon="1.14143">
        <ele>143</ele>
        <time>2011-05-01T12:01:10Z</time>
      </trkpt>
      <trkpt lat="49.38852" lon="1.14132">
        <ele>142.7</ele>
        <time>2011-05-01T12:01:15Z</time>
      </trkpt>
      <trkpt lat="49.38851" lon="1.14133">
        <ele>142.7</ele>
        <time>2011-05-01T12:01:16Z</time>
      </trkpt>
      <trkpt lat="49.38844" lon="1.14135">
        <ele>142.5</ele>
        <time>2011-05-01T12:01:22Z</time>
      </trkpt>
      <trkpt lat="49.38847" lon="1.14139">
        <ele>142.7</ele>
        <time>2011-05-01T12:01:36Z</time>
      </trkpt>
      <trkpt lat="49.38859" lon="1.14133">
        <ele>142.9</ele>
        <time>2011-05-01T12:01:43Z</time>
      </trkpt>
      <trkpt lat="49.38854" lon="1.14135">
        <ele>142.8</ele>
        <time>2011-05-01T12:01:49Z</time>
      </trkpt>
      <trkpt lat="49.38851" lon="1.14135">
        <ele>142.7</ele>
        <time>2011-05-01T12:01:52Z</time>
      </trkpt>
      <trkpt lat="49.38847" lon="1.14133">
        <ele>142.6</ele>
        <time>2011-05-01T12:01:58Z</time>
      </trkpt>
      <trkpt lat="49.38848" lon="1.14126">
        <ele>142.5</ele>
        <time>2011-05-01T12:02:09Z</time>
      </trkpt>
      <trkpt lat="49.38838" lon="1.14129">
        <ele>142.2</ele>
        <time>2011-05-01T12:02:15Z</time>
      </trkpt>
      <trkpt lat="49.38839" lon="1.14129">
        <ele>142.3</ele>
        <time>2011-05-01T12:02:16Z</time>
      </trkpt>
      <trkpt lat="49.38835" lon="1.14138">
        <ele>142.4</ele>
        <time>2011-05-01T12:02:23Z</time>
      </trkpt>
      <trkpt lat="49.38836" lon="1.14138">
        <ele>142.4</ele>
        <time>2011-05-01T12:02:31Z</time>
      </trkpt>
      <trkpt lat="49.38839" lon="1.1414">
        <ele>142.5</ele>
        <time>2011-05-01T12:03:00Z</time>
      </trkpt>
      <trkpt lat="49.38834" lon="1.14137">
        <ele>142.3</ele>
        <time>2011-05-01T12:03:12Z</time>
      </trkpt>
      <trkpt lat="49.3883" lon="1.14135">
        <ele>142.3</ele>
        <time>2011-05-01T12:03:18Z</time>
      </trkpt>
      <trkpt lat="49.38834" lon="1.14128">
        <ele>142.1</ele>
        <time>2011-05-01T12:03:24Z</time>
      </trkpt>
      <trkpt lat="49.38833" lon="1.14128">
        <ele>142.1</ele>
        <time>2011-05-01T12:03:34Z</time>
      </trkpt>
      <trkpt lat="49.38839" lon="1.14124">
        <ele>142.1</ele>
        <time>2011-05-01T12:03:39Z</time>
      </trkpt>
      <trkpt lat="49.38846" lon="1.14134">
        <ele>142.6</ele>
        <time>2011-05-01T12:03:58Z</time>
      </trkpt>
      <trkpt lat="49.38841" lon="1.14133">
        <ele>142.4</ele>
        <time>2011-05-01T12:04:02Z</time>
      </trkpt>
    </trkseg>
  </trk>
</gpx>